<?xml version="1.0" encoding="UTF-8" standalone="no" ?>
<gpx xmlns="http://www.topografix.com/GPX/1/1" xmlns:xsi="http://www.w3.org/2001/XMLSchema-instance" xsi:schemaLocation="http://www.topografix.com/GPX/1/1 http://www.topografix.com/GPX/1/1/gpx.xsd" version="1.1" creator="VisuGPX - https://www.visugpx.com">
  <metadata>
    <name>St Laurent l'Abbaye </name>
    <desc><![CDATA[Belle rando et à l'arrivée ; Champagne ! J'adore la rando  ]]></desc>
  </metadata>
  <trk>
    <name><![CDATA[St Laurent l'Abbaye _1]]></name>
    <trkseg>
      <trkpt lat="47.34285" lon="2.98981">
        <ele>171.48876953125</ele>
        <time>2016-03-30T11:52:18.000Z</time>
      </trkpt>
      <trkpt lat="47.34283" lon="2.98987">
        <ele>171.56536865234</ele>
        <time>2016-03-30T11:52:19.000Z</time>
      </trkpt>
      <trkpt lat="47.34278" lon="2.98991">
        <ele>171.6665802002</ele>
        <time>2016-03-30T11:52:23.000Z</time>
      </trkpt>
      <trkpt lat="47.34277" lon="2.98994">
        <ele>171.74313354492</ele>
        <time>2016-03-30T11:52:30.000Z</time>
      </trkpt>
      <trkpt lat="47.34275" lon="2.98997">
        <ele>171.80419921875</ele>
        <time>2016-03-30T11:52:31.000Z</time>
      </trkpt>
      <trkpt lat="47.34274" lon="2.99002">
        <ele>171.92832946777</ele>
        <time>2016-03-30T11:52:31.000Z</time>
      </trkpt>
      <trkpt lat="47.34271" lon="2.99005">
        <ele>172.0251159668</ele>
        <time>2016-03-30T11:52:33.000Z</time>
      </trkpt>
      <trkpt lat="47.34271" lon="2.99008">
        <ele>172.06652832031</ele>
        <time>2016-03-30T11:52:33.000Z</time>
      </trkpt>
      <trkpt lat="47.34269" lon="2.99011">
        <ele>172.08901977539</ele>
        <time>2016-03-30T11:52:33.000Z</time>
      </trkpt>
      <trkpt lat="47.34269" lon="2.99012">
        <ele>172.09448242188</ele>
        <time>2016-03-30T11:52:34.000Z</time>
      </trkpt>
      <trkpt lat="47.34268" lon="2.99014">
        <ele>172.0785369873</ele>
        <time>2016-03-30T11:52:36.000Z</time>
      </trkpt>
      <trkpt lat="47.34267" lon="2.99019">
        <ele>172.05223083496</ele>
        <time>2016-03-30T11:52:39.000Z</time>
      </trkpt>
      <trkpt lat="47.34267" lon="2.99021">
        <ele>172.02310180664</ele>
        <time>2016-03-30T11:52:41.000Z</time>
      </trkpt>
      <trkpt lat="47.34267" lon="2.99023">
        <ele>171.9790802002</ele>
        <time>2016-03-30T11:52:43.000Z</time>
      </trkpt>
      <trkpt lat="47.34269" lon="2.99028">
        <ele>171.91108703613</ele>
        <time>2016-03-30T11:52:46.000Z</time>
      </trkpt>
      <trkpt lat="47.3427" lon="2.99031">
        <ele>171.82745361328</ele>
        <time>2016-03-30T11:52:49.000Z</time>
      </trkpt>
      <trkpt lat="47.34272" lon="2.99032">
        <ele>171.73522949219</ele>
        <time>2016-03-30T11:52:51.000Z</time>
      </trkpt>
      <trkpt lat="47.34273" lon="2.99034">
        <ele>171.64108276367</ele>
        <time>2016-03-30T11:52:53.000Z</time>
      </trkpt>
      <trkpt lat="47.34275" lon="2.99038">
        <ele>171.53553771973</ele>
        <time>2016-03-30T11:52:56.000Z</time>
      </trkpt>
      <trkpt lat="47.34276" lon="2.99039">
        <ele>171.44148254395</ele>
        <time>2016-03-30T11:52:58.000Z</time>
      </trkpt>
      <trkpt lat="47.34279" lon="2.99043">
        <ele>171.33946228027</ele>
        <time>2016-03-30T11:53:01.000Z</time>
      </trkpt>
      <trkpt lat="47.34282" lon="2.99046">
        <ele>171.22500610352</ele>
        <time>2016-03-30T11:53:04.000Z</time>
      </trkpt>
      <trkpt lat="47.34285" lon="2.9905">
        <ele>171.09342956543</ele>
        <time>2016-03-30T11:53:07.000Z</time>
      </trkpt>
      <trkpt lat="47.34285" lon="2.99052">
        <ele>170.97402954102</ele>
        <time>2016-03-30T11:53:10.000Z</time>
      </trkpt>
      <trkpt lat="47.34285" lon="2.99054">
        <ele>170.86053466797</ele>
        <time>2016-03-30T11:53:13.000Z</time>
      </trkpt>
      <trkpt lat="47.34285" lon="2.99057">
        <ele>170.76861572266</ele>
        <time>2016-03-30T11:53:15.000Z</time>
      </trkpt>
      <trkpt lat="47.34285" lon="2.99059">
        <ele>170.69995117188</ele>
        <time>2016-03-30T11:53:17.000Z</time>
      </trkpt>
      <trkpt lat="47.34283" lon="2.99063">
        <ele>170.65994262695</ele>
        <time>2016-03-30T11:53:20.000Z</time>
      </trkpt>
      <trkpt lat="47.34282" lon="2.99067">
        <ele>170.62451171875</ele>
        <time>2016-03-30T11:53:22.000Z</time>
      </trkpt>
      <trkpt lat="47.3428" lon="2.99068">
        <ele>170.59823608398</ele>
        <time>2016-03-30T11:53:24.000Z</time>
      </trkpt>
      <trkpt lat="47.34277" lon="2.99071">
        <ele>170.58834838867</ele>
        <time>2016-03-30T11:53:27.000Z</time>
      </trkpt>
      <trkpt lat="47.34274" lon="2.99074">
        <ele>170.58700561523</ele>
        <time>2016-03-30T11:53:30.000Z</time>
      </trkpt>
      <trkpt lat="47.34272" lon="2.99076">
        <ele>170.58834838867</ele>
        <time>2016-03-30T11:53:32.000Z</time>
      </trkpt>
      <trkpt lat="47.34271" lon="2.99078">
        <ele>170.59623718262</ele>
        <time>2016-03-30T11:53:35.000Z</time>
      </trkpt>
      <trkpt lat="47.3427" lon="2.99081">
        <ele>170.59994506836</ele>
        <time>2016-03-30T11:53:37.000Z</time>
      </trkpt>
      <trkpt lat="47.34269" lon="2.99084">
        <ele>170.59225463867</ele>
        <time>2016-03-30T11:53:39.000Z</time>
      </trkpt>
      <trkpt lat="47.34267" lon="2.99088">
        <ele>170.58076477051</ele>
        <time>2016-03-30T11:53:42.000Z</time>
      </trkpt>
      <trkpt lat="47.34266" lon="2.99091">
        <ele>170.57748413086</ele>
        <time>2016-03-30T11:53:45.000Z</time>
      </trkpt>
      <trkpt lat="47.34264" lon="2.99093">
        <ele>170.58224487305</ele>
        <time>2016-03-30T11:53:47.000Z</time>
      </trkpt>
      <trkpt lat="47.34261" lon="2.99097">
        <ele>170.60575866699</ele>
        <time>2016-03-30T11:53:50.000Z</time>
      </trkpt>
      <trkpt lat="47.34259" lon="2.99099">
        <ele>170.6434173584</ele>
        <time>2016-03-30T11:53:52.000Z</time>
      </trkpt>
      <trkpt lat="47.34258" lon="2.99102">
        <ele>170.68695068359</ele>
        <time>2016-03-30T11:53:54.000Z</time>
      </trkpt>
      <trkpt lat="47.34257" lon="2.99104">
        <ele>170.72666931152</ele>
        <time>2016-03-30T11:53:56.000Z</time>
      </trkpt>
      <trkpt lat="47.34257" lon="2.99106">
        <ele>170.7610168457</ele>
        <time>2016-03-30T11:53:58.000Z</time>
      </trkpt>
      <trkpt lat="47.34255" lon="2.99112">
        <ele>170.78851318359</ele>
        <time>2016-03-30T11:54:01.000Z</time>
      </trkpt>
      <trkpt lat="47.34253" lon="2.99115">
        <ele>170.82333374023</ele>
        <time>2016-03-30T11:54:03.000Z</time>
      </trkpt>
      <trkpt lat="47.3425" lon="2.9912">
        <ele>170.86853027344</ele>
        <time>2016-03-30T11:54:06.000Z</time>
      </trkpt>
      <trkpt lat="47.34249" lon="2.99124">
        <ele>170.9158782959</ele>
        <time>2016-03-30T11:54:09.000Z</time>
      </trkpt>
      <trkpt lat="47.34247" lon="2.99127">
        <ele>170.96951293945</ele>
        <time>2016-03-30T11:54:12.000Z</time>
      </trkpt>
      <trkpt lat="47.34245" lon="2.99132">
        <ele>171.02445983887</ele>
        <time>2016-03-30T11:54:15.000Z</time>
      </trkpt>
      <trkpt lat="47.34244" lon="2.99135">
        <ele>171.07014465332</ele>
        <time>2016-03-30T11:54:17.000Z</time>
      </trkpt>
      <trkpt lat="47.34242" lon="2.99139">
        <ele>171.107421875</ele>
        <time>2016-03-30T11:54:20.000Z</time>
      </trkpt>
      <trkpt lat="47.34241" lon="2.99141">
        <ele>171.14453125</ele>
        <time>2016-03-30T11:54:22.000Z</time>
      </trkpt>
      <trkpt lat="47.3424" lon="2.99145">
        <ele>171.1796875</ele>
        <time>2016-03-30T11:54:25.000Z</time>
      </trkpt>
      <trkpt lat="47.34239" lon="2.99149">
        <ele>171.2109375</ele>
        <time>2016-03-30T11:54:27.000Z</time>
      </trkpt>
      <trkpt lat="47.34236" lon="2.99153">
        <ele>171.248046875</ele>
        <time>2016-03-30T11:54:30.000Z</time>
      </trkpt>
      <trkpt lat="47.34235" lon="2.99155">
        <ele>171.28125</ele>
        <time>2016-03-30T11:54:32.000Z</time>
      </trkpt>
      <trkpt lat="47.34233" lon="2.99159">
        <ele>171.322265625</ele>
        <time>2016-03-30T11:54:34.000Z</time>
      </trkpt>
      <trkpt lat="47.34229" lon="2.99164">
        <ele>171.375</ele>
        <time>2016-03-30T11:54:37.000Z</time>
      </trkpt>
      <trkpt lat="47.34227" lon="2.99167">
        <ele>171.42594909668</ele>
        <time>2016-03-30T11:54:39.000Z</time>
      </trkpt>
      <trkpt lat="47.34224" lon="2.99171">
        <ele>171.45611572266</ele>
        <time>2016-03-30T11:54:42.000Z</time>
      </trkpt>
      <trkpt lat="47.34222" lon="2.99176">
        <ele>171.46492004395</ele>
        <time>2016-03-30T11:54:45.000Z</time>
      </trkpt>
      <trkpt lat="47.34221" lon="2.99179">
        <ele>171.44143676758</ele>
        <time>2016-03-30T11:54:47.000Z</time>
      </trkpt>
      <trkpt lat="47.34219" lon="2.99185">
        <ele>171.36787414551</ele>
        <time>2016-03-30T11:54:50.000Z</time>
      </trkpt>
      <trkpt lat="47.34219" lon="2.99189">
        <ele>171.26388549805</ele>
        <time>2016-03-30T11:54:53.000Z</time>
      </trkpt>
      <trkpt lat="47.34218" lon="2.99195">
        <ele>171.13467407227</ele>
        <time>2016-03-30T11:54:56.000Z</time>
      </trkpt>
      <trkpt lat="47.34216" lon="2.99199">
        <ele>171.00186157227</ele>
        <time>2016-03-30T11:54:59.000Z</time>
      </trkpt>
      <trkpt lat="47.34214" lon="2.99201">
        <ele>170.87612915039</ele>
        <time>2016-03-30T11:55:01.000Z</time>
      </trkpt>
      <trkpt lat="47.34212" lon="2.99203">
        <ele>170.77398681641</ele>
        <time>2016-03-30T11:55:03.000Z</time>
      </trkpt>
      <trkpt lat="47.34209" lon="2.99207">
        <ele>170.68003845215</ele>
        <time>2016-03-30T11:55:06.000Z</time>
      </trkpt>
      <trkpt lat="47.34208" lon="2.99211">
        <ele>170.5977935791</ele>
        <time>2016-03-30T11:55:09.000Z</time>
      </trkpt>
      <trkpt lat="47.34205" lon="2.99215">
        <ele>170.50650024414</ele>
        <time>2016-03-30T11:55:12.000Z</time>
      </trkpt>
      <trkpt lat="47.34204" lon="2.99219">
        <ele>170.4047088623</ele>
        <time>2016-03-30T11:55:14.000Z</time>
      </trkpt>
      <trkpt lat="47.34202" lon="2.99225">
        <ele>170.26878356934</ele>
        <time>2016-03-30T11:55:17.000Z</time>
      </trkpt>
      <trkpt lat="47.34201" lon="2.99229">
        <ele>170.11938476562</ele>
        <time>2016-03-30T11:55:20.000Z</time>
      </trkpt>
      <trkpt lat="47.342" lon="2.99232">
        <ele>169.97210693359</ele>
        <time>2016-03-30T11:55:22.000Z</time>
      </trkpt>
      <trkpt lat="47.34199" lon="2.99237">
        <ele>169.8207244873</ele>
        <time>2016-03-30T11:55:25.000Z</time>
      </trkpt>
      <trkpt lat="47.34197" lon="2.9924">
        <ele>169.66548156738</ele>
        <time>2016-03-30T11:55:27.000Z</time>
      </trkpt>
      <trkpt lat="47.34195" lon="2.99245">
        <ele>169.51657104492</ele>
        <time>2016-03-30T11:55:30.000Z</time>
      </trkpt>
      <trkpt lat="47.34194" lon="2.99247">
        <ele>169.38084411621</ele>
        <time>2016-03-30T11:55:32.000Z</time>
      </trkpt>
      <trkpt lat="47.34192" lon="2.99251">
        <ele>169.23863220215</ele>
        <time>2016-03-30T11:55:35.000Z</time>
      </trkpt>
      <trkpt lat="47.34191" lon="2.99255">
        <ele>169.11001586914</ele>
        <time>2016-03-30T11:55:37.000Z</time>
      </trkpt>
      <trkpt lat="47.3419" lon="2.99258">
        <ele>168.99638366699</ele>
        <time>2016-03-30T11:55:39.000Z</time>
      </trkpt>
      <trkpt lat="47.34189" lon="2.99262">
        <ele>168.8967590332</ele>
        <time>2016-03-30T11:55:42.000Z</time>
      </trkpt>
      <trkpt lat="47.34188" lon="2.99267">
        <ele>168.79479980469</ele>
        <time>2016-03-30T11:55:45.000Z</time>
      </trkpt>
      <trkpt lat="47.34186" lon="2.9927">
        <ele>168.70520019531</ele>
        <time>2016-03-30T11:55:47.000Z</time>
      </trkpt>
      <trkpt lat="47.34184" lon="2.99273">
        <ele>168.61791992188</ele>
        <time>2016-03-30T11:55:49.000Z</time>
      </trkpt>
      <trkpt lat="47.3418" lon="2.99277">
        <ele>168.52514648438</ele>
        <time>2016-03-30T11:55:51.000Z</time>
      </trkpt>
      <trkpt lat="47.34178" lon="2.99282">
        <ele>168.43115234375</ele>
        <time>2016-03-30T11:55:54.000Z</time>
      </trkpt>
      <trkpt lat="47.34177" lon="2.99286">
        <ele>168.33813476562</ele>
        <time>2016-03-30T11:55:57.000Z</time>
      </trkpt>
      <trkpt lat="47.34174" lon="2.99291">
        <ele>168.23645019531</ele>
        <time>2016-03-30T11:56:00.000Z</time>
      </trkpt>
      <trkpt lat="47.34173" lon="2.99294">
        <ele>168.13684082031</ele>
        <time>2016-03-30T11:56:02.000Z</time>
      </trkpt>
      <trkpt lat="47.34172" lon="2.99297">
        <ele>168.04211425781</ele>
        <time>2016-03-30T11:56:04.000Z</time>
      </trkpt>
      <trkpt lat="47.34169" lon="2.993">
        <ele>167.95678710938</ele>
        <time>2016-03-30T11:56:07.000Z</time>
      </trkpt>
      <trkpt lat="47.34167" lon="2.99305">
        <ele>167.86401367188</ele>
        <time>2016-03-30T11:56:10.000Z</time>
      </trkpt>
      <trkpt lat="47.34166" lon="2.99309">
        <ele>167.7776184082</ele>
        <time>2016-03-30T11:56:12.000Z</time>
      </trkpt>
      <trkpt lat="47.34165" lon="2.99311">
        <ele>167.69345092773</ele>
        <time>2016-03-30T11:56:14.000Z</time>
      </trkpt>
      <trkpt lat="47.34163" lon="2.99315">
        <ele>167.60122680664</ele>
        <time>2016-03-30T11:56:17.000Z</time>
      </trkpt>
      <trkpt lat="47.34162" lon="2.99319">
        <ele>167.50810241699</ele>
        <time>2016-03-30T11:56:20.000Z</time>
      </trkpt>
      <trkpt lat="47.3416" lon="2.99322">
        <ele>167.42613220215</ele>
        <time>2016-03-30T11:56:22.000Z</time>
      </trkpt>
      <trkpt lat="47.34158" lon="2.99326">
        <ele>167.34341430664</ele>
        <time>2016-03-30T11:56:24.000Z</time>
      </trkpt>
      <trkpt lat="47.34156" lon="2.99331">
        <ele>167.25126647949</ele>
        <time>2016-03-30T11:56:27.000Z</time>
      </trkpt>
      <trkpt lat="47.34155" lon="2.99337">
        <ele>167.16078186035</ele>
        <time>2016-03-30T11:56:30.000Z</time>
      </trkpt>
      <trkpt lat="47.34153" lon="2.9934">
        <ele>167.07858276367</ele>
        <time>2016-03-30T11:56:33.000Z</time>
      </trkpt>
      <trkpt lat="47.34152" lon="2.99344">
        <ele>167.00578308105</ele>
        <time>2016-03-30T11:56:36.000Z</time>
      </trkpt>
      <trkpt lat="47.3415" lon="2.99347">
        <ele>166.94519042969</ele>
        <time>2016-03-30T11:56:39.000Z</time>
      </trkpt>
      <trkpt lat="47.34148" lon="2.9935">
        <ele>166.90274047852</ele>
        <time>2016-03-30T11:56:41.000Z</time>
      </trkpt>
      <trkpt lat="47.34146" lon="2.99354">
        <ele>166.87223815918</ele>
        <time>2016-03-30T11:56:44.000Z</time>
      </trkpt>
      <trkpt lat="47.34145" lon="2.99357">
        <ele>166.84465026855</ele>
        <time>2016-03-30T11:56:46.000Z</time>
      </trkpt>
      <trkpt lat="47.34143" lon="2.99362">
        <ele>166.81608581543</ele>
        <time>2016-03-30T11:56:49.000Z</time>
      </trkpt>
      <trkpt lat="47.34141" lon="2.99365">
        <ele>166.78973388672</ele>
        <time>2016-03-30T11:56:51.000Z</time>
      </trkpt>
      <trkpt lat="47.34138" lon="2.9937">
        <ele>166.76329040527</ele>
        <time>2016-03-30T11:56:54.000Z</time>
      </trkpt>
      <trkpt lat="47.34136" lon="2.99373">
        <ele>166.73959350586</ele>
        <time>2016-03-30T11:56:56.000Z</time>
      </trkpt>
      <trkpt lat="47.34134" lon="2.99378">
        <ele>166.71542358398</ele>
        <time>2016-03-30T11:56:59.000Z</time>
      </trkpt>
      <trkpt lat="47.34132" lon="2.99381">
        <ele>166.69717407227</ele>
        <time>2016-03-30T11:57:01.000Z</time>
      </trkpt>
      <trkpt lat="47.34131" lon="2.99383">
        <ele>166.68008422852</ele>
        <time>2016-03-30T11:57:03.000Z</time>
      </trkpt>
      <trkpt lat="47.34129" lon="2.99389">
        <ele>166.66580200195</ele>
        <time>2016-03-30T11:57:06.000Z</time>
      </trkpt>
      <trkpt lat="47.34128" lon="2.99391">
        <ele>166.65298461914</ele>
        <time>2016-03-30T11:57:08.000Z</time>
      </trkpt>
      <trkpt lat="47.34125" lon="2.99396">
        <ele>166.64321899414</ele>
        <time>2016-03-30T11:57:11.000Z</time>
      </trkpt>
      <trkpt lat="47.34123" lon="2.994">
        <ele>166.63333129883</ele>
        <time>2016-03-30T11:57:14.000Z</time>
      </trkpt>
      <trkpt lat="47.34122" lon="2.99403">
        <ele>166.6247253418</ele>
        <time>2016-03-30T11:57:16.000Z</time>
      </trkpt>
      <trkpt lat="47.3412" lon="2.99406">
        <ele>166.6187286377</ele>
        <time>2016-03-30T11:57:19.000Z</time>
      </trkpt>
      <trkpt lat="47.34118" lon="2.9941">
        <ele>166.61654663086</ele>
        <time>2016-03-30T11:57:22.000Z</time>
      </trkpt>
      <trkpt lat="47.34116" lon="2.99413">
        <ele>166.61781311035</ele>
        <time>2016-03-30T11:57:24.000Z</time>
      </trkpt>
      <trkpt lat="47.34114" lon="2.99418">
        <ele>166.62077331543</ele>
        <time>2016-03-30T11:57:27.000Z</time>
      </trkpt>
      <trkpt lat="47.34113" lon="2.99423">
        <ele>166.62753295898</ele>
        <time>2016-03-30T11:57:30.000Z</time>
      </trkpt>
      <trkpt lat="47.34111" lon="2.99428">
        <ele>166.63909912109</ele>
        <time>2016-03-30T11:57:33.000Z</time>
      </trkpt>
      <trkpt lat="47.3411" lon="2.99431">
        <ele>166.65147399902</ele>
        <time>2016-03-30T11:57:35.000Z</time>
      </trkpt>
      <trkpt lat="47.34109" lon="2.99433">
        <ele>166.6640625</ele>
        <time>2016-03-30T11:57:37.000Z</time>
      </trkpt>
      <trkpt lat="47.34108" lon="2.99436">
        <ele>166.6796875</ele>
        <time>2016-03-30T11:57:39.000Z</time>
      </trkpt>
      <trkpt lat="47.34106" lon="2.9944">
        <ele>166.6962890625</ele>
        <time>2016-03-30T11:57:41.000Z</time>
      </trkpt>
      <trkpt lat="47.34104" lon="2.99445">
        <ele>166.712890625</ele>
        <time>2016-03-30T11:57:44.000Z</time>
      </trkpt>
      <trkpt lat="47.34102" lon="2.99449">
        <ele>166.73046875</ele>
        <time>2016-03-30T11:57:47.000Z</time>
      </trkpt>
      <trkpt lat="47.34101" lon="2.99452">
        <ele>166.748046875</ele>
        <time>2016-03-30T11:57:49.000Z</time>
      </trkpt>
      <trkpt lat="47.34099" lon="2.99456">
        <ele>166.7685546875</ele>
        <time>2016-03-30T11:57:52.000Z</time>
      </trkpt>
      <trkpt lat="47.34098" lon="2.99459">
        <ele>166.7890625</ele>
        <time>2016-03-30T11:57:54.000Z</time>
      </trkpt>
      <trkpt lat="47.34097" lon="2.99465">
        <ele>166.8046875</ele>
        <time>2016-03-30T11:57:57.000Z</time>
      </trkpt>
      <trkpt lat="47.34099" lon="2.9947">
        <ele>166.8134765625</ele>
        <time>2016-03-30T11:58:00.000Z</time>
      </trkpt>
      <trkpt lat="47.341" lon="2.99472">
        <ele>166.818359375</ele>
        <time>2016-03-30T11:58:02.000Z</time>
      </trkpt>
      <trkpt lat="47.34101" lon="2.99475">
        <ele>166.8134765625</ele>
        <time>2016-03-30T11:58:04.000Z</time>
      </trkpt>
      <trkpt lat="47.34103" lon="2.9948">
        <ele>166.7998046875</ele>
        <time>2016-03-30T11:58:07.000Z</time>
      </trkpt>
      <trkpt lat="47.34105" lon="2.99484">
        <ele>166.7822265625</ele>
        <time>2016-03-30T11:58:09.000Z</time>
      </trkpt>
      <trkpt lat="47.34106" lon="2.99489">
        <ele>166.763671875</ele>
        <time>2016-03-30T11:58:12.000Z</time>
      </trkpt>
      <trkpt lat="47.34108" lon="2.99495">
        <ele>166.7421875</ele>
        <time>2016-03-30T11:58:15.000Z</time>
      </trkpt>
      <trkpt lat="47.34109" lon="2.99498">
        <ele>166.7236328125</ele>
        <time>2016-03-30T11:58:17.000Z</time>
      </trkpt>
      <trkpt lat="47.34111" lon="2.99501">
        <ele>166.71383666992</ele>
        <time>2016-03-30T11:58:20.000Z</time>
      </trkpt>
      <trkpt lat="47.34111" lon="2.99505">
        <ele>166.73550415039</ele>
        <time>2016-03-30T11:58:23.000Z</time>
      </trkpt>
      <trkpt lat="47.34112" lon="2.9951">
        <ele>166.79582214355</ele>
        <time>2016-03-30T11:58:26.000Z</time>
      </trkpt>
      <trkpt lat="47.34112" lon="2.99513">
        <ele>166.88279724121</ele>
        <time>2016-03-30T11:58:28.000Z</time>
      </trkpt>
      <trkpt lat="47.34111" lon="2.99518">
        <ele>167.00996398926</ele>
        <time>2016-03-30T11:58:31.000Z</time>
      </trkpt>
      <trkpt lat="47.34111" lon="2.99524">
        <ele>167.17266845703</ele>
        <time>2016-03-30T11:58:34.000Z</time>
      </trkpt>
      <trkpt lat="47.34111" lon="2.99528">
        <ele>167.33926391602</ele>
        <time>2016-03-30T11:58:36.000Z</time>
      </trkpt>
      <trkpt lat="47.34111" lon="2.99535">
        <ele>167.51846313477</ele>
        <time>2016-03-30T11:58:39.000Z</time>
      </trkpt>
      <trkpt lat="47.34111" lon="2.99539">
        <ele>167.70932006836</ele>
        <time>2016-03-30T11:58:42.000Z</time>
      </trkpt>
      <trkpt lat="47.34111" lon="2.99544">
        <ele>167.89126586914</ele>
        <time>2016-03-30T11:58:45.000Z</time>
      </trkpt>
      <trkpt lat="47.34111" lon="2.99547">
        <ele>168.05732727051</ele>
        <time>2016-03-30T11:58:47.000Z</time>
      </trkpt>
      <trkpt lat="47.34113" lon="2.99552">
        <ele>168.22856140137</ele>
        <time>2016-03-30T11:58:50.000Z</time>
      </trkpt>
      <trkpt lat="47.34114" lon="2.99557">
        <ele>168.39260864258</ele>
        <time>2016-03-30T11:58:53.000Z</time>
      </trkpt>
      <trkpt lat="47.34114" lon="2.99561">
        <ele>168.55973815918</ele>
        <time>2016-03-30T11:58:56.000Z</time>
      </trkpt>
      <trkpt lat="47.34114" lon="2.99567">
        <ele>168.73910522461</ele>
        <time>2016-03-30T11:58:59.000Z</time>
      </trkpt>
      <trkpt lat="47.34115" lon="2.99574">
        <ele>168.94931030273</ele>
        <time>2016-03-30T11:59:02.000Z</time>
      </trkpt>
      <trkpt lat="47.34116" lon="2.99579">
        <ele>169.16963195801</ele>
        <time>2016-03-30T11:59:05.000Z</time>
      </trkpt>
      <trkpt lat="47.34117" lon="2.99582">
        <ele>169.37464904785</ele>
        <time>2016-03-30T11:59:07.000Z</time>
      </trkpt>
      <trkpt lat="47.34118" lon="2.99586">
        <ele>169.58325195312</ele>
        <time>2016-03-30T11:59:09.000Z</time>
      </trkpt>
      <trkpt lat="47.34119" lon="2.99592">
        <ele>169.80432128906</ele>
        <time>2016-03-30T11:59:12.000Z</time>
      </trkpt>
      <trkpt lat="47.3412" lon="2.99595">
        <ele>170.01011657715</ele>
        <time>2016-03-30T11:59:15.000Z</time>
      </trkpt>
      <trkpt lat="47.34121" lon="2.99598">
        <ele>170.20193481445</ele>
        <time>2016-03-30T11:59:17.000Z</time>
      </trkpt>
      <trkpt lat="47.34122" lon="2.99604">
        <ele>170.42974853516</ele>
        <time>2016-03-30T11:59:20.000Z</time>
      </trkpt>
      <trkpt lat="47.34123" lon="2.99607">
        <ele>170.65341186523</ele>
        <time>2016-03-30T11:59:22.000Z</time>
      </trkpt>
      <trkpt lat="47.34123" lon="2.99611">
        <ele>170.85908508301</ele>
        <time>2016-03-30T11:59:24.000Z</time>
      </trkpt>
      <trkpt lat="47.34123" lon="2.99615">
        <ele>171.06430053711</ele>
        <time>2016-03-30T11:59:26.000Z</time>
      </trkpt>
      <trkpt lat="47.34125" lon="2.9962">
        <ele>171.29702758789</ele>
        <time>2016-03-30T11:59:29.000Z</time>
      </trkpt>
      <trkpt lat="47.34126" lon="2.99625">
        <ele>171.52352905273</ele>
        <time>2016-03-30T11:59:32.000Z</time>
      </trkpt>
      <trkpt lat="47.34127" lon="2.9963">
        <ele>171.77258300781</ele>
        <time>2016-03-30T11:59:35.000Z</time>
      </trkpt>
      <trkpt lat="47.34128" lon="2.99633">
        <ele>172.01272583008</ele>
        <time>2016-03-30T11:59:37.000Z</time>
      </trkpt>
      <trkpt lat="47.34129" lon="2.99638">
        <ele>172.27499389648</ele>
        <time>2016-03-30T11:59:40.000Z</time>
      </trkpt>
      <trkpt lat="47.3413" lon="2.99641">
        <ele>172.52041625977</ele>
        <time>2016-03-30T11:59:42.000Z</time>
      </trkpt>
      <trkpt lat="47.34131" lon="2.99645">
        <ele>172.75546264648</ele>
        <time>2016-03-30T11:59:45.000Z</time>
      </trkpt>
      <trkpt lat="47.34132" lon="2.99649">
        <ele>172.98262023926</ele>
        <time>2016-03-30T11:59:47.000Z</time>
      </trkpt>
      <trkpt lat="47.34134" lon="2.99655">
        <ele>173.25535583496</ele>
        <time>2016-03-30T11:59:50.000Z</time>
      </trkpt>
      <trkpt lat="47.34134" lon="2.9966">
        <ele>173.51885986328</ele>
        <time>2016-03-30T11:59:53.000Z</time>
      </trkpt>
      <trkpt lat="47.34135" lon="2.99663">
        <ele>173.78179931641</ele>
        <time>2016-03-30T11:59:55.000Z</time>
      </trkpt>
      <trkpt lat="47.34138" lon="2.99665">
        <ele>174.04833984375</ele>
        <time>2016-03-30T11:59:57.000Z</time>
      </trkpt>
      <trkpt lat="47.3414" lon="2.99668">
        <ele>174.30279541016</ele>
        <time>2016-03-30T11:59:59.000Z</time>
      </trkpt>
      <trkpt lat="47.34141" lon="2.9967">
        <ele>174.51293945312</ele>
        <time>2016-03-30T12:00:01.000Z</time>
      </trkpt>
      <trkpt lat="47.34143" lon="2.99674">
        <ele>174.71153259277</ele>
        <time>2016-03-30T12:00:04.000Z</time>
      </trkpt>
      <trkpt lat="47.34145" lon="2.99676">
        <ele>174.89714050293</ele>
        <time>2016-03-30T12:00:06.000Z</time>
      </trkpt>
      <trkpt lat="47.34147" lon="2.99679">
        <ele>175.06994628906</ele>
        <time>2016-03-30T12:00:09.000Z</time>
      </trkpt>
      <trkpt lat="47.34148" lon="2.99682">
        <ele>175.22648620605</ele>
        <time>2016-03-30T12:00:11.000Z</time>
      </trkpt>
      <trkpt lat="47.34149" lon="2.99687">
        <ele>175.3981628418</ele>
        <time>2016-03-30T12:00:14.000Z</time>
      </trkpt>
      <trkpt lat="47.34151" lon="2.99691">
        <ele>175.56777954102</ele>
        <time>2016-03-30T12:00:17.000Z</time>
      </trkpt>
      <trkpt lat="47.34152" lon="2.99695">
        <ele>175.74043273926</ele>
        <time>2016-03-30T12:00:20.000Z</time>
      </trkpt>
      <trkpt lat="47.34153" lon="2.997">
        <ele>175.91181945801</ele>
        <time>2016-03-30T12:00:23.000Z</time>
      </trkpt>
      <trkpt lat="47.34154" lon="2.99703">
        <ele>176.08766174316</ele>
        <time>2016-03-30T12:00:25.000Z</time>
      </trkpt>
      <trkpt lat="47.34155" lon="2.99706">
        <ele>176.24577331543</ele>
        <time>2016-03-30T12:00:27.000Z</time>
      </trkpt>
      <trkpt lat="47.34157" lon="2.99712">
        <ele>176.41024780273</ele>
        <time>2016-03-30T12:00:30.000Z</time>
      </trkpt>
      <trkpt lat="47.34158" lon="2.99715">
        <ele>176.56161499023</ele>
        <time>2016-03-30T12:00:32.000Z</time>
      </trkpt>
      <trkpt lat="47.34159" lon="2.99719">
        <ele>176.70413208008</ele>
        <time>2016-03-30T12:00:34.000Z</time>
      </trkpt>
      <trkpt lat="47.3416" lon="2.99722">
        <ele>176.84616088867</ele>
        <time>2016-03-30T12:00:37.000Z</time>
      </trkpt>
      <trkpt lat="47.34162" lon="2.99727">
        <ele>176.99708557129</ele>
        <time>2016-03-30T12:00:40.000Z</time>
      </trkpt>
      <trkpt lat="47.34163" lon="2.99729">
        <ele>177.12756347656</ele>
        <time>2016-03-30T12:00:42.000Z</time>
      </trkpt>
      <trkpt lat="47.34164" lon="2.99731">
        <ele>177.25288391113</ele>
        <time>2016-03-30T12:00:44.000Z</time>
      </trkpt>
      <trkpt lat="47.34165" lon="2.99733">
        <ele>177.36134338379</ele>
        <time>2016-03-30T12:00:47.000Z</time>
      </trkpt>
      <trkpt lat="47.34167" lon="2.99737">
        <ele>177.47596740723</ele>
        <time>2016-03-30T12:00:50.000Z</time>
      </trkpt>
      <trkpt lat="47.34167" lon="2.99738">
        <ele>177.57751464844</ele>
        <time>2016-03-30T12:00:53.000Z</time>
      </trkpt>
      <trkpt lat="47.34167" lon="2.99738">
        <ele>177.57751464844</ele>
        <time>2016-03-30T12:01:13.000Z</time>
      </trkpt>
      <trkpt lat="47.34168" lon="2.9974">
        <ele>177.68124389648</ele>
        <time>2016-03-30T12:01:20.000Z</time>
      </trkpt>
      <trkpt lat="47.34169" lon="2.99742">
        <ele>177.81045532227</ele>
        <time>2016-03-30T12:01:22.000Z</time>
      </trkpt>
      <trkpt lat="47.34172" lon="2.99747">
        <ele>178.005859375</ele>
        <time>2016-03-30T12:01:25.000Z</time>
      </trkpt>
      <trkpt lat="47.34174" lon="2.99749">
        <ele>178.21545410156</ele>
        <time>2016-03-30T12:01:27.000Z</time>
      </trkpt>
      <trkpt lat="47.34175" lon="2.99752">
        <ele>178.43601989746</ele>
        <time>2016-03-30T12:01:30.000Z</time>
      </trkpt>
      <trkpt lat="47.34176" lon="2.99755">
        <ele>178.6611328125</ele>
        <time>2016-03-30T12:01:32.000Z</time>
      </trkpt>
      <trkpt lat="47.34178" lon="2.99761">
        <ele>178.88845825195</ele>
        <time>2016-03-30T12:01:35.000Z</time>
      </trkpt>
      <trkpt lat="47.3418" lon="2.99765">
        <ele>179.08941650391</ele>
        <time>2016-03-30T12:01:37.000Z</time>
      </trkpt>
      <trkpt lat="47.34182" lon="2.99769">
        <ele>179.30586242676</ele>
        <time>2016-03-30T12:01:40.000Z</time>
      </trkpt>
      <trkpt lat="47.34184" lon="2.99773">
        <ele>179.52426147461</ele>
        <time>2016-03-30T12:01:42.000Z</time>
      </trkpt>
      <trkpt lat="47.34187" lon="2.99777">
        <ele>179.76287841797</ele>
        <time>2016-03-30T12:01:45.000Z</time>
      </trkpt>
      <trkpt lat="47.34188" lon="2.9978">
        <ele>179.9998626709</ele>
        <time>2016-03-30T12:01:47.000Z</time>
      </trkpt>
      <trkpt lat="47.34189" lon="2.99783">
        <ele>180.19784545898</ele>
        <time>2016-03-30T12:01:49.000Z</time>
      </trkpt>
      <trkpt lat="47.34191" lon="2.99786">
        <ele>180.3731842041</ele>
        <time>2016-03-30T12:01:52.000Z</time>
      </trkpt>
      <trkpt lat="47.34192" lon="2.9979">
        <ele>180.53610229492</ele>
        <time>2016-03-30T12:01:54.000Z</time>
      </trkpt>
      <trkpt lat="47.34195" lon="2.99795">
        <ele>180.69970703125</ele>
        <time>2016-03-30T12:01:57.000Z</time>
      </trkpt>
      <trkpt lat="47.34198" lon="2.99801">
        <ele>180.86422729492</ele>
        <time>2016-03-30T12:02:00.000Z</time>
      </trkpt>
      <trkpt lat="47.34199" lon="2.99803">
        <ele>181.03994750977</ele>
        <time>2016-03-30T12:02:02.000Z</time>
      </trkpt>
      <trkpt lat="47.34201" lon="2.99808">
        <ele>181.21524047852</ele>
        <time>2016-03-30T12:02:05.000Z</time>
      </trkpt>
      <trkpt lat="47.34203" lon="2.9981">
        <ele>181.39233398438</ele>
        <time>2016-03-30T12:02:07.000Z</time>
      </trkpt>
      <trkpt lat="47.34205" lon="2.99813">
        <ele>181.548828125</ele>
        <time>2016-03-30T12:02:09.000Z</time>
      </trkpt>
      <trkpt lat="47.34206" lon="2.99816">
        <ele>181.68077087402</ele>
        <time>2016-03-30T12:02:11.000Z</time>
      </trkpt>
      <trkpt lat="47.34208" lon="2.99819">
        <ele>181.80815124512</ele>
        <time>2016-03-30T12:02:13.000Z</time>
      </trkpt>
      <trkpt lat="47.34209" lon="2.99825">
        <ele>181.9214630127</ele>
        <time>2016-03-30T12:02:16.000Z</time>
      </trkpt>
      <trkpt lat="47.34212" lon="2.9983">
        <ele>182.04516601562</ele>
        <time>2016-03-30T12:02:19.000Z</time>
      </trkpt>
      <trkpt lat="47.34214" lon="2.99835">
        <ele>182.16596984863</ele>
        <time>2016-03-30T12:02:22.000Z</time>
      </trkpt>
      <trkpt lat="47.34216" lon="2.99838">
        <ele>182.2977142334</ele>
        <time>2016-03-30T12:02:24.000Z</time>
      </trkpt>
      <trkpt lat="47.34219" lon="2.99842">
        <ele>182.46180725098</ele>
        <time>2016-03-30T12:02:27.000Z</time>
      </trkpt>
      <trkpt lat="47.34219" lon="2.99845">
        <ele>182.61688232422</ele>
        <time>2016-03-30T12:02:29.000Z</time>
      </trkpt>
      <trkpt lat="47.34221" lon="2.99849">
        <ele>182.76699829102</ele>
        <time>2016-03-30T12:02:32.000Z</time>
      </trkpt>
      <trkpt lat="47.34223" lon="2.99854">
        <ele>182.92317199707</ele>
        <time>2016-03-30T12:02:35.000Z</time>
      </trkpt>
      <trkpt lat="47.34225" lon="2.99857">
        <ele>183.08293151855</ele>
        <time>2016-03-30T12:02:37.000Z</time>
      </trkpt>
      <trkpt lat="47.34228" lon="2.99862">
        <ele>183.23825073242</ele>
        <time>2016-03-30T12:02:40.000Z</time>
      </trkpt>
      <trkpt lat="47.3423" lon="2.99865">
        <ele>183.40194702148</ele>
        <time>2016-03-30T12:02:42.000Z</time>
      </trkpt>
      <trkpt lat="47.34231" lon="2.99867">
        <ele>183.55805969238</ele>
        <time>2016-03-30T12:02:44.000Z</time>
      </trkpt>
      <trkpt lat="47.34234" lon="2.9987">
        <ele>183.71842956543</ele>
        <time>2016-03-30T12:02:47.000Z</time>
      </trkpt>
      <trkpt lat="47.34237" lon="2.99873">
        <ele>183.87882995605</ele>
        <time>2016-03-30T12:02:49.000Z</time>
      </trkpt>
      <trkpt lat="47.34239" lon="2.99877">
        <ele>184.02328491211</ele>
        <time>2016-03-30T12:02:52.000Z</time>
      </trkpt>
      <trkpt lat="47.3424" lon="2.99879">
        <ele>184.15927124023</ele>
        <time>2016-03-30T12:02:54.000Z</time>
      </trkpt>
      <trkpt lat="47.34241" lon="2.99881">
        <ele>184.29278564453</ele>
        <time>2016-03-30T12:02:56.000Z</time>
      </trkpt>
      <trkpt lat="47.34243" lon="2.99884">
        <ele>184.4079284668</ele>
        <time>2016-03-30T12:02:58.000Z</time>
      </trkpt>
      <trkpt lat="47.34246" lon="2.99888">
        <ele>184.5249786377</ele>
        <time>2016-03-30T12:03:01.000Z</time>
      </trkpt>
      <trkpt lat="47.34248" lon="2.9989">
        <ele>184.64224243164</ele>
        <time>2016-03-30T12:03:03.000Z</time>
      </trkpt>
      <trkpt lat="47.34251" lon="2.99895">
        <ele>184.76852416992</ele>
        <time>2016-03-30T12:03:06.000Z</time>
      </trkpt>
      <trkpt lat="47.34252" lon="2.99898">
        <ele>184.89340209961</ele>
        <time>2016-03-30T12:03:08.000Z</time>
      </trkpt>
      <trkpt lat="47.34253" lon="2.99902">
        <ele>185.02279663086</ele>
        <time>2016-03-30T12:03:11.000Z</time>
      </trkpt>
      <trkpt lat="47.34254" lon="2.99905">
        <ele>185.1364440918</ele>
        <time>2016-03-30T12:03:13.000Z</time>
      </trkpt>
      <trkpt lat="47.34257" lon="2.9991">
        <ele>185.25119018555</ele>
        <time>2016-03-30T12:03:16.000Z</time>
      </trkpt>
      <trkpt lat="47.34259" lon="2.99914">
        <ele>185.36901855469</ele>
        <time>2016-03-30T12:03:19.000Z</time>
      </trkpt>
      <trkpt lat="47.34261" lon="2.99919">
        <ele>185.50663757324</ele>
        <time>2016-03-30T12:03:22.000Z</time>
      </trkpt>
      <trkpt lat="47.34263" lon="2.99923">
        <ele>185.65156555176</ele>
        <time>2016-03-30T12:03:25.000Z</time>
      </trkpt>
      <trkpt lat="47.34264" lon="2.99926">
        <ele>185.79696655273</ele>
        <time>2016-03-30T12:03:27.000Z</time>
      </trkpt>
      <trkpt lat="47.34266" lon="2.99931">
        <ele>185.95083618164</ele>
        <time>2016-03-30T12:03:30.000Z</time>
      </trkpt>
      <trkpt lat="47.34266" lon="2.99934">
        <ele>186.09381103516</ele>
        <time>2016-03-30T12:03:32.000Z</time>
      </trkpt>
      <trkpt lat="47.34267" lon="2.99936">
        <ele>186.21424865723</ele>
        <time>2016-03-30T12:03:34.000Z</time>
      </trkpt>
      <trkpt lat="47.34269" lon="2.99938">
        <ele>186.32278442383</ele>
        <time>2016-03-30T12:03:43.000Z</time>
      </trkpt>
      <trkpt lat="47.3427" lon="2.9994">
        <ele>186.43887329102</ele>
        <time>2016-03-30T12:03:46.000Z</time>
      </trkpt>
      <trkpt lat="47.34271" lon="2.99941">
        <ele>186.53701782227</ele>
        <time>2016-03-30T12:03:48.000Z</time>
      </trkpt>
      <trkpt lat="47.34273" lon="2.99943">
        <ele>186.64956665039</ele>
        <time>2016-03-30T12:03:50.000Z</time>
      </trkpt>
      <trkpt lat="47.34275" lon="2.99946">
        <ele>186.77301025391</ele>
        <time>2016-03-30T12:03:52.000Z</time>
      </trkpt>
      <trkpt lat="47.34277" lon="2.9995">
        <ele>186.91007995605</ele>
        <time>2016-03-30T12:03:55.000Z</time>
      </trkpt>
      <trkpt lat="47.34278" lon="2.99952">
        <ele>187.04635620117</ele>
        <time>2016-03-30T12:03:57.000Z</time>
      </trkpt>
      <trkpt lat="47.3428" lon="2.99954">
        <ele>187.18812561035</ele>
        <time>2016-03-30T12:03:59.000Z</time>
      </trkpt>
      <trkpt lat="47.34284" lon="2.99958">
        <ele>187.35372924805</ele>
        <time>2016-03-30T12:04:02.000Z</time>
      </trkpt>
      <trkpt lat="47.34286" lon="2.99963">
        <ele>187.52529907227</ele>
        <time>2016-03-30T12:04:05.000Z</time>
      </trkpt>
      <trkpt lat="47.34287" lon="2.99965">
        <ele>187.6823425293</ele>
        <time>2016-03-30T12:04:07.000Z</time>
      </trkpt>
      <trkpt lat="47.34289" lon="2.99967">
        <ele>187.83773803711</ele>
        <time>2016-03-30T12:04:09.000Z</time>
      </trkpt>
      <trkpt lat="47.34292" lon="2.9997">
        <ele>188.0150604248</ele>
        <time>2016-03-30T12:04:12.000Z</time>
      </trkpt>
      <trkpt lat="47.34295" lon="2.99974">
        <ele>188.17715454102</ele>
        <time>2016-03-30T12:04:15.000Z</time>
      </trkpt>
      <trkpt lat="47.34297" lon="2.99975">
        <ele>188.33435058594</ele>
        <time>2016-03-30T12:04:17.000Z</time>
      </trkpt>
      <trkpt lat="47.34299" lon="2.99978">
        <ele>188.49612426758</ele>
        <time>2016-03-30T12:04:19.000Z</time>
      </trkpt>
      <trkpt lat="47.34301" lon="2.99982">
        <ele>188.67358398438</ele>
        <time>2016-03-30T12:04:22.000Z</time>
      </trkpt>
      <trkpt lat="47.34304" lon="2.99984">
        <ele>188.84222412109</ele>
        <time>2016-03-30T12:04:25.000Z</time>
      </trkpt>
      <trkpt lat="47.34306" lon="2.99989">
        <ele>188.9994354248</ele>
        <time>2016-03-30T12:04:28.000Z</time>
      </trkpt>
      <trkpt lat="47.34309" lon="2.99992">
        <ele>189.17123413086</ele>
        <time>2016-03-30T12:04:31.000Z</time>
      </trkpt>
      <trkpt lat="47.34312" lon="2.99994">
        <ele>189.3458404541</ele>
        <time>2016-03-30T12:04:33.000Z</time>
      </trkpt>
      <trkpt lat="47.34315" lon="2.99998">
        <ele>189.52268981934</ele>
        <time>2016-03-30T12:04:36.000Z</time>
      </trkpt>
      <trkpt lat="47.34316" lon="2.99999">
        <ele>189.67701721191</ele>
        <time>2016-03-30T12:04:38.000Z</time>
      </trkpt>
      <trkpt lat="47.34319" lon="3.00003">
        <ele>189.8395690918</ele>
        <time>2016-03-30T12:04:41.000Z</time>
      </trkpt>
      <trkpt lat="47.34321" lon="3.00006">
        <ele>189.97579956055</ele>
        <time>2016-03-30T12:04:43.000Z</time>
      </trkpt>
      <trkpt lat="47.34324" lon="3.00008">
        <ele>190.1106262207</ele>
        <time>2016-03-30T12:04:46.000Z</time>
      </trkpt>
      <trkpt lat="47.34327" lon="3.00011">
        <ele>190.23915100098</ele>
        <time>2016-03-30T12:04:49.000Z</time>
      </trkpt>
      <trkpt lat="47.34329" lon="3.00012">
        <ele>190.37222290039</ele>
        <time>2016-03-30T12:04:51.000Z</time>
      </trkpt>
      <trkpt lat="47.34332" lon="3.00013">
        <ele>190.49810791016</ele>
        <time>2016-03-30T12:04:54.000Z</time>
      </trkpt>
      <trkpt lat="47.34333" lon="3.00012">
        <ele>190.62463378906</ele>
        <time>2016-03-30T12:04:56.000Z</time>
      </trkpt>
      <trkpt lat="47.34333" lon="3.00012">
        <ele>190.62463378906</ele>
        <time>2016-03-30T12:05:16.000Z</time>
      </trkpt>
      <trkpt lat="47.34333" lon="3.00013">
        <ele>190.72030639648</ele>
        <time>2016-03-30T12:05:26.000Z</time>
      </trkpt>
      <trkpt lat="47.34333" lon="3.00016">
        <ele>190.77145385742</ele>
        <time>2016-03-30T12:05:29.000Z</time>
      </trkpt>
      <trkpt lat="47.34333" lon="3.0002">
        <ele>190.79348754883</ele>
        <time>2016-03-30T12:05:32.000Z</time>
      </trkpt>
      <trkpt lat="47.34333" lon="3.00022">
        <ele>190.78495788574</ele>
        <time>2016-03-30T12:05:34.000Z</time>
      </trkpt>
      <trkpt lat="47.34334" lon="3.00023">
        <ele>190.76182556152</ele>
        <time>2016-03-30T12:05:37.000Z</time>
      </trkpt>
      <trkpt lat="47.34336" lon="3.00023">
        <ele>190.74774169922</ele>
        <time>2016-03-30T12:05:39.000Z</time>
      </trkpt>
      <trkpt lat="47.34336" lon="3.00022">
        <ele>190.74739074707</ele>
        <time>2016-03-30T12:05:47.000Z</time>
      </trkpt>
      <trkpt lat="47.34338" lon="3.00022">
        <ele>190.76107788086</ele>
        <time>2016-03-30T12:05:50.000Z</time>
      </trkpt>
      <trkpt lat="47.34338" lon="3.00022">
        <ele>190.76107788086</ele>
        <time>2016-03-30T12:06:10.000Z</time>
      </trkpt>
      <trkpt lat="47.3434" lon="3.00022">
        <ele>190.77954101562</ele>
        <time>2016-03-30T12:06:18.000Z</time>
      </trkpt>
      <trkpt lat="47.34339" lon="3.0002">
        <ele>190.79632568359</ele>
        <time>2016-03-30T12:06:36.000Z</time>
      </trkpt>
      <trkpt lat="47.34339" lon="3.00019">
        <ele>190.81359863281</ele>
        <time>2016-03-30T12:06:40.000Z</time>
      </trkpt>
      <trkpt lat="47.34339" lon="3.00017">
        <ele>190.83062744141</ele>
        <time>2016-03-30T12:06:43.000Z</time>
      </trkpt>
      <trkpt lat="47.3434" lon="3.00015">
        <ele>190.84851074219</ele>
        <time>2016-03-30T12:06:46.000Z</time>
      </trkpt>
      <trkpt lat="47.34339" lon="3.00013">
        <ele>190.86602783203</ele>
        <time>2016-03-30T12:06:49.000Z</time>
      </trkpt>
      <trkpt lat="47.34339" lon="3.00012">
        <ele>190.88641357422</ele>
        <time>2016-03-30T12:06:51.000Z</time>
      </trkpt>
      <trkpt lat="47.34339" lon="3.00009">
        <ele>190.90869140625</ele>
        <time>2016-03-30T12:06:54.000Z</time>
      </trkpt>
      <trkpt lat="47.34339" lon="3.00008">
        <ele>190.93133544922</ele>
        <time>2016-03-30T12:06:59.000Z</time>
      </trkpt>
      <trkpt lat="47.34339" lon="3.00008">
        <ele>190.93133544922</ele>
        <time>2016-03-30T12:07:19.000Z</time>
      </trkpt>
      <trkpt lat="47.3434" lon="3.00008">
        <ele>190.95062255859</ele>
        <time>2016-03-30T12:07:21.000Z</time>
      </trkpt>
      <trkpt lat="47.34342" lon="3.00007">
        <ele>190.97216796875</ele>
        <time>2016-03-30T12:07:23.000Z</time>
      </trkpt>
      <trkpt lat="47.34345" lon="3.00003">
        <ele>191.00769042969</ele>
        <time>2016-03-30T12:07:26.000Z</time>
      </trkpt>
      <trkpt lat="47.34347" lon="2.99999">
        <ele>191.05087280273</ele>
        <time>2016-03-30T12:07:29.000Z</time>
      </trkpt>
      <trkpt lat="47.34348" lon="2.99997">
        <ele>191.09245300293</ele>
        <time>2016-03-30T12:07:31.000Z</time>
      </trkpt>
      <trkpt lat="47.34351" lon="2.99994">
        <ele>191.14155578613</ele>
        <time>2016-03-30T12:07:34.000Z</time>
      </trkpt>
      <trkpt lat="47.34353" lon="2.99991">
        <ele>191.19151306152</ele>
        <time>2016-03-30T12:07:36.000Z</time>
      </trkpt>
      <trkpt lat="47.34355" lon="2.99988">
        <ele>191.2300567627</ele>
        <time>2016-03-30T12:07:38.000Z</time>
      </trkpt>
      <trkpt lat="47.34357" lon="2.99985">
        <ele>191.26473999023</ele>
        <time>2016-03-30T12:07:41.000Z</time>
      </trkpt>
      <trkpt lat="47.34359" lon="2.99981">
        <ele>191.30381774902</ele>
        <time>2016-03-30T12:07:43.000Z</time>
      </trkpt>
      <trkpt lat="47.34361" lon="2.99977">
        <ele>191.3420715332</ele>
        <time>2016-03-30T12:07:46.000Z</time>
      </trkpt>
      <trkpt lat="47.34363" lon="2.99974">
        <ele>191.38180541992</ele>
        <time>2016-03-30T12:07:49.000Z</time>
      </trkpt>
      <trkpt lat="47.34364" lon="2.99971">
        <ele>191.42147827148</ele>
        <time>2016-03-30T12:07:51.000Z</time>
      </trkpt>
      <trkpt lat="47.34365" lon="2.99969">
        <ele>191.4563293457</ele>
        <time>2016-03-30T12:07:53.000Z</time>
      </trkpt>
      <trkpt lat="47.34365" lon="2.99967">
        <ele>191.48896789551</ele>
        <time>2016-03-30T12:07:55.000Z</time>
      </trkpt>
      <trkpt lat="47.34367" lon="2.99963">
        <ele>191.51847839355</ele>
        <time>2016-03-30T12:07:57.000Z</time>
      </trkpt>
      <trkpt lat="47.34367" lon="2.99959">
        <ele>191.54522705078</ele>
        <time>2016-03-30T12:07:59.000Z</time>
      </trkpt>
      <trkpt lat="47.34367" lon="2.99956">
        <ele>191.56925964355</ele>
        <time>2016-03-30T12:08:01.000Z</time>
      </trkpt>
      <trkpt lat="47.34368" lon="2.99953">
        <ele>191.59590148926</ele>
        <time>2016-03-30T12:08:03.000Z</time>
      </trkpt>
      <trkpt lat="47.3437" lon="2.9995">
        <ele>191.62915039062</ele>
        <time>2016-03-30T12:08:06.000Z</time>
      </trkpt>
      <trkpt lat="47.34371" lon="2.99947">
        <ele>191.66394042969</ele>
        <time>2016-03-30T12:08:08.000Z</time>
      </trkpt>
      <trkpt lat="47.34373" lon="2.99943">
        <ele>191.7038269043</ele>
        <time>2016-03-30T12:08:11.000Z</time>
      </trkpt>
      <trkpt lat="47.34375" lon="2.99941">
        <ele>191.74934387207</ele>
        <time>2016-03-30T12:08:13.000Z</time>
      </trkpt>
      <trkpt lat="47.34378" lon="2.99937">
        <ele>191.80810546875</ele>
        <time>2016-03-30T12:08:16.000Z</time>
      </trkpt>
      <trkpt lat="47.3438" lon="2.99933">
        <ele>191.86663818359</ele>
        <time>2016-03-30T12:08:19.000Z</time>
      </trkpt>
      <trkpt lat="47.34383" lon="2.99928">
        <ele>191.94183349609</ele>
        <time>2016-03-30T12:08:22.000Z</time>
      </trkpt>
      <trkpt lat="47.34385" lon="2.99926">
        <ele>192.0133972168</ele>
        <time>2016-03-30T12:08:24.000Z</time>
      </trkpt>
      <trkpt lat="47.34388" lon="2.99922">
        <ele>192.09664916992</ele>
        <time>2016-03-30T12:08:27.000Z</time>
      </trkpt>
      <trkpt lat="47.34391" lon="2.99918">
        <ele>192.18185424805</ele>
        <time>2016-03-30T12:08:30.000Z</time>
      </trkpt>
      <trkpt lat="47.34393" lon="2.99915">
        <ele>192.27342224121</ele>
        <time>2016-03-30T12:08:32.000Z</time>
      </trkpt>
      <trkpt lat="47.34394" lon="2.99912">
        <ele>192.36123657227</ele>
        <time>2016-03-30T12:08:34.000Z</time>
      </trkpt>
      <trkpt lat="47.34396" lon="2.99909">
        <ele>192.46632385254</ele>
        <time>2016-03-30T12:08:37.000Z</time>
      </trkpt>
      <trkpt lat="47.34398" lon="2.99905">
        <ele>192.58181762695</ele>
        <time>2016-03-30T12:08:40.000Z</time>
      </trkpt>
      <trkpt lat="47.344" lon="2.99901">
        <ele>192.70275878906</ele>
        <time>2016-03-30T12:08:42.000Z</time>
      </trkpt>
      <trkpt lat="47.34402" lon="2.99898">
        <ele>192.82958984375</ele>
        <time>2016-03-30T12:08:44.000Z</time>
      </trkpt>
      <trkpt lat="47.34404" lon="2.99893">
        <ele>192.96838378906</ele>
        <time>2016-03-30T12:08:47.000Z</time>
      </trkpt>
      <trkpt lat="47.34406" lon="2.9989">
        <ele>193.10485839844</ele>
        <time>2016-03-30T12:08:49.000Z</time>
      </trkpt>
      <trkpt lat="47.34407" lon="2.99887">
        <ele>193.23413085938</ele>
        <time>2016-03-30T12:08:51.000Z</time>
      </trkpt>
      <trkpt lat="47.34408" lon="2.99886">
        <ele>193.3447265625</ele>
        <time>2016-03-30T12:08:53.000Z</time>
      </trkpt>
      <trkpt lat="47.34411" lon="2.99883">
        <ele>193.45971679688</ele>
        <time>2016-03-30T12:08:56.000Z</time>
      </trkpt>
      <trkpt lat="47.34414" lon="2.9988">
        <ele>193.57312011719</ele>
        <time>2016-03-30T12:08:59.000Z</time>
      </trkpt>
      <trkpt lat="47.34415" lon="2.99878">
        <ele>193.67724609375</ele>
        <time>2016-03-30T12:09:01.000Z</time>
      </trkpt>
      <trkpt lat="47.34419" lon="2.99878">
        <ele>193.7424621582</ele>
        <time>2016-03-30T12:09:04.000Z</time>
      </trkpt>
      <trkpt lat="47.34422" lon="2.9988">
        <ele>193.75898742676</ele>
        <time>2016-03-30T12:09:07.000Z</time>
      </trkpt>
      <trkpt lat="47.34425" lon="2.99882">
        <ele>193.69479370117</ele>
        <time>2016-03-30T12:09:10.000Z</time>
      </trkpt>
      <trkpt lat="47.34428" lon="2.99884">
        <ele>193.5655670166</ele>
        <time>2016-03-30T12:09:12.000Z</time>
      </trkpt>
      <trkpt lat="47.3443" lon="2.99886">
        <ele>193.38464355469</ele>
        <time>2016-03-30T12:09:14.000Z</time>
      </trkpt>
      <trkpt lat="47.34434" lon="2.99888">
        <ele>193.17012023926</ele>
        <time>2016-03-30T12:09:17.000Z</time>
      </trkpt>
      <trkpt lat="47.34436" lon="2.9989">
        <ele>192.95817565918</ele>
        <time>2016-03-30T12:09:19.000Z</time>
      </trkpt>
      <trkpt lat="47.34438" lon="2.99893">
        <ele>192.75637817383</ele>
        <time>2016-03-30T12:09:22.000Z</time>
      </trkpt>
      <trkpt lat="47.3444" lon="2.99895">
        <ele>192.56071472168</ele>
        <time>2016-03-30T12:09:24.000Z</time>
      </trkpt>
      <trkpt lat="47.34443" lon="2.99898">
        <ele>192.35820007324</ele>
        <time>2016-03-30T12:09:27.000Z</time>
      </trkpt>
      <trkpt lat="47.34447" lon="2.99901">
        <ele>192.14077758789</ele>
        <time>2016-03-30T12:09:30.000Z</time>
      </trkpt>
      <trkpt lat="47.34448" lon="2.99902">
        <ele>191.94256591797</ele>
        <time>2016-03-30T12:09:32.000Z</time>
      </trkpt>
      <trkpt lat="47.34451" lon="2.99902">
        <ele>191.74992370605</ele>
        <time>2016-03-30T12:09:35.000Z</time>
      </trkpt>
      <trkpt lat="47.34452" lon="2.99903">
        <ele>191.55978393555</ele>
        <time>2016-03-30T12:09:37.000Z</time>
      </trkpt>
      <trkpt lat="47.34456" lon="2.99906">
        <ele>191.3537902832</ele>
        <time>2016-03-30T12:09:40.000Z</time>
      </trkpt>
      <trkpt lat="47.34459" lon="2.99908">
        <ele>191.17771911621</ele>
        <time>2016-03-30T12:09:42.000Z</time>
      </trkpt>
      <trkpt lat="47.3446" lon="2.99909">
        <ele>190.98527526855</ele>
        <time>2016-03-30T12:09:44.000Z</time>
      </trkpt>
      <trkpt lat="47.34464" lon="2.99912">
        <ele>190.77682495117</ele>
        <time>2016-03-30T12:09:47.000Z</time>
      </trkpt>
      <trkpt lat="47.34467" lon="2.99915">
        <ele>190.53291320801</ele>
        <time>2016-03-30T12:09:50.000Z</time>
      </trkpt>
      <trkpt lat="47.3447" lon="2.99919">
        <ele>190.31057739258</ele>
        <time>2016-03-30T12:09:53.000Z</time>
      </trkpt>
      <trkpt lat="47.34472" lon="2.99921">
        <ele>190.09596252441</ele>
        <time>2016-03-30T12:09:55.000Z</time>
      </trkpt>
      <trkpt lat="47.34473" lon="2.99923">
        <ele>189.89033508301</ele>
        <time>2016-03-30T12:09:57.000Z</time>
      </trkpt>
      <trkpt lat="47.34475" lon="2.99924">
        <ele>189.71766662598</ele>
        <time>2016-03-30T12:09:59.000Z</time>
      </trkpt>
      <trkpt lat="47.34477" lon="2.99925">
        <ele>189.58584594727</ele>
        <time>2016-03-30T12:10:01.000Z</time>
      </trkpt>
      <trkpt lat="47.3448" lon="2.99927">
        <ele>189.4546661377</ele>
        <time>2016-03-30T12:10:04.000Z</time>
      </trkpt>
      <trkpt lat="47.34483" lon="2.9993">
        <ele>189.31953430176</ele>
        <time>2016-03-30T12:10:07.000Z</time>
      </trkpt>
      <trkpt lat="47.34486" lon="2.99934">
        <ele>189.17050170898</ele>
        <time>2016-03-30T12:10:10.000Z</time>
      </trkpt>
      <trkpt lat="47.34488" lon="2.99936">
        <ele>189.01260375977</ele>
        <time>2016-03-30T12:10:13.000Z</time>
      </trkpt>
      <trkpt lat="47.3449" lon="2.99938">
        <ele>188.85122680664</ele>
        <time>2016-03-30T12:10:15.000Z</time>
      </trkpt>
      <trkpt lat="47.34494" lon="2.9994">
        <ele>188.6872253418</ele>
        <time>2016-03-30T12:10:18.000Z</time>
      </trkpt>
      <trkpt lat="47.34497" lon="2.99941">
        <ele>188.52079772949</ele>
        <time>2016-03-30T12:10:21.000Z</time>
      </trkpt>
      <trkpt lat="47.345" lon="2.99942">
        <ele>188.35238647461</ele>
        <time>2016-03-30T12:10:24.000Z</time>
      </trkpt>
      <trkpt lat="47.34504" lon="2.99944">
        <ele>188.16723632812</ele>
        <time>2016-03-30T12:10:27.000Z</time>
      </trkpt>
      <trkpt lat="47.34507" lon="2.99947">
        <ele>187.97760009766</ele>
        <time>2016-03-30T12:10:30.000Z</time>
      </trkpt>
      <trkpt lat="47.34509" lon="2.99949">
        <ele>187.80578613281</ele>
        <time>2016-03-30T12:10:32.000Z</time>
      </trkpt>
      <trkpt lat="47.34511" lon="2.99951">
        <ele>187.64175415039</ele>
        <time>2016-03-30T12:10:34.000Z</time>
      </trkpt>
      <trkpt lat="47.34514" lon="2.99953">
        <ele>187.48446655273</ele>
        <time>2016-03-30T12:10:37.000Z</time>
      </trkpt>
      <trkpt lat="47.34515" lon="2.99954">
        <ele>187.35289001465</ele>
        <time>2016-03-30T12:10:39.000Z</time>
      </trkpt>
      <trkpt lat="47.34518" lon="2.99956">
        <ele>187.21444702148</ele>
        <time>2016-03-30T12:10:42.000Z</time>
      </trkpt>
      <trkpt lat="47.34522" lon="2.99958">
        <ele>187.05404663086</ele>
        <time>2016-03-30T12:10:45.000Z</time>
      </trkpt>
      <trkpt lat="47.34523" lon="2.99958">
        <ele>186.89901733398</ele>
        <time>2016-03-30T12:10:47.000Z</time>
      </trkpt>
      <trkpt lat="47.34526" lon="2.99958">
        <ele>186.75375366211</ele>
        <time>2016-03-30T12:10:50.000Z</time>
      </trkpt>
      <trkpt lat="47.34527" lon="2.99958">
        <ele>186.60945129395</ele>
        <time>2016-03-30T12:10:52.000Z</time>
      </trkpt>
      <trkpt lat="47.34529" lon="2.99957">
        <ele>186.48168945312</ele>
        <time>2016-03-30T12:10:55.000Z</time>
      </trkpt>
      <trkpt lat="47.34531" lon="2.99955">
        <ele>186.38465881348</ele>
        <time>2016-03-30T12:10:57.000Z</time>
      </trkpt>
      <trkpt lat="47.34533" lon="2.9995">
        <ele>186.28686523438</ele>
        <time>2016-03-30T12:11:00.000Z</time>
      </trkpt>
      <trkpt lat="47.34535" lon="2.99947">
        <ele>186.19747924805</ele>
        <time>2016-03-30T12:11:02.000Z</time>
      </trkpt>
      <trkpt lat="47.34536" lon="2.99944">
        <ele>186.11869812012</ele>
        <time>2016-03-30T12:11:04.000Z</time>
      </trkpt>
      <trkpt lat="47.34539" lon="2.99941">
        <ele>186.03446960449</ele>
        <time>2016-03-30T12:11:07.000Z</time>
      </trkpt>
      <trkpt lat="47.3454" lon="2.99938">
        <ele>185.95846557617</ele>
        <time>2016-03-30T12:11:09.000Z</time>
      </trkpt>
      <trkpt lat="47.34542" lon="2.99932">
        <ele>185.88986206055</ele>
        <time>2016-03-30T12:11:12.000Z</time>
      </trkpt>
      <trkpt lat="47.34544" lon="2.99928">
        <ele>185.83512878418</ele>
        <time>2016-03-30T12:11:15.000Z</time>
      </trkpt>
      <trkpt lat="47.34545" lon="2.99927">
        <ele>185.77944946289</ele>
        <time>2016-03-30T12:11:17.000Z</time>
      </trkpt>
      <trkpt lat="47.34548" lon="2.99922">
        <ele>185.73182678223</ele>
        <time>2016-03-30T12:11:20.000Z</time>
      </trkpt>
      <trkpt lat="47.34549" lon="2.99919">
        <ele>185.68769836426</ele>
        <time>2016-03-30T12:11:22.000Z</time>
      </trkpt>
      <trkpt lat="47.3455" lon="2.99916">
        <ele>185.65783691406</ele>
        <time>2016-03-30T12:11:24.000Z</time>
      </trkpt>
      <trkpt lat="47.34552" lon="2.99912">
        <ele>185.64295959473</ele>
        <time>2016-03-30T12:11:27.000Z</time>
      </trkpt>
      <trkpt lat="47.34554" lon="2.99908">
        <ele>185.65252685547</ele>
        <time>2016-03-30T12:11:30.000Z</time>
      </trkpt>
      <trkpt lat="47.34555" lon="2.99904">
        <ele>185.68927001953</ele>
        <time>2016-03-30T12:11:32.000Z</time>
      </trkpt>
      <trkpt lat="47.34558" lon="2.999">
        <ele>185.73364257812</ele>
        <time>2016-03-30T12:11:35.000Z</time>
      </trkpt>
      <trkpt lat="47.3456" lon="2.99897">
        <ele>185.77917480469</ele>
        <time>2016-03-30T12:11:38.000Z</time>
      </trkpt>
      <trkpt lat="47.34562" lon="2.99891">
        <ele>185.83575439453</ele>
        <time>2016-03-30T12:11:41.000Z</time>
      </trkpt>
      <trkpt lat="47.34563" lon="2.99886">
        <ele>185.90484619141</ele>
        <time>2016-03-30T12:11:44.000Z</time>
      </trkpt>
      <trkpt lat="47.34565" lon="2.99881">
        <ele>185.97772216797</ele>
        <time>2016-03-30T12:11:47.000Z</time>
      </trkpt>
      <trkpt lat="47.34566" lon="2.99877">
        <ele>186.05609130859</ele>
        <time>2016-03-30T12:11:49.000Z</time>
      </trkpt>
      <trkpt lat="47.34567" lon="2.99872">
        <ele>186.16253662109</ele>
        <time>2016-03-30T12:11:52.000Z</time>
      </trkpt>
      <trkpt lat="47.34568" lon="2.99868">
        <ele>186.27520751953</ele>
        <time>2016-03-30T12:11:55.000Z</time>
      </trkpt>
      <trkpt lat="47.34568" lon="2.99864">
        <ele>186.37658691406</ele>
        <time>2016-03-30T12:11:57.000Z</time>
      </trkpt>
      <trkpt lat="47.3457" lon="2.99859">
        <ele>186.48999023438</ele>
        <time>2016-03-30T12:12:00.000Z</time>
      </trkpt>
      <trkpt lat="47.34571" lon="2.99855">
        <ele>186.61187744141</ele>
        <time>2016-03-30T12:12:02.000Z</time>
      </trkpt>
      <trkpt lat="47.34571" lon="2.99852">
        <ele>186.71673583984</ele>
        <time>2016-03-30T12:12:04.000Z</time>
      </trkpt>
      <trkpt lat="47.34572" lon="2.9985">
        <ele>186.79949951172</ele>
        <time>2016-03-30T12:12:06.000Z</time>
      </trkpt>
      <trkpt lat="47.34574" lon="2.99846">
        <ele>186.88049316406</ele>
        <time>2016-03-30T12:12:09.000Z</time>
      </trkpt>
      <trkpt lat="47.34575" lon="2.99842">
        <ele>186.94757080078</ele>
        <time>2016-03-30T12:12:11.000Z</time>
      </trkpt>
      <trkpt lat="47.34577" lon="2.99836">
        <ele>187.01928710938</ele>
        <time>2016-03-30T12:12:14.000Z</time>
      </trkpt>
      <trkpt lat="47.34579" lon="2.99832">
        <ele>187.08343505859</ele>
        <time>2016-03-30T12:12:17.000Z</time>
      </trkpt>
      <trkpt lat="47.34579" lon="2.99829">
        <ele>187.13714599609</ele>
        <time>2016-03-30T12:12:19.000Z</time>
      </trkpt>
      <trkpt lat="47.3458" lon="2.99826">
        <ele>187.17320251465</ele>
        <time>2016-03-30T12:12:21.000Z</time>
      </trkpt>
      <trkpt lat="47.34581" lon="2.99822">
        <ele>187.18014526367</ele>
        <time>2016-03-30T12:12:24.000Z</time>
      </trkpt>
      <trkpt lat="47.34583" lon="2.99818">
        <ele>187.14752197266</ele>
        <time>2016-03-30T12:12:26.000Z</time>
      </trkpt>
      <trkpt lat="47.34584" lon="2.99814">
        <ele>187.09843444824</ele>
        <time>2016-03-30T12:12:29.000Z</time>
      </trkpt>
      <trkpt lat="47.34586" lon="2.99808">
        <ele>187.03897094727</ele>
        <time>2016-03-30T12:12:32.000Z</time>
      </trkpt>
      <trkpt lat="47.34589" lon="2.99803">
        <ele>186.95761108398</ele>
        <time>2016-03-30T12:12:35.000Z</time>
      </trkpt>
      <trkpt lat="47.34591" lon="2.99799">
        <ele>186.87155151367</ele>
        <time>2016-03-30T12:12:38.000Z</time>
      </trkpt>
      <trkpt lat="47.34593" lon="2.99794">
        <ele>186.77987670898</ele>
        <time>2016-03-30T12:12:41.000Z</time>
      </trkpt>
      <trkpt lat="47.34595" lon="2.9979">
        <ele>186.66549682617</ele>
        <time>2016-03-30T12:12:44.000Z</time>
      </trkpt>
      <trkpt lat="47.34597" lon="2.99785">
        <ele>186.54067993164</ele>
        <time>2016-03-30T12:12:47.000Z</time>
      </trkpt>
      <trkpt lat="47.34598" lon="2.9978">
        <ele>186.42364501953</ele>
        <time>2016-03-30T12:12:50.000Z</time>
      </trkpt>
      <trkpt lat="47.34599" lon="2.99777">
        <ele>186.31350708008</ele>
        <time>2016-03-30T12:12:52.000Z</time>
      </trkpt>
      <trkpt lat="47.346" lon="2.99772">
        <ele>186.2035369873</ele>
        <time>2016-03-30T12:12:54.000Z</time>
      </trkpt>
      <trkpt lat="47.34601" lon="2.99768">
        <ele>186.10284423828</ele>
        <time>2016-03-30T12:12:57.000Z</time>
      </trkpt>
      <trkpt lat="47.34604" lon="2.99763">
        <ele>185.98510742188</ele>
        <time>2016-03-30T12:13:00.000Z</time>
      </trkpt>
      <trkpt lat="47.34605" lon="2.9976">
        <ele>185.85949707031</ele>
        <time>2016-03-30T12:13:02.000Z</time>
      </trkpt>
      <trkpt lat="47.34606" lon="2.99756">
        <ele>185.72190856934</ele>
        <time>2016-03-30T12:13:04.000Z</time>
      </trkpt>
      <trkpt lat="47.34608" lon="2.99749">
        <ele>185.55834960938</ele>
        <time>2016-03-30T12:13:07.000Z</time>
      </trkpt>
      <trkpt lat="47.3461" lon="2.99743">
        <ele>185.42510986328</ele>
        <time>2016-03-30T12:13:10.000Z</time>
      </trkpt>
      <trkpt lat="47.34611" lon="2.99741">
        <ele>185.33955383301</ele>
        <time>2016-03-30T12:13:12.000Z</time>
      </trkpt>
      <trkpt lat="47.34611" lon="2.99736">
        <ele>185.29537963867</ele>
        <time>2016-03-30T12:13:15.000Z</time>
      </trkpt>
      <trkpt lat="47.34612" lon="2.99733">
        <ele>185.28015136719</ele>
        <time>2016-03-30T12:13:17.000Z</time>
      </trkpt>
      <trkpt lat="47.34613" lon="2.99728">
        <ele>185.32629394531</ele>
        <time>2016-03-30T12:13:20.000Z</time>
      </trkpt>
      <trkpt lat="47.34612" lon="2.99723">
        <ele>185.40161132812</ele>
        <time>2016-03-30T12:13:23.000Z</time>
      </trkpt>
      <trkpt lat="47.34613" lon="2.99718">
        <ele>185.482421875</ele>
        <time>2016-03-30T12:13:26.000Z</time>
      </trkpt>
      <trkpt lat="47.34613" lon="2.99714">
        <ele>185.55883789062</ele>
        <time>2016-03-30T12:13:28.000Z</time>
      </trkpt>
      <trkpt lat="47.34614" lon="2.9971">
        <ele>185.63525390625</ele>
        <time>2016-03-30T12:13:31.000Z</time>
      </trkpt>
      <trkpt lat="47.34616" lon="2.99704">
        <ele>185.69519042969</ele>
        <time>2016-03-30T12:13:34.000Z</time>
      </trkpt>
      <trkpt lat="47.3462" lon="2.99698">
        <ele>185.69580078125</ele>
        <time>2016-03-30T12:13:37.000Z</time>
      </trkpt>
      <trkpt lat="47.34621" lon="2.99694">
        <ele>185.6845703125</ele>
        <time>2016-03-30T12:13:39.000Z</time>
      </trkpt>
      <trkpt lat="47.34623" lon="2.99691">
        <ele>185.66064453125</ele>
        <time>2016-03-30T12:13:42.000Z</time>
      </trkpt>
      <trkpt lat="47.34623" lon="2.99688">
        <ele>185.63427734375</ele>
        <time>2016-03-30T12:13:44.000Z</time>
      </trkpt>
      <trkpt lat="47.34624" lon="2.99684">
        <ele>185.61828613281</ele>
        <time>2016-03-30T12:13:46.000Z</time>
      </trkpt>
      <trkpt lat="47.34626" lon="2.9968">
        <ele>185.611328125</ele>
        <time>2016-03-30T12:13:49.000Z</time>
      </trkpt>
      <trkpt lat="47.34628" lon="2.99674">
        <ele>185.60925292969</ele>
        <time>2016-03-30T12:13:52.000Z</time>
      </trkpt>
      <trkpt lat="47.34629" lon="2.99671">
        <ele>185.6044921875</ele>
        <time>2016-03-30T12:13:54.000Z</time>
      </trkpt>
      <trkpt lat="47.34631" lon="2.99668">
        <ele>185.58374023438</ele>
        <time>2016-03-30T12:13:57.000Z</time>
      </trkpt>
      <trkpt lat="47.34633" lon="2.99666">
        <ele>185.53845214844</ele>
        <time>2016-03-30T12:13:59.000Z</time>
      </trkpt>
      <trkpt lat="47.34636" lon="2.99662">
        <ele>185.4921875</ele>
        <time>2016-03-30T12:14:02.000Z</time>
      </trkpt>
      <trkpt lat="47.34639" lon="2.99657">
        <ele>185.42346191406</ele>
        <time>2016-03-30T12:14:05.000Z</time>
      </trkpt>
      <trkpt lat="47.3464" lon="2.99653">
        <ele>185.35522460938</ele>
        <time>2016-03-30T12:14:07.000Z</time>
      </trkpt>
      <trkpt lat="47.34641" lon="2.9965">
        <ele>185.29919433594</ele>
        <time>2016-03-30T12:14:09.000Z</time>
      </trkpt>
      <trkpt lat="47.34642" lon="2.99648">
        <ele>185.25366210938</ele>
        <time>2016-03-30T12:14:11.000Z</time>
      </trkpt>
      <trkpt lat="47.34645" lon="2.99644">
        <ele>185.20239257812</ele>
        <time>2016-03-30T12:14:14.000Z</time>
      </trkpt>
      <trkpt lat="47.34647" lon="2.99641">
        <ele>185.16040039062</ele>
        <time>2016-03-30T12:14:17.000Z</time>
      </trkpt>
      <trkpt lat="47.34648" lon="2.99639">
        <ele>185.11145019531</ele>
        <time>2016-03-30T12:14:19.000Z</time>
      </trkpt>
      <trkpt lat="47.34649" lon="2.99635">
        <ele>185.07385253906</ele>
        <time>2016-03-30T12:14:22.000Z</time>
      </trkpt>
      <trkpt lat="47.3465" lon="2.99633">
        <ele>185.03576660156</ele>
        <time>2016-03-30T12:14:24.000Z</time>
      </trkpt>
      <trkpt lat="47.34652" lon="2.99629">
        <ele>185.00793457031</ele>
        <time>2016-03-30T12:14:27.000Z</time>
      </trkpt>
      <trkpt lat="47.34653" lon="2.99624">
        <ele>184.99438476562</ele>
        <time>2016-03-30T12:14:30.000Z</time>
      </trkpt>
      <trkpt lat="47.34654" lon="2.99621">
        <ele>184.99182128906</ele>
        <time>2016-03-30T12:14:32.000Z</time>
      </trkpt>
      <trkpt lat="47.34657" lon="2.99618">
        <ele>184.96105957031</ele>
        <time>2016-03-30T12:14:34.000Z</time>
      </trkpt>
      <trkpt lat="47.3466" lon="2.99615">
        <ele>184.91333007812</ele>
        <time>2016-03-30T12:14:37.000Z</time>
      </trkpt>
      <trkpt lat="47.34663" lon="2.99611">
        <ele>184.84802246094</ele>
        <time>2016-03-30T12:14:40.000Z</time>
      </trkpt>
      <trkpt lat="47.34664" lon="2.99609">
        <ele>184.76953125</ele>
        <time>2016-03-30T12:14:42.000Z</time>
      </trkpt>
      <trkpt lat="47.34666" lon="2.99605">
        <ele>184.68420410156</ele>
        <time>2016-03-30T12:14:45.000Z</time>
      </trkpt>
      <trkpt lat="47.34667" lon="2.99603">
        <ele>184.60809326172</ele>
        <time>2016-03-30T12:14:48.000Z</time>
      </trkpt>
      <trkpt lat="47.34669" lon="2.99601">
        <ele>184.54760742188</ele>
        <time>2016-03-30T12:14:49.000Z</time>
      </trkpt>
      <trkpt lat="47.34673" lon="2.99598">
        <ele>184.50749206543</ele>
        <time>2016-03-30T12:14:52.000Z</time>
      </trkpt>
      <trkpt lat="47.34675" lon="2.99593">
        <ele>184.48007202148</ele>
        <time>2016-03-30T12:14:55.000Z</time>
      </trkpt>
      <trkpt lat="47.34677" lon="2.9959">
        <ele>184.45845031738</ele>
        <time>2016-03-30T12:14:59.000Z</time>
      </trkpt>
      <trkpt lat="47.34679" lon="2.99587">
        <ele>184.44520568848</ele>
        <time>2016-03-30T12:15:00.000Z</time>
      </trkpt>
      <trkpt lat="47.34681" lon="2.99585">
        <ele>184.44644165039</ele>
        <time>2016-03-30T12:15:04.000Z</time>
      </trkpt>
      <trkpt lat="47.34684" lon="2.99581">
        <ele>184.45516967773</ele>
        <time>2016-03-30T12:15:07.000Z</time>
      </trkpt>
      <trkpt lat="47.34687" lon="2.99577">
        <ele>184.45216369629</ele>
        <time>2016-03-30T12:15:10.000Z</time>
      </trkpt>
      <trkpt lat="47.34689" lon="2.99575">
        <ele>184.44398498535</ele>
        <time>2016-03-30T12:15:11.000Z</time>
      </trkpt>
      <trkpt lat="47.34692" lon="2.99572">
        <ele>184.42944335938</ele>
        <time>2016-03-30T12:15:14.000Z</time>
      </trkpt>
      <trkpt lat="47.34694" lon="2.99569">
        <ele>184.4052734375</ele>
        <time>2016-03-30T12:15:17.000Z</time>
      </trkpt>
      <trkpt lat="47.34697" lon="2.99566">
        <ele>184.37939453125</ele>
        <time>2016-03-30T12:15:20.000Z</time>
      </trkpt>
      <trkpt lat="47.347" lon="2.99562">
        <ele>184.35754394531</ele>
        <time>2016-03-30T12:15:23.000Z</time>
      </trkpt>
      <trkpt lat="47.34701" lon="2.99559">
        <ele>184.34094238281</ele>
        <time>2016-03-30T12:15:25.000Z</time>
      </trkpt>
      <trkpt lat="47.34703" lon="2.99557">
        <ele>184.33178710938</ele>
        <time>2016-03-30T12:15:28.000Z</time>
      </trkpt>
      <trkpt lat="47.34707" lon="2.99553">
        <ele>184.31628417969</ele>
        <time>2016-03-30T12:15:31.000Z</time>
      </trkpt>
      <trkpt lat="47.3471" lon="2.9955">
        <ele>184.30200195312</ele>
        <time>2016-03-30T12:15:34.000Z</time>
      </trkpt>
      <trkpt lat="47.34711" lon="2.99548">
        <ele>184.28515625</ele>
        <time>2016-03-30T12:15:37.000Z</time>
      </trkpt>
      <trkpt lat="47.34715" lon="2.99544">
        <ele>184.26135253906</ele>
        <time>2016-03-30T12:15:40.000Z</time>
      </trkpt>
      <trkpt lat="47.34718" lon="2.99541">
        <ele>184.22961425781</ele>
        <time>2016-03-30T12:15:42.000Z</time>
      </trkpt>
      <trkpt lat="47.34721" lon="2.99538">
        <ele>184.20080566406</ele>
        <time>2016-03-30T12:15:45.000Z</time>
      </trkpt>
      <trkpt lat="47.34724" lon="2.99535">
        <ele>184.16711425781</ele>
        <time>2016-03-30T12:15:47.000Z</time>
      </trkpt>
      <trkpt lat="47.34727" lon="2.99531">
        <ele>184.13793945312</ele>
        <time>2016-03-30T12:15:50.000Z</time>
      </trkpt>
      <trkpt lat="47.34729" lon="2.99529">
        <ele>184.111328125</ele>
        <time>2016-03-30T12:15:52.000Z</time>
      </trkpt>
      <trkpt lat="47.34731" lon="2.99525">
        <ele>184.09594726562</ele>
        <time>2016-03-30T12:15:55.000Z</time>
      </trkpt>
      <trkpt lat="47.34732" lon="2.99524">
        <ele>184.08703613281</ele>
        <time>2016-03-30T12:15:57.000Z</time>
      </trkpt>
      <trkpt lat="47.34734" lon="2.99521">
        <ele>184.08239746094</ele>
        <time>2016-03-30T12:16:00.000Z</time>
      </trkpt>
      <trkpt lat="47.34736" lon="2.99519">
        <ele>184.07348632812</ele>
        <time>2016-03-30T12:16:02.000Z</time>
      </trkpt>
      <trkpt lat="47.34737" lon="2.99516">
        <ele>184.07055664062</ele>
        <time>2016-03-30T12:16:04.000Z</time>
      </trkpt>
      <trkpt lat="47.34739" lon="2.99514">
        <ele>184.06530761719</ele>
        <time>2016-03-30T12:16:06.000Z</time>
      </trkpt>
      <trkpt lat="47.34741" lon="2.99512">
        <ele>184.05407714844</ele>
        <time>2016-03-30T12:16:10.000Z</time>
      </trkpt>
      <trkpt lat="47.34743" lon="2.99511">
        <ele>184.03723144531</ele>
        <time>2016-03-30T12:16:11.000Z</time>
      </trkpt>
      <trkpt lat="47.34744" lon="2.99509">
        <ele>184.02478027344</ele>
        <time>2016-03-30T12:16:13.000Z</time>
      </trkpt>
      <trkpt lat="47.34746" lon="2.99508">
        <ele>184.00512695312</ele>
        <time>2016-03-30T12:16:16.000Z</time>
      </trkpt>
      <trkpt lat="47.34747" lon="2.99508">
        <ele>183.97619628906</ele>
        <time>2016-03-30T12:16:18.000Z</time>
      </trkpt>
      <trkpt lat="47.3475" lon="2.99509">
        <ele>183.9268951416</ele>
        <time>2016-03-30T12:16:21.000Z</time>
      </trkpt>
      <trkpt lat="47.34753" lon="2.9951">
        <ele>183.85813903809</ele>
        <time>2016-03-30T12:16:24.000Z</time>
      </trkpt>
      <trkpt lat="47.34755" lon="2.99511">
        <ele>183.75668334961</ele>
        <time>2016-03-30T12:16:27.000Z</time>
      </trkpt>
      <trkpt lat="47.34756" lon="2.99511">
        <ele>183.64706420898</ele>
        <time>2016-03-30T12:16:29.000Z</time>
      </trkpt>
      <trkpt lat="47.34758" lon="2.99513">
        <ele>183.53451538086</ele>
        <time>2016-03-30T12:16:47.000Z</time>
      </trkpt>
      <trkpt lat="47.3476" lon="2.99515">
        <ele>183.42175292969</ele>
        <time>2016-03-30T12:16:50.000Z</time>
      </trkpt>
      <trkpt lat="47.34761" lon="2.99517">
        <ele>183.3060760498</ele>
        <time>2016-03-30T12:16:53.000Z</time>
      </trkpt>
      <trkpt lat="47.34764" lon="2.99519">
        <ele>183.1898651123</ele>
        <time>2016-03-30T12:16:56.000Z</time>
      </trkpt>
      <trkpt lat="47.34767" lon="2.99521">
        <ele>183.05053710938</ele>
        <time>2016-03-30T12:16:59.000Z</time>
      </trkpt>
      <trkpt lat="47.34768" lon="2.99522">
        <ele>182.90747070312</ele>
        <time>2016-03-30T12:17:01.000Z</time>
      </trkpt>
      <trkpt lat="47.34771" lon="2.99525">
        <ele>182.75996398926</ele>
        <time>2016-03-30T12:17:04.000Z</time>
      </trkpt>
      <trkpt lat="47.34774" lon="2.99527">
        <ele>182.6086730957</ele>
        <time>2016-03-30T12:17:07.000Z</time>
      </trkpt>
      <trkpt lat="47.34776" lon="2.99528">
        <ele>182.46881103516</ele>
        <time>2016-03-30T12:17:10.000Z</time>
      </trkpt>
      <trkpt lat="47.34777" lon="2.99529">
        <ele>182.34550476074</ele>
        <time>2016-03-30T12:17:12.000Z</time>
      </trkpt>
      <trkpt lat="47.34779" lon="2.9953">
        <ele>182.22485351562</ele>
        <time>2016-03-30T12:17:14.000Z</time>
      </trkpt>
      <trkpt lat="47.34781" lon="2.99532">
        <ele>182.10745239258</ele>
        <time>2016-03-30T12:17:17.000Z</time>
      </trkpt>
      <trkpt lat="47.34783" lon="2.99533">
        <ele>182.00112915039</ele>
        <time>2016-03-30T12:17:19.000Z</time>
      </trkpt>
      <trkpt lat="47.34785" lon="2.99533">
        <ele>181.89700317383</ele>
        <time>2016-03-30T12:17:21.000Z</time>
      </trkpt>
      <trkpt lat="47.34787" lon="2.99534">
        <ele>181.79528808594</ele>
        <time>2016-03-30T12:17:24.000Z</time>
      </trkpt>
      <trkpt lat="47.34788" lon="2.99535">
        <ele>181.69808959961</ele>
        <time>2016-03-30T12:17:26.000Z</time>
      </trkpt>
      <trkpt lat="47.34788" lon="2.99535">
        <ele>181.69808959961</ele>
        <time>2016-03-30T12:17:46.000Z</time>
      </trkpt>
      <trkpt lat="47.34789" lon="2.99535">
        <ele>181.62016296387</ele>
        <time>2016-03-30T12:18:17.000Z</time>
      </trkpt>
      <trkpt lat="47.34789" lon="2.99536">
        <ele>181.55868530273</ele>
        <time>2016-03-30T12:18:21.000Z</time>
      </trkpt>
      <trkpt lat="47.3479" lon="2.99538">
        <ele>181.49749755859</ele>
        <time>2016-03-30T12:18:23.000Z</time>
      </trkpt>
      <trkpt lat="47.34792" lon="2.99539">
        <ele>181.43713378906</ele>
        <time>2016-03-30T12:18:26.000Z</time>
      </trkpt>
      <trkpt lat="47.34794" lon="2.9954">
        <ele>181.36764526367</ele>
        <time>2016-03-30T12:18:29.000Z</time>
      </trkpt>
      <trkpt lat="47.34796" lon="2.9954">
        <ele>181.28483581543</ele>
        <time>2016-03-30T12:18:32.000Z</time>
      </trkpt>
      <trkpt lat="47.34796" lon="2.9954">
        <ele>181.28483581543</ele>
        <time>2016-03-30T12:18:52.000Z</time>
      </trkpt>
      <trkpt lat="47.34797" lon="2.99539">
        <ele>181.2022857666</ele>
        <time>2016-03-30T12:19:02.000Z</time>
      </trkpt>
      <trkpt lat="47.34798" lon="2.99537">
        <ele>181.1376953125</ele>
        <time>2016-03-30T12:19:14.000Z</time>
      </trkpt>
      <trkpt lat="47.34802" lon="2.99541">
        <ele>181.04542541504</ele>
        <time>2016-03-30T12:19:17.000Z</time>
      </trkpt>
      <trkpt lat="47.34805" lon="2.99543">
        <ele>180.93966674805</ele>
        <time>2016-03-30T12:19:19.000Z</time>
      </trkpt>
      <trkpt lat="47.34807" lon="2.99543">
        <ele>180.8415222168</ele>
        <time>2016-03-30T12:19:21.000Z</time>
      </trkpt>
      <trkpt lat="47.34809" lon="2.99545">
        <ele>180.72030639648</ele>
        <time>2016-03-30T12:19:24.000Z</time>
      </trkpt>
      <trkpt lat="47.34811" lon="2.99546">
        <ele>180.58291625977</ele>
        <time>2016-03-30T12:19:26.000Z</time>
      </trkpt>
      <trkpt lat="47.34814" lon="2.99549">
        <ele>180.46195983887</ele>
        <time>2016-03-30T12:19:29.000Z</time>
      </trkpt>
      <trkpt lat="47.34816" lon="2.99551">
        <ele>180.34468078613</ele>
        <time>2016-03-30T12:19:32.000Z</time>
      </trkpt>
      <trkpt lat="47.34817" lon="2.99553">
        <ele>180.22859191895</ele>
        <time>2016-03-30T12:19:34.000Z</time>
      </trkpt>
      <trkpt lat="47.3482" lon="2.99556">
        <ele>180.11294555664</ele>
        <time>2016-03-30T12:19:37.000Z</time>
      </trkpt>
      <trkpt lat="47.34822" lon="2.99558">
        <ele>179.99263000488</ele>
        <time>2016-03-30T12:19:39.000Z</time>
      </trkpt>
      <trkpt lat="47.34823" lon="2.99559">
        <ele>179.88774108887</ele>
        <time>2016-03-30T12:19:41.000Z</time>
      </trkpt>
      <trkpt lat="47.34825" lon="2.9956">
        <ele>179.79487609863</ele>
        <time>2016-03-30T12:19:43.000Z</time>
      </trkpt>
      <trkpt lat="47.34827" lon="2.99562">
        <ele>179.69166564941</ele>
        <time>2016-03-30T12:19:46.000Z</time>
      </trkpt>
      <trkpt lat="47.3483" lon="2.99565">
        <ele>179.58833312988</ele>
        <time>2016-03-30T12:19:49.000Z</time>
      </trkpt>
      <trkpt lat="47.34833" lon="2.99566">
        <ele>179.48098754883</ele>
        <time>2016-03-30T12:19:52.000Z</time>
      </trkpt>
      <trkpt lat="47.34834" lon="2.99566">
        <ele>179.35772705078</ele>
        <time>2016-03-30T12:19:54.000Z</time>
      </trkpt>
      <trkpt lat="47.34836" lon="2.99564">
        <ele>179.21876525879</ele>
        <time>2016-03-30T12:19:56.000Z</time>
      </trkpt>
      <trkpt lat="47.34839" lon="2.99562">
        <ele>179.04867553711</ele>
        <time>2016-03-30T12:19:59.000Z</time>
      </trkpt>
      <trkpt lat="47.3484" lon="2.9956">
        <ele>178.87503051758</ele>
        <time>2016-03-30T12:20:01.000Z</time>
      </trkpt>
      <trkpt lat="47.34843" lon="2.99558">
        <ele>178.68003845215</ele>
        <time>2016-03-30T12:20:04.000Z</time>
      </trkpt>
      <trkpt lat="47.34846" lon="2.99558">
        <ele>178.45135498047</ele>
        <time>2016-03-30T12:20:06.000Z</time>
      </trkpt>
      <trkpt lat="47.34848" lon="2.99558">
        <ele>178.21165466309</ele>
        <time>2016-03-30T12:20:08.000Z</time>
      </trkpt>
      <trkpt lat="47.34851" lon="2.99558">
        <ele>177.95706176758</ele>
        <time>2016-03-30T12:20:11.000Z</time>
      </trkpt>
      <trkpt lat="47.34854" lon="2.99558">
        <ele>177.66069030762</ele>
        <time>2016-03-30T12:20:14.000Z</time>
      </trkpt>
      <trkpt lat="47.34856" lon="2.99559">
        <ele>177.38388061523</ele>
        <time>2016-03-30T12:20:16.000Z</time>
      </trkpt>
      <trkpt lat="47.34858" lon="2.99558">
        <ele>177.1206817627</ele>
        <time>2016-03-30T12:20:18.000Z</time>
      </trkpt>
      <trkpt lat="47.34862" lon="2.99556">
        <ele>176.82034301758</ele>
        <time>2016-03-30T12:20:21.000Z</time>
      </trkpt>
      <trkpt lat="47.34864" lon="2.99555">
        <ele>176.5394744873</ele>
        <time>2016-03-30T12:20:23.000Z</time>
      </trkpt>
      <trkpt lat="47.34868" lon="2.99554">
        <ele>176.26271057129</ele>
        <time>2016-03-30T12:20:26.000Z</time>
      </trkpt>
      <trkpt lat="47.34872" lon="2.99553">
        <ele>175.94143676758</ele>
        <time>2016-03-30T12:20:28.000Z</time>
      </trkpt>
      <trkpt lat="47.34875" lon="2.9955">
        <ele>175.61227416992</ele>
        <time>2016-03-30T12:20:31.000Z</time>
      </trkpt>
      <trkpt lat="47.34879" lon="2.99548">
        <ele>175.30375671387</ele>
        <time>2016-03-30T12:20:34.000Z</time>
      </trkpt>
      <trkpt lat="47.3488" lon="2.99546">
        <ele>175.03176879883</ele>
        <time>2016-03-30T12:20:36.000Z</time>
      </trkpt>
      <trkpt lat="47.34883" lon="2.99544">
        <ele>174.78378295898</ele>
        <time>2016-03-30T12:20:38.000Z</time>
      </trkpt>
      <trkpt lat="47.34885" lon="2.99541">
        <ele>174.57604980469</ele>
        <time>2016-03-30T12:20:41.000Z</time>
      </trkpt>
      <trkpt lat="47.34887" lon="2.99541">
        <ele>174.38623046875</ele>
        <time>2016-03-30T12:20:43.000Z</time>
      </trkpt>
      <trkpt lat="47.34891" lon="2.99539">
        <ele>174.19052124023</ele>
        <time>2016-03-30T12:20:46.000Z</time>
      </trkpt>
      <trkpt lat="47.34894" lon="2.99539">
        <ele>173.9543762207</ele>
        <time>2016-03-30T12:20:48.000Z</time>
      </trkpt>
      <trkpt lat="47.34898" lon="2.99539">
        <ele>173.68099975586</ele>
        <time>2016-03-30T12:20:51.000Z</time>
      </trkpt>
      <trkpt lat="47.349" lon="2.99539">
        <ele>173.39398193359</ele>
        <time>2016-03-30T12:20:53.000Z</time>
      </trkpt>
      <trkpt lat="47.34903" lon="2.99538">
        <ele>173.09257507324</ele>
        <time>2016-03-30T12:20:56.000Z</time>
      </trkpt>
      <trkpt lat="47.34905" lon="2.99537">
        <ele>172.8317565918</ele>
        <time>2016-03-30T12:20:59.000Z</time>
      </trkpt>
      <trkpt lat="47.34908" lon="2.99534">
        <ele>172.59144592285</ele>
        <time>2016-03-30T12:21:02.000Z</time>
      </trkpt>
      <trkpt lat="47.3491" lon="2.99531">
        <ele>172.42666625977</ele>
        <time>2016-03-30T12:21:04.000Z</time>
      </trkpt>
      <trkpt lat="47.34913" lon="2.99525">
        <ele>172.29615783691</ele>
        <time>2016-03-30T12:21:07.000Z</time>
      </trkpt>
      <trkpt lat="47.34915" lon="2.99523">
        <ele>172.20294189453</ele>
        <time>2016-03-30T12:21:09.000Z</time>
      </trkpt>
      <trkpt lat="47.34917" lon="2.99519">
        <ele>172.13597106934</ele>
        <time>2016-03-30T12:21:12.000Z</time>
      </trkpt>
      <trkpt lat="47.3492" lon="2.99514">
        <ele>172.1199798584</ele>
        <time>2016-03-30T12:21:15.000Z</time>
      </trkpt>
      <trkpt lat="47.34922" lon="2.99511">
        <ele>172.13023376465</ele>
        <time>2016-03-30T12:21:17.000Z</time>
      </trkpt>
      <trkpt lat="47.34923" lon="2.99509">
        <ele>172.16514587402</ele>
        <time>2016-03-30T12:21:19.000Z</time>
      </trkpt>
      <trkpt lat="47.34924" lon="2.99506">
        <ele>172.22187805176</ele>
        <time>2016-03-30T12:21:21.000Z</time>
      </trkpt>
      <trkpt lat="47.34926" lon="2.99502">
        <ele>172.29988098145</ele>
        <time>2016-03-30T12:21:24.000Z</time>
      </trkpt>
      <trkpt lat="47.34927" lon="2.99498">
        <ele>172.37496948242</ele>
        <time>2016-03-30T12:21:27.000Z</time>
      </trkpt>
      <trkpt lat="47.3493" lon="2.99494">
        <ele>172.42176818848</ele>
        <time>2016-03-30T12:21:30.000Z</time>
      </trkpt>
      <trkpt lat="47.34932" lon="2.99491">
        <ele>172.4467010498</ele>
        <time>2016-03-30T12:21:32.000Z</time>
      </trkpt>
      <trkpt lat="47.34933" lon="2.99489">
        <ele>172.46200561523</ele>
        <time>2016-03-30T12:21:34.000Z</time>
      </trkpt>
      <trkpt lat="47.34935" lon="2.99486">
        <ele>172.4486541748</ele>
        <time>2016-03-30T12:21:36.000Z</time>
      </trkpt>
      <trkpt lat="47.34937" lon="2.99482">
        <ele>172.41174316406</ele>
        <time>2016-03-30T12:21:39.000Z</time>
      </trkpt>
      <trkpt lat="47.34938" lon="2.99479">
        <ele>172.38064575195</ele>
        <time>2016-03-30T12:21:41.000Z</time>
      </trkpt>
      <trkpt lat="47.34941" lon="2.99475">
        <ele>172.3445892334</ele>
        <time>2016-03-30T12:21:44.000Z</time>
      </trkpt>
      <trkpt lat="47.34943" lon="2.99472">
        <ele>172.30302429199</ele>
        <time>2016-03-30T12:21:46.000Z</time>
      </trkpt>
      <trkpt lat="47.34944" lon="2.99469">
        <ele>172.25897216797</ele>
        <time>2016-03-30T12:21:48.000Z</time>
      </trkpt>
      <trkpt lat="47.34946" lon="2.99465">
        <ele>172.21534729004</ele>
        <time>2016-03-30T12:21:51.000Z</time>
      </trkpt>
      <trkpt lat="47.34949" lon="2.99461">
        <ele>172.15364074707</ele>
        <time>2016-03-30T12:21:54.000Z</time>
      </trkpt>
      <trkpt lat="47.34953" lon="2.99457">
        <ele>172.07743835449</ele>
        <time>2016-03-30T12:21:57.000Z</time>
      </trkpt>
      <trkpt lat="47.34956" lon="2.99454">
        <ele>171.97463989258</ele>
        <time>2016-03-30T12:22:00.000Z</time>
      </trkpt>
      <trkpt lat="47.34958" lon="2.99451">
        <ele>171.86111450195</ele>
        <time>2016-03-30T12:22:02.000Z</time>
      </trkpt>
      <trkpt lat="47.34961" lon="2.99448">
        <ele>171.72982788086</ele>
        <time>2016-03-30T12:22:04.000Z</time>
      </trkpt>
      <trkpt lat="47.34963" lon="2.99444">
        <ele>171.60275268555</ele>
        <time>2016-03-30T12:22:07.000Z</time>
      </trkpt>
      <trkpt lat="47.34965" lon="2.99441">
        <ele>171.48829650879</ele>
        <time>2016-03-30T12:22:09.000Z</time>
      </trkpt>
      <trkpt lat="47.34967" lon="2.99437">
        <ele>171.38566589355</ele>
        <time>2016-03-30T12:22:12.000Z</time>
      </trkpt>
      <trkpt lat="47.3497" lon="2.99432">
        <ele>171.27157592773</ele>
        <time>2016-03-30T12:22:15.000Z</time>
      </trkpt>
      <trkpt lat="47.34971" lon="2.9943">
        <ele>171.17880249023</ele>
        <time>2016-03-30T12:22:17.000Z</time>
      </trkpt>
      <trkpt lat="47.34973" lon="2.99426">
        <ele>171.08163452148</ele>
        <time>2016-03-30T12:22:19.000Z</time>
      </trkpt>
      <trkpt lat="47.34974" lon="2.99424">
        <ele>170.98001098633</ele>
        <time>2016-03-30T12:22:21.000Z</time>
      </trkpt>
      <trkpt lat="47.34977" lon="2.99421">
        <ele>170.87780761719</ele>
        <time>2016-03-30T12:22:24.000Z</time>
      </trkpt>
      <trkpt lat="47.34979" lon="2.99417">
        <ele>170.77536010742</ele>
        <time>2016-03-30T12:22:26.000Z</time>
      </trkpt>
      <trkpt lat="47.34981" lon="2.99414">
        <ele>170.64471435547</ele>
        <time>2016-03-30T12:22:29.000Z</time>
      </trkpt>
      <trkpt lat="47.34983" lon="2.99411">
        <ele>170.50662231445</ele>
        <time>2016-03-30T12:22:31.000Z</time>
      </trkpt>
      <trkpt lat="47.34986" lon="2.99406">
        <ele>170.34707641602</ele>
        <time>2016-03-30T12:22:34.000Z</time>
      </trkpt>
      <trkpt lat="47.34988" lon="2.99403">
        <ele>170.18859863281</ele>
        <time>2016-03-30T12:22:36.000Z</time>
      </trkpt>
      <trkpt lat="47.3499" lon="2.99398">
        <ele>170.037109375</ele>
        <time>2016-03-30T12:22:39.000Z</time>
      </trkpt>
      <trkpt lat="47.34992" lon="2.99395">
        <ele>169.87890625</ele>
        <time>2016-03-30T12:22:41.000Z</time>
      </trkpt>
      <trkpt lat="47.34994" lon="2.99392">
        <ele>169.720703125</ele>
        <time>2016-03-30T12:22:44.000Z</time>
      </trkpt>
      <trkpt lat="47.34995" lon="2.99389">
        <ele>169.59765625</ele>
        <time>2016-03-30T12:22:46.000Z</time>
      </trkpt>
      <trkpt lat="47.34996" lon="2.99383">
        <ele>169.474609375</ele>
        <time>2016-03-30T12:22:49.000Z</time>
      </trkpt>
      <trkpt lat="47.34998" lon="2.99379">
        <ele>169.3515625</ele>
        <time>2016-03-30T12:22:52.000Z</time>
      </trkpt>
      <trkpt lat="47.34998" lon="2.99374">
        <ele>169.263671875</ele>
        <time>2016-03-30T12:22:55.000Z</time>
      </trkpt>
      <trkpt lat="47.34998" lon="2.99371">
        <ele>169.205078125</ele>
        <time>2016-03-30T12:22:57.000Z</time>
      </trkpt>
      <trkpt lat="47.35001" lon="2.99366">
        <ele>169.11947631836</ele>
        <time>2016-03-30T12:23:00.000Z</time>
      </trkpt>
      <trkpt lat="47.35002" lon="2.99362">
        <ele>169.04739379883</ele>
        <time>2016-03-30T12:23:02.000Z</time>
      </trkpt>
      <trkpt lat="47.35004" lon="2.99359">
        <ele>168.97334289551</ele>
        <time>2016-03-30T12:23:05.000Z</time>
      </trkpt>
      <trkpt lat="47.35005" lon="2.99356">
        <ele>168.88903808594</ele>
        <time>2016-03-30T12:23:07.000Z</time>
      </trkpt>
      <trkpt lat="47.35006" lon="2.99353">
        <ele>168.78280639648</ele>
        <time>2016-03-30T12:23:09.000Z</time>
      </trkpt>
      <trkpt lat="47.35008" lon="2.99349">
        <ele>168.69149780273</ele>
        <time>2016-03-30T12:23:12.000Z</time>
      </trkpt>
      <trkpt lat="47.35009" lon="2.99345">
        <ele>168.59078979492</ele>
        <time>2016-03-30T12:23:14.000Z</time>
      </trkpt>
      <trkpt lat="47.3501" lon="2.99342">
        <ele>168.50224304199</ele>
        <time>2016-03-30T12:23:16.000Z</time>
      </trkpt>
      <trkpt lat="47.35011" lon="2.99338">
        <ele>168.40396118164</ele>
        <time>2016-03-30T12:23:19.000Z</time>
      </trkpt>
      <trkpt lat="47.35013" lon="2.99335">
        <ele>168.30087280273</ele>
        <time>2016-03-30T12:23:22.000Z</time>
      </trkpt>
      <trkpt lat="47.35013" lon="2.99333">
        <ele>168.21354675293</ele>
        <time>2016-03-30T12:23:24.000Z</time>
      </trkpt>
      <trkpt lat="47.35015" lon="2.99327">
        <ele>168.11134338379</ele>
        <time>2016-03-30T12:23:27.000Z</time>
      </trkpt>
      <trkpt lat="47.35016" lon="2.99323">
        <ele>168.00048828125</ele>
        <time>2016-03-30T12:23:29.000Z</time>
      </trkpt>
      <trkpt lat="47.35018" lon="2.99319">
        <ele>167.88693237305</ele>
        <time>2016-03-30T12:23:32.000Z</time>
      </trkpt>
      <trkpt lat="47.3502" lon="2.99314">
        <ele>167.76956176758</ele>
        <time>2016-03-30T12:23:35.000Z</time>
      </trkpt>
      <trkpt lat="47.35021" lon="2.9931">
        <ele>167.62484741211</ele>
        <time>2016-03-30T12:23:37.000Z</time>
      </trkpt>
      <trkpt lat="47.35023" lon="2.99308">
        <ele>167.4852142334</ele>
        <time>2016-03-30T12:23:39.000Z</time>
      </trkpt>
      <trkpt lat="47.35025" lon="2.99302">
        <ele>167.32778930664</ele>
        <time>2016-03-30T12:23:42.000Z</time>
      </trkpt>
      <trkpt lat="47.35025" lon="2.993">
        <ele>167.18804931641</ele>
        <time>2016-03-30T12:23:44.000Z</time>
      </trkpt>
      <trkpt lat="47.35027" lon="2.99296">
        <ele>167.05380249023</ele>
        <time>2016-03-30T12:23:47.000Z</time>
      </trkpt>
      <trkpt lat="47.35028" lon="2.99292">
        <ele>166.92289733887</ele>
        <time>2016-03-30T12:23:50.000Z</time>
      </trkpt>
      <trkpt lat="47.35029" lon="2.9929">
        <ele>166.79612731934</ele>
        <time>2016-03-30T12:23:52.000Z</time>
      </trkpt>
      <trkpt lat="47.35031" lon="2.99285">
        <ele>166.66654968262</ele>
        <time>2016-03-30T12:23:55.000Z</time>
      </trkpt>
      <trkpt lat="47.35031" lon="2.99283">
        <ele>166.54364013672</ele>
        <time>2016-03-30T12:23:57.000Z</time>
      </trkpt>
      <trkpt lat="47.35032" lon="2.9928">
        <ele>166.41955566406</ele>
        <time>2016-03-30T12:23:59.000Z</time>
      </trkpt>
      <trkpt lat="47.35034" lon="2.99276">
        <ele>166.27816772461</ele>
        <time>2016-03-30T12:24:02.000Z</time>
      </trkpt>
      <trkpt lat="47.35037" lon="2.99271">
        <ele>166.10173034668</ele>
        <time>2016-03-30T12:24:05.000Z</time>
      </trkpt>
      <trkpt lat="47.35039" lon="2.99267">
        <ele>165.92080688477</ele>
        <time>2016-03-30T12:24:08.000Z</time>
      </trkpt>
      <trkpt lat="47.3504" lon="2.99262">
        <ele>165.71104431152</ele>
        <time>2016-03-30T12:24:11.000Z</time>
      </trkpt>
      <trkpt lat="47.35042" lon="2.99257">
        <ele>165.47749328613</ele>
        <time>2016-03-30T12:24:14.000Z</time>
      </trkpt>
      <trkpt lat="47.35043" lon="2.99253">
        <ele>165.26171875</ele>
        <time>2016-03-30T12:24:17.000Z</time>
      </trkpt>
      <trkpt lat="47.35043" lon="2.9925">
        <ele>165.09704589844</ele>
        <time>2016-03-30T12:24:20.000Z</time>
      </trkpt>
      <trkpt lat="47.35044" lon="2.99246">
        <ele>164.9409942627</ele>
        <time>2016-03-30T12:24:22.000Z</time>
      </trkpt>
      <trkpt lat="47.35045" lon="2.99241">
        <ele>164.77261352539</ele>
        <time>2016-03-30T12:24:26.000Z</time>
      </trkpt>
      <trkpt lat="47.35045" lon="2.99237">
        <ele>164.62634277344</ele>
        <time>2016-03-30T12:24:27.000Z</time>
      </trkpt>
      <trkpt lat="47.35046" lon="2.99236">
        <ele>164.4810333252</ele>
        <time>2016-03-30T12:24:29.000Z</time>
      </trkpt>
      <trkpt lat="47.35047" lon="2.99232">
        <ele>164.30493164062</ele>
        <time>2016-03-30T12:24:32.000Z</time>
      </trkpt>
      <trkpt lat="47.35047" lon="2.99228">
        <ele>164.1385345459</ele>
        <time>2016-03-30T12:24:34.000Z</time>
      </trkpt>
      <trkpt lat="47.35049" lon="2.99224">
        <ele>163.96188354492</ele>
        <time>2016-03-30T12:24:37.000Z</time>
      </trkpt>
      <trkpt lat="47.35051" lon="2.99218">
        <ele>163.7533416748</ele>
        <time>2016-03-30T12:24:40.000Z</time>
      </trkpt>
      <trkpt lat="47.35052" lon="2.99214">
        <ele>163.51501464844</ele>
        <time>2016-03-30T12:24:43.000Z</time>
      </trkpt>
      <trkpt lat="47.35053" lon="2.99209">
        <ele>163.27040100098</ele>
        <time>2016-03-30T12:24:46.000Z</time>
      </trkpt>
      <trkpt lat="47.35053" lon="2.99206">
        <ele>163.03059387207</ele>
        <time>2016-03-30T12:24:48.000Z</time>
      </trkpt>
      <trkpt lat="47.35054" lon="2.99202">
        <ele>162.81065368652</ele>
        <time>2016-03-30T12:24:50.000Z</time>
      </trkpt>
      <trkpt lat="47.35055" lon="2.99199">
        <ele>162.62007141113</ele>
        <time>2016-03-30T12:24:52.000Z</time>
      </trkpt>
      <trkpt lat="47.35056" lon="2.99194">
        <ele>162.43382263184</ele>
        <time>2016-03-30T12:24:55.000Z</time>
      </trkpt>
      <trkpt lat="47.35057" lon="2.99191">
        <ele>162.2600402832</ele>
        <time>2016-03-30T12:24:57.000Z</time>
      </trkpt>
      <trkpt lat="47.35058" lon="2.99188">
        <ele>162.07998657227</ele>
        <time>2016-03-30T12:24:59.000Z</time>
      </trkpt>
      <trkpt lat="47.35059" lon="2.99183">
        <ele>161.89468383789</ele>
        <time>2016-03-30T12:25:02.000Z</time>
      </trkpt>
      <trkpt lat="47.35059" lon="2.99179">
        <ele>161.70600891113</ele>
        <time>2016-03-30T12:25:04.000Z</time>
      </trkpt>
      <trkpt lat="47.3506" lon="2.99174">
        <ele>161.53405761719</ele>
        <time>2016-03-30T12:25:07.000Z</time>
      </trkpt>
      <trkpt lat="47.35059" lon="2.9917">
        <ele>161.38809204102</ele>
        <time>2016-03-30T12:25:10.000Z</time>
      </trkpt>
      <trkpt lat="47.3506" lon="2.99165">
        <ele>161.23254394531</ele>
        <time>2016-03-30T12:25:13.000Z</time>
      </trkpt>
      <trkpt lat="47.3506" lon="2.99163">
        <ele>161.11087036133</ele>
        <time>2016-03-30T12:25:16.000Z</time>
      </trkpt>
      <trkpt lat="47.3506" lon="2.99159">
        <ele>161.01075744629</ele>
        <time>2016-03-30T12:25:18.000Z</time>
      </trkpt>
      <trkpt lat="47.3506" lon="2.99158">
        <ele>160.93370056152</ele>
        <time>2016-03-30T12:25:28.000Z</time>
      </trkpt>
      <trkpt lat="47.3506" lon="2.99157">
        <ele>160.85903930664</ele>
        <time>2016-03-30T12:25:35.000Z</time>
      </trkpt>
      <trkpt lat="47.3506" lon="2.99154">
        <ele>160.81571960449</ele>
        <time>2016-03-30T12:25:38.000Z</time>
      </trkpt>
      <trkpt lat="47.3506" lon="2.99154">
        <ele>160.81571960449</ele>
        <time>2016-03-30T12:25:58.000Z</time>
      </trkpt>
      <trkpt lat="47.35061" lon="2.99155">
        <ele>160.76937866211</ele>
        <time>2016-03-30T12:26:14.000Z</time>
      </trkpt>
      <trkpt lat="47.35061" lon="2.99155">
        <ele>160.76937866211</ele>
        <time>2016-03-30T12:26:34.000Z</time>
      </trkpt>
      <trkpt lat="47.35061" lon="2.99153">
        <ele>160.72988891602</ele>
        <time>2016-03-30T12:26:52.000Z</time>
      </trkpt>
      <trkpt lat="47.35061" lon="2.99153">
        <ele>160.72988891602</ele>
        <time>2016-03-30T12:27:12.000Z</time>
      </trkpt>
      <trkpt lat="47.35061" lon="2.99152">
        <ele>160.69621276855</ele>
        <time>2016-03-30T12:27:43.000Z</time>
      </trkpt>
      <trkpt lat="47.35061" lon="2.9915">
        <ele>160.66110229492</ele>
        <time>2016-03-30T12:27:46.000Z</time>
      </trkpt>
      <trkpt lat="47.35061" lon="2.99146">
        <ele>160.62406921387</ele>
        <time>2016-03-30T12:27:48.000Z</time>
      </trkpt>
      <trkpt lat="47.35062" lon="2.99139">
        <ele>160.55894470215</ele>
        <time>2016-03-30T12:27:51.000Z</time>
      </trkpt>
      <trkpt lat="47.35064" lon="2.99136">
        <ele>160.47244262695</ele>
        <time>2016-03-30T12:27:54.000Z</time>
      </trkpt>
      <trkpt lat="47.35065" lon="2.99131">
        <ele>160.36366271973</ele>
        <time>2016-03-30T12:27:57.000Z</time>
      </trkpt>
      <trkpt lat="47.35066" lon="2.99125">
        <ele>160.23249816895</ele>
        <time>2016-03-30T12:28:00.000Z</time>
      </trkpt>
      <trkpt lat="47.35067" lon="2.99122">
        <ele>160.09536743164</ele>
        <time>2016-03-30T12:28:02.000Z</time>
      </trkpt>
      <trkpt lat="47.35068" lon="2.99119">
        <ele>159.98034667969</ele>
        <time>2016-03-30T12:28:05.000Z</time>
      </trkpt>
      <trkpt lat="47.3507" lon="2.99113">
        <ele>159.86111450195</ele>
        <time>2016-03-30T12:28:08.000Z</time>
      </trkpt>
      <trkpt lat="47.35071" lon="2.99109">
        <ele>159.74917602539</ele>
        <time>2016-03-30T12:28:11.000Z</time>
      </trkpt>
      <trkpt lat="47.35072" lon="2.99106">
        <ele>159.65509033203</ele>
        <time>2016-03-30T12:28:13.000Z</time>
      </trkpt>
      <trkpt lat="47.35073" lon="2.99102">
        <ele>159.56051635742</ele>
        <time>2016-03-30T12:28:16.000Z</time>
      </trkpt>
      <trkpt lat="47.35074" lon="2.99098">
        <ele>159.46853637695</ele>
        <time>2016-03-30T12:28:19.000Z</time>
      </trkpt>
      <trkpt lat="47.35075" lon="2.99095">
        <ele>159.3984375</ele>
        <time>2016-03-30T12:28:21.000Z</time>
      </trkpt>
      <trkpt lat="47.35077" lon="2.9909">
        <ele>159.33241271973</ele>
        <time>2016-03-30T12:28:24.000Z</time>
      </trkpt>
      <trkpt lat="47.35077" lon="2.99086">
        <ele>159.26876831055</ele>
        <time>2016-03-30T12:28:26.000Z</time>
      </trkpt>
      <trkpt lat="47.35079" lon="2.9908">
        <ele>159.20919799805</ele>
        <time>2016-03-30T12:28:29.000Z</time>
      </trkpt>
      <trkpt lat="47.35081" lon="2.99077">
        <ele>159.15699768066</ele>
        <time>2016-03-30T12:28:31.000Z</time>
      </trkpt>
      <trkpt lat="47.35082" lon="2.99074">
        <ele>159.10652160645</ele>
        <time>2016-03-30T12:28:33.000Z</time>
      </trkpt>
      <trkpt lat="47.35084" lon="2.9907">
        <ele>159.06521606445</ele>
        <time>2016-03-30T12:28:36.000Z</time>
      </trkpt>
      <trkpt lat="47.35086" lon="2.99068">
        <ele>159.02973937988</ele>
        <time>2016-03-30T12:28:38.000Z</time>
      </trkpt>
      <trkpt lat="47.35088" lon="2.99062">
        <ele>159.00651550293</ele>
        <time>2016-03-30T12:28:41.000Z</time>
      </trkpt>
      <trkpt lat="47.35088" lon="2.99058">
        <ele>158.98965454102</ele>
        <time>2016-03-30T12:28:43.000Z</time>
      </trkpt>
      <trkpt lat="47.3509" lon="2.99052">
        <ele>158.98062133789</ele>
        <time>2016-03-30T12:28:46.000Z</time>
      </trkpt>
      <trkpt lat="47.35091" lon="2.99047">
        <ele>158.97956848145</ele>
        <time>2016-03-30T12:28:49.000Z</time>
      </trkpt>
      <trkpt lat="47.35093" lon="2.99042">
        <ele>158.98373413086</ele>
        <time>2016-03-30T12:28:52.000Z</time>
      </trkpt>
      <trkpt lat="47.35094" lon="2.99039">
        <ele>158.99049377441</ele>
        <time>2016-03-30T12:28:54.000Z</time>
      </trkpt>
      <trkpt lat="47.35096" lon="2.99035">
        <ele>158.99998474121</ele>
        <time>2016-03-30T12:28:56.000Z</time>
      </trkpt>
      <trkpt lat="47.35097" lon="2.99031">
        <ele>159.01229858398</ele>
        <time>2016-03-30T12:28:58.000Z</time>
      </trkpt>
      <trkpt lat="47.35099" lon="2.99026">
        <ele>159.02906799316</ele>
        <time>2016-03-30T12:29:01.000Z</time>
      </trkpt>
      <trkpt lat="47.351" lon="2.99023">
        <ele>159.04716491699</ele>
        <time>2016-03-30T12:29:03.000Z</time>
      </trkpt>
      <trkpt lat="47.35102" lon="2.9902">
        <ele>159.06819152832</ele>
        <time>2016-03-30T12:29:06.000Z</time>
      </trkpt>
      <trkpt lat="47.35103" lon="2.99016">
        <ele>159.09208679199</ele>
        <time>2016-03-30T12:29:09.000Z</time>
      </trkpt>
      <trkpt lat="47.35104" lon="2.99011">
        <ele>159.12084960938</ele>
        <time>2016-03-30T12:29:12.000Z</time>
      </trkpt>
      <trkpt lat="47.35105" lon="2.99008">
        <ele>159.14804077148</ele>
        <time>2016-03-30T12:29:14.000Z</time>
      </trkpt>
      <trkpt lat="47.35106" lon="2.99003">
        <ele>159.18128967285</ele>
        <time>2016-03-30T12:29:17.000Z</time>
      </trkpt>
      <trkpt lat="47.3511" lon="2.98999">
        <ele>159.22814941406</ele>
        <time>2016-03-30T12:29:20.000Z</time>
      </trkpt>
      <trkpt lat="47.35112" lon="2.98995">
        <ele>159.30171203613</ele>
        <time>2016-03-30T12:29:22.000Z</time>
      </trkpt>
      <trkpt lat="47.35114" lon="2.98991">
        <ele>159.39540100098</ele>
        <time>2016-03-30T12:29:24.000Z</time>
      </trkpt>
      <trkpt lat="47.35116" lon="2.98986">
        <ele>159.52517700195</ele>
        <time>2016-03-30T12:29:27.000Z</time>
      </trkpt>
      <trkpt lat="47.35117" lon="2.98983">
        <ele>159.67126464844</ele>
        <time>2016-03-30T12:29:29.000Z</time>
      </trkpt>
      <trkpt lat="47.35118" lon="2.98977">
        <ele>159.83934020996</ele>
        <time>2016-03-30T12:29:32.000Z</time>
      </trkpt>
      <trkpt lat="47.35119" lon="2.98975">
        <ele>159.99761962891</ele>
        <time>2016-03-30T12:29:34.000Z</time>
      </trkpt>
      <trkpt lat="47.3512" lon="2.98969">
        <ele>160.17178344727</ele>
        <time>2016-03-30T12:29:37.000Z</time>
      </trkpt>
      <trkpt lat="47.35121" lon="2.98964">
        <ele>160.3404083252</ele>
        <time>2016-03-30T12:29:40.000Z</time>
      </trkpt>
      <trkpt lat="47.35121" lon="2.9896">
        <ele>160.51086425781</ele>
        <time>2016-03-30T12:29:42.000Z</time>
      </trkpt>
      <trkpt lat="47.35122" lon="2.98954">
        <ele>160.68435668945</ele>
        <time>2016-03-30T12:29:45.000Z</time>
      </trkpt>
      <trkpt lat="47.35122" lon="2.98952">
        <ele>160.85543823242</ele>
        <time>2016-03-30T12:29:47.000Z</time>
      </trkpt>
      <trkpt lat="47.35121" lon="2.98947">
        <ele>161.01080322266</ele>
        <time>2016-03-30T12:29:50.000Z</time>
      </trkpt>
      <trkpt lat="47.3512" lon="2.98943">
        <ele>161.15420532227</ele>
        <time>2016-03-30T12:29:52.000Z</time>
      </trkpt>
      <trkpt lat="47.3512" lon="2.98937">
        <ele>161.31340026855</ele>
        <time>2016-03-30T12:29:55.000Z</time>
      </trkpt>
      <trkpt lat="47.35119" lon="2.98932">
        <ele>161.45376586914</ele>
        <time>2016-03-30T12:29:57.000Z</time>
      </trkpt>
      <trkpt lat="47.35118" lon="2.98928">
        <ele>161.59188842773</ele>
        <time>2016-03-30T12:29:59.000Z</time>
      </trkpt>
      <trkpt lat="47.35118" lon="2.98923">
        <ele>161.73309326172</ele>
        <time>2016-03-30T12:30:02.000Z</time>
      </trkpt>
      <trkpt lat="47.35117" lon="2.9892">
        <ele>161.86930847168</ele>
        <time>2016-03-30T12:30:04.000Z</time>
      </trkpt>
      <trkpt lat="47.35117" lon="2.98917">
        <ele>161.97958374023</ele>
        <time>2016-03-30T12:30:06.000Z</time>
      </trkpt>
      <trkpt lat="47.35116" lon="2.98912">
        <ele>162.1060333252</ele>
        <time>2016-03-30T12:30:09.000Z</time>
      </trkpt>
      <trkpt lat="47.35117" lon="2.98908">
        <ele>162.24320983887</ele>
        <time>2016-03-30T12:30:11.000Z</time>
      </trkpt>
      <trkpt lat="47.35117" lon="2.98904">
        <ele>162.38916015625</ele>
        <time>2016-03-30T12:30:14.000Z</time>
      </trkpt>
      <trkpt lat="47.35117" lon="2.989">
        <ele>162.5466003418</ele>
        <time>2016-03-30T12:30:16.000Z</time>
      </trkpt>
      <trkpt lat="47.35117" lon="2.98896">
        <ele>162.72103881836</ele>
        <time>2016-03-30T12:30:18.000Z</time>
      </trkpt>
      <trkpt lat="47.35117" lon="2.9889">
        <ele>162.90319824219</ele>
        <time>2016-03-30T12:30:21.000Z</time>
      </trkpt>
      <trkpt lat="47.35117" lon="2.98887">
        <ele>163.07649230957</ele>
        <time>2016-03-30T12:30:23.000Z</time>
      </trkpt>
      <trkpt lat="47.35116" lon="2.98882">
        <ele>163.24897766113</ele>
        <time>2016-03-30T12:30:26.000Z</time>
      </trkpt>
      <trkpt lat="47.35115" lon="2.98878">
        <ele>163.42170715332</ele>
        <time>2016-03-30T12:30:28.000Z</time>
      </trkpt>
      <trkpt lat="47.35115" lon="2.98872">
        <ele>163.60275268555</ele>
        <time>2016-03-30T12:30:31.000Z</time>
      </trkpt>
      <trkpt lat="47.35115" lon="2.98868">
        <ele>163.77328491211</ele>
        <time>2016-03-30T12:30:34.000Z</time>
      </trkpt>
      <trkpt lat="47.35115" lon="2.98864">
        <ele>163.95007324219</ele>
        <time>2016-03-30T12:30:36.000Z</time>
      </trkpt>
      <trkpt lat="47.35115" lon="2.98861">
        <ele>164.11410522461</ele>
        <time>2016-03-30T12:30:38.000Z</time>
      </trkpt>
      <trkpt lat="47.35114" lon="2.98856">
        <ele>164.28196716309</ele>
        <time>2016-03-30T12:30:41.000Z</time>
      </trkpt>
      <trkpt lat="47.35114" lon="2.98853">
        <ele>164.42741394043</ele>
        <time>2016-03-30T12:30:43.000Z</time>
      </trkpt>
      <trkpt lat="47.35114" lon="2.98847">
        <ele>164.57221984863</ele>
        <time>2016-03-30T12:30:46.000Z</time>
      </trkpt>
      <trkpt lat="47.35113" lon="2.98846">
        <ele>164.69975280762</ele>
        <time>2016-03-30T12:30:48.000Z</time>
      </trkpt>
      <trkpt lat="47.35112" lon="2.98841">
        <ele>164.83053588867</ele>
        <time>2016-03-30T12:30:51.000Z</time>
      </trkpt>
      <trkpt lat="47.35112" lon="2.98836">
        <ele>164.96536254883</ele>
        <time>2016-03-30T12:30:54.000Z</time>
      </trkpt>
      <trkpt lat="47.35111" lon="2.98833">
        <ele>165.09507751465</ele>
        <time>2016-03-30T12:30:56.000Z</time>
      </trkpt>
      <trkpt lat="47.3511" lon="2.98828">
        <ele>165.22103881836</ele>
        <time>2016-03-30T12:30:59.000Z</time>
      </trkpt>
      <trkpt lat="47.3511" lon="2.98824">
        <ele>165.36041259766</ele>
        <time>2016-03-30T12:31:01.000Z</time>
      </trkpt>
      <trkpt lat="47.35109" lon="2.9882">
        <ele>165.48683166504</ele>
        <time>2016-03-30T12:31:03.000Z</time>
      </trkpt>
      <trkpt lat="47.35109" lon="2.98816">
        <ele>165.60748291016</ele>
        <time>2016-03-30T12:31:06.000Z</time>
      </trkpt>
      <trkpt lat="47.35109" lon="2.98813">
        <ele>165.73132324219</ele>
        <time>2016-03-30T12:31:08.000Z</time>
      </trkpt>
      <trkpt lat="47.35109" lon="2.98809">
        <ele>165.85009765625</ele>
        <time>2016-03-30T12:31:11.000Z</time>
      </trkpt>
      <trkpt lat="47.35109" lon="2.98806">
        <ele>165.96801757812</ele>
        <time>2016-03-30T12:31:13.000Z</time>
      </trkpt>
      <trkpt lat="47.35109" lon="2.988">
        <ele>166.11395263672</ele>
        <time>2016-03-30T12:31:16.000Z</time>
      </trkpt>
      <trkpt lat="47.35109" lon="2.98795">
        <ele>166.25799560547</ele>
        <time>2016-03-30T12:31:19.000Z</time>
      </trkpt>
      <trkpt lat="47.35109" lon="2.98791">
        <ele>166.41375732422</ele>
        <time>2016-03-30T12:31:21.000Z</time>
      </trkpt>
      <trkpt lat="47.35109" lon="2.98788">
        <ele>166.56439208984</ele>
        <time>2016-03-30T12:31:23.000Z</time>
      </trkpt>
      <trkpt lat="47.35108" lon="2.98782">
        <ele>166.73095703125</ele>
        <time>2016-03-30T12:31:26.000Z</time>
      </trkpt>
      <trkpt lat="47.35108" lon="2.98777">
        <ele>166.88330078125</ele>
        <time>2016-03-30T12:31:29.000Z</time>
      </trkpt>
      <trkpt lat="47.35107" lon="2.98773">
        <ele>167.03063964844</ele>
        <time>2016-03-30T12:31:32.000Z</time>
      </trkpt>
      <trkpt lat="47.35107" lon="2.9877">
        <ele>167.16290283203</ele>
        <time>2016-03-30T12:31:34.000Z</time>
      </trkpt>
      <trkpt lat="47.35106" lon="2.98766">
        <ele>167.29064941406</ele>
        <time>2016-03-30T12:31:36.000Z</time>
      </trkpt>
      <trkpt lat="47.35105" lon="2.98761">
        <ele>167.41064453125</ele>
        <time>2016-03-30T12:31:39.000Z</time>
      </trkpt>
      <trkpt lat="47.35104" lon="2.98755">
        <ele>167.53625488281</ele>
        <time>2016-03-30T12:31:42.000Z</time>
      </trkpt>
      <trkpt lat="47.35103" lon="2.98749">
        <ele>167.67288208008</ele>
        <time>2016-03-30T12:31:45.000Z</time>
      </trkpt>
      <trkpt lat="47.35104" lon="2.98747">
        <ele>167.81753540039</ele>
        <time>2016-03-30T12:31:47.000Z</time>
      </trkpt>
      <trkpt lat="47.35104" lon="2.98744">
        <ele>167.96409606934</ele>
        <time>2016-03-30T12:31:49.000Z</time>
      </trkpt>
      <trkpt lat="47.35104" lon="2.9874">
        <ele>168.11457824707</ele>
        <time>2016-03-30T12:31:52.000Z</time>
      </trkpt>
      <trkpt lat="47.35103" lon="2.98735">
        <ele>168.26693725586</ele>
        <time>2016-03-30T12:31:55.000Z</time>
      </trkpt>
      <trkpt lat="47.35102" lon="2.98731">
        <ele>168.40843200684</ele>
        <time>2016-03-30T12:31:57.000Z</time>
      </trkpt>
      <trkpt lat="47.35102" lon="2.98726">
        <ele>168.56436157227</ele>
        <time>2016-03-30T12:32:00.000Z</time>
      </trkpt>
      <trkpt lat="47.35101" lon="2.98723">
        <ele>168.72317504883</ele>
        <time>2016-03-30T12:32:02.000Z</time>
      </trkpt>
      <trkpt lat="47.35101" lon="2.98717">
        <ele>168.89347839355</ele>
        <time>2016-03-30T12:32:05.000Z</time>
      </trkpt>
      <trkpt lat="47.35101" lon="2.98714">
        <ele>169.05163574219</ele>
        <time>2016-03-30T12:32:07.000Z</time>
      </trkpt>
      <trkpt lat="47.351" lon="2.98709">
        <ele>169.22779846191</ele>
        <time>2016-03-30T12:32:10.000Z</time>
      </trkpt>
      <trkpt lat="47.351" lon="2.98705">
        <ele>169.39599609375</ele>
        <time>2016-03-30T12:32:12.000Z</time>
      </trkpt>
      <trkpt lat="47.351" lon="2.98701">
        <ele>169.57633972168</ele>
        <time>2016-03-30T12:32:15.000Z</time>
      </trkpt>
      <trkpt lat="47.35099" lon="2.98696">
        <ele>169.74510192871</ele>
        <time>2016-03-30T12:32:17.000Z</time>
      </trkpt>
      <trkpt lat="47.35099" lon="2.98693">
        <ele>169.91069030762</ele>
        <time>2016-03-30T12:32:19.000Z</time>
      </trkpt>
      <trkpt lat="47.35098" lon="2.98688">
        <ele>170.0774230957</ele>
        <time>2016-03-30T12:32:22.000Z</time>
      </trkpt>
      <trkpt lat="47.35098" lon="2.98685">
        <ele>170.24060058594</ele>
        <time>2016-03-30T12:32:25.000Z</time>
      </trkpt>
      <trkpt lat="47.35098" lon="2.98681">
        <ele>170.40014648438</ele>
        <time>2016-03-30T12:32:27.000Z</time>
      </trkpt>
      <trkpt lat="47.35098" lon="2.98674">
        <ele>170.58346557617</ele>
        <time>2016-03-30T12:32:30.000Z</time>
      </trkpt>
      <trkpt lat="47.35098" lon="2.9867">
        <ele>170.77981567383</ele>
        <time>2016-03-30T12:32:32.000Z</time>
      </trkpt>
      <trkpt lat="47.35097" lon="2.98667">
        <ele>170.95750427246</ele>
        <time>2016-03-30T12:32:34.000Z</time>
      </trkpt>
      <trkpt lat="47.35096" lon="2.98662">
        <ele>171.12420654297</ele>
        <time>2016-03-30T12:32:37.000Z</time>
      </trkpt>
      <trkpt lat="47.35097" lon="2.98658">
        <ele>171.27226257324</ele>
        <time>2016-03-30T12:32:39.000Z</time>
      </trkpt>
      <trkpt lat="47.35097" lon="2.98652">
        <ele>171.38368225098</ele>
        <time>2016-03-30T12:32:42.000Z</time>
      </trkpt>
      <trkpt lat="47.35097" lon="2.98647">
        <ele>171.47691345215</ele>
        <time>2016-03-30T12:32:45.000Z</time>
      </trkpt>
      <trkpt lat="47.35097" lon="2.98643">
        <ele>171.55316162109</ele>
        <time>2016-03-30T12:32:47.000Z</time>
      </trkpt>
      <trkpt lat="47.35097" lon="2.9864">
        <ele>171.62553405762</ele>
        <time>2016-03-30T12:32:49.000Z</time>
      </trkpt>
      <trkpt lat="47.35097" lon="2.98636">
        <ele>171.69657897949</ele>
        <time>2016-03-30T12:32:52.000Z</time>
      </trkpt>
      <trkpt lat="47.35097" lon="2.98632">
        <ele>171.7578125</ele>
        <time>2016-03-30T12:32:54.000Z</time>
      </trkpt>
      <trkpt lat="47.35098" lon="2.9863">
        <ele>171.81437683105</ele>
        <time>2016-03-30T12:32:56.000Z</time>
      </trkpt>
      <trkpt lat="47.35098" lon="2.98623">
        <ele>171.8835144043</ele>
        <time>2016-03-30T12:32:59.000Z</time>
      </trkpt>
      <trkpt lat="47.35098" lon="2.98618">
        <ele>171.96426391602</ele>
        <time>2016-03-30T12:33:02.000Z</time>
      </trkpt>
      <trkpt lat="47.35098" lon="2.98613">
        <ele>172.05087280273</ele>
        <time>2016-03-30T12:33:05.000Z</time>
      </trkpt>
      <trkpt lat="47.35098" lon="2.9861">
        <ele>172.13578796387</ele>
        <time>2016-03-30T12:33:07.000Z</time>
      </trkpt>
      <trkpt lat="47.35098" lon="2.98606">
        <ele>172.21337890625</ele>
        <time>2016-03-30T12:33:09.000Z</time>
      </trkpt>
      <trkpt lat="47.35097" lon="2.986">
        <ele>172.28555297852</ele>
        <time>2016-03-30T12:33:12.000Z</time>
      </trkpt>
      <trkpt lat="47.35097" lon="2.98596">
        <ele>172.34349060059</ele>
        <time>2016-03-30T12:33:14.000Z</time>
      </trkpt>
      <trkpt lat="47.35096" lon="2.9859">
        <ele>172.3971862793</ele>
        <time>2016-03-30T12:33:17.000Z</time>
      </trkpt>
      <trkpt lat="47.35096" lon="2.98586">
        <ele>172.45568847656</ele>
        <time>2016-03-30T12:33:20.000Z</time>
      </trkpt>
      <trkpt lat="47.35096" lon="2.98584">
        <ele>172.51019287109</ele>
        <time>2016-03-30T12:33:22.000Z</time>
      </trkpt>
      <trkpt lat="47.35096" lon="2.9858">
        <ele>172.5930480957</ele>
        <time>2016-03-30T12:33:24.000Z</time>
      </trkpt>
      <trkpt lat="47.35096" lon="2.98576">
        <ele>172.70768737793</ele>
        <time>2016-03-30T12:33:26.000Z</time>
      </trkpt>
      <trkpt lat="47.35096" lon="2.9857">
        <ele>172.86999511719</ele>
        <time>2016-03-30T12:33:29.000Z</time>
      </trkpt>
      <trkpt lat="47.35096" lon="2.98565">
        <ele>173.08102416992</ele>
        <time>2016-03-30T12:33:32.000Z</time>
      </trkpt>
      <trkpt lat="47.35096" lon="2.98561">
        <ele>173.33396911621</ele>
        <time>2016-03-30T12:33:34.000Z</time>
      </trkpt>
      <trkpt lat="47.35096" lon="2.98557">
        <ele>173.57778930664</ele>
        <time>2016-03-30T12:33:36.000Z</time>
      </trkpt>
      <trkpt lat="47.35097" lon="2.98553">
        <ele>173.83242797852</ele>
        <time>2016-03-30T12:33:39.000Z</time>
      </trkpt>
      <trkpt lat="47.35097" lon="2.98547">
        <ele>174.08811950684</ele>
        <time>2016-03-30T12:33:42.000Z</time>
      </trkpt>
      <trkpt lat="47.35097" lon="2.98543">
        <ele>174.32473754883</ele>
        <time>2016-03-30T12:33:44.000Z</time>
      </trkpt>
      <trkpt lat="47.35097" lon="2.98539">
        <ele>174.56723022461</ele>
        <time>2016-03-30T12:33:47.000Z</time>
      </trkpt>
      <trkpt lat="47.35097" lon="2.98535">
        <ele>174.81648254395</ele>
        <time>2016-03-30T12:33:49.000Z</time>
      </trkpt>
      <trkpt lat="47.35097" lon="2.98531">
        <ele>175.05174255371</ele>
        <time>2016-03-30T12:33:51.000Z</time>
      </trkpt>
      <trkpt lat="47.35097" lon="2.98526">
        <ele>175.28024291992</ele>
        <time>2016-03-30T12:33:54.000Z</time>
      </trkpt>
      <trkpt lat="47.35096" lon="2.98522">
        <ele>175.50849914551</ele>
        <time>2016-03-30T12:33:57.000Z</time>
      </trkpt>
      <trkpt lat="47.35096" lon="2.98518">
        <ele>175.72906494141</ele>
        <time>2016-03-30T12:34:00.000Z</time>
      </trkpt>
      <trkpt lat="47.35095" lon="2.98516">
        <ele>175.92985534668</ele>
        <time>2016-03-30T12:34:02.000Z</time>
      </trkpt>
      <trkpt lat="47.35095" lon="2.98513">
        <ele>176.12109375</ele>
        <time>2016-03-30T12:34:04.000Z</time>
      </trkpt>
      <trkpt lat="47.35096" lon="2.98507">
        <ele>176.32247924805</ele>
        <time>2016-03-30T12:34:07.000Z</time>
      </trkpt>
      <trkpt lat="47.35096" lon="2.98501">
        <ele>176.54922485352</ele>
        <time>2016-03-30T12:34:10.000Z</time>
      </trkpt>
      <trkpt lat="47.35096" lon="2.98495">
        <ele>176.82553100586</ele>
        <time>2016-03-30T12:34:13.000Z</time>
      </trkpt>
      <trkpt lat="47.35096" lon="2.98489">
        <ele>177.15577697754</ele>
        <time>2016-03-30T12:34:16.000Z</time>
      </trkpt>
      <trkpt lat="47.35095" lon="2.98487">
        <ele>177.49922180176</ele>
        <time>2016-03-30T12:34:18.000Z</time>
      </trkpt>
      <trkpt lat="47.35095" lon="2.98483">
        <ele>177.83488464355</ele>
        <time>2016-03-30T12:34:21.000Z</time>
      </trkpt>
      <trkpt lat="47.35095" lon="2.98481">
        <ele>178.13516235352</ele>
        <time>2016-03-30T12:34:23.000Z</time>
      </trkpt>
      <trkpt lat="47.35096" lon="2.98478">
        <ele>178.38668823242</ele>
        <time>2016-03-30T12:34:25.000Z</time>
      </trkpt>
      <trkpt lat="47.35095" lon="2.98473">
        <ele>178.64151000977</ele>
        <time>2016-03-30T12:34:28.000Z</time>
      </trkpt>
      <trkpt lat="47.35095" lon="2.98467">
        <ele>178.93290710449</ele>
        <time>2016-03-30T12:34:31.000Z</time>
      </trkpt>
      <trkpt lat="47.35094" lon="2.98463">
        <ele>179.23152160645</ele>
        <time>2016-03-30T12:34:34.000Z</time>
      </trkpt>
      <trkpt lat="47.35094" lon="2.98461">
        <ele>179.52844238281</ele>
        <time>2016-03-30T12:34:36.000Z</time>
      </trkpt>
      <trkpt lat="47.35094" lon="2.98458">
        <ele>179.83052062988</ele>
        <time>2016-03-30T12:34:39.000Z</time>
      </trkpt>
      <trkpt lat="47.35094" lon="2.98456">
        <ele>180.08125305176</ele>
        <time>2016-03-30T12:34:41.000Z</time>
      </trkpt>
      <trkpt lat="47.35094" lon="2.98456">
        <ele>180.08125305176</ele>
        <time>2016-03-30T12:35:01.000Z</time>
      </trkpt>
      <trkpt lat="47.35096" lon="2.98456">
        <ele>180.25321960449</ele>
        <time>2016-03-30T12:35:22.000Z</time>
      </trkpt>
      <trkpt lat="47.35097" lon="2.98455">
        <ele>180.3680267334</ele>
        <time>2016-03-30T12:35:24.000Z</time>
      </trkpt>
      <trkpt lat="47.35098" lon="2.98454">
        <ele>180.4557800293</ele>
        <time>2016-03-30T12:35:27.000Z</time>
      </trkpt>
      <trkpt lat="47.35098" lon="2.98454">
        <ele>180.4557800293</ele>
        <time>2016-03-30T12:35:47.000Z</time>
      </trkpt>
      <trkpt lat="47.35099" lon="2.98453">
        <ele>180.51292419434</ele>
        <time>2016-03-30T12:35:48.000Z</time>
      </trkpt>
      <trkpt lat="47.35099" lon="2.98453">
        <ele>180.51292419434</ele>
        <time>2016-03-30T12:36:08.000Z</time>
      </trkpt>
      <trkpt lat="47.351" lon="2.98454">
        <ele>180.52572631836</ele>
        <time>2016-03-30T12:36:29.000Z</time>
      </trkpt>
      <trkpt lat="47.351" lon="2.98456">
        <ele>180.50155639648</ele>
        <time>2016-03-30T12:36:42.000Z</time>
      </trkpt>
      <trkpt lat="47.351" lon="2.98456">
        <ele>180.50155639648</ele>
        <time>2016-03-30T12:37:02.000Z</time>
      </trkpt>
      <trkpt lat="47.35099" lon="2.98455">
        <ele>180.48735046387</ele>
        <time>2016-03-30T12:37:18.000Z</time>
      </trkpt>
      <trkpt lat="47.35099" lon="2.98454">
        <ele>180.4955291748</ele>
        <time>2016-03-30T12:37:35.000Z</time>
      </trkpt>
      <trkpt lat="47.35098" lon="2.98453">
        <ele>180.50094604492</ele>
        <time>2016-03-30T12:37:50.000Z</time>
      </trkpt>
      <trkpt lat="47.35097" lon="2.98452">
        <ele>180.54202270508</ele>
        <time>2016-03-30T12:38:01.000Z</time>
      </trkpt>
      <trkpt lat="47.35097" lon="2.98452">
        <ele>180.54202270508</ele>
        <time>2016-03-30T12:38:21.000Z</time>
      </trkpt>
      <trkpt lat="47.35097" lon="2.98453">
        <ele>180.5997467041</ele>
        <time>2016-03-30T12:39:07.000Z</time>
      </trkpt>
      <trkpt lat="47.35096" lon="2.98454">
        <ele>180.63436889648</ele>
        <time>2016-03-30T12:39:16.000Z</time>
      </trkpt>
      <trkpt lat="47.35096" lon="2.98454">
        <ele>180.63436889648</ele>
        <time>2016-03-30T12:39:36.000Z</time>
      </trkpt>
      <trkpt lat="47.35097" lon="2.98455">
        <ele>180.61563110352</ele>
        <time>2016-03-30T12:40:26.000Z</time>
      </trkpt>
      <trkpt lat="47.35097" lon="2.98455">
        <ele>180.61563110352</ele>
        <time>2016-03-30T12:40:46.000Z</time>
      </trkpt>
      <trkpt lat="47.35097" lon="2.98454">
        <ele>180.60624694824</ele>
        <time>2016-03-30T12:40:56.000Z</time>
      </trkpt>
      <trkpt lat="47.35096" lon="2.98452">
        <ele>180.61253356934</ele>
        <time>2016-03-30T12:40:58.000Z</time>
      </trkpt>
      <trkpt lat="47.35094" lon="2.98448">
        <ele>180.70146179199</ele>
        <time>2016-03-30T12:41:01.000Z</time>
      </trkpt>
      <trkpt lat="47.35094" lon="2.98446">
        <ele>180.83517456055</ele>
        <time>2016-03-30T12:41:03.000Z</time>
      </trkpt>
      <trkpt lat="47.35093" lon="2.98443">
        <ele>181.04393005371</ele>
        <time>2016-03-30T12:41:06.000Z</time>
      </trkpt>
      <trkpt lat="47.35092" lon="2.98439">
        <ele>181.29257202148</ele>
        <time>2016-03-30T12:41:09.000Z</time>
      </trkpt>
      <trkpt lat="47.35093" lon="2.98435">
        <ele>181.56512451172</ele>
        <time>2016-03-30T12:41:12.000Z</time>
      </trkpt>
      <trkpt lat="47.35092" lon="2.9843">
        <ele>181.8678894043</ele>
        <time>2016-03-30T12:41:15.000Z</time>
      </trkpt>
      <trkpt lat="47.35091" lon="2.98427">
        <ele>182.17695617676</ele>
        <time>2016-03-30T12:41:17.000Z</time>
      </trkpt>
      <trkpt lat="47.35089" lon="2.98423">
        <ele>182.51712036133</ele>
        <time>2016-03-30T12:41:20.000Z</time>
      </trkpt>
      <trkpt lat="47.35089" lon="2.9842">
        <ele>182.84635925293</ele>
        <time>2016-03-30T12:41:22.000Z</time>
      </trkpt>
      <trkpt lat="47.35088" lon="2.98416">
        <ele>183.17626953125</ele>
        <time>2016-03-30T12:41:25.000Z</time>
      </trkpt>
      <trkpt lat="47.35087" lon="2.9841">
        <ele>183.4503326416</ele>
        <time>2016-03-30T12:41:28.000Z</time>
      </trkpt>
      <trkpt lat="47.35086" lon="2.98406">
        <ele>183.70683288574</ele>
        <time>2016-03-30T12:41:31.000Z</time>
      </trkpt>
      <trkpt lat="47.35084" lon="2.984">
        <ele>183.93241882324</ele>
        <time>2016-03-30T12:41:34.000Z</time>
      </trkpt>
      <trkpt lat="47.35083" lon="2.98397">
        <ele>184.13496398926</ele>
        <time>2016-03-30T12:41:37.000Z</time>
      </trkpt>
      <trkpt lat="47.35081" lon="2.98394">
        <ele>184.31101989746</ele>
        <time>2016-03-30T12:41:40.000Z</time>
      </trkpt>
      <trkpt lat="47.35081" lon="2.98391">
        <ele>184.47453308105</ele>
        <time>2016-03-30T12:41:42.000Z</time>
      </trkpt>
      <trkpt lat="47.3508" lon="2.98389">
        <ele>184.62898254395</ele>
        <time>2016-03-30T12:41:44.000Z</time>
      </trkpt>
      <trkpt lat="47.35078" lon="2.98385">
        <ele>184.77233886719</ele>
        <time>2016-03-30T12:41:47.000Z</time>
      </trkpt>
      <trkpt lat="47.35077" lon="2.98382">
        <ele>184.91931152344</ele>
        <time>2016-03-30T12:41:49.000Z</time>
      </trkpt>
      <trkpt lat="47.35076" lon="2.98378">
        <ele>185.06530761719</ele>
        <time>2016-03-30T12:41:51.000Z</time>
      </trkpt>
      <trkpt lat="47.35073" lon="2.98375">
        <ele>185.23352050781</ele>
        <time>2016-03-30T12:41:54.000Z</time>
      </trkpt>
      <trkpt lat="47.35072" lon="2.98373">
        <ele>185.40087890625</ele>
        <time>2016-03-30T12:41:56.000Z</time>
      </trkpt>
      <trkpt lat="47.35072" lon="2.98368">
        <ele>185.56201171875</ele>
        <time>2016-03-30T12:41:59.000Z</time>
      </trkpt>
      <trkpt lat="47.35071" lon="2.98364">
        <ele>185.71850585938</ele>
        <time>2016-03-30T12:42:02.000Z</time>
      </trkpt>
      <trkpt lat="47.3507" lon="2.98361">
        <ele>185.87109375</ele>
        <time>2016-03-30T12:42:04.000Z</time>
      </trkpt>
      <trkpt lat="47.35068" lon="2.98356">
        <ele>186.02172851562</ele>
        <time>2016-03-30T12:42:06.000Z</time>
      </trkpt>
      <trkpt lat="47.35067" lon="2.98355">
        <ele>186.16748046875</ele>
        <time>2016-03-30T12:42:09.000Z</time>
      </trkpt>
      <trkpt lat="47.35067" lon="2.98352">
        <ele>186.30114746094</ele>
        <time>2016-03-30T12:42:11.000Z</time>
      </trkpt>
      <trkpt lat="47.35066" lon="2.98344">
        <ele>186.45458984375</ele>
        <time>2016-03-30T12:42:14.000Z</time>
      </trkpt>
      <trkpt lat="47.35065" lon="2.98339">
        <ele>186.61682128906</ele>
        <time>2016-03-30T12:42:17.000Z</time>
      </trkpt>
      <trkpt lat="47.35064" lon="2.98336">
        <ele>186.76000976562</ele>
        <time>2016-03-30T12:42:19.000Z</time>
      </trkpt>
      <trkpt lat="47.35063" lon="2.98331">
        <ele>186.92170715332</ele>
        <time>2016-03-30T12:42:22.000Z</time>
      </trkpt>
      <trkpt lat="47.35062" lon="2.98327">
        <ele>187.07653808594</ele>
        <time>2016-03-30T12:42:25.000Z</time>
      </trkpt>
      <trkpt lat="47.35061" lon="2.98324">
        <ele>187.18977355957</ele>
        <time>2016-03-30T12:42:27.000Z</time>
      </trkpt>
      <trkpt lat="47.3506" lon="2.9832">
        <ele>187.28842163086</ele>
        <time>2016-03-30T12:42:29.000Z</time>
      </trkpt>
      <trkpt lat="47.35057" lon="2.98314">
        <ele>187.4027557373</ele>
        <time>2016-03-30T12:42:32.000Z</time>
      </trkpt>
      <trkpt lat="47.35056" lon="2.98308">
        <ele>187.50439453125</ele>
        <time>2016-03-30T12:42:34.000Z</time>
      </trkpt>
      <trkpt lat="47.35055" lon="2.98302">
        <ele>187.60864257812</ele>
        <time>2016-03-30T12:42:37.000Z</time>
      </trkpt>
      <trkpt lat="47.35054" lon="2.98298">
        <ele>187.71987915039</ele>
        <time>2016-03-30T12:42:39.000Z</time>
      </trkpt>
      <trkpt lat="47.35054" lon="2.98293">
        <ele>187.81837463379</ele>
        <time>2016-03-30T12:42:42.000Z</time>
      </trkpt>
      <trkpt lat="47.35052" lon="2.98287">
        <ele>187.90350341797</ele>
        <time>2016-03-30T12:42:45.000Z</time>
      </trkpt>
      <trkpt lat="47.35052" lon="2.98284">
        <ele>187.97158813477</ele>
        <time>2016-03-30T12:42:47.000Z</time>
      </trkpt>
      <trkpt lat="47.35051" lon="2.98282">
        <ele>188.0378112793</ele>
        <time>2016-03-30T12:42:49.000Z</time>
      </trkpt>
      <trkpt lat="47.35049" lon="2.9828">
        <ele>188.11410522461</ele>
        <time>2016-03-30T12:42:51.000Z</time>
      </trkpt>
      <trkpt lat="47.35047" lon="2.98276">
        <ele>188.21792602539</ele>
        <time>2016-03-30T12:42:54.000Z</time>
      </trkpt>
      <trkpt lat="47.35046" lon="2.98272">
        <ele>188.31582641602</ele>
        <time>2016-03-30T12:42:56.000Z</time>
      </trkpt>
      <trkpt lat="47.35046" lon="2.98269">
        <ele>188.41439819336</ele>
        <time>2016-03-30T12:42:58.000Z</time>
      </trkpt>
      <trkpt lat="47.35044" lon="2.98265">
        <ele>188.53218078613</ele>
        <time>2016-03-30T12:43:01.000Z</time>
      </trkpt>
      <trkpt lat="47.35044" lon="2.98259">
        <ele>188.63305664062</ele>
        <time>2016-03-30T12:43:04.000Z</time>
      </trkpt>
      <trkpt lat="47.35044" lon="2.98253">
        <ele>188.7095489502</ele>
        <time>2016-03-30T12:43:07.000Z</time>
      </trkpt>
      <trkpt lat="47.35043" lon="2.9825">
        <ele>188.77360534668</ele>
        <time>2016-03-30T12:43:09.000Z</time>
      </trkpt>
      <trkpt lat="47.35042" lon="2.98246">
        <ele>188.86196899414</ele>
        <time>2016-03-30T12:43:12.000Z</time>
      </trkpt>
      <trkpt lat="47.35042" lon="2.9824">
        <ele>188.94560241699</ele>
        <time>2016-03-30T12:43:15.000Z</time>
      </trkpt>
      <trkpt lat="47.35042" lon="2.9823">
        <ele>189.05619812012</ele>
        <time>2016-03-30T12:43:17.000Z</time>
      </trkpt>
      <trkpt lat="47.35042" lon="2.98228">
        <ele>189.16162109375</ele>
        <time>2016-03-30T12:43:20.000Z</time>
      </trkpt>
      <trkpt lat="47.35043" lon="2.98223">
        <ele>189.2633972168</ele>
        <time>2016-03-30T12:43:22.000Z</time>
      </trkpt>
      <trkpt lat="47.35042" lon="2.98216">
        <ele>189.3772277832</ele>
        <time>2016-03-30T12:43:24.000Z</time>
      </trkpt>
      <trkpt lat="47.35041" lon="2.98211">
        <ele>189.49545288086</ele>
        <time>2016-03-30T12:43:27.000Z</time>
      </trkpt>
      <trkpt lat="47.3504" lon="2.98208">
        <ele>189.60330200195</ele>
        <time>2016-03-30T12:43:29.000Z</time>
      </trkpt>
      <trkpt lat="47.35038" lon="2.98202">
        <ele>189.7395324707</ele>
        <time>2016-03-30T12:43:32.000Z</time>
      </trkpt>
      <trkpt lat="47.35037" lon="2.98198">
        <ele>189.8879699707</ele>
        <time>2016-03-30T12:43:35.000Z</time>
      </trkpt>
      <trkpt lat="47.35036" lon="2.98195">
        <ele>190.02194213867</ele>
        <time>2016-03-30T12:43:37.000Z</time>
      </trkpt>
      <trkpt lat="47.35035" lon="2.98189">
        <ele>190.15046691895</ele>
        <time>2016-03-30T12:43:40.000Z</time>
      </trkpt>
      <trkpt lat="47.35034" lon="2.98185">
        <ele>190.27819824219</ele>
        <time>2016-03-30T12:43:43.000Z</time>
      </trkpt>
      <trkpt lat="47.35033" lon="2.9818">
        <ele>190.3902130127</ele>
        <time>2016-03-30T12:43:45.000Z</time>
      </trkpt>
      <trkpt lat="47.35033" lon="2.98176">
        <ele>190.4997253418</ele>
        <time>2016-03-30T12:43:47.000Z</time>
      </trkpt>
      <trkpt lat="47.35033" lon="2.98173">
        <ele>190.58969116211</ele>
        <time>2016-03-30T12:43:49.000Z</time>
      </trkpt>
      <trkpt lat="47.35033" lon="2.98171">
        <ele>190.66226196289</ele>
        <time>2016-03-30T12:43:51.000Z</time>
      </trkpt>
      <trkpt lat="47.35032" lon="2.98167">
        <ele>190.72958374023</ele>
        <time>2016-03-30T12:43:56.000Z</time>
      </trkpt>
      <trkpt lat="47.35031" lon="2.98162">
        <ele>190.78694152832</ele>
        <time>2016-03-30T12:43:57.000Z</time>
      </trkpt>
      <trkpt lat="47.35029" lon="2.98157">
        <ele>190.84620666504</ele>
        <time>2016-03-30T12:44:01.000Z</time>
      </trkpt>
      <trkpt lat="47.35028" lon="2.98151">
        <ele>190.91055297852</ele>
        <time>2016-03-30T12:44:02.000Z</time>
      </trkpt>
      <trkpt lat="47.35028" lon="2.98147">
        <ele>190.97410583496</ele>
        <time>2016-03-30T12:44:04.000Z</time>
      </trkpt>
      <trkpt lat="47.35027" lon="2.98142">
        <ele>191.02893066406</ele>
        <time>2016-03-30T12:44:07.000Z</time>
      </trkpt>
      <trkpt lat="47.35026" lon="2.98139">
        <ele>191.08140563965</ele>
        <time>2016-03-30T12:44:09.000Z</time>
      </trkpt>
      <trkpt lat="47.35026" lon="2.98135">
        <ele>191.12283325195</ele>
        <time>2016-03-30T12:44:11.000Z</time>
      </trkpt>
      <trkpt lat="47.35026" lon="2.98129">
        <ele>191.15780639648</ele>
        <time>2016-03-30T12:44:14.000Z</time>
      </trkpt>
      <trkpt lat="47.35025" lon="2.98123">
        <ele>191.19090270996</ele>
        <time>2016-03-30T12:44:17.000Z</time>
      </trkpt>
      <trkpt lat="47.35024" lon="2.98119">
        <ele>191.22509765625</ele>
        <time>2016-03-30T12:44:19.000Z</time>
      </trkpt>
      <trkpt lat="47.35023" lon="2.98117">
        <ele>191.2554473877</ele>
        <time>2016-03-30T12:44:21.000Z</time>
      </trkpt>
      <trkpt lat="47.35023" lon="2.98115">
        <ele>191.28388977051</ele>
        <time>2016-03-30T12:44:24.000Z</time>
      </trkpt>
      <trkpt lat="47.35025" lon="2.98108">
        <ele>191.30172729492</ele>
        <time>2016-03-30T12:44:26.000Z</time>
      </trkpt>
      <trkpt lat="47.35027" lon="2.981">
        <ele>191.3123626709</ele>
        <time>2016-03-30T12:44:29.000Z</time>
      </trkpt>
      <trkpt lat="47.35028" lon="2.98092">
        <ele>191.30865478516</ele>
        <time>2016-03-30T12:44:32.000Z</time>
      </trkpt>
      <trkpt lat="47.3503" lon="2.98084">
        <ele>191.30146789551</ele>
        <time>2016-03-30T12:44:36.000Z</time>
      </trkpt>
      <trkpt lat="47.3503" lon="2.9808">
        <ele>191.29443359375</ele>
        <time>2016-03-30T12:44:39.000Z</time>
      </trkpt>
      <trkpt lat="47.35031" lon="2.98072">
        <ele>191.30160522461</ele>
        <time>2016-03-30T12:44:42.000Z</time>
      </trkpt>
      <trkpt lat="47.3503" lon="2.98068">
        <ele>191.31802368164</ele>
        <time>2016-03-30T12:44:45.000Z</time>
      </trkpt>
      <trkpt lat="47.35029" lon="2.98063">
        <ele>191.35466003418</ele>
        <time>2016-03-30T12:44:48.000Z</time>
      </trkpt>
      <trkpt lat="47.35027" lon="2.9806">
        <ele>191.40538024902</ele>
        <time>2016-03-30T12:44:50.000Z</time>
      </trkpt>
      <trkpt lat="47.35025" lon="2.98054">
        <ele>191.47286987305</ele>
        <time>2016-03-30T12:44:53.000Z</time>
      </trkpt>
      <trkpt lat="47.35026" lon="2.98048">
        <ele>191.53796386719</ele>
        <time>2016-03-30T12:44:56.000Z</time>
      </trkpt>
      <trkpt lat="47.35025" lon="2.98042">
        <ele>191.60842895508</ele>
        <time>2016-03-30T12:44:59.000Z</time>
      </trkpt>
      <trkpt lat="47.35025" lon="2.98039">
        <ele>191.67211914062</ele>
        <time>2016-03-30T12:45:04.000Z</time>
      </trkpt>
      <trkpt lat="47.35024" lon="2.98034">
        <ele>191.73051452637</ele>
        <time>2016-03-30T12:45:04.000Z</time>
      </trkpt>
      <trkpt lat="47.35023" lon="2.9803">
        <ele>191.78125</ele>
        <time>2016-03-30T12:45:06.000Z</time>
      </trkpt>
      <trkpt lat="47.35023" lon="2.98026">
        <ele>191.83818054199</ele>
        <time>2016-03-30T12:45:09.000Z</time>
      </trkpt>
      <trkpt lat="47.35022" lon="2.98023">
        <ele>191.89117431641</ele>
        <time>2016-03-30T12:45:11.000Z</time>
      </trkpt>
      <trkpt lat="47.35022" lon="2.9802">
        <ele>191.94430541992</ele>
        <time>2016-03-30T12:45:14.000Z</time>
      </trkpt>
      <trkpt lat="47.35022" lon="2.98016">
        <ele>191.99200439453</ele>
        <time>2016-03-30T12:45:19.000Z</time>
      </trkpt>
      <trkpt lat="47.35021" lon="2.98011">
        <ele>192.04092407227</ele>
        <time>2016-03-30T12:45:21.000Z</time>
      </trkpt>
      <trkpt lat="47.35021" lon="2.98005">
        <ele>192.08972167969</ele>
        <time>2016-03-30T12:45:24.000Z</time>
      </trkpt>
      <trkpt lat="47.3502" lon="2.97997">
        <ele>192.15620422363</ele>
        <time>2016-03-30T12:45:26.000Z</time>
      </trkpt>
      <trkpt lat="47.35019" lon="2.97994">
        <ele>192.23275756836</ele>
        <time>2016-03-30T12:45:29.000Z</time>
      </trkpt>
      <trkpt lat="47.35018" lon="2.9799">
        <ele>192.32495117188</ele>
        <time>2016-03-30T12:45:31.000Z</time>
      </trkpt>
      <trkpt lat="47.35019" lon="2.97988">
        <ele>192.40690612793</ele>
        <time>2016-03-30T12:45:33.000Z</time>
      </trkpt>
      <trkpt lat="47.35022" lon="2.97976">
        <ele>192.49516296387</ele>
        <time>2016-03-30T12:45:36.000Z</time>
      </trkpt>
      <trkpt lat="47.35024" lon="2.97969">
        <ele>192.56037902832</ele>
        <time>2016-03-30T12:45:39.000Z</time>
      </trkpt>
      <trkpt lat="47.35023" lon="2.97968">
        <ele>192.61538696289</ele>
        <time>2016-03-30T12:45:41.000Z</time>
      </trkpt>
      <trkpt lat="47.35022" lon="2.97963">
        <ele>192.68281555176</ele>
        <time>2016-03-30T12:45:43.000Z</time>
      </trkpt>
      <trkpt lat="47.3502" lon="2.97955">
        <ele>192.79196166992</ele>
        <time>2016-03-30T12:45:46.000Z</time>
      </trkpt>
      <trkpt lat="47.3502" lon="2.97949">
        <ele>192.91096496582</ele>
        <time>2016-03-30T12:45:48.000Z</time>
      </trkpt>
      <trkpt lat="47.3502" lon="2.97944">
        <ele>193.04042053223</ele>
        <time>2016-03-30T12:45:51.000Z</time>
      </trkpt>
      <trkpt lat="47.35022" lon="2.97938">
        <ele>193.16389465332</ele>
        <time>2016-03-30T12:45:54.000Z</time>
      </trkpt>
      <trkpt lat="47.35021" lon="2.97935">
        <ele>193.27705383301</ele>
        <time>2016-03-30T12:45:56.000Z</time>
      </trkpt>
      <trkpt lat="47.35023" lon="2.97931">
        <ele>193.33474731445</ele>
        <time>2016-03-30T12:45:59.000Z</time>
      </trkpt>
      <trkpt lat="47.35022" lon="2.97926">
        <ele>193.39265441895</ele>
        <time>2016-03-30T12:46:02.000Z</time>
      </trkpt>
      <trkpt lat="47.35022" lon="2.97923">
        <ele>193.44438171387</ele>
        <time>2016-03-30T12:46:04.000Z</time>
      </trkpt>
      <trkpt lat="47.35022" lon="2.9792">
        <ele>193.50410461426</ele>
        <time>2016-03-30T12:46:07.000Z</time>
      </trkpt>
      <trkpt lat="47.35022" lon="2.97919">
        <ele>193.54653930664</ele>
        <time>2016-03-30T12:46:09.000Z</time>
      </trkpt>
      <trkpt lat="47.35019" lon="2.97914">
        <ele>193.64083862305</ele>
        <time>2016-03-30T12:46:12.000Z</time>
      </trkpt>
      <trkpt lat="47.35019" lon="2.97911">
        <ele>193.7121887207</ele>
        <time>2016-03-30T12:46:14.000Z</time>
      </trkpt>
      <trkpt lat="47.35018" lon="2.97907">
        <ele>193.78411865234</ele>
        <time>2016-03-30T12:46:17.000Z</time>
      </trkpt>
      <trkpt lat="47.35017" lon="2.979">
        <ele>193.8547668457</ele>
        <time>2016-03-30T12:46:20.000Z</time>
      </trkpt>
      <trkpt lat="47.35016" lon="2.97894">
        <ele>193.9306640625</ele>
        <time>2016-03-30T12:46:23.000Z</time>
      </trkpt>
      <trkpt lat="47.35016" lon="2.9789">
        <ele>193.96484375</ele>
        <time>2016-03-30T12:46:26.000Z</time>
      </trkpt>
      <trkpt lat="47.35015" lon="2.97883">
        <ele>194.00390625</ele>
        <time>2016-03-30T12:46:29.000Z</time>
      </trkpt>
      <trkpt lat="47.35015" lon="2.97881">
        <ele>194.033203125</ele>
        <time>2016-03-30T12:46:31.000Z</time>
      </trkpt>
      <trkpt lat="47.35016" lon="2.97877">
        <ele>194.04296875</ele>
        <time>2016-03-30T12:46:34.000Z</time>
      </trkpt>
      <trkpt lat="47.35018" lon="2.97872">
        <ele>194.0234375</ele>
        <time>2016-03-30T12:46:36.000Z</time>
      </trkpt>
      <trkpt lat="47.35017" lon="2.97871">
        <ele>194.0087890625</ele>
        <time>2016-03-30T12:46:38.000Z</time>
      </trkpt>
      <trkpt lat="47.35016" lon="2.97864">
        <ele>193.9990234375</ele>
        <time>2016-03-30T12:46:41.000Z</time>
      </trkpt>
      <trkpt lat="47.35015" lon="2.97859">
        <ele>193.9990234375</ele>
        <time>2016-03-30T12:46:44.000Z</time>
      </trkpt>
      <trkpt lat="47.35015" lon="2.97856">
        <ele>194.0087890625</ele>
        <time>2016-03-30T12:46:46.000Z</time>
      </trkpt>
      <trkpt lat="47.35015" lon="2.97852">
        <ele>194.04296875</ele>
        <time>2016-03-30T12:46:49.000Z</time>
      </trkpt>
      <trkpt lat="47.35015" lon="2.97848">
        <ele>194.0771484375</ele>
        <time>2016-03-30T12:46:51.000Z</time>
      </trkpt>
      <trkpt lat="47.35014" lon="2.97845">
        <ele>194.1015625</ele>
        <time>2016-03-30T12:46:54.000Z</time>
      </trkpt>
      <trkpt lat="47.35014" lon="2.97838">
        <ele>194.12109375</ele>
        <time>2016-03-30T12:46:57.000Z</time>
      </trkpt>
      <trkpt lat="47.35014" lon="2.97832">
        <ele>194.1322479248</ele>
        <time>2016-03-30T12:47:00.000Z</time>
      </trkpt>
      <trkpt lat="47.35013" lon="2.97828">
        <ele>194.10739135742</ele>
        <time>2016-03-30T12:47:02.000Z</time>
      </trkpt>
      <trkpt lat="47.35012" lon="2.97823">
        <ele>194.03167724609</ele>
        <time>2016-03-30T12:47:04.000Z</time>
      </trkpt>
      <trkpt lat="47.35012" lon="2.97817">
        <ele>193.8978729248</ele>
        <time>2016-03-30T12:47:07.000Z</time>
      </trkpt>
      <trkpt lat="47.3501" lon="2.97813">
        <ele>193.74327087402</ele>
        <time>2016-03-30T12:47:09.000Z</time>
      </trkpt>
      <trkpt lat="47.35009" lon="2.97806">
        <ele>193.54000854492</ele>
        <time>2016-03-30T12:47:12.000Z</time>
      </trkpt>
      <trkpt lat="47.3501" lon="2.97801">
        <ele>193.29934692383</ele>
        <time>2016-03-30T12:47:15.000Z</time>
      </trkpt>
      <trkpt lat="47.35011" lon="2.97798">
        <ele>193.07800292969</ele>
        <time>2016-03-30T12:47:17.000Z</time>
      </trkpt>
      <trkpt lat="47.3501" lon="2.97797">
        <ele>192.90158081055</ele>
        <time>2016-03-30T12:47:19.000Z</time>
      </trkpt>
      <trkpt lat="47.3501" lon="2.97792">
        <ele>192.69552612305</ele>
        <time>2016-03-30T12:47:21.000Z</time>
      </trkpt>
      <trkpt lat="47.35011" lon="2.97788">
        <ele>192.48498535156</ele>
        <time>2016-03-30T12:47:24.000Z</time>
      </trkpt>
      <trkpt lat="47.35012" lon="2.97786">
        <ele>192.3165435791</ele>
        <time>2016-03-30T12:47:27.000Z</time>
      </trkpt>
      <trkpt lat="47.35013" lon="2.97779">
        <ele>192.08692932129</ele>
        <time>2016-03-30T12:47:30.000Z</time>
      </trkpt>
      <trkpt lat="47.35014" lon="2.97776">
        <ele>191.82955932617</ele>
        <time>2016-03-30T12:47:32.000Z</time>
      </trkpt>
      <trkpt lat="47.35013" lon="2.97772">
        <ele>191.58322143555</ele>
        <time>2016-03-30T12:47:35.000Z</time>
      </trkpt>
      <trkpt lat="47.35012" lon="2.97769">
        <ele>191.39051818848</ele>
        <time>2016-03-30T12:47:37.000Z</time>
      </trkpt>
      <trkpt lat="47.35011" lon="2.97768">
        <ele>191.22434997559</ele>
        <time>2016-03-30T12:47:39.000Z</time>
      </trkpt>
      <trkpt lat="47.35009" lon="2.97766">
        <ele>191.15133666992</ele>
        <time>2016-03-30T12:47:42.000Z</time>
      </trkpt>
      <trkpt lat="47.35009" lon="2.97766">
        <ele>191.15133666992</ele>
        <time>2016-03-30T12:48:02.000Z</time>
      </trkpt>
      <trkpt lat="47.35009" lon="2.97764">
        <ele>191.10070800781</ele>
        <time>2016-03-30T12:48:08.000Z</time>
      </trkpt>
      <trkpt lat="47.35009" lon="2.97762">
        <ele>191.06527709961</ele>
        <time>2016-03-30T12:48:11.000Z</time>
      </trkpt>
      <trkpt lat="47.35009" lon="2.97762">
        <ele>191.06527709961</ele>
        <time>2016-03-30T12:48:31.000Z</time>
      </trkpt>
      <trkpt lat="47.35008" lon="2.97761">
        <ele>191.03321838379</ele>
        <time>2016-03-30T12:48:41.000Z</time>
      </trkpt>
      <trkpt lat="47.35009" lon="2.97757">
        <ele>190.95617675781</ele>
        <time>2016-03-30T12:48:44.000Z</time>
      </trkpt>
      <trkpt lat="47.3501" lon="2.97755">
        <ele>190.83840942383</ele>
        <time>2016-03-30T12:48:46.000Z</time>
      </trkpt>
      <trkpt lat="47.35011" lon="2.97753">
        <ele>190.69241333008</ele>
        <time>2016-03-30T12:48:49.000Z</time>
      </trkpt>
      <trkpt lat="47.35011" lon="2.97752">
        <ele>190.55207824707</ele>
        <time>2016-03-30T12:48:51.000Z</time>
      </trkpt>
      <trkpt lat="47.35012" lon="2.9775">
        <ele>190.38690185547</ele>
        <time>2016-03-30T12:49:06.000Z</time>
      </trkpt>
      <trkpt lat="47.35013" lon="2.97748">
        <ele>190.23797607422</ele>
        <time>2016-03-30T12:49:09.000Z</time>
      </trkpt>
      <trkpt lat="47.35014" lon="2.97748">
        <ele>190.10887145996</ele>
        <time>2016-03-30T12:49:15.000Z</time>
      </trkpt>
      <trkpt lat="47.35015" lon="2.97748">
        <ele>190.00355529785</ele>
        <time>2016-03-30T12:49:17.000Z</time>
      </trkpt>
      <trkpt lat="47.35016" lon="2.97748">
        <ele>189.89083862305</ele>
        <time>2016-03-30T12:49:21.000Z</time>
      </trkpt>
      <trkpt lat="47.35017" lon="2.97749">
        <ele>189.80609130859</ele>
        <time>2016-03-30T12:49:24.000Z</time>
      </trkpt>
      <trkpt lat="47.35016" lon="2.97747">
        <ele>189.74459838867</ele>
        <time>2016-03-30T12:49:41.000Z</time>
      </trkpt>
      <trkpt lat="47.35016" lon="2.97746">
        <ele>189.68714904785</ele>
        <time>2016-03-30T12:49:44.000Z</time>
      </trkpt>
      <trkpt lat="47.35016" lon="2.97744">
        <ele>189.6213684082</ele>
        <time>2016-03-30T12:49:47.000Z</time>
      </trkpt>
      <trkpt lat="47.35017" lon="2.97742">
        <ele>189.54431152344</ele>
        <time>2016-03-30T12:49:51.000Z</time>
      </trkpt>
      <trkpt lat="47.35018" lon="2.97741">
        <ele>189.43984985352</ele>
        <time>2016-03-30T12:49:53.000Z</time>
      </trkpt>
      <trkpt lat="47.35019" lon="2.97738">
        <ele>189.29219055176</ele>
        <time>2016-03-30T12:49:56.000Z</time>
      </trkpt>
      <trkpt lat="47.35021" lon="2.97734">
        <ele>189.08642578125</ele>
        <time>2016-03-30T12:49:58.000Z</time>
      </trkpt>
      <trkpt lat="47.35023" lon="2.9773">
        <ele>188.82888793945</ele>
        <time>2016-03-30T12:50:01.000Z</time>
      </trkpt>
      <trkpt lat="47.35025" lon="2.97726">
        <ele>188.54415893555</ele>
        <time>2016-03-30T12:50:04.000Z</time>
      </trkpt>
      <trkpt lat="47.35027" lon="2.97721">
        <ele>188.21557617188</ele>
        <time>2016-03-30T12:50:07.000Z</time>
      </trkpt>
      <trkpt lat="47.35028" lon="2.97717">
        <ele>187.87916564941</ele>
        <time>2016-03-30T12:50:10.000Z</time>
      </trkpt>
      <trkpt lat="47.3503" lon="2.97715">
        <ele>187.58497619629</ele>
        <time>2016-03-30T12:50:12.000Z</time>
      </trkpt>
      <trkpt lat="47.35032" lon="2.9771">
        <ele>187.30215454102</ele>
        <time>2016-03-30T12:50:15.000Z</time>
      </trkpt>
      <trkpt lat="47.35033" lon="2.97707">
        <ele>187.03848266602</ele>
        <time>2016-03-30T12:50:17.000Z</time>
      </trkpt>
      <trkpt lat="47.35034" lon="2.97704">
        <ele>186.80825805664</ele>
        <time>2016-03-30T12:50:19.000Z</time>
      </trkpt>
      <trkpt lat="47.35036" lon="2.977">
        <ele>186.57649230957</ele>
        <time>2016-03-30T12:50:22.000Z</time>
      </trkpt>
      <trkpt lat="47.35038" lon="2.97696">
        <ele>186.32926940918</ele>
        <time>2016-03-30T12:50:25.000Z</time>
      </trkpt>
      <trkpt lat="47.35038" lon="2.97694">
        <ele>186.12478637695</ele>
        <time>2016-03-30T12:50:27.000Z</time>
      </trkpt>
      <trkpt lat="47.3504" lon="2.97688">
        <ele>185.90280151367</ele>
        <time>2016-03-30T12:50:30.000Z</time>
      </trkpt>
      <trkpt lat="47.35041" lon="2.97686">
        <ele>185.69267272949</ele>
        <time>2016-03-30T12:50:32.000Z</time>
      </trkpt>
      <trkpt lat="47.35044" lon="2.97682">
        <ele>185.49412536621</ele>
        <time>2016-03-30T12:50:35.000Z</time>
      </trkpt>
      <trkpt lat="47.35046" lon="2.97679">
        <ele>185.30667114258</ele>
        <time>2016-03-30T12:50:37.000Z</time>
      </trkpt>
      <trkpt lat="47.35046" lon="2.97675">
        <ele>185.11227416992</ele>
        <time>2016-03-30T12:50:39.000Z</time>
      </trkpt>
      <trkpt lat="47.35048" lon="2.9767">
        <ele>184.92977905273</ele>
        <time>2016-03-30T12:50:42.000Z</time>
      </trkpt>
      <trkpt lat="47.3505" lon="2.97668">
        <ele>184.75659179688</ele>
        <time>2016-03-30T12:50:44.000Z</time>
      </trkpt>
      <trkpt lat="47.35052" lon="2.97664">
        <ele>184.60641479492</ele>
        <time>2016-03-30T12:50:47.000Z</time>
      </trkpt>
      <trkpt lat="47.35053" lon="2.9766">
        <ele>184.47508239746</ele>
        <time>2016-03-30T12:50:50.000Z</time>
      </trkpt>
      <trkpt lat="47.35055" lon="2.97656">
        <ele>184.35592651367</ele>
        <time>2016-03-30T12:50:53.000Z</time>
      </trkpt>
      <trkpt lat="47.35056" lon="2.97652">
        <ele>184.26643371582</ele>
        <time>2016-03-30T12:50:56.000Z</time>
      </trkpt>
      <trkpt lat="47.35059" lon="2.97648">
        <ele>184.17118835449</ele>
        <time>2016-03-30T12:50:59.000Z</time>
      </trkpt>
      <trkpt lat="47.3506" lon="2.97643">
        <ele>184.0777130127</ele>
        <time>2016-03-30T12:51:02.000Z</time>
      </trkpt>
      <trkpt lat="47.35062" lon="2.97639">
        <ele>183.97639465332</ele>
        <time>2016-03-30T12:51:05.000Z</time>
      </trkpt>
      <trkpt lat="47.35063" lon="2.97635">
        <ele>183.87617492676</ele>
        <time>2016-03-30T12:51:08.000Z</time>
      </trkpt>
      <trkpt lat="47.35065" lon="2.97631">
        <ele>183.76635742188</ele>
        <time>2016-03-30T12:51:11.000Z</time>
      </trkpt>
      <trkpt lat="47.35066" lon="2.97627">
        <ele>183.66171264648</ele>
        <time>2016-03-30T12:51:13.000Z</time>
      </trkpt>
      <trkpt lat="47.35069" lon="2.97623">
        <ele>183.54977416992</ele>
        <time>2016-03-30T12:51:16.000Z</time>
      </trkpt>
      <trkpt lat="47.3507" lon="2.9762">
        <ele>183.44470214844</ele>
        <time>2016-03-30T12:51:18.000Z</time>
      </trkpt>
      <trkpt lat="47.35071" lon="2.97617">
        <ele>183.33322143555</ele>
        <time>2016-03-30T12:51:21.000Z</time>
      </trkpt>
      <trkpt lat="47.35073" lon="2.97613">
        <ele>183.22540283203</ele>
        <time>2016-03-30T12:51:23.000Z</time>
      </trkpt>
      <trkpt lat="47.35075" lon="2.97609">
        <ele>183.10801696777</ele>
        <time>2016-03-30T12:51:26.000Z</time>
      </trkpt>
      <trkpt lat="47.35077" lon="2.97604">
        <ele>182.98207092285</ele>
        <time>2016-03-30T12:51:29.000Z</time>
      </trkpt>
      <trkpt lat="47.35078" lon="2.976">
        <ele>182.8447265625</ele>
        <time>2016-03-30T12:51:31.000Z</time>
      </trkpt>
      <trkpt lat="47.3508" lon="2.97597">
        <ele>182.70878601074</ele>
        <time>2016-03-30T12:51:33.000Z</time>
      </trkpt>
      <trkpt lat="47.35081" lon="2.97593">
        <ele>182.5712890625</ele>
        <time>2016-03-30T12:51:36.000Z</time>
      </trkpt>
      <trkpt lat="47.35083" lon="2.9759">
        <ele>182.43307495117</ele>
        <time>2016-03-30T12:51:38.000Z</time>
      </trkpt>
      <trkpt lat="47.35085" lon="2.97586">
        <ele>182.30545043945</ele>
        <time>2016-03-30T12:51:41.000Z</time>
      </trkpt>
      <trkpt lat="47.35086" lon="2.97581">
        <ele>182.17054748535</ele>
        <time>2016-03-30T12:51:44.000Z</time>
      </trkpt>
      <trkpt lat="47.35089" lon="2.97575">
        <ele>182.01187133789</ele>
        <time>2016-03-30T12:51:47.000Z</time>
      </trkpt>
      <trkpt lat="47.35091" lon="2.97571">
        <ele>181.83908081055</ele>
        <time>2016-03-30T12:51:50.000Z</time>
      </trkpt>
      <trkpt lat="47.35092" lon="2.97568">
        <ele>181.67056274414</ele>
        <time>2016-03-30T12:51:52.000Z</time>
      </trkpt>
      <trkpt lat="47.35094" lon="2.97564">
        <ele>181.4951171875</ele>
        <time>2016-03-30T12:51:55.000Z</time>
      </trkpt>
      <trkpt lat="47.35095" lon="2.9756">
        <ele>181.32403564453</ele>
        <time>2016-03-30T12:51:57.000Z</time>
      </trkpt>
      <trkpt lat="47.35097" lon="2.97557">
        <ele>181.16961669922</ele>
        <time>2016-03-30T12:52:00.000Z</time>
      </trkpt>
      <trkpt lat="47.35098" lon="2.97553">
        <ele>181.02758789062</ele>
        <time>2016-03-30T12:52:02.000Z</time>
      </trkpt>
      <trkpt lat="47.35099" lon="2.9755">
        <ele>180.88690185547</ele>
        <time>2016-03-30T12:52:04.000Z</time>
      </trkpt>
      <trkpt lat="47.351" lon="2.97545">
        <ele>180.74133300781</ele>
        <time>2016-03-30T12:52:07.000Z</time>
      </trkpt>
      <trkpt lat="47.35101" lon="2.97543">
        <ele>180.59997558594</ele>
        <time>2016-03-30T12:52:09.000Z</time>
      </trkpt>
      <trkpt lat="47.35104" lon="2.97538">
        <ele>180.45355224609</ele>
        <time>2016-03-30T12:52:12.000Z</time>
      </trkpt>
      <trkpt lat="47.35105" lon="2.97536">
        <ele>180.30993652344</ele>
        <time>2016-03-30T12:52:14.000Z</time>
      </trkpt>
      <trkpt lat="47.35106" lon="2.97532">
        <ele>180.16442871094</ele>
        <time>2016-03-30T12:52:16.000Z</time>
      </trkpt>
      <trkpt lat="47.35107" lon="2.9753">
        <ele>180.0361328125</ele>
        <time>2016-03-30T12:52:18.000Z</time>
      </trkpt>
      <trkpt lat="47.35109" lon="2.97527">
        <ele>179.90521240234</ele>
        <time>2016-03-30T12:52:21.000Z</time>
      </trkpt>
      <trkpt lat="47.35111" lon="2.97522">
        <ele>179.76739501953</ele>
        <time>2016-03-30T12:52:24.000Z</time>
      </trkpt>
      <trkpt lat="47.35113" lon="2.97518">
        <ele>179.61895751953</ele>
        <time>2016-03-30T12:52:26.000Z</time>
      </trkpt>
      <trkpt lat="47.35115" lon="2.97512">
        <ele>179.45043945312</ele>
        <time>2016-03-30T12:52:29.000Z</time>
      </trkpt>
      <trkpt lat="47.35118" lon="2.97508">
        <ele>179.263671875</ele>
        <time>2016-03-30T12:52:32.000Z</time>
      </trkpt>
      <trkpt lat="47.3512" lon="2.97505">
        <ele>179.08001708984</ele>
        <time>2016-03-30T12:52:34.000Z</time>
      </trkpt>
      <trkpt lat="47.35122" lon="2.97501">
        <ele>178.90216064453</ele>
        <time>2016-03-30T12:52:37.000Z</time>
      </trkpt>
      <trkpt lat="47.35124" lon="2.97496">
        <ele>178.73110961914</ele>
        <time>2016-03-30T12:52:40.000Z</time>
      </trkpt>
      <trkpt lat="47.35126" lon="2.97491">
        <ele>178.57026672363</ele>
        <time>2016-03-30T12:52:43.000Z</time>
      </trkpt>
      <trkpt lat="47.35127" lon="2.97488">
        <ele>178.43124389648</ele>
        <time>2016-03-30T12:52:46.000Z</time>
      </trkpt>
      <trkpt lat="47.35129" lon="2.97485">
        <ele>178.29971313477</ele>
        <time>2016-03-30T12:52:48.000Z</time>
      </trkpt>
      <trkpt lat="47.35131" lon="2.9748">
        <ele>178.16932678223</ele>
        <time>2016-03-30T12:52:51.000Z</time>
      </trkpt>
      <trkpt lat="47.35132" lon="2.97477">
        <ele>178.04818725586</ele>
        <time>2016-03-30T12:52:53.000Z</time>
      </trkpt>
      <trkpt lat="47.35134" lon="2.97474">
        <ele>177.93545532227</ele>
        <time>2016-03-30T12:52:56.000Z</time>
      </trkpt>
      <trkpt lat="47.35135" lon="2.9747">
        <ele>177.81884765625</ele>
        <time>2016-03-30T12:52:58.000Z</time>
      </trkpt>
      <trkpt lat="47.35138" lon="2.97465">
        <ele>177.67822265625</ele>
        <time>2016-03-30T12:53:01.000Z</time>
      </trkpt>
      <trkpt lat="47.35139" lon="2.97461">
        <ele>177.5425567627</ele>
        <time>2016-03-30T12:53:04.000Z</time>
      </trkpt>
      <trkpt lat="47.35141" lon="2.97456">
        <ele>177.38537597656</ele>
        <time>2016-03-30T12:53:07.000Z</time>
      </trkpt>
      <trkpt lat="47.35143" lon="2.97454">
        <ele>177.23599243164</ele>
        <time>2016-03-30T12:53:09.000Z</time>
      </trkpt>
      <trkpt lat="47.35145" lon="2.97448">
        <ele>177.06454467773</ele>
        <time>2016-03-30T12:53:12.000Z</time>
      </trkpt>
      <trkpt lat="47.35147" lon="2.97444">
        <ele>176.89218139648</ele>
        <time>2016-03-30T12:53:15.000Z</time>
      </trkpt>
      <trkpt lat="47.35149" lon="2.97441">
        <ele>176.72093200684</ele>
        <time>2016-03-30T12:53:17.000Z</time>
      </trkpt>
      <trkpt lat="47.3515" lon="2.97439">
        <ele>176.56956481934</ele>
        <time>2016-03-30T12:53:19.000Z</time>
      </trkpt>
      <trkpt lat="47.35152" lon="2.97434">
        <ele>176.39155578613</ele>
        <time>2016-03-30T12:53:22.000Z</time>
      </trkpt>
      <trkpt lat="47.35154" lon="2.9743">
        <ele>176.21955871582</ele>
        <time>2016-03-30T12:53:25.000Z</time>
      </trkpt>
      <trkpt lat="47.35156" lon="2.97426">
        <ele>176.05661010742</ele>
        <time>2016-03-30T12:53:27.000Z</time>
      </trkpt>
      <trkpt lat="47.35157" lon="2.97424">
        <ele>175.89695739746</ele>
        <time>2016-03-30T12:53:29.000Z</time>
      </trkpt>
      <trkpt lat="47.35159" lon="2.97418">
        <ele>175.70260620117</ele>
        <time>2016-03-30T12:53:32.000Z</time>
      </trkpt>
      <trkpt lat="47.3516" lon="2.97412">
        <ele>175.54675292969</ele>
        <time>2016-03-30T12:53:35.000Z</time>
      </trkpt>
      <trkpt lat="47.35162" lon="2.9741">
        <ele>175.4255065918</ele>
        <time>2016-03-30T12:53:37.000Z</time>
      </trkpt>
      <trkpt lat="47.35163" lon="2.97407">
        <ele>175.33006286621</ele>
        <time>2016-03-30T12:53:39.000Z</time>
      </trkpt>
      <trkpt lat="47.35164" lon="2.97405">
        <ele>175.25691223145</ele>
        <time>2016-03-30T12:53:41.000Z</time>
      </trkpt>
      <trkpt lat="47.35165" lon="2.97401">
        <ele>175.24052429199</ele>
        <time>2016-03-30T12:53:43.000Z</time>
      </trkpt>
      <trkpt lat="47.35168" lon="2.97396">
        <ele>175.234375</ele>
        <time>2016-03-30T12:53:46.000Z</time>
      </trkpt>
      <trkpt lat="47.35168" lon="2.97391">
        <ele>175.24111938477</ele>
        <time>2016-03-30T12:53:49.000Z</time>
      </trkpt>
      <trkpt lat="47.3517" lon="2.97385">
        <ele>175.26718139648</ele>
        <time>2016-03-30T12:53:52.000Z</time>
      </trkpt>
      <trkpt lat="47.35171" lon="2.9738">
        <ele>175.306640625</ele>
        <time>2016-03-30T12:53:55.000Z</time>
      </trkpt>
      <trkpt lat="47.35172" lon="2.97376">
        <ele>175.3526763916</ele>
        <time>2016-03-30T12:53:58.000Z</time>
      </trkpt>
      <trkpt lat="47.35174" lon="2.9737">
        <ele>175.40747070312</ele>
        <time>2016-03-30T12:54:01.000Z</time>
      </trkpt>
      <trkpt lat="47.35174" lon="2.97368">
        <ele>175.45848083496</ele>
        <time>2016-03-30T12:54:03.000Z</time>
      </trkpt>
      <trkpt lat="47.35175" lon="2.97366">
        <ele>175.49992370605</ele>
        <time>2016-03-30T12:54:06.000Z</time>
      </trkpt>
      <trkpt lat="47.35176" lon="2.97363">
        <ele>175.53932189941</ele>
        <time>2016-03-30T12:54:09.000Z</time>
      </trkpt>
      <trkpt lat="47.35177" lon="2.97357">
        <ele>175.58474731445</ele>
        <time>2016-03-30T12:54:12.000Z</time>
      </trkpt>
      <trkpt lat="47.35177" lon="2.97351">
        <ele>175.63279724121</ele>
        <time>2016-03-30T12:54:14.000Z</time>
      </trkpt>
      <trkpt lat="47.35178" lon="2.97348">
        <ele>175.68423461914</ele>
        <time>2016-03-30T12:54:16.000Z</time>
      </trkpt>
      <trkpt lat="47.35179" lon="2.97342">
        <ele>175.74584960938</ele>
        <time>2016-03-30T12:54:19.000Z</time>
      </trkpt>
      <trkpt lat="47.3518" lon="2.97338">
        <ele>175.81105041504</ele>
        <time>2016-03-30T12:54:21.000Z</time>
      </trkpt>
      <trkpt lat="47.35181" lon="2.97333">
        <ele>175.87393188477</ele>
        <time>2016-03-30T12:54:24.000Z</time>
      </trkpt>
      <trkpt lat="47.35182" lon="2.97327">
        <ele>175.92227172852</ele>
        <time>2016-03-30T12:54:27.000Z</time>
      </trkpt>
      <trkpt lat="47.35183" lon="2.97325">
        <ele>175.96127319336</ele>
        <time>2016-03-30T12:54:29.000Z</time>
      </trkpt>
      <trkpt lat="47.35184" lon="2.9732">
        <ele>175.98648071289</ele>
        <time>2016-03-30T12:54:32.000Z</time>
      </trkpt>
      <trkpt lat="47.35186" lon="2.97317">
        <ele>176</ele>
        <time>2016-03-30T12:54:34.000Z</time>
      </trkpt>
      <trkpt lat="47.35187" lon="2.97313">
        <ele>176</ele>
        <time>2016-03-30T12:54:36.000Z</time>
      </trkpt>
      <trkpt lat="47.35188" lon="2.9731">
        <ele>176</ele>
        <time>2016-03-30T12:54:38.000Z</time>
      </trkpt>
      <trkpt lat="47.35189" lon="2.97304">
        <ele>176</ele>
        <time>2016-03-30T12:54:41.000Z</time>
      </trkpt>
      <trkpt lat="47.3519" lon="2.97301">
        <ele>176</ele>
        <time>2016-03-30T12:54:43.000Z</time>
      </trkpt>
      <trkpt lat="47.35191" lon="2.97296">
        <ele>176</ele>
        <time>2016-03-30T12:54:46.000Z</time>
      </trkpt>
      <trkpt lat="47.35192" lon="2.9729">
        <ele>176</ele>
        <time>2016-03-30T12:54:49.000Z</time>
      </trkpt>
      <trkpt lat="47.35193" lon="2.97286">
        <ele>176</ele>
        <time>2016-03-30T12:54:51.000Z</time>
      </trkpt>
      <trkpt lat="47.35194" lon="2.9728">
        <ele>176</ele>
        <time>2016-03-30T12:54:54.000Z</time>
      </trkpt>
      <trkpt lat="47.35195" lon="2.97278">
        <ele>176</ele>
        <time>2016-03-30T12:54:56.000Z</time>
      </trkpt>
      <trkpt lat="47.35195" lon="2.97273">
        <ele>176</ele>
        <time>2016-03-30T12:54:59.000Z</time>
      </trkpt>
      <trkpt lat="47.35196" lon="2.9727">
        <ele>176</ele>
        <time>2016-03-30T12:55:01.000Z</time>
      </trkpt>
      <trkpt lat="47.35197" lon="2.97266">
        <ele>176</ele>
        <time>2016-03-30T12:55:03.000Z</time>
      </trkpt>
      <trkpt lat="47.35198" lon="2.9726">
        <ele>176</ele>
        <time>2016-03-30T12:55:06.000Z</time>
      </trkpt>
      <trkpt lat="47.35199" lon="2.97254">
        <ele>176</ele>
        <time>2016-03-30T12:55:09.000Z</time>
      </trkpt>
      <trkpt lat="47.352" lon="2.97251">
        <ele>176</ele>
        <time>2016-03-30T12:55:11.000Z</time>
      </trkpt>
      <trkpt lat="47.35201" lon="2.97245">
        <ele>176.01530456543</ele>
        <time>2016-03-30T12:55:14.000Z</time>
      </trkpt>
      <trkpt lat="47.35202" lon="2.9724">
        <ele>176.04800415039</ele>
        <time>2016-03-30T12:55:17.000Z</time>
      </trkpt>
      <trkpt lat="47.35203" lon="2.97235">
        <ele>176.09820556641</ele>
        <time>2016-03-30T12:55:20.000Z</time>
      </trkpt>
      <trkpt lat="47.35204" lon="2.97232">
        <ele>176.15979003906</ele>
        <time>2016-03-30T12:55:22.000Z</time>
      </trkpt>
      <trkpt lat="47.35205" lon="2.97228">
        <ele>176.23837280273</ele>
        <time>2016-03-30T12:55:25.000Z</time>
      </trkpt>
      <trkpt lat="47.35207" lon="2.97224">
        <ele>176.31619262695</ele>
        <time>2016-03-30T12:55:27.000Z</time>
      </trkpt>
      <trkpt lat="47.35207" lon="2.97219">
        <ele>176.39517211914</ele>
        <time>2016-03-30T12:55:30.000Z</time>
      </trkpt>
      <trkpt lat="47.35209" lon="2.97215">
        <ele>176.47009277344</ele>
        <time>2016-03-30T12:55:32.000Z</time>
      </trkpt>
      <trkpt lat="47.35211" lon="2.97211">
        <ele>176.55288696289</ele>
        <time>2016-03-30T12:55:35.000Z</time>
      </trkpt>
      <trkpt lat="47.35213" lon="2.97209">
        <ele>176.62861633301</ele>
        <time>2016-03-30T12:55:37.000Z</time>
      </trkpt>
      <trkpt lat="47.35214" lon="2.97206">
        <ele>176.70114135742</ele>
        <time>2016-03-30T12:55:39.000Z</time>
      </trkpt>
      <trkpt lat="47.35216" lon="2.97203">
        <ele>176.76834106445</ele>
        <time>2016-03-30T12:55:41.000Z</time>
      </trkpt>
      <trkpt lat="47.35219" lon="2.972">
        <ele>176.83959960938</ele>
        <time>2016-03-30T12:55:44.000Z</time>
      </trkpt>
      <trkpt lat="47.35221" lon="2.97196">
        <ele>176.90768432617</ele>
        <time>2016-03-30T12:55:46.000Z</time>
      </trkpt>
      <trkpt lat="47.35225" lon="2.97193">
        <ele>176.98394775391</ele>
        <time>2016-03-30T12:55:49.000Z</time>
      </trkpt>
      <trkpt lat="47.35227" lon="2.97192">
        <ele>177.05953979492</ele>
        <time>2016-03-30T12:55:51.000Z</time>
      </trkpt>
      <trkpt lat="47.35229" lon="2.9719">
        <ele>177.13348388672</ele>
        <time>2016-03-30T12:55:54.000Z</time>
      </trkpt>
      <trkpt lat="47.35232" lon="2.97189">
        <ele>177.19860839844</ele>
        <time>2016-03-30T12:55:56.000Z</time>
      </trkpt>
      <trkpt lat="47.35236" lon="2.97187">
        <ele>177.26193237305</ele>
        <time>2016-03-30T12:55:59.000Z</time>
      </trkpt>
      <trkpt lat="47.35239" lon="2.97185">
        <ele>177.31994628906</ele>
        <time>2016-03-30T12:56:02.000Z</time>
      </trkpt>
      <trkpt lat="47.35242" lon="2.97184">
        <ele>177.37915039062</ele>
        <time>2016-03-30T12:56:04.000Z</time>
      </trkpt>
      <trkpt lat="47.35246" lon="2.97182">
        <ele>177.44233703613</ele>
        <time>2016-03-30T12:56:07.000Z</time>
      </trkpt>
      <trkpt lat="47.35249" lon="2.97181">
        <ele>177.5094909668</ele>
        <time>2016-03-30T12:56:10.000Z</time>
      </trkpt>
      <trkpt lat="47.35251" lon="2.97181">
        <ele>177.56355285645</ele>
        <time>2016-03-30T12:56:12.000Z</time>
      </trkpt>
      <trkpt lat="47.35255" lon="2.9718">
        <ele>177.5966796875</ele>
        <time>2016-03-30T12:56:15.000Z</time>
      </trkpt>
      <trkpt lat="47.35259" lon="2.97179">
        <ele>177.61502075195</ele>
        <time>2016-03-30T12:56:17.000Z</time>
      </trkpt>
      <trkpt lat="47.35262" lon="2.97179">
        <ele>177.61079406738</ele>
        <time>2016-03-30T12:56:20.000Z</time>
      </trkpt>
      <trkpt lat="47.35265" lon="2.97178">
        <ele>177.59350585938</ele>
        <time>2016-03-30T12:56:22.000Z</time>
      </trkpt>
      <trkpt lat="47.35267" lon="2.97177">
        <ele>177.57336425781</ele>
        <time>2016-03-30T12:56:24.000Z</time>
      </trkpt>
      <trkpt lat="47.35272" lon="2.97175">
        <ele>177.55969238281</ele>
        <time>2016-03-30T12:56:27.000Z</time>
      </trkpt>
      <trkpt lat="47.35275" lon="2.97174">
        <ele>177.54833984375</ele>
        <time>2016-03-30T12:56:29.000Z</time>
      </trkpt>
      <trkpt lat="47.35276" lon="2.97172">
        <ele>177.5458984375</ele>
        <time>2016-03-30T12:56:31.000Z</time>
      </trkpt>
      <trkpt lat="47.35279" lon="2.97171">
        <ele>177.54345703125</ele>
        <time>2016-03-30T12:56:33.000Z</time>
      </trkpt>
      <trkpt lat="47.35283" lon="2.9717">
        <ele>177.54223632812</ele>
        <time>2016-03-30T12:56:36.000Z</time>
      </trkpt>
      <trkpt lat="47.35286" lon="2.97168">
        <ele>177.54211425781</ele>
        <time>2016-03-30T12:56:39.000Z</time>
      </trkpt>
      <trkpt lat="47.3529" lon="2.97166">
        <ele>177.53741455078</ele>
        <time>2016-03-30T12:56:42.000Z</time>
      </trkpt>
      <trkpt lat="47.35294" lon="2.97165">
        <ele>177.51933288574</ele>
        <time>2016-03-30T12:56:45.000Z</time>
      </trkpt>
      <trkpt lat="47.35297" lon="2.97164">
        <ele>177.4910736084</ele>
        <time>2016-03-30T12:56:47.000Z</time>
      </trkpt>
      <trkpt lat="47.353" lon="2.97163">
        <ele>177.45645141602</ele>
        <time>2016-03-30T12:56:58.000Z</time>
      </trkpt>
      <trkpt lat="47.35303" lon="2.97163">
        <ele>177.41543579102</ele>
        <time>2016-03-30T12:57:00.000Z</time>
      </trkpt>
      <trkpt lat="47.35307" lon="2.97162">
        <ele>177.36836242676</ele>
        <time>2016-03-30T12:57:00.000Z</time>
      </trkpt>
      <trkpt lat="47.3531" lon="2.97161">
        <ele>177.32481384277</ele>
        <time>2016-03-30T12:57:00.000Z</time>
      </trkpt>
      <trkpt lat="47.35315" lon="2.97159">
        <ele>177.28047180176</ele>
        <time>2016-03-30T12:57:01.000Z</time>
      </trkpt>
      <trkpt lat="47.35319" lon="2.97158">
        <ele>177.23455810547</ele>
        <time>2016-03-30T12:57:03.000Z</time>
      </trkpt>
      <trkpt lat="47.35324" lon="2.97157">
        <ele>177.18524169922</ele>
        <time>2016-03-30T12:57:06.000Z</time>
      </trkpt>
      <trkpt lat="47.35328" lon="2.97156">
        <ele>177.13928222656</ele>
        <time>2016-03-30T12:57:10.000Z</time>
      </trkpt>
      <trkpt lat="47.35332" lon="2.97157">
        <ele>177.09323120117</ele>
        <time>2016-03-30T12:57:12.000Z</time>
      </trkpt>
      <trkpt lat="47.35335" lon="2.97157">
        <ele>177.03872680664</ele>
        <time>2016-03-30T12:57:14.000Z</time>
      </trkpt>
      <trkpt lat="47.35339" lon="2.97155">
        <ele>176.95877075195</ele>
        <time>2016-03-30T12:57:17.000Z</time>
      </trkpt>
      <trkpt lat="47.35342" lon="2.97154">
        <ele>176.85925292969</ele>
        <time>2016-03-30T12:57:19.000Z</time>
      </trkpt>
      <trkpt lat="47.35347" lon="2.97152">
        <ele>176.72314453125</ele>
        <time>2016-03-30T12:57:22.000Z</time>
      </trkpt>
      <trkpt lat="47.3535" lon="2.97151">
        <ele>176.57316589355</ele>
        <time>2016-03-30T12:57:24.000Z</time>
      </trkpt>
      <trkpt lat="47.35353" lon="2.9715">
        <ele>176.41044616699</ele>
        <time>2016-03-30T12:57:27.000Z</time>
      </trkpt>
      <trkpt lat="47.35355" lon="2.97148">
        <ele>176.26768493652</ele>
        <time>2016-03-30T12:57:29.000Z</time>
      </trkpt>
      <trkpt lat="47.3536" lon="2.97145">
        <ele>176.10926818848</ele>
        <time>2016-03-30T12:57:32.000Z</time>
      </trkpt>
      <trkpt lat="47.35363" lon="2.97142">
        <ele>175.97218322754</ele>
        <time>2016-03-30T12:57:35.000Z</time>
      </trkpt>
      <trkpt lat="47.35366" lon="2.97138">
        <ele>175.8352355957</ele>
        <time>2016-03-30T12:57:38.000Z</time>
      </trkpt>
      <trkpt lat="47.35368" lon="2.97136">
        <ele>175.71545410156</ele>
        <time>2016-03-30T12:57:40.000Z</time>
      </trkpt>
      <trkpt lat="47.3537" lon="2.97133">
        <ele>175.59503173828</ele>
        <time>2016-03-30T12:57:42.000Z</time>
      </trkpt>
      <trkpt lat="47.35372" lon="2.97129">
        <ele>175.5032043457</ele>
        <time>2016-03-30T12:57:45.000Z</time>
      </trkpt>
      <trkpt lat="47.35373" lon="2.97126">
        <ele>175.43153381348</ele>
        <time>2016-03-30T12:57:47.000Z</time>
      </trkpt>
      <trkpt lat="47.35375" lon="2.97122">
        <ele>175.37292480469</ele>
        <time>2016-03-30T12:57:50.000Z</time>
      </trkpt>
      <trkpt lat="47.35376" lon="2.97119">
        <ele>175.32331848145</ele>
        <time>2016-03-30T12:57:52.000Z</time>
      </trkpt>
      <trkpt lat="47.35378" lon="2.97115">
        <ele>175.27928161621</ele>
        <time>2016-03-30T12:57:54.000Z</time>
      </trkpt>
      <trkpt lat="47.35379" lon="2.9711">
        <ele>175.2463684082</ele>
        <time>2016-03-30T12:57:58.000Z</time>
      </trkpt>
      <trkpt lat="47.35381" lon="2.97105">
        <ele>175.20942687988</ele>
        <time>2016-03-30T12:58:00.000Z</time>
      </trkpt>
      <trkpt lat="47.35382" lon="2.97101">
        <ele>175.17718505859</ele>
        <time>2016-03-30T12:58:02.000Z</time>
      </trkpt>
      <trkpt lat="47.35385" lon="2.97093">
        <ele>175.14128112793</ele>
        <time>2016-03-30T12:58:05.000Z</time>
      </trkpt>
      <trkpt lat="47.35386" lon="2.97089">
        <ele>175.11103820801</ele>
        <time>2016-03-30T12:58:07.000Z</time>
      </trkpt>
      <trkpt lat="47.35387" lon="2.97086">
        <ele>175.08299255371</ele>
        <time>2016-03-30T12:58:09.000Z</time>
      </trkpt>
      <trkpt lat="47.35389" lon="2.97082">
        <ele>175.05317687988</ele>
        <time>2016-03-30T12:58:11.000Z</time>
      </trkpt>
      <trkpt lat="47.3539" lon="2.97076">
        <ele>175.01152038574</ele>
        <time>2016-03-30T12:58:14.000Z</time>
      </trkpt>
      <trkpt lat="47.35392" lon="2.9707">
        <ele>174.966796875</ele>
        <time>2016-03-30T12:58:17.000Z</time>
      </trkpt>
      <trkpt lat="47.35393" lon="2.97065">
        <ele>174.9137878418</ele>
        <time>2016-03-30T12:58:19.000Z</time>
      </trkpt>
      <trkpt lat="47.35394" lon="2.97061">
        <ele>174.85389709473</ele>
        <time>2016-03-30T12:58:21.000Z</time>
      </trkpt>
      <trkpt lat="47.35395" lon="2.97055">
        <ele>174.79109191895</ele>
        <time>2016-03-30T12:58:24.000Z</time>
      </trkpt>
      <trkpt lat="47.35397" lon="2.97049">
        <ele>174.72994995117</ele>
        <time>2016-03-30T12:58:27.000Z</time>
      </trkpt>
      <trkpt lat="47.35398" lon="2.97043">
        <ele>174.6764831543</ele>
        <time>2016-03-30T12:58:30.000Z</time>
      </trkpt>
      <trkpt lat="47.35398" lon="2.97039">
        <ele>174.62754821777</ele>
        <time>2016-03-30T12:58:37.000Z</time>
      </trkpt>
      <trkpt lat="47.35398" lon="2.97036">
        <ele>174.58763122559</ele>
        <time>2016-03-30T12:58:37.000Z</time>
      </trkpt>
      <trkpt lat="47.35399" lon="2.9703">
        <ele>174.55380249023</ele>
        <time>2016-03-30T12:58:38.000Z</time>
      </trkpt>
      <trkpt lat="47.35399" lon="2.97026">
        <ele>174.52976989746</ele>
        <time>2016-03-30T12:58:39.000Z</time>
      </trkpt>
      <trkpt lat="47.354" lon="2.97021">
        <ele>174.50650024414</ele>
        <time>2016-03-30T12:58:42.000Z</time>
      </trkpt>
      <trkpt lat="47.354" lon="2.97015">
        <ele>174.48310852051</ele>
        <time>2016-03-30T12:58:45.000Z</time>
      </trkpt>
      <trkpt lat="47.35402" lon="2.9701">
        <ele>174.45248413086</ele>
        <time>2016-03-30T12:58:47.000Z</time>
      </trkpt>
      <trkpt lat="47.35402" lon="2.97003">
        <ele>174.4225769043</ele>
        <time>2016-03-30T12:58:50.000Z</time>
      </trkpt>
      <trkpt lat="47.35402" lon="2.97">
        <ele>174.39750671387</ele>
        <time>2016-03-30T12:58:52.000Z</time>
      </trkpt>
      <trkpt lat="47.35402" lon="2.96995">
        <ele>174.40002441406</ele>
        <time>2016-03-30T12:58:55.000Z</time>
      </trkpt>
      <trkpt lat="47.35402" lon="2.9699">
        <ele>174.42625427246</ele>
        <time>2016-03-30T12:58:57.000Z</time>
      </trkpt>
      <trkpt lat="47.35403" lon="2.96985">
        <ele>174.47904968262</ele>
        <time>2016-03-30T12:59:00.000Z</time>
      </trkpt>
      <trkpt lat="47.35404" lon="2.96981">
        <ele>174.55583190918</ele>
        <time>2016-03-30T12:59:02.000Z</time>
      </trkpt>
      <trkpt lat="47.35405" lon="2.96977">
        <ele>174.64596557617</ele>
        <time>2016-03-30T12:59:04.000Z</time>
      </trkpt>
      <trkpt lat="47.35406" lon="2.96971">
        <ele>174.73536682129</ele>
        <time>2016-03-30T12:59:07.000Z</time>
      </trkpt>
      <trkpt lat="47.35406" lon="2.96964">
        <ele>174.83343505859</ele>
        <time>2016-03-30T12:59:10.000Z</time>
      </trkpt>
      <trkpt lat="47.35407" lon="2.96961">
        <ele>174.92655944824</ele>
        <time>2016-03-30T12:59:12.000Z</time>
      </trkpt>
      <trkpt lat="47.35408" lon="2.96955">
        <ele>175.02223205566</ele>
        <time>2016-03-30T12:59:14.000Z</time>
      </trkpt>
      <trkpt lat="47.35408" lon="2.96951">
        <ele>175.12246704102</ele>
        <time>2016-03-30T12:59:16.000Z</time>
      </trkpt>
      <trkpt lat="47.35408" lon="2.96947">
        <ele>175.21731567383</ele>
        <time>2016-03-30T12:59:18.000Z</time>
      </trkpt>
      <trkpt lat="47.35409" lon="2.96943">
        <ele>175.30577087402</ele>
        <time>2016-03-30T12:59:21.000Z</time>
      </trkpt>
      <trkpt lat="47.35409" lon="2.9694">
        <ele>175.39375305176</ele>
        <time>2016-03-30T12:59:23.000Z</time>
      </trkpt>
      <trkpt lat="47.3541" lon="2.96933">
        <ele>175.49227905273</ele>
        <time>2016-03-30T12:59:26.000Z</time>
      </trkpt>
      <trkpt lat="47.3541" lon="2.9693">
        <ele>175.58827209473</ele>
        <time>2016-03-30T12:59:28.000Z</time>
      </trkpt>
      <trkpt lat="47.35411" lon="2.96924">
        <ele>175.6891784668</ele>
        <time>2016-03-30T12:59:31.000Z</time>
      </trkpt>
      <trkpt lat="47.35411" lon="2.96921">
        <ele>175.7841796875</ele>
        <time>2016-03-30T12:59:33.000Z</time>
      </trkpt>
      <trkpt lat="47.35412" lon="2.96918">
        <ele>175.8815612793</ele>
        <time>2016-03-30T12:59:35.000Z</time>
      </trkpt>
      <trkpt lat="47.35413" lon="2.9691">
        <ele>175.96501159668</ele>
        <time>2016-03-30T12:59:38.000Z</time>
      </trkpt>
      <trkpt lat="47.35414" lon="2.96904">
        <ele>176.04370117188</ele>
        <time>2016-03-30T12:59:41.000Z</time>
      </trkpt>
      <trkpt lat="47.35414" lon="2.969">
        <ele>176.10844421387</ele>
        <time>2016-03-30T12:59:43.000Z</time>
      </trkpt>
      <trkpt lat="47.35414" lon="2.96894">
        <ele>176.17526245117</ele>
        <time>2016-03-30T12:59:46.000Z</time>
      </trkpt>
      <trkpt lat="47.35416" lon="2.96888">
        <ele>176.23815917969</ele>
        <time>2016-03-30T12:59:49.000Z</time>
      </trkpt>
      <trkpt lat="47.35417" lon="2.96884">
        <ele>176.29159545898</ele>
        <time>2016-03-30T12:59:52.000Z</time>
      </trkpt>
      <trkpt lat="47.35417" lon="2.96877">
        <ele>176.34635925293</ele>
        <time>2016-03-30T12:59:55.000Z</time>
      </trkpt>
      <trkpt lat="47.35418" lon="2.96873">
        <ele>176.40005493164</ele>
        <time>2016-03-30T12:59:57.000Z</time>
      </trkpt>
      <trkpt lat="47.35418" lon="2.96867">
        <ele>176.44975280762</ele>
        <time>2016-03-30T13:00:00.000Z</time>
      </trkpt>
      <trkpt lat="47.35418" lon="2.96864">
        <ele>176.50192260742</ele>
        <time>2016-03-30T13:00:02.000Z</time>
      </trkpt>
      <trkpt lat="47.35417" lon="2.96859">
        <ele>176.56069946289</ele>
        <time>2016-03-30T13:00:04.000Z</time>
      </trkpt>
      <trkpt lat="47.35416" lon="2.96854">
        <ele>176.62020874023</ele>
        <time>2016-03-30T13:00:07.000Z</time>
      </trkpt>
      <trkpt lat="47.35415" lon="2.96847">
        <ele>176.68898010254</ele>
        <time>2016-03-30T13:00:10.000Z</time>
      </trkpt>
      <trkpt lat="47.35415" lon="2.96843">
        <ele>176.75772094727</ele>
        <time>2016-03-30T13:00:12.000Z</time>
      </trkpt>
      <trkpt lat="47.35415" lon="2.96837">
        <ele>176.82745361328</ele>
        <time>2016-03-30T13:00:15.000Z</time>
      </trkpt>
      <trkpt lat="47.35414" lon="2.96829">
        <ele>176.90982055664</ele>
        <time>2016-03-30T13:00:18.000Z</time>
      </trkpt>
      <trkpt lat="47.35415" lon="2.96825">
        <ele>176.99897766113</ele>
        <time>2016-03-30T13:00:20.000Z</time>
      </trkpt>
      <trkpt lat="47.35415" lon="2.9682">
        <ele>177.09579467773</ele>
        <time>2016-03-30T13:00:23.000Z</time>
      </trkpt>
      <trkpt lat="47.35415" lon="2.96816">
        <ele>177.19912719727</ele>
        <time>2016-03-30T13:00:25.000Z</time>
      </trkpt>
      <trkpt lat="47.35415" lon="2.96812">
        <ele>177.30662536621</ele>
        <time>2016-03-30T13:00:27.000Z</time>
      </trkpt>
      <trkpt lat="47.35414" lon="2.96806">
        <ele>177.41537475586</ele>
        <time>2016-03-30T13:00:30.000Z</time>
      </trkpt>
      <trkpt lat="47.35413" lon="2.96799">
        <ele>177.53689575195</ele>
        <time>2016-03-30T13:00:33.000Z</time>
      </trkpt>
      <trkpt lat="47.35413" lon="2.96795">
        <ele>177.6526184082</ele>
        <time>2016-03-30T13:00:35.000Z</time>
      </trkpt>
      <trkpt lat="47.35413" lon="2.96792">
        <ele>177.76594543457</ele>
        <time>2016-03-30T13:00:37.000Z</time>
      </trkpt>
      <trkpt lat="47.35413" lon="2.96786">
        <ele>177.88916015625</ele>
        <time>2016-03-30T13:00:40.000Z</time>
      </trkpt>
      <trkpt lat="47.35412" lon="2.9678">
        <ele>178.00845336914</ele>
        <time>2016-03-30T13:00:43.000Z</time>
      </trkpt>
      <trkpt lat="47.35411" lon="2.96774">
        <ele>178.1244354248</ele>
        <time>2016-03-30T13:00:46.000Z</time>
      </trkpt>
      <trkpt lat="47.35411" lon="2.96769">
        <ele>178.24282836914</ele>
        <time>2016-03-30T13:00:48.000Z</time>
      </trkpt>
      <trkpt lat="47.35411" lon="2.96762">
        <ele>178.3773651123</ele>
        <time>2016-03-30T13:00:51.000Z</time>
      </trkpt>
      <trkpt lat="47.3541" lon="2.96759">
        <ele>178.49740600586</ele>
        <time>2016-03-30T13:00:53.000Z</time>
      </trkpt>
      <trkpt lat="47.3541" lon="2.96753">
        <ele>178.61616516113</ele>
        <time>2016-03-30T13:00:56.000Z</time>
      </trkpt>
      <trkpt lat="47.35408" lon="2.96748">
        <ele>178.73937988281</ele>
        <time>2016-03-30T13:00:59.000Z</time>
      </trkpt>
      <trkpt lat="47.35406" lon="2.96744">
        <ele>178.88928222656</ele>
        <time>2016-03-30T13:01:02.000Z</time>
      </trkpt>
      <trkpt lat="47.35405" lon="2.96737">
        <ele>179.0901184082</ele>
        <time>2016-03-30T13:01:05.000Z</time>
      </trkpt>
      <trkpt lat="47.35405" lon="2.96735">
        <ele>179.29133605957</ele>
        <time>2016-03-30T13:01:08.000Z</time>
      </trkpt>
      <trkpt lat="47.35405" lon="2.96734">
        <ele>179.48617553711</ele>
        <time>2016-03-30T13:01:18.000Z</time>
      </trkpt>
      <trkpt lat="47.35405" lon="2.9673">
        <ele>179.68495178223</ele>
        <time>2016-03-30T13:01:21.000Z</time>
      </trkpt>
      <trkpt lat="47.35404" lon="2.96726">
        <ele>179.88566589355</ele>
        <time>2016-03-30T13:01:24.000Z</time>
      </trkpt>
      <trkpt lat="47.35405" lon="2.96723">
        <ele>180.03802490234</ele>
        <time>2016-03-30T13:01:26.000Z</time>
      </trkpt>
      <trkpt lat="47.35404" lon="2.9672">
        <ele>180.20738220215</ele>
        <time>2016-03-30T13:01:29.000Z</time>
      </trkpt>
      <trkpt lat="47.35404" lon="2.96718">
        <ele>180.38201904297</ele>
        <time>2016-03-30T13:01:31.000Z</time>
      </trkpt>
      <trkpt lat="47.35407" lon="2.96717">
        <ele>180.54930114746</ele>
        <time>2016-03-30T13:01:35.000Z</time>
      </trkpt>
      <trkpt lat="47.35407" lon="2.96713">
        <ele>180.71209716797</ele>
        <time>2016-03-30T13:01:37.000Z</time>
      </trkpt>
      <trkpt lat="47.35406" lon="2.96709">
        <ele>180.88174438477</ele>
        <time>2016-03-30T13:01:39.000Z</time>
      </trkpt>
      <trkpt lat="47.35405" lon="2.96704">
        <ele>181.07797241211</ele>
        <time>2016-03-30T13:01:42.000Z</time>
      </trkpt>
      <trkpt lat="47.35405" lon="2.96701">
        <ele>181.28700256348</ele>
        <time>2016-03-30T13:01:44.000Z</time>
      </trkpt>
      <trkpt lat="47.35404" lon="2.96693">
        <ele>181.55307006836</ele>
        <time>2016-03-30T13:01:47.000Z</time>
      </trkpt>
      <trkpt lat="47.35404" lon="2.96685">
        <ele>181.86288452148</ele>
        <time>2016-03-30T13:01:50.000Z</time>
      </trkpt>
      <trkpt lat="47.35405" lon="2.96681">
        <ele>182.18557739258</ele>
        <time>2016-03-30T13:01:52.000Z</time>
      </trkpt>
      <trkpt lat="47.35405" lon="2.96677">
        <ele>182.49810791016</ele>
        <time>2016-03-30T13:01:54.000Z</time>
      </trkpt>
      <trkpt lat="47.35405" lon="2.9667">
        <ele>182.85551452637</ele>
        <time>2016-03-30T13:01:57.000Z</time>
      </trkpt>
      <trkpt lat="47.35405" lon="2.96663">
        <ele>183.20272827148</ele>
        <time>2016-03-30T13:02:00.000Z</time>
      </trkpt>
      <trkpt lat="47.35406" lon="2.96657">
        <ele>183.5251159668</ele>
        <time>2016-03-30T13:02:03.000Z</time>
      </trkpt>
      <trkpt lat="47.35406" lon="2.96652">
        <ele>183.84719848633</ele>
        <time>2016-03-30T13:02:06.000Z</time>
      </trkpt>
      <trkpt lat="47.35406" lon="2.96647">
        <ele>184.17034912109</ele>
        <time>2016-03-30T13:02:09.000Z</time>
      </trkpt>
      <trkpt lat="47.35406" lon="2.96644">
        <ele>184.44836425781</ele>
        <time>2016-03-30T13:02:11.000Z</time>
      </trkpt>
      <trkpt lat="47.35405" lon="2.96638">
        <ele>184.71026611328</ele>
        <time>2016-03-30T13:02:14.000Z</time>
      </trkpt>
      <trkpt lat="47.35405" lon="2.96632">
        <ele>184.96961975098</ele>
        <time>2016-03-30T13:02:17.000Z</time>
      </trkpt>
      <trkpt lat="47.35404" lon="2.96627">
        <ele>185.21675109863</ele>
        <time>2016-03-30T13:02:19.000Z</time>
      </trkpt>
      <trkpt lat="47.35404" lon="2.96622">
        <ele>185.47160339355</ele>
        <time>2016-03-30T13:02:22.000Z</time>
      </trkpt>
      <trkpt lat="47.35404" lon="2.96619">
        <ele>185.72207641602</ele>
        <time>2016-03-30T13:02:24.000Z</time>
      </trkpt>
      <trkpt lat="47.35404" lon="2.96614">
        <ele>185.96492004395</ele>
        <time>2016-03-30T13:02:27.000Z</time>
      </trkpt>
      <trkpt lat="47.35402" lon="2.96607">
        <ele>186.21060180664</ele>
        <time>2016-03-30T13:02:30.000Z</time>
      </trkpt>
      <trkpt lat="47.35402" lon="2.96603">
        <ele>186.45753479004</ele>
        <time>2016-03-30T13:02:32.000Z</time>
      </trkpt>
      <trkpt lat="47.35401" lon="2.96598">
        <ele>186.70809936523</ele>
        <time>2016-03-30T13:02:35.000Z</time>
      </trkpt>
      <trkpt lat="47.35402" lon="2.96592">
        <ele>186.98684692383</ele>
        <time>2016-03-30T13:02:38.000Z</time>
      </trkpt>
      <trkpt lat="47.35403" lon="2.96586">
        <ele>187.27340698242</ele>
        <time>2016-03-30T13:02:41.000Z</time>
      </trkpt>
      <trkpt lat="47.35403" lon="2.96582">
        <ele>187.52568054199</ele>
        <time>2016-03-30T13:02:43.000Z</time>
      </trkpt>
      <trkpt lat="47.35403" lon="2.9658">
        <ele>187.73811340332</ele>
        <time>2016-03-30T13:02:46.000Z</time>
      </trkpt>
      <trkpt lat="47.35403" lon="2.96579">
        <ele>187.89198303223</ele>
        <time>2016-03-30T13:02:49.000Z</time>
      </trkpt>
      <trkpt lat="47.35402" lon="2.96577">
        <ele>187.98989868164</ele>
        <time>2016-03-30T13:02:51.000Z</time>
      </trkpt>
      <trkpt lat="47.35399" lon="2.96572">
        <ele>188.03450012207</ele>
        <time>2016-03-30T13:02:54.000Z</time>
      </trkpt>
      <trkpt lat="47.35398" lon="2.96568">
        <ele>188.05880737305</ele>
        <time>2016-03-30T13:02:57.000Z</time>
      </trkpt>
      <trkpt lat="47.35398" lon="2.96565">
        <ele>188.08535766602</ele>
        <time>2016-03-30T13:02:59.000Z</time>
      </trkpt>
      <trkpt lat="47.35397" lon="2.9656">
        <ele>188.11947631836</ele>
        <time>2016-03-30T13:03:02.000Z</time>
      </trkpt>
      <trkpt lat="47.35397" lon="2.96556">
        <ele>188.15672302246</ele>
        <time>2016-03-30T13:03:05.000Z</time>
      </trkpt>
      <trkpt lat="47.35397" lon="2.96553">
        <ele>188.19128417969</ele>
        <time>2016-03-30T13:03:08.000Z</time>
      </trkpt>
      <trkpt lat="47.35397" lon="2.9655">
        <ele>188.22418212891</ele>
        <time>2016-03-30T13:03:11.000Z</time>
      </trkpt>
      <trkpt lat="47.35397" lon="2.96547">
        <ele>188.25630187988</ele>
        <time>2016-03-30T13:03:16.000Z</time>
      </trkpt>
      <trkpt lat="47.35397" lon="2.96543">
        <ele>188.28663635254</ele>
        <time>2016-03-30T13:03:19.000Z</time>
      </trkpt>
      <trkpt lat="47.35396" lon="2.96539">
        <ele>188.32051086426</ele>
        <time>2016-03-30T13:03:21.000Z</time>
      </trkpt>
      <trkpt lat="47.35396" lon="2.96537">
        <ele>188.35147094727</ele>
        <time>2016-03-30T13:03:23.000Z</time>
      </trkpt>
      <trkpt lat="47.35397" lon="2.96533">
        <ele>188.38034057617</ele>
        <time>2016-03-30T13:03:26.000Z</time>
      </trkpt>
      <trkpt lat="47.35397" lon="2.96529">
        <ele>188.4118347168</ele>
        <time>2016-03-30T13:03:29.000Z</time>
      </trkpt>
      <trkpt lat="47.35397" lon="2.96525">
        <ele>188.44313049316</ele>
        <time>2016-03-30T13:03:32.000Z</time>
      </trkpt>
      <trkpt lat="47.35397" lon="2.96522">
        <ele>188.46887207031</ele>
        <time>2016-03-30T13:03:34.000Z</time>
      </trkpt>
      <trkpt lat="47.35396" lon="2.96519">
        <ele>188.50010681152</ele>
        <time>2016-03-30T13:03:37.000Z</time>
      </trkpt>
      <trkpt lat="47.35397" lon="2.96515">
        <ele>188.53047180176</ele>
        <time>2016-03-30T13:03:40.000Z</time>
      </trkpt>
      <trkpt lat="47.35397" lon="2.96512">
        <ele>188.55790710449</ele>
        <time>2016-03-30T13:03:42.000Z</time>
      </trkpt>
      <trkpt lat="47.35398" lon="2.96508">
        <ele>188.58111572266</ele>
        <time>2016-03-30T13:03:45.000Z</time>
      </trkpt>
      <trkpt lat="47.35398" lon="2.96506">
        <ele>188.60116577148</ele>
        <time>2016-03-30T13:03:47.000Z</time>
      </trkpt>
      <trkpt lat="47.35398" lon="2.96503">
        <ele>188.62121582031</ele>
        <time>2016-03-30T13:03:49.000Z</time>
      </trkpt>
      <trkpt lat="47.35398" lon="2.96498">
        <ele>188.65054321289</ele>
        <time>2016-03-30T13:03:52.000Z</time>
      </trkpt>
      <trkpt lat="47.35398" lon="2.96496">
        <ele>188.68395996094</ele>
        <time>2016-03-30T13:03:54.000Z</time>
      </trkpt>
      <trkpt lat="47.354" lon="2.96492">
        <ele>188.72702026367</ele>
        <time>2016-03-30T13:03:57.000Z</time>
      </trkpt>
      <trkpt lat="47.35401" lon="2.9649">
        <ele>188.77224731445</ele>
        <time>2016-03-30T13:03:59.000Z</time>
      </trkpt>
      <trkpt lat="47.35403" lon="2.96485">
        <ele>188.82292175293</ele>
        <time>2016-03-30T13:04:02.000Z</time>
      </trkpt>
      <trkpt lat="47.35405" lon="2.96482">
        <ele>188.86497497559</ele>
        <time>2016-03-30T13:04:06.000Z</time>
      </trkpt>
      <trkpt lat="47.35406" lon="2.96478">
        <ele>188.90800476074</ele>
        <time>2016-03-30T13:04:08.000Z</time>
      </trkpt>
      <trkpt lat="47.35407" lon="2.96476">
        <ele>188.93843078613</ele>
        <time>2016-03-30T13:04:10.000Z</time>
      </trkpt>
      <trkpt lat="47.35409" lon="2.96473">
        <ele>188.96255493164</ele>
        <time>2016-03-30T13:04:12.000Z</time>
      </trkpt>
      <trkpt lat="47.35413" lon="2.96472">
        <ele>188.94703674316</ele>
        <time>2016-03-30T13:04:15.000Z</time>
      </trkpt>
      <trkpt lat="47.35415" lon="2.96471">
        <ele>188.91007995605</ele>
        <time>2016-03-30T13:04:17.000Z</time>
      </trkpt>
      <trkpt lat="47.35416" lon="2.9647">
        <ele>188.85815429688</ele>
        <time>2016-03-30T13:04:20.000Z</time>
      </trkpt>
      <trkpt lat="47.35417" lon="2.96469">
        <ele>188.81158447266</ele>
        <time>2016-03-30T13:04:22.000Z</time>
      </trkpt>
      <trkpt lat="47.35418" lon="2.96469">
        <ele>188.77900695801</ele>
        <time>2016-03-30T13:04:28.000Z</time>
      </trkpt>
      <trkpt lat="47.3542" lon="2.96468">
        <ele>188.78521728516</ele>
        <time>2016-03-30T13:04:43.000Z</time>
      </trkpt>
      <trkpt lat="47.35421" lon="2.96469">
        <ele>188.81706237793</ele>
        <time>2016-03-30T13:04:46.000Z</time>
      </trkpt>
      <trkpt lat="47.35423" lon="2.96468">
        <ele>188.86535644531</ele>
        <time>2016-03-30T13:04:50.000Z</time>
      </trkpt>
      <trkpt lat="47.35424" lon="2.96467">
        <ele>188.91893005371</ele>
        <time>2016-03-30T13:04:56.000Z</time>
      </trkpt>
      <trkpt lat="47.35424" lon="2.96465">
        <ele>188.97256469727</ele>
        <time>2016-03-30T13:05:09.000Z</time>
      </trkpt>
      <trkpt lat="47.35424" lon="2.96463">
        <ele>189.02293395996</ele>
        <time>2016-03-30T13:05:13.000Z</time>
      </trkpt>
      <trkpt lat="47.35424" lon="2.96462">
        <ele>189.06976318359</ele>
        <time>2016-03-30T13:05:17.000Z</time>
      </trkpt>
      <trkpt lat="47.35425" lon="2.9646">
        <ele>189.1184387207</ele>
        <time>2016-03-30T13:05:22.000Z</time>
      </trkpt>
      <trkpt lat="47.35425" lon="2.9646">
        <ele>189.1184387207</ele>
        <time>2016-03-30T13:05:42.000Z</time>
      </trkpt>
      <trkpt lat="47.35426" lon="2.96459">
        <ele>189.16546630859</ele>
        <time>2016-03-30T13:05:59.000Z</time>
      </trkpt>
      <trkpt lat="47.35426" lon="2.96456">
        <ele>189.21347045898</ele>
        <time>2016-03-30T13:06:02.000Z</time>
      </trkpt>
      <trkpt lat="47.35426" lon="2.96456">
        <ele>189.21347045898</ele>
        <time>2016-03-30T13:06:22.000Z</time>
      </trkpt>
      <trkpt lat="47.35427" lon="2.96455">
        <ele>189.26359558105</ele>
        <time>2016-03-30T13:07:04.000Z</time>
      </trkpt>
      <trkpt lat="47.35427" lon="2.9645">
        <ele>189.32769775391</ele>
        <time>2016-03-30T13:07:08.000Z</time>
      </trkpt>
      <trkpt lat="47.35427" lon="2.96449">
        <ele>189.38613891602</ele>
        <time>2016-03-30T13:07:11.000Z</time>
      </trkpt>
      <trkpt lat="47.35427" lon="2.96447">
        <ele>189.44262695312</ele>
        <time>2016-03-30T13:07:21.000Z</time>
      </trkpt>
      <trkpt lat="47.35427" lon="2.96447">
        <ele>189.44262695312</ele>
        <time>2016-03-30T13:07:41.000Z</time>
      </trkpt>
      <trkpt lat="47.3543" lon="2.96452">
        <ele>189.4836730957</ele>
        <time>2016-03-30T13:07:45.000Z</time>
      </trkpt>
      <trkpt lat="47.3543" lon="2.96452">
        <ele>189.4836730957</ele>
        <time>2016-03-30T13:08:05.000Z</time>
      </trkpt>
      <trkpt lat="47.35433" lon="2.96449">
        <ele>189.53842163086</ele>
        <time>2016-03-30T13:08:08.000Z</time>
      </trkpt>
      <trkpt lat="47.35432" lon="2.96447">
        <ele>189.57844543457</ele>
        <time>2016-03-30T13:08:12.000Z</time>
      </trkpt>
      <trkpt lat="47.35432" lon="2.96444">
        <ele>189.61933898926</ele>
        <time>2016-03-30T13:08:15.000Z</time>
      </trkpt>
      <trkpt lat="47.35432" lon="2.96442">
        <ele>189.66381835938</ele>
        <time>2016-03-30T13:08:17.000Z</time>
      </trkpt>
      <trkpt lat="47.35432" lon="2.96439">
        <ele>189.71980285645</ele>
        <time>2016-03-30T13:08:19.000Z</time>
      </trkpt>
      <trkpt lat="47.35433" lon="2.96436">
        <ele>189.76432800293</ele>
        <time>2016-03-30T13:08:22.000Z</time>
      </trkpt>
      <trkpt lat="47.35433" lon="2.96433">
        <ele>189.81452941895</ele>
        <time>2016-03-30T13:08:24.000Z</time>
      </trkpt>
      <trkpt lat="47.35433" lon="2.96431">
        <ele>189.86605834961</ele>
        <time>2016-03-30T13:08:26.000Z</time>
      </trkpt>
      <trkpt lat="47.35433" lon="2.96428">
        <ele>189.91589355469</ele>
        <time>2016-03-30T13:08:28.000Z</time>
      </trkpt>
      <trkpt lat="47.35432" lon="2.96422">
        <ele>189.97499084473</ele>
        <time>2016-03-30T13:08:31.000Z</time>
      </trkpt>
      <trkpt lat="47.35432" lon="2.96419">
        <ele>190.03030395508</ele>
        <time>2016-03-30T13:08:33.000Z</time>
      </trkpt>
      <trkpt lat="47.35432" lon="2.96416">
        <ele>190.08386230469</ele>
        <time>2016-03-30T13:08:35.000Z</time>
      </trkpt>
      <trkpt lat="47.35432" lon="2.96412">
        <ele>190.14430236816</ele>
        <time>2016-03-30T13:08:37.000Z</time>
      </trkpt>
      <trkpt lat="47.35432" lon="2.96409">
        <ele>190.2056427002</ele>
        <time>2016-03-30T13:08:39.000Z</time>
      </trkpt>
      <trkpt lat="47.35432" lon="2.96404">
        <ele>190.26544189453</ele>
        <time>2016-03-30T13:08:42.000Z</time>
      </trkpt>
      <trkpt lat="47.35432" lon="2.96402">
        <ele>190.3249206543</ele>
        <time>2016-03-30T13:08:44.000Z</time>
      </trkpt>
      <trkpt lat="47.35432" lon="2.96397">
        <ele>190.39128112793</ele>
        <time>2016-03-30T13:08:47.000Z</time>
      </trkpt>
      <trkpt lat="47.35432" lon="2.96392">
        <ele>190.46044921875</ele>
        <time>2016-03-30T13:08:50.000Z</time>
      </trkpt>
      <trkpt lat="47.35432" lon="2.96387">
        <ele>190.53732299805</ele>
        <time>2016-03-30T13:08:52.000Z</time>
      </trkpt>
      <trkpt lat="47.35432" lon="2.96382">
        <ele>190.61460876465</ele>
        <time>2016-03-30T13:08:54.000Z</time>
      </trkpt>
      <trkpt lat="47.35433" lon="2.96377">
        <ele>190.69734191895</ele>
        <time>2016-03-30T13:08:57.000Z</time>
      </trkpt>
      <trkpt lat="47.35434" lon="2.96375">
        <ele>190.77159118652</ele>
        <time>2016-03-30T13:08:59.000Z</time>
      </trkpt>
      <trkpt lat="47.35434" lon="2.9637">
        <ele>190.84344482422</ele>
        <time>2016-03-30T13:09:02.000Z</time>
      </trkpt>
      <trkpt lat="47.35434" lon="2.96364">
        <ele>190.91893005371</ele>
        <time>2016-03-30T13:09:05.000Z</time>
      </trkpt>
      <trkpt lat="47.35434" lon="2.96359">
        <ele>190.99507141113</ele>
        <time>2016-03-30T13:09:08.000Z</time>
      </trkpt>
      <trkpt lat="47.35435" lon="2.96356">
        <ele>191.06484985352</ele>
        <time>2016-03-30T13:09:10.000Z</time>
      </trkpt>
      <trkpt lat="47.35434" lon="2.96353">
        <ele>191.13737487793</ele>
        <time>2016-03-30T13:09:12.000Z</time>
      </trkpt>
      <trkpt lat="47.35434" lon="2.9635">
        <ele>191.2043762207</ele>
        <time>2016-03-30T13:09:14.000Z</time>
      </trkpt>
      <trkpt lat="47.35434" lon="2.96344">
        <ele>191.27127075195</ele>
        <time>2016-03-30T13:09:17.000Z</time>
      </trkpt>
      <trkpt lat="47.35434" lon="2.96339">
        <ele>191.33615112305</ele>
        <time>2016-03-30T13:09:20.000Z</time>
      </trkpt>
      <trkpt lat="47.35434" lon="2.96341">
        <ele>191.38777160645</ele>
        <time>2016-03-30T13:09:28.000Z</time>
      </trkpt>
      <trkpt lat="47.35434" lon="2.96342">
        <ele>191.42367553711</ele>
        <time>2016-03-30T13:09:31.000Z</time>
      </trkpt>
      <trkpt lat="47.35434" lon="2.96345">
        <ele>191.44055175781</ele>
        <time>2016-03-30T13:09:47.000Z</time>
      </trkpt>
      <trkpt lat="47.35435" lon="2.96345">
        <ele>191.43252563477</ele>
        <time>2016-03-30T13:09:49.000Z</time>
      </trkpt>
      <trkpt lat="47.35436" lon="2.96342">
        <ele>191.41604614258</ele>
        <time>2016-03-30T13:09:52.000Z</time>
      </trkpt>
      <trkpt lat="47.35437" lon="2.96338">
        <ele>191.41218566895</ele>
        <time>2016-03-30T13:09:55.000Z</time>
      </trkpt>
      <trkpt lat="47.35437" lon="2.96334">
        <ele>191.42497253418</ele>
        <time>2016-03-30T13:09:57.000Z</time>
      </trkpt>
      <trkpt lat="47.35437" lon="2.96329">
        <ele>191.45602416992</ele>
        <time>2016-03-30T13:10:00.000Z</time>
      </trkpt>
      <trkpt lat="47.35437" lon="2.96324">
        <ele>191.50357055664</ele>
        <time>2016-03-30T13:10:03.000Z</time>
      </trkpt>
      <trkpt lat="47.35437" lon="2.96321">
        <ele>191.55683898926</ele>
        <time>2016-03-30T13:10:06.000Z</time>
      </trkpt>
      <trkpt lat="47.35437" lon="2.96318">
        <ele>191.60803222656</ele>
        <time>2016-03-30T13:10:24.000Z</time>
      </trkpt>
      <trkpt lat="47.35436" lon="2.96312">
        <ele>191.66516113281</ele>
        <time>2016-03-30T13:10:27.000Z</time>
      </trkpt>
      <trkpt lat="47.35436" lon="2.96308">
        <ele>191.72351074219</ele>
        <time>2016-03-30T13:10:29.000Z</time>
      </trkpt>
      <trkpt lat="47.35436" lon="2.96303">
        <ele>191.78100585938</ele>
        <time>2016-03-30T13:10:32.000Z</time>
      </trkpt>
      <trkpt lat="47.35436" lon="2.96298">
        <ele>191.83813476562</ele>
        <time>2016-03-30T13:10:35.000Z</time>
      </trkpt>
      <trkpt lat="47.35436" lon="2.96295">
        <ele>191.89862060547</ele>
        <time>2016-03-30T13:10:37.000Z</time>
      </trkpt>
      <trkpt lat="47.35436" lon="2.96291">
        <ele>191.95031738281</ele>
        <time>2016-03-30T13:10:39.000Z</time>
      </trkpt>
      <trkpt lat="47.35437" lon="2.96285">
        <ele>192.00286865234</ele>
        <time>2016-03-30T13:10:42.000Z</time>
      </trkpt>
      <trkpt lat="47.35436" lon="2.96278">
        <ele>192.06286621094</ele>
        <time>2016-03-30T13:10:45.000Z</time>
      </trkpt>
      <trkpt lat="47.35436" lon="2.96275">
        <ele>192.12030029297</ele>
        <time>2016-03-30T13:10:48.000Z</time>
      </trkpt>
      <trkpt lat="47.35436" lon="2.96272">
        <ele>192.17529296875</ele>
        <time>2016-03-30T13:10:50.000Z</time>
      </trkpt>
      <trkpt lat="47.35436" lon="2.96267">
        <ele>192.23419189453</ele>
        <time>2016-03-30T13:10:52.000Z</time>
      </trkpt>
      <trkpt lat="47.35435" lon="2.96263">
        <ele>192.29235839844</ele>
        <time>2016-03-30T13:10:54.000Z</time>
      </trkpt>
      <trkpt lat="47.35435" lon="2.96257">
        <ele>192.34686279297</ele>
        <time>2016-03-30T13:10:56.000Z</time>
      </trkpt>
      <trkpt lat="47.35435" lon="2.96254">
        <ele>192.40264892578</ele>
        <time>2016-03-30T13:10:58.000Z</time>
      </trkpt>
      <trkpt lat="47.35433" lon="2.96248">
        <ele>192.46894836426</ele>
        <time>2016-03-30T13:11:01.000Z</time>
      </trkpt>
      <trkpt lat="47.35434" lon="2.96243">
        <ele>192.52983093262</ele>
        <time>2016-03-30T13:11:04.000Z</time>
      </trkpt>
      <trkpt lat="47.35433" lon="2.96237">
        <ele>192.58889770508</ele>
        <time>2016-03-30T13:11:07.000Z</time>
      </trkpt>
      <trkpt lat="47.35433" lon="2.96234">
        <ele>192.63775634766</ele>
        <time>2016-03-30T13:11:09.000Z</time>
      </trkpt>
      <trkpt lat="47.35433" lon="2.96227">
        <ele>192.68594360352</ele>
        <time>2016-03-30T13:11:12.000Z</time>
      </trkpt>
      <trkpt lat="47.35432" lon="2.96222">
        <ele>192.7271270752</ele>
        <time>2016-03-30T13:11:15.000Z</time>
      </trkpt>
      <trkpt lat="47.35431" lon="2.96217">
        <ele>192.7698059082</ele>
        <time>2016-03-30T13:11:17.000Z</time>
      </trkpt>
      <trkpt lat="47.35431" lon="2.96211">
        <ele>192.81153869629</ele>
        <time>2016-03-30T13:11:20.000Z</time>
      </trkpt>
      <trkpt lat="47.35431" lon="2.96205">
        <ele>192.85540771484</ele>
        <time>2016-03-30T13:11:23.000Z</time>
      </trkpt>
      <trkpt lat="47.35431" lon="2.962">
        <ele>192.89501953125</ele>
        <time>2016-03-30T13:11:26.000Z</time>
      </trkpt>
      <trkpt lat="47.35431" lon="2.96197">
        <ele>192.92868041992</ele>
        <time>2016-03-30T13:11:28.000Z</time>
      </trkpt>
      <trkpt lat="47.3543" lon="2.96193">
        <ele>192.95817565918</ele>
        <time>2016-03-30T13:11:30.000Z</time>
      </trkpt>
      <trkpt lat="47.35428" lon="2.9619">
        <ele>192.98310852051</ele>
        <time>2016-03-30T13:11:32.000Z</time>
      </trkpt>
      <trkpt lat="47.35427" lon="2.96184">
        <ele>193.00538635254</ele>
        <time>2016-03-30T13:11:35.000Z</time>
      </trkpt>
      <trkpt lat="47.35425" lon="2.96176">
        <ele>193.02534484863</ele>
        <time>2016-03-30T13:11:38.000Z</time>
      </trkpt>
      <trkpt lat="47.35424" lon="2.96172">
        <ele>193.0422668457</ele>
        <time>2016-03-30T13:11:41.000Z</time>
      </trkpt>
      <trkpt lat="47.35423" lon="2.96169">
        <ele>193.05541992188</ele>
        <time>2016-03-30T13:11:43.000Z</time>
      </trkpt>
      <trkpt lat="47.35423" lon="2.96164">
        <ele>193.07939147949</ele>
        <time>2016-03-30T13:11:45.000Z</time>
      </trkpt>
      <trkpt lat="47.35422" lon="2.96158">
        <ele>193.12400817871</ele>
        <time>2016-03-30T13:11:47.000Z</time>
      </trkpt>
      <trkpt lat="47.35421" lon="2.96153">
        <ele>193.18695068359</ele>
        <time>2016-03-30T13:11:50.000Z</time>
      </trkpt>
      <trkpt lat="47.35421" lon="2.96148">
        <ele>193.2752532959</ele>
        <time>2016-03-30T13:11:53.000Z</time>
      </trkpt>
      <trkpt lat="47.3542" lon="2.96143">
        <ele>193.38452148438</ele>
        <time>2016-03-30T13:11:56.000Z</time>
      </trkpt>
      <trkpt lat="47.35419" lon="2.96138">
        <ele>193.49865722656</ele>
        <time>2016-03-30T13:11:58.000Z</time>
      </trkpt>
      <trkpt lat="47.35419" lon="2.96131">
        <ele>193.61975097656</ele>
        <time>2016-03-30T13:12:01.000Z</time>
      </trkpt>
      <trkpt lat="47.35418" lon="2.96126">
        <ele>193.74255371094</ele>
        <time>2016-03-30T13:12:04.000Z</time>
      </trkpt>
      <trkpt lat="47.35416" lon="2.96121">
        <ele>193.86010742188</ele>
        <time>2016-03-30T13:12:07.000Z</time>
      </trkpt>
      <trkpt lat="47.35415" lon="2.96117">
        <ele>193.97387695312</ele>
        <time>2016-03-30T13:12:09.000Z</time>
      </trkpt>
      <trkpt lat="47.35412" lon="2.96114">
        <ele>194.08276367188</ele>
        <time>2016-03-30T13:12:11.000Z</time>
      </trkpt>
      <trkpt lat="47.3541" lon="2.96111">
        <ele>194.17602539062</ele>
        <time>2016-03-30T13:12:14.000Z</time>
      </trkpt>
      <trkpt lat="47.35405" lon="2.96109">
        <ele>194.25354003906</ele>
        <time>2016-03-30T13:12:17.000Z</time>
      </trkpt>
      <trkpt lat="47.35402" lon="2.96107">
        <ele>194.31884765625</ele>
        <time>2016-03-30T13:12:20.000Z</time>
      </trkpt>
      <trkpt lat="47.354" lon="2.96106">
        <ele>194.37292480469</ele>
        <time>2016-03-30T13:12:22.000Z</time>
      </trkpt>
      <trkpt lat="47.35397" lon="2.96104">
        <ele>194.42272949219</ele>
        <time>2016-03-30T13:12:24.000Z</time>
      </trkpt>
      <trkpt lat="47.35393" lon="2.96102">
        <ele>194.46691894531</ele>
        <time>2016-03-30T13:12:27.000Z</time>
      </trkpt>
      <trkpt lat="47.35389" lon="2.961">
        <ele>194.51062011719</ele>
        <time>2016-03-30T13:12:30.000Z</time>
      </trkpt>
      <trkpt lat="47.35385" lon="2.96098">
        <ele>194.552734375</ele>
        <time>2016-03-30T13:12:33.000Z</time>
      </trkpt>
      <trkpt lat="47.35381" lon="2.96097">
        <ele>194.5966796875</ele>
        <time>2016-03-30T13:12:36.000Z</time>
      </trkpt>
      <trkpt lat="47.35377" lon="2.96095">
        <ele>194.63989257812</ele>
        <time>2016-03-30T13:12:39.000Z</time>
      </trkpt>
      <trkpt lat="47.35373" lon="2.96094">
        <ele>194.67553710938</ele>
        <time>2016-03-30T13:12:42.000Z</time>
      </trkpt>
      <trkpt lat="47.3537" lon="2.96093">
        <ele>194.70776367188</ele>
        <time>2016-03-30T13:12:44.000Z</time>
      </trkpt>
      <trkpt lat="47.35366" lon="2.96091">
        <ele>194.74365234375</ele>
        <time>2016-03-30T13:12:47.000Z</time>
      </trkpt>
      <trkpt lat="47.35363" lon="2.9609">
        <ele>194.77746582031</ele>
        <time>2016-03-30T13:12:50.000Z</time>
      </trkpt>
      <trkpt lat="47.35361" lon="2.96089">
        <ele>194.80700683594</ele>
        <time>2016-03-30T13:12:52.000Z</time>
      </trkpt>
      <trkpt lat="47.35358" lon="2.96088">
        <ele>194.83728027344</ele>
        <time>2016-03-30T13:12:54.000Z</time>
      </trkpt>
      <trkpt lat="47.35354" lon="2.96087">
        <ele>194.86706542969</ele>
        <time>2016-03-30T13:12:57.000Z</time>
      </trkpt>
      <trkpt lat="47.35351" lon="2.96086">
        <ele>194.89147949219</ele>
        <time>2016-03-30T13:13:00.000Z</time>
      </trkpt>
      <trkpt lat="47.3535" lon="2.96084">
        <ele>194.91723632812</ele>
        <time>2016-03-30T13:13:02.000Z</time>
      </trkpt>
      <trkpt lat="47.35349" lon="2.96084">
        <ele>194.94189453125</ele>
        <time>2016-03-30T13:13:05.000Z</time>
      </trkpt>
      <trkpt lat="47.35347" lon="2.96083">
        <ele>194.96681213379</ele>
        <time>2016-03-30T13:13:08.000Z</time>
      </trkpt>
      <trkpt lat="47.35344" lon="2.96081">
        <ele>194.99563598633</ele>
        <time>2016-03-30T13:13:11.000Z</time>
      </trkpt>
      <trkpt lat="47.35342" lon="2.96081">
        <ele>195.02160644531</ele>
        <time>2016-03-30T13:13:13.000Z</time>
      </trkpt>
      <trkpt lat="47.35339" lon="2.96079">
        <ele>195.04579162598</ele>
        <time>2016-03-30T13:13:16.000Z</time>
      </trkpt>
      <trkpt lat="47.35337" lon="2.96079">
        <ele>195.06869506836</ele>
        <time>2016-03-30T13:13:18.000Z</time>
      </trkpt>
      <trkpt lat="47.35334" lon="2.96079">
        <ele>195.08638000488</ele>
        <time>2016-03-30T13:13:21.000Z</time>
      </trkpt>
      <trkpt lat="47.35332" lon="2.96078">
        <ele>195.09687805176</ele>
        <time>2016-03-30T13:13:23.000Z</time>
      </trkpt>
      <trkpt lat="47.35329" lon="2.96077">
        <ele>195.10406494141</ele>
        <time>2016-03-30T13:13:26.000Z</time>
      </trkpt>
      <trkpt lat="47.35327" lon="2.96077">
        <ele>195.10307312012</ele>
        <time>2016-03-30T13:13:28.000Z</time>
      </trkpt>
      <trkpt lat="47.35324" lon="2.96075">
        <ele>195.09948730469</ele>
        <time>2016-03-30T13:13:31.000Z</time>
      </trkpt>
      <trkpt lat="47.35321" lon="2.96073">
        <ele>195.10075378418</ele>
        <time>2016-03-30T13:13:34.000Z</time>
      </trkpt>
      <trkpt lat="47.3532" lon="2.96072">
        <ele>195.10655212402</ele>
        <time>2016-03-30T13:13:36.000Z</time>
      </trkpt>
      <trkpt lat="47.35318" lon="2.96069">
        <ele>195.1233215332</ele>
        <time>2016-03-30T13:13:39.000Z</time>
      </trkpt>
      <trkpt lat="47.35317" lon="2.96067">
        <ele>195.15390014648</ele>
        <time>2016-03-30T13:13:41.000Z</time>
      </trkpt>
      <trkpt lat="47.35316" lon="2.96064">
        <ele>195.19505310059</ele>
        <time>2016-03-30T13:13:43.000Z</time>
      </trkpt>
      <trkpt lat="47.35315" lon="2.96059">
        <ele>195.25717163086</ele>
        <time>2016-03-30T13:13:46.000Z</time>
      </trkpt>
      <trkpt lat="47.35312" lon="2.96054">
        <ele>195.33598327637</ele>
        <time>2016-03-30T13:13:49.000Z</time>
      </trkpt>
      <trkpt lat="47.3531" lon="2.96051">
        <ele>195.42233276367</ele>
        <time>2016-03-30T13:13:52.000Z</time>
      </trkpt>
      <trkpt lat="47.35309" lon="2.96048">
        <ele>195.51119995117</ele>
        <time>2016-03-30T13:13:54.000Z</time>
      </trkpt>
      <trkpt lat="47.35308" lon="2.96045">
        <ele>195.60313415527</ele>
        <time>2016-03-30T13:13:57.000Z</time>
      </trkpt>
      <trkpt lat="47.35307" lon="2.9604">
        <ele>195.69366455078</ele>
        <time>2016-03-30T13:13:59.000Z</time>
      </trkpt>
      <trkpt lat="47.35305" lon="2.96036">
        <ele>195.7852935791</ele>
        <time>2016-03-30T13:14:01.000Z</time>
      </trkpt>
      <trkpt lat="47.35304" lon="2.96034">
        <ele>195.87124633789</ele>
        <time>2016-03-30T13:14:03.000Z</time>
      </trkpt>
      <trkpt lat="47.35302" lon="2.9603">
        <ele>195.96353149414</ele>
        <time>2016-03-30T13:14:06.000Z</time>
      </trkpt>
      <trkpt lat="47.35299" lon="2.96025">
        <ele>196.0694732666</ele>
        <time>2016-03-30T13:14:09.000Z</time>
      </trkpt>
      <trkpt lat="47.35298" lon="2.9602">
        <ele>196.17622375488</ele>
        <time>2016-03-30T13:14:12.000Z</time>
      </trkpt>
      <trkpt lat="47.35295" lon="2.96017">
        <ele>196.27981567383</ele>
        <time>2016-03-30T13:14:15.000Z</time>
      </trkpt>
      <trkpt lat="47.35294" lon="2.96012">
        <ele>196.39624023438</ele>
        <time>2016-03-30T13:14:18.000Z</time>
      </trkpt>
      <trkpt lat="47.35292" lon="2.96009">
        <ele>196.51493835449</ele>
        <time>2016-03-30T13:14:21.000Z</time>
      </trkpt>
      <trkpt lat="47.3529" lon="2.96004">
        <ele>196.63244628906</ele>
        <time>2016-03-30T13:14:24.000Z</time>
      </trkpt>
      <trkpt lat="47.35287" lon="2.95999">
        <ele>196.75180053711</ele>
        <time>2016-03-30T13:14:27.000Z</time>
      </trkpt>
      <trkpt lat="47.35286" lon="2.95995">
        <ele>196.85763549805</ele>
        <time>2016-03-30T13:14:29.000Z</time>
      </trkpt>
      <trkpt lat="47.35284" lon="2.95991">
        <ele>196.94381713867</ele>
        <time>2016-03-30T13:14:31.000Z</time>
      </trkpt>
      <trkpt lat="47.35283" lon="2.95988">
        <ele>197.01277160645</ele>
        <time>2016-03-30T13:14:33.000Z</time>
      </trkpt>
      <trkpt lat="47.35281" lon="2.95984">
        <ele>197.06245422363</ele>
        <time>2016-03-30T13:14:36.000Z</time>
      </trkpt>
      <trkpt lat="47.3528" lon="2.9598">
        <ele>197.09191894531</ele>
        <time>2016-03-30T13:14:38.000Z</time>
      </trkpt>
      <trkpt lat="47.35278" lon="2.95976">
        <ele>197.12336730957</ele>
        <time>2016-03-30T13:14:41.000Z</time>
      </trkpt>
      <trkpt lat="47.35277" lon="2.95973">
        <ele>197.15396118164</ele>
        <time>2016-03-30T13:14:43.000Z</time>
      </trkpt>
      <trkpt lat="47.35276" lon="2.95969">
        <ele>197.18737792969</ele>
        <time>2016-03-30T13:14:46.000Z</time>
      </trkpt>
      <trkpt lat="47.35273" lon="2.95965">
        <ele>197.22415161133</ele>
        <time>2016-03-30T13:14:49.000Z</time>
      </trkpt>
      <trkpt lat="47.35271" lon="2.95959">
        <ele>197.26774597168</ele>
        <time>2016-03-30T13:14:52.000Z</time>
      </trkpt>
      <trkpt lat="47.35269" lon="2.95954">
        <ele>197.31401062012</ele>
        <time>2016-03-30T13:14:55.000Z</time>
      </trkpt>
      <trkpt lat="47.35267" lon="2.95951">
        <ele>197.36444091797</ele>
        <time>2016-03-30T13:14:58.000Z</time>
      </trkpt>
      <trkpt lat="47.35265" lon="2.95946">
        <ele>197.41906738281</ele>
        <time>2016-03-30T13:15:01.000Z</time>
      </trkpt>
      <trkpt lat="47.35263" lon="2.95943">
        <ele>197.47358703613</ele>
        <time>2016-03-30T13:15:04.000Z</time>
      </trkpt>
      <trkpt lat="47.3526" lon="2.95938">
        <ele>197.52987670898</ele>
        <time>2016-03-30T13:15:07.000Z</time>
      </trkpt>
      <trkpt lat="47.35259" lon="2.95936">
        <ele>197.58235168457</ele>
        <time>2016-03-30T13:15:09.000Z</time>
      </trkpt>
      <trkpt lat="47.35257" lon="2.95932">
        <ele>197.63749694824</ele>
        <time>2016-03-30T13:15:12.000Z</time>
      </trkpt>
      <trkpt lat="47.35256" lon="2.9593">
        <ele>197.6882019043</ele>
        <time>2016-03-30T13:15:14.000Z</time>
      </trkpt>
      <trkpt lat="47.35254" lon="2.95925">
        <ele>197.74392700195</ele>
        <time>2016-03-30T13:15:17.000Z</time>
      </trkpt>
      <trkpt lat="47.35253" lon="2.95923">
        <ele>197.79190063477</ele>
        <time>2016-03-30T13:15:19.000Z</time>
      </trkpt>
      <trkpt lat="47.35251" lon="2.95918">
        <ele>197.84928894043</ele>
        <time>2016-03-30T13:15:22.000Z</time>
      </trkpt>
      <trkpt lat="47.35249" lon="2.95916">
        <ele>197.89828491211</ele>
        <time>2016-03-30T13:15:24.000Z</time>
      </trkpt>
      <trkpt lat="47.35245" lon="2.95911">
        <ele>197.93145751953</ele>
        <time>2016-03-30T13:15:27.000Z</time>
      </trkpt>
      <trkpt lat="47.35244" lon="2.95908">
        <ele>197.94905090332</ele>
        <time>2016-03-30T13:15:30.000Z</time>
      </trkpt>
      <trkpt lat="47.35243" lon="2.95904">
        <ele>197.95886230469</ele>
        <time>2016-03-30T13:15:33.000Z</time>
      </trkpt>
      <trkpt lat="47.3524" lon="2.95898">
        <ele>197.95085144043</ele>
        <time>2016-03-30T13:15:36.000Z</time>
      </trkpt>
      <trkpt lat="47.35238" lon="2.95893">
        <ele>197.94003295898</ele>
        <time>2016-03-30T13:15:39.000Z</time>
      </trkpt>
      <trkpt lat="47.35237" lon="2.95891">
        <ele>197.93811035156</ele>
        <time>2016-03-30T13:15:41.000Z</time>
      </trkpt>
      <trkpt lat="47.35234" lon="2.95888">
        <ele>197.93774414062</ele>
        <time>2016-03-30T13:15:44.000Z</time>
      </trkpt>
      <trkpt lat="47.35233" lon="2.95883">
        <ele>197.94116210938</ele>
        <time>2016-03-30T13:15:47.000Z</time>
      </trkpt>
      <trkpt lat="47.35231" lon="2.9588">
        <ele>197.9489440918</ele>
        <time>2016-03-30T13:15:49.000Z</time>
      </trkpt>
      <trkpt lat="47.35229" lon="2.95877">
        <ele>197.95993041992</ele>
        <time>2016-03-30T13:15:52.000Z</time>
      </trkpt>
      <trkpt lat="47.35226" lon="2.95873">
        <ele>197.97543334961</ele>
        <time>2016-03-30T13:15:55.000Z</time>
      </trkpt>
      <trkpt lat="47.35225" lon="2.95871">
        <ele>197.99247741699</ele>
        <time>2016-03-30T13:15:57.000Z</time>
      </trkpt>
      <trkpt lat="47.35223" lon="2.95869">
        <ele>198.00999450684</ele>
        <time>2016-03-30T13:15:59.000Z</time>
      </trkpt>
      <trkpt lat="47.35221" lon="2.95865">
        <ele>198.03315734863</ele>
        <time>2016-03-30T13:16:02.000Z</time>
      </trkpt>
      <trkpt lat="47.35218" lon="2.9586">
        <ele>198.06297302246</ele>
        <time>2016-03-30T13:16:05.000Z</time>
      </trkpt>
      <trkpt lat="47.35217" lon="2.95857">
        <ele>198.0934753418</ele>
        <time>2016-03-30T13:16:07.000Z</time>
      </trkpt>
      <trkpt lat="47.35216" lon="2.95854">
        <ele>198.12847900391</ele>
        <time>2016-03-30T13:16:09.000Z</time>
      </trkpt>
      <trkpt lat="47.35213" lon="2.9585">
        <ele>198.1711730957</ele>
        <time>2016-03-30T13:16:12.000Z</time>
      </trkpt>
      <trkpt lat="47.35211" lon="2.95845">
        <ele>198.2220916748</ele>
        <time>2016-03-30T13:16:15.000Z</time>
      </trkpt>
      <trkpt lat="47.35209" lon="2.9584">
        <ele>198.27656555176</ele>
        <time>2016-03-30T13:16:18.000Z</time>
      </trkpt>
      <trkpt lat="47.35205" lon="2.95835">
        <ele>198.34545898438</ele>
        <time>2016-03-30T13:16:21.000Z</time>
      </trkpt>
      <trkpt lat="47.35203" lon="2.95831">
        <ele>198.42135620117</ele>
        <time>2016-03-30T13:16:24.000Z</time>
      </trkpt>
      <trkpt lat="47.35201" lon="2.95829">
        <ele>198.48991394043</ele>
        <time>2016-03-30T13:16:26.000Z</time>
      </trkpt>
      <trkpt lat="47.35199" lon="2.95827">
        <ele>198.55065917969</ele>
        <time>2016-03-30T13:16:29.000Z</time>
      </trkpt>
      <trkpt lat="47.35197" lon="2.95824">
        <ele>198.60517883301</ele>
        <time>2016-03-30T13:16:32.000Z</time>
      </trkpt>
      <trkpt lat="47.35195" lon="2.95821">
        <ele>198.64506530762</ele>
        <time>2016-03-30T13:16:34.000Z</time>
      </trkpt>
      <trkpt lat="47.35191" lon="2.95816">
        <ele>198.68171691895</ele>
        <time>2016-03-30T13:16:37.000Z</time>
      </trkpt>
      <trkpt lat="47.3519" lon="2.95813">
        <ele>198.71871948242</ele>
        <time>2016-03-30T13:16:39.000Z</time>
      </trkpt>
      <trkpt lat="47.35189" lon="2.9581">
        <ele>198.74975585938</ele>
        <time>2016-03-30T13:16:42.000Z</time>
      </trkpt>
      <trkpt lat="47.35188" lon="2.95807">
        <ele>198.77792358398</ele>
        <time>2016-03-30T13:16:44.000Z</time>
      </trkpt>
      <trkpt lat="47.35186" lon="2.95803">
        <ele>198.80661010742</ele>
        <time>2016-03-30T13:16:47.000Z</time>
      </trkpt>
      <trkpt lat="47.35184" lon="2.95799">
        <ele>198.82890319824</ele>
        <time>2016-03-30T13:16:49.000Z</time>
      </trkpt>
      <trkpt lat="47.35182" lon="2.95795">
        <ele>198.8512878418</ele>
        <time>2016-03-30T13:16:52.000Z</time>
      </trkpt>
      <trkpt lat="47.35181" lon="2.95791">
        <ele>198.87478637695</ele>
        <time>2016-03-30T13:16:54.000Z</time>
      </trkpt>
      <trkpt lat="47.35179" lon="2.95785">
        <ele>198.89779663086</ele>
        <time>2016-03-30T13:16:57.000Z</time>
      </trkpt>
      <trkpt lat="47.35178" lon="2.95782">
        <ele>198.91677856445</ele>
        <time>2016-03-30T13:16:59.000Z</time>
      </trkpt>
      <trkpt lat="47.35175" lon="2.95777">
        <ele>198.9348449707</ele>
        <time>2016-03-30T13:17:02.000Z</time>
      </trkpt>
      <trkpt lat="47.35173" lon="2.95775">
        <ele>198.95016479492</ele>
        <time>2016-03-30T13:17:04.000Z</time>
      </trkpt>
      <trkpt lat="47.35172" lon="2.95772">
        <ele>198.96347045898</ele>
        <time>2016-03-30T13:17:07.000Z</time>
      </trkpt>
      <trkpt lat="47.35171" lon="2.95769">
        <ele>198.97326660156</ele>
        <time>2016-03-30T13:17:09.000Z</time>
      </trkpt>
      <trkpt lat="47.35169" lon="2.95766">
        <ele>198.98204040527</ele>
        <time>2016-03-30T13:17:11.000Z</time>
      </trkpt>
      <trkpt lat="47.35167" lon="2.95761">
        <ele>198.98852539062</ele>
        <time>2016-03-30T13:17:14.000Z</time>
      </trkpt>
      <trkpt lat="47.35164" lon="2.95757">
        <ele>198.986328125</ele>
        <time>2016-03-30T13:17:17.000Z</time>
      </trkpt>
      <trkpt lat="47.35162" lon="2.95752">
        <ele>198.97782897949</ele>
        <time>2016-03-30T13:17:20.000Z</time>
      </trkpt>
      <trkpt lat="47.35161" lon="2.9575">
        <ele>198.96592712402</ele>
        <time>2016-03-30T13:17:22.000Z</time>
      </trkpt>
      <trkpt lat="47.35159" lon="2.95744">
        <ele>198.96185302734</ele>
        <time>2016-03-30T13:17:25.000Z</time>
      </trkpt>
      <trkpt lat="47.35157" lon="2.9574">
        <ele>198.9616394043</ele>
        <time>2016-03-30T13:17:27.000Z</time>
      </trkpt>
      <trkpt lat="47.35155" lon="2.95738">
        <ele>198.97050476074</ele>
        <time>2016-03-30T13:17:29.000Z</time>
      </trkpt>
      <trkpt lat="47.35153" lon="2.95735">
        <ele>198.98480224609</ele>
        <time>2016-03-30T13:17:31.000Z</time>
      </trkpt>
      <trkpt lat="47.35152" lon="2.95732">
        <ele>199.00756835938</ele>
        <time>2016-03-30T13:17:34.000Z</time>
      </trkpt>
      <trkpt lat="47.35151" lon="2.95729">
        <ele>199.02429199219</ele>
        <time>2016-03-30T13:17:36.000Z</time>
      </trkpt>
      <trkpt lat="47.35149" lon="2.95725">
        <ele>199.04193115234</ele>
        <time>2016-03-30T13:17:39.000Z</time>
      </trkpt>
      <trkpt lat="47.35147" lon="2.95721">
        <ele>199.06329345703</ele>
        <time>2016-03-30T13:17:42.000Z</time>
      </trkpt>
      <trkpt lat="47.35146" lon="2.95718">
        <ele>199.08752441406</ele>
        <time>2016-03-30T13:17:44.000Z</time>
      </trkpt>
      <trkpt lat="47.35144" lon="2.95715">
        <ele>199.10894775391</ele>
        <time>2016-03-30T13:17:46.000Z</time>
      </trkpt>
      <trkpt lat="47.35143" lon="2.95712">
        <ele>199.13177490234</ele>
        <time>2016-03-30T13:17:49.000Z</time>
      </trkpt>
      <trkpt lat="47.35141" lon="2.95707">
        <ele>199.15557861328</ele>
        <time>2016-03-30T13:17:52.000Z</time>
      </trkpt>
      <trkpt lat="47.3514" lon="2.95704">
        <ele>199.18048095703</ele>
        <time>2016-03-30T13:17:54.000Z</time>
      </trkpt>
      <trkpt lat="47.35139" lon="2.957">
        <ele>199.20635986328</ele>
        <time>2016-03-30T13:17:56.000Z</time>
      </trkpt>
      <trkpt lat="47.35136" lon="2.95695">
        <ele>199.23565673828</ele>
        <time>2016-03-30T13:17:59.000Z</time>
      </trkpt>
      <trkpt lat="47.35135" lon="2.95693">
        <ele>199.26354980469</ele>
        <time>2016-03-30T13:18:01.000Z</time>
      </trkpt>
      <trkpt lat="47.35133" lon="2.95688">
        <ele>199.28948974609</ele>
        <time>2016-03-30T13:18:04.000Z</time>
      </trkpt>
      <trkpt lat="47.35131" lon="2.95685">
        <ele>199.31127929688</ele>
        <time>2016-03-30T13:18:07.000Z</time>
      </trkpt>
      <trkpt lat="47.35128" lon="2.95681">
        <ele>199.33270263672</ele>
        <time>2016-03-30T13:18:10.000Z</time>
      </trkpt>
      <trkpt lat="47.35127" lon="2.95679">
        <ele>199.34954833984</ele>
        <time>2016-03-30T13:18:12.000Z</time>
      </trkpt>
      <trkpt lat="47.35125" lon="2.95676">
        <ele>199.36614990234</ele>
        <time>2016-03-30T13:18:15.000Z</time>
      </trkpt>
      <trkpt lat="47.35124" lon="2.95673">
        <ele>199.3798828125</ele>
        <time>2016-03-30T13:18:17.000Z</time>
      </trkpt>
      <trkpt lat="47.35122" lon="2.95669">
        <ele>199.3974609375</ele>
        <time>2016-03-30T13:18:19.000Z</time>
      </trkpt>
      <trkpt lat="47.35122" lon="2.95665">
        <ele>199.419921875</ele>
        <time>2016-03-30T13:18:21.000Z</time>
      </trkpt>
      <trkpt lat="47.35121" lon="2.9566">
        <ele>199.45037841797</ele>
        <time>2016-03-30T13:18:24.000Z</time>
      </trkpt>
      <trkpt lat="47.3512" lon="2.95655">
        <ele>199.48956298828</ele>
        <time>2016-03-30T13:18:27.000Z</time>
      </trkpt>
      <trkpt lat="47.3512" lon="2.95652">
        <ele>199.53094482422</ele>
        <time>2016-03-30T13:18:29.000Z</time>
      </trkpt>
      <trkpt lat="47.35118" lon="2.95646">
        <ele>199.5751953125</ele>
        <time>2016-03-30T13:18:33.000Z</time>
      </trkpt>
      <trkpt lat="47.35117" lon="2.95641">
        <ele>199.61938476562</ele>
        <time>2016-03-30T13:18:34.000Z</time>
      </trkpt>
      <trkpt lat="47.35117" lon="2.95639">
        <ele>199.65844726562</ele>
        <time>2016-03-30T13:18:42.000Z</time>
      </trkpt>
      <trkpt lat="47.35115" lon="2.95634">
        <ele>199.69592285156</ele>
        <time>2016-03-30T13:18:43.000Z</time>
      </trkpt>
      <trkpt lat="47.35114" lon="2.9563">
        <ele>199.73449707031</ele>
        <time>2016-03-30T13:18:47.000Z</time>
      </trkpt>
      <trkpt lat="47.35114" lon="2.95629">
        <ele>199.76593017578</ele>
        <time>2016-03-30T13:18:48.000Z</time>
      </trkpt>
      <trkpt lat="47.35112" lon="2.95626">
        <ele>199.79327392578</ele>
        <time>2016-03-30T13:18:48.000Z</time>
      </trkpt>
      <trkpt lat="47.35112" lon="2.95624">
        <ele>199.81768798828</ele>
        <time>2016-03-30T13:18:50.000Z</time>
      </trkpt>
      <trkpt lat="47.35109" lon="2.9562">
        <ele>199.83636474609</ele>
        <time>2016-03-30T13:18:54.000Z</time>
      </trkpt>
      <trkpt lat="47.35107" lon="2.95617">
        <ele>199.85192871094</ele>
        <time>2016-03-30T13:18:55.000Z</time>
      </trkpt>
      <trkpt lat="47.35105" lon="2.95613">
        <ele>199.86798095703</ele>
        <time>2016-03-30T13:19:05.000Z</time>
      </trkpt>
      <trkpt lat="47.35104" lon="2.95611">
        <ele>199.88275146484</ele>
        <time>2016-03-30T13:19:05.000Z</time>
      </trkpt>
      <trkpt lat="47.35103" lon="2.95609">
        <ele>199.89825439453</ele>
        <time>2016-03-30T13:19:07.000Z</time>
      </trkpt>
      <trkpt lat="47.35102" lon="2.95606">
        <ele>199.91375732422</ele>
        <time>2016-03-30T13:19:08.000Z</time>
      </trkpt>
      <trkpt lat="47.35101" lon="2.95602">
        <ele>199.93481445312</ele>
        <time>2016-03-30T13:19:09.000Z</time>
      </trkpt>
      <trkpt lat="47.35101" lon="2.956">
        <ele>199.95782470703</ele>
        <time>2016-03-30T13:19:10.000Z</time>
      </trkpt>
      <trkpt lat="47.351" lon="2.95596">
        <ele>199.98309326172</ele>
        <time>2016-03-30T13:19:13.000Z</time>
      </trkpt>
      <trkpt lat="47.35099" lon="2.95592">
        <ele>200.01202392578</ele>
        <time>2016-03-30T13:19:16.000Z</time>
      </trkpt>
      <trkpt lat="47.35097" lon="2.95588">
        <ele>200.04553222656</ele>
        <time>2016-03-30T13:19:19.000Z</time>
      </trkpt>
      <trkpt lat="47.35096" lon="2.95583">
        <ele>200.07855224609</ele>
        <time>2016-03-30T13:19:21.000Z</time>
      </trkpt>
      <trkpt lat="47.35096" lon="2.9558">
        <ele>200.11164855957</ele>
        <time>2016-03-30T13:19:23.000Z</time>
      </trkpt>
      <trkpt lat="47.35094" lon="2.95578">
        <ele>200.14196777344</ele>
        <time>2016-03-30T13:19:25.000Z</time>
      </trkpt>
      <trkpt lat="47.35093" lon="2.95573">
        <ele>200.1720123291</ele>
        <time>2016-03-30T13:19:27.000Z</time>
      </trkpt>
      <trkpt lat="47.35092" lon="2.95571">
        <ele>200.19714355469</ele>
        <time>2016-03-30T13:19:29.000Z</time>
      </trkpt>
      <trkpt lat="47.35091" lon="2.95566">
        <ele>200.22155761719</ele>
        <time>2016-03-30T13:19:32.000Z</time>
      </trkpt>
      <trkpt lat="47.35089" lon="2.95563">
        <ele>200.24703979492</ele>
        <time>2016-03-30T13:19:34.000Z</time>
      </trkpt>
      <trkpt lat="47.35088" lon="2.95557">
        <ele>200.27879333496</ele>
        <time>2016-03-30T13:19:37.000Z</time>
      </trkpt>
      <trkpt lat="47.35087" lon="2.95554">
        <ele>200.31140136719</ele>
        <time>2016-03-30T13:19:39.000Z</time>
      </trkpt>
      <trkpt lat="47.35086" lon="2.9555">
        <ele>200.34716796875</ele>
        <time>2016-03-30T13:19:42.000Z</time>
      </trkpt>
      <trkpt lat="47.35085" lon="2.95546">
        <ele>200.38327026367</ele>
        <time>2016-03-30T13:19:45.000Z</time>
      </trkpt>
      <trkpt lat="47.35084" lon="2.95543">
        <ele>200.4189453125</ele>
        <time>2016-03-30T13:19:47.000Z</time>
      </trkpt>
      <trkpt lat="47.35082" lon="2.9554">
        <ele>200.45310974121</ele>
        <time>2016-03-30T13:19:49.000Z</time>
      </trkpt>
      <trkpt lat="47.35082" lon="2.95538">
        <ele>200.4868927002</ele>
        <time>2016-03-30T13:19:51.000Z</time>
      </trkpt>
      <trkpt lat="47.35081" lon="2.95535">
        <ele>200.52478027344</ele>
        <time>2016-03-30T13:19:54.000Z</time>
      </trkpt>
      <trkpt lat="47.35079" lon="2.95531">
        <ele>200.5690612793</ele>
        <time>2016-03-30T13:19:56.000Z</time>
      </trkpt>
      <trkpt lat="47.35077" lon="2.95527">
        <ele>200.62225341797</ele>
        <time>2016-03-30T13:19:58.000Z</time>
      </trkpt>
      <trkpt lat="47.35075" lon="2.95522">
        <ele>200.689453125</ele>
        <time>2016-03-30T13:20:02.000Z</time>
      </trkpt>
      <trkpt lat="47.35073" lon="2.95517">
        <ele>200.77149963379</ele>
        <time>2016-03-30T13:20:04.000Z</time>
      </trkpt>
      <trkpt lat="47.35071" lon="2.95513">
        <ele>200.86270141602</ele>
        <time>2016-03-30T13:20:07.000Z</time>
      </trkpt>
      <trkpt lat="47.35069" lon="2.9551">
        <ele>200.95930480957</ele>
        <time>2016-03-30T13:20:10.000Z</time>
      </trkpt>
      <trkpt lat="47.35067" lon="2.95507">
        <ele>201.05958557129</ele>
        <time>2016-03-30T13:20:13.000Z</time>
      </trkpt>
      <trkpt lat="47.35065" lon="2.95502">
        <ele>201.1656036377</ele>
        <time>2016-03-30T13:20:16.000Z</time>
      </trkpt>
      <trkpt lat="47.35063" lon="2.95498">
        <ele>201.27499389648</ele>
        <time>2016-03-30T13:20:19.000Z</time>
      </trkpt>
      <trkpt lat="47.35062" lon="2.95496">
        <ele>201.37455749512</ele>
        <time>2016-03-30T13:20:21.000Z</time>
      </trkpt>
      <trkpt lat="47.35059" lon="2.95492">
        <ele>201.47618103027</ele>
        <time>2016-03-30T13:20:24.000Z</time>
      </trkpt>
      <trkpt lat="47.35059" lon="2.95491">
        <ele>201.56596374512</ele>
        <time>2016-03-30T13:20:26.000Z</time>
      </trkpt>
      <trkpt lat="47.35058" lon="2.95487">
        <ele>201.64154052734</ele>
        <time>2016-03-30T13:20:29.000Z</time>
      </trkpt>
      <trkpt lat="47.35057" lon="2.95484">
        <ele>201.70428466797</ele>
        <time>2016-03-30T13:20:31.000Z</time>
      </trkpt>
      <trkpt lat="47.35056" lon="2.95478">
        <ele>201.7783203125</ele>
        <time>2016-03-30T13:20:34.000Z</time>
      </trkpt>
      <trkpt lat="47.35055" lon="2.95474">
        <ele>201.84313964844</ele>
        <time>2016-03-30T13:20:37.000Z</time>
      </trkpt>
      <trkpt lat="47.35053" lon="2.9547">
        <ele>201.92095947266</ele>
        <time>2016-03-30T13:20:40.000Z</time>
      </trkpt>
      <trkpt lat="47.3505" lon="2.95466">
        <ele>202.00927734375</ele>
        <time>2016-03-30T13:20:43.000Z</time>
      </trkpt>
      <trkpt lat="47.35048" lon="2.95462">
        <ele>202.10748291016</ele>
        <time>2016-03-30T13:20:46.000Z</time>
      </trkpt>
      <trkpt lat="47.35046" lon="2.9546">
        <ele>202.19915771484</ele>
        <time>2016-03-30T13:20:48.000Z</time>
      </trkpt>
      <trkpt lat="47.35044" lon="2.95456">
        <ele>202.29455566406</ele>
        <time>2016-03-30T13:20:51.000Z</time>
      </trkpt>
      <trkpt lat="47.35042" lon="2.95453">
        <ele>202.38775634766</ele>
        <time>2016-03-30T13:20:54.000Z</time>
      </trkpt>
      <trkpt lat="47.35041" lon="2.9545">
        <ele>202.47058105469</ele>
        <time>2016-03-30T13:20:56.000Z</time>
      </trkpt>
      <trkpt lat="47.35039" lon="2.95445">
        <ele>202.55065917969</ele>
        <time>2016-03-30T13:20:59.000Z</time>
      </trkpt>
      <trkpt lat="47.35038" lon="2.95443">
        <ele>202.62933349609</ele>
        <time>2016-03-30T13:21:01.000Z</time>
      </trkpt>
      <trkpt lat="47.35037" lon="2.95441">
        <ele>202.69866943359</ele>
        <time>2016-03-30T13:21:03.000Z</time>
      </trkpt>
      <trkpt lat="47.35035" lon="2.95437">
        <ele>202.76934814453</ele>
        <time>2016-03-30T13:21:06.000Z</time>
      </trkpt>
      <trkpt lat="47.35035" lon="2.95434">
        <ele>202.83618164062</ele>
        <time>2016-03-30T13:21:08.000Z</time>
      </trkpt>
      <trkpt lat="47.35033" lon="2.9543">
        <ele>202.90539550781</ele>
        <time>2016-03-30T13:21:11.000Z</time>
      </trkpt>
      <trkpt lat="47.35032" lon="2.95427">
        <ele>202.97198486328</ele>
        <time>2016-03-30T13:21:13.000Z</time>
      </trkpt>
      <trkpt lat="47.35029" lon="2.95424">
        <ele>203.05334472656</ele>
        <time>2016-03-30T13:21:16.000Z</time>
      </trkpt>
      <trkpt lat="47.35026" lon="2.9542">
        <ele>203.14050292969</ele>
        <time>2016-03-30T13:21:19.000Z</time>
      </trkpt>
      <trkpt lat="47.35024" lon="2.95418">
        <ele>203.23138427734</ele>
        <time>2016-03-30T13:21:22.000Z</time>
      </trkpt>
      <trkpt lat="47.35022" lon="2.95416">
        <ele>203.30728149414</ele>
        <time>2016-03-30T13:21:25.000Z</time>
      </trkpt>
      <trkpt lat="47.35021" lon="2.95413">
        <ele>203.36224365234</ele>
        <time>2016-03-30T13:21:27.000Z</time>
      </trkpt>
      <trkpt lat="47.3502" lon="2.9541">
        <ele>203.3892364502</ele>
        <time>2016-03-30T13:21:29.000Z</time>
      </trkpt>
      <trkpt lat="47.35017" lon="2.95406">
        <ele>203.37986755371</ele>
        <time>2016-03-30T13:21:32.000Z</time>
      </trkpt>
      <trkpt lat="47.35015" lon="2.95402">
        <ele>203.34228515625</ele>
        <time>2016-03-30T13:21:34.000Z</time>
      </trkpt>
      <trkpt lat="47.35012" lon="2.95399">
        <ele>203.28646850586</ele>
        <time>2016-03-30T13:21:37.000Z</time>
      </trkpt>
      <trkpt lat="47.35011" lon="2.95396">
        <ele>203.22511291504</ele>
        <time>2016-03-30T13:21:39.000Z</time>
      </trkpt>
      <trkpt lat="47.35011" lon="2.95394">
        <ele>203.15942382812</ele>
        <time>2016-03-30T13:21:42.000Z</time>
      </trkpt>
      <trkpt lat="47.3501" lon="2.95391">
        <ele>203.09225463867</ele>
        <time>2016-03-30T13:21:44.000Z</time>
      </trkpt>
      <trkpt lat="47.35009" lon="2.95389">
        <ele>203.02478027344</ele>
        <time>2016-03-30T13:21:46.000Z</time>
      </trkpt>
      <trkpt lat="47.35009" lon="2.95385">
        <ele>202.94918823242</ele>
        <time>2016-03-30T13:21:49.000Z</time>
      </trkpt>
      <trkpt lat="47.35009" lon="2.95383">
        <ele>202.87117004395</ele>
        <time>2016-03-30T13:21:51.000Z</time>
      </trkpt>
      <trkpt lat="47.35008" lon="2.95382">
        <ele>202.80014038086</ele>
        <time>2016-03-30T13:21:54.000Z</time>
      </trkpt>
      <trkpt lat="47.35007" lon="2.95379">
        <ele>202.7262878418</ele>
        <time>2016-03-30T13:21:57.000Z</time>
      </trkpt>
      <trkpt lat="47.35006" lon="2.95377">
        <ele>202.65782165527</ele>
        <time>2016-03-30T13:21:59.000Z</time>
      </trkpt>
      <trkpt lat="47.35004" lon="2.95374">
        <ele>202.5871887207</ele>
        <time>2016-03-30T13:22:01.000Z</time>
      </trkpt>
      <trkpt lat="47.35001" lon="2.9537">
        <ele>202.50894165039</ele>
        <time>2016-03-30T13:22:04.000Z</time>
      </trkpt>
      <trkpt lat="47.34999" lon="2.95368">
        <ele>202.43399047852</ele>
        <time>2016-03-30T13:22:07.000Z</time>
      </trkpt>
      <trkpt lat="47.34998" lon="2.95367">
        <ele>202.3782043457</ele>
        <time>2016-03-30T13:22:09.000Z</time>
      </trkpt>
      <trkpt lat="47.34997" lon="2.95363">
        <ele>202.32131958008</ele>
        <time>2016-03-30T13:22:12.000Z</time>
      </trkpt>
      <trkpt lat="47.34995" lon="2.95358">
        <ele>202.26742553711</ele>
        <time>2016-03-30T13:22:14.000Z</time>
      </trkpt>
      <trkpt lat="47.34994" lon="2.95353">
        <ele>202.21984863281</ele>
        <time>2016-03-30T13:22:16.000Z</time>
      </trkpt>
      <trkpt lat="47.34991" lon="2.95347">
        <ele>202.15673828125</ele>
        <time>2016-03-30T13:22:19.000Z</time>
      </trkpt>
      <trkpt lat="47.34989" lon="2.95342">
        <ele>202.08383178711</ele>
        <time>2016-03-30T13:22:22.000Z</time>
      </trkpt>
      <trkpt lat="47.34988" lon="2.95338">
        <ele>202.0092010498</ele>
        <time>2016-03-30T13:22:24.000Z</time>
      </trkpt>
      <trkpt lat="47.34984" lon="2.95332">
        <ele>201.95556640625</ele>
        <time>2016-03-30T13:22:28.000Z</time>
      </trkpt>
      <trkpt lat="47.34982" lon="2.95328">
        <ele>201.89933776855</ele>
        <time>2016-03-30T13:22:35.000Z</time>
      </trkpt>
      <trkpt lat="47.3498" lon="2.95324">
        <ele>201.85041809082</ele>
        <time>2016-03-30T13:22:36.000Z</time>
      </trkpt>
      <trkpt lat="47.34978" lon="2.95321">
        <ele>201.79208374023</ele>
        <time>2016-03-30T13:22:36.000Z</time>
      </trkpt>
      <trkpt lat="47.34977" lon="2.95318">
        <ele>201.73452758789</ele>
        <time>2016-03-30T13:22:38.000Z</time>
      </trkpt>
      <trkpt lat="47.34975" lon="2.95314">
        <ele>201.64530944824</ele>
        <time>2016-03-30T13:22:41.000Z</time>
      </trkpt>
      <trkpt lat="47.34974" lon="2.95311">
        <ele>201.55075073242</ele>
        <time>2016-03-30T13:22:43.000Z</time>
      </trkpt>
      <trkpt lat="47.34972" lon="2.95305">
        <ele>201.4221496582</ele>
        <time>2016-03-30T13:22:46.000Z</time>
      </trkpt>
      <trkpt lat="47.34969" lon="2.953">
        <ele>201.28218078613</ele>
        <time>2016-03-30T13:22:49.000Z</time>
      </trkpt>
      <trkpt lat="47.34966" lon="2.95297">
        <ele>201.15092468262</ele>
        <time>2016-03-30T13:22:51.000Z</time>
      </trkpt>
      <trkpt lat="47.34964" lon="2.95294">
        <ele>201.03294372559</ele>
        <time>2016-03-30T13:22:54.000Z</time>
      </trkpt>
      <trkpt lat="47.34962" lon="2.95292">
        <ele>200.93487548828</ele>
        <time>2016-03-30T13:22:56.000Z</time>
      </trkpt>
      <trkpt lat="47.3496" lon="2.95289">
        <ele>200.86148071289</ele>
        <time>2016-03-30T13:22:59.000Z</time>
      </trkpt>
      <trkpt lat="47.34958" lon="2.95283">
        <ele>200.77423095703</ele>
        <time>2016-03-30T13:23:02.000Z</time>
      </trkpt>
      <trkpt lat="47.34957" lon="2.95281">
        <ele>200.66854858398</ele>
        <time>2016-03-30T13:23:04.000Z</time>
      </trkpt>
      <trkpt lat="47.34955" lon="2.95278">
        <ele>200.56524658203</ele>
        <time>2016-03-30T13:23:06.000Z</time>
      </trkpt>
      <trkpt lat="47.34954" lon="2.95274">
        <ele>200.43447875977</ele>
        <time>2016-03-30T13:23:09.000Z</time>
      </trkpt>
      <trkpt lat="47.34952" lon="2.95272">
        <ele>200.30328369141</ele>
        <time>2016-03-30T13:23:11.000Z</time>
      </trkpt>
      <trkpt lat="47.34951" lon="2.95269">
        <ele>200.1961517334</ele>
        <time>2016-03-30T13:23:13.000Z</time>
      </trkpt>
      <trkpt lat="47.34949" lon="2.95267">
        <ele>200.09536743164</ele>
        <time>2016-03-30T13:23:15.000Z</time>
      </trkpt>
      <trkpt lat="47.34948" lon="2.95263">
        <ele>199.9736328125</ele>
        <time>2016-03-30T13:23:18.000Z</time>
      </trkpt>
      <trkpt lat="47.34945" lon="2.95258">
        <ele>199.83694458008</ele>
        <time>2016-03-30T13:23:21.000Z</time>
      </trkpt>
      <trkpt lat="47.34942" lon="2.95253">
        <ele>199.67654418945</ele>
        <time>2016-03-30T13:23:24.000Z</time>
      </trkpt>
      <trkpt lat="47.34941" lon="2.9525">
        <ele>199.50790405273</ele>
        <time>2016-03-30T13:23:26.000Z</time>
      </trkpt>
      <trkpt lat="47.34939" lon="2.95246">
        <ele>199.31784057617</ele>
        <time>2016-03-30T13:23:29.000Z</time>
      </trkpt>
      <trkpt lat="47.34937" lon="2.95242">
        <ele>199.12850952148</ele>
        <time>2016-03-30T13:23:32.000Z</time>
      </trkpt>
      <trkpt lat="47.34935" lon="2.9524">
        <ele>198.9720916748</ele>
        <time>2016-03-30T13:23:35.000Z</time>
      </trkpt>
      <trkpt lat="47.34933" lon="2.95235">
        <ele>198.81262207031</ele>
        <time>2016-03-30T13:23:37.000Z</time>
      </trkpt>
      <trkpt lat="47.34931" lon="2.9523">
        <ele>198.6325378418</ele>
        <time>2016-03-30T13:23:40.000Z</time>
      </trkpt>
      <trkpt lat="47.3493" lon="2.95227">
        <ele>198.45071411133</ele>
        <time>2016-03-30T13:23:43.000Z</time>
      </trkpt>
      <trkpt lat="47.34929" lon="2.95223">
        <ele>198.25442504883</ele>
        <time>2016-03-30T13:23:46.000Z</time>
      </trkpt>
      <trkpt lat="47.34929" lon="2.95218">
        <ele>198.00631713867</ele>
        <time>2016-03-30T13:23:49.000Z</time>
      </trkpt>
      <trkpt lat="47.34928" lon="2.95213">
        <ele>197.74688720703</ele>
        <time>2016-03-30T13:23:52.000Z</time>
      </trkpt>
      <trkpt lat="47.34927" lon="2.95208">
        <ele>197.46580505371</ele>
        <time>2016-03-30T13:23:55.000Z</time>
      </trkpt>
      <trkpt lat="47.34926" lon="2.95204">
        <ele>197.17623901367</ele>
        <time>2016-03-30T13:23:57.000Z</time>
      </trkpt>
      <trkpt lat="47.34925" lon="2.95201">
        <ele>196.89753723145</ele>
        <time>2016-03-30T13:24:00.000Z</time>
      </trkpt>
      <trkpt lat="47.34924" lon="2.95199">
        <ele>196.6618347168</ele>
        <time>2016-03-30T13:24:02.000Z</time>
      </trkpt>
      <trkpt lat="47.34921" lon="2.95195">
        <ele>196.43525695801</ele>
        <time>2016-03-30T13:24:05.000Z</time>
      </trkpt>
      <trkpt lat="47.3492" lon="2.95193">
        <ele>196.24182128906</ele>
        <time>2016-03-30T13:24:07.000Z</time>
      </trkpt>
      <trkpt lat="47.34919" lon="2.95187">
        <ele>196.01976013184</ele>
        <time>2016-03-30T13:24:10.000Z</time>
      </trkpt>
      <trkpt lat="47.34918" lon="2.95184">
        <ele>195.79373168945</ele>
        <time>2016-03-30T13:24:12.000Z</time>
      </trkpt>
      <trkpt lat="47.34917" lon="2.95179">
        <ele>195.51847839355</ele>
        <time>2016-03-30T13:24:15.000Z</time>
      </trkpt>
      <trkpt lat="47.34916" lon="2.95173">
        <ele>195.2095489502</ele>
        <time>2016-03-30T13:24:18.000Z</time>
      </trkpt>
      <trkpt lat="47.34914" lon="2.95168">
        <ele>194.86734008789</ele>
        <time>2016-03-30T13:24:21.000Z</time>
      </trkpt>
      <trkpt lat="47.34912" lon="2.95162">
        <ele>194.56127929688</ele>
        <time>2016-03-30T13:24:24.000Z</time>
      </trkpt>
      <trkpt lat="47.3491" lon="2.95159">
        <ele>194.27392578125</ele>
        <time>2016-03-30T13:24:26.000Z</time>
      </trkpt>
      <trkpt lat="47.34908" lon="2.95155">
        <ele>194.0327911377</ele>
        <time>2016-03-30T13:24:29.000Z</time>
      </trkpt>
      <trkpt lat="47.34908" lon="2.95153">
        <ele>193.8533782959</ele>
        <time>2016-03-30T13:24:31.000Z</time>
      </trkpt>
      <trkpt lat="47.34906" lon="2.9515">
        <ele>193.72221374512</ele>
        <time>2016-03-30T13:24:33.000Z</time>
      </trkpt>
      <trkpt lat="47.34904" lon="2.95146">
        <ele>193.60391235352</ele>
        <time>2016-03-30T13:24:36.000Z</time>
      </trkpt>
      <trkpt lat="47.34903" lon="2.95143">
        <ele>193.48014831543</ele>
        <time>2016-03-30T13:24:38.000Z</time>
      </trkpt>
      <trkpt lat="47.349" lon="2.95139">
        <ele>193.35028076172</ele>
        <time>2016-03-30T13:24:41.000Z</time>
      </trkpt>
      <trkpt lat="47.34898" lon="2.95134">
        <ele>193.20263671875</ele>
        <time>2016-03-30T13:24:44.000Z</time>
      </trkpt>
      <trkpt lat="47.34897" lon="2.95132">
        <ele>193.04809570312</ele>
        <time>2016-03-30T13:24:46.000Z</time>
      </trkpt>
      <trkpt lat="47.34896" lon="2.95129">
        <ele>192.88984680176</ele>
        <time>2016-03-30T13:24:48.000Z</time>
      </trkpt>
      <trkpt lat="47.34894" lon="2.95123">
        <ele>192.70816040039</ele>
        <time>2016-03-30T13:24:51.000Z</time>
      </trkpt>
      <trkpt lat="47.34893" lon="2.95121">
        <ele>192.54197692871</ele>
        <time>2016-03-30T13:24:53.000Z</time>
      </trkpt>
      <trkpt lat="47.34891" lon="2.95118">
        <ele>192.38194274902</ele>
        <time>2016-03-30T13:24:56.000Z</time>
      </trkpt>
      <trkpt lat="47.34889" lon="2.95114">
        <ele>192.19932556152</ele>
        <time>2016-03-30T13:24:59.000Z</time>
      </trkpt>
      <trkpt lat="47.34888" lon="2.95111">
        <ele>192.01425170898</ele>
        <time>2016-03-30T13:25:01.000Z</time>
      </trkpt>
      <trkpt lat="47.34887" lon="2.95107">
        <ele>191.83842468262</ele>
        <time>2016-03-30T13:25:04.000Z</time>
      </trkpt>
      <trkpt lat="47.34887" lon="2.95106">
        <ele>191.66569519043</ele>
        <time>2016-03-30T13:25:07.000Z</time>
      </trkpt>
      <trkpt lat="47.34884" lon="2.95102">
        <ele>191.48599243164</ele>
        <time>2016-03-30T13:25:10.000Z</time>
      </trkpt>
      <trkpt lat="47.34883" lon="2.95099">
        <ele>191.32173156738</ele>
        <time>2016-03-30T13:25:12.000Z</time>
      </trkpt>
      <trkpt lat="47.34882" lon="2.95094">
        <ele>191.12536621094</ele>
        <time>2016-03-30T13:25:15.000Z</time>
      </trkpt>
      <trkpt lat="47.34881" lon="2.95093">
        <ele>190.95500183105</ele>
        <time>2016-03-30T13:25:17.000Z</time>
      </trkpt>
      <trkpt lat="47.3488" lon="2.95092">
        <ele>190.78730773926</ele>
        <time>2016-03-30T13:25:20.000Z</time>
      </trkpt>
      <trkpt lat="47.3488" lon="2.95092">
        <ele>190.78730773926</ele>
        <time>2016-03-30T13:25:40.000Z</time>
      </trkpt>
      <trkpt lat="47.34879" lon="2.95092">
        <ele>190.66557312012</ele>
        <time>2016-03-30T13:26:10.000Z</time>
      </trkpt>
      <trkpt lat="47.34879" lon="2.95092">
        <ele>190.66557312012</ele>
        <time>2016-03-30T13:26:30.000Z</time>
      </trkpt>
      <trkpt lat="47.34878" lon="2.95092">
        <ele>190.58200073242</ele>
        <time>2016-03-30T13:26:36.000Z</time>
      </trkpt>
      <trkpt lat="47.34876" lon="2.95093">
        <ele>190.57998657227</ele>
        <time>2016-03-30T13:26:39.000Z</time>
      </trkpt>
      <trkpt lat="47.34874" lon="2.95094">
        <ele>190.60275268555</ele>
        <time>2016-03-30T13:26:41.000Z</time>
      </trkpt>
      <trkpt lat="47.34872" lon="2.95095">
        <ele>190.65299987793</ele>
        <time>2016-03-30T13:26:44.000Z</time>
      </trkpt>
      <trkpt lat="47.3487" lon="2.95096">
        <ele>190.71865844727</ele>
        <time>2016-03-30T13:26:46.000Z</time>
      </trkpt>
      <trkpt lat="47.34867" lon="2.95099">
        <ele>190.82272338867</ele>
        <time>2016-03-30T13:26:49.000Z</time>
      </trkpt>
      <trkpt lat="47.34865" lon="2.95101">
        <ele>190.93748474121</ele>
        <time>2016-03-30T13:26:51.000Z</time>
      </trkpt>
      <trkpt lat="47.34863" lon="2.95103">
        <ele>191.07792663574</ele>
        <time>2016-03-30T13:26:53.000Z</time>
      </trkpt>
      <trkpt lat="47.3486" lon="2.95106">
        <ele>191.25215148926</ele>
        <time>2016-03-30T13:26:56.000Z</time>
      </trkpt>
      <trkpt lat="47.34857" lon="2.95109">
        <ele>191.45722961426</ele>
        <time>2016-03-30T13:26:59.000Z</time>
      </trkpt>
      <trkpt lat="47.34854" lon="2.95112">
        <ele>191.67532348633</ele>
        <time>2016-03-30T13:27:02.000Z</time>
      </trkpt>
      <trkpt lat="47.34852" lon="2.95115">
        <ele>191.91304016113</ele>
        <time>2016-03-30T13:27:05.000Z</time>
      </trkpt>
      <trkpt lat="47.3485" lon="2.95117">
        <ele>192.15100097656</ele>
        <time>2016-03-30T13:27:07.000Z</time>
      </trkpt>
      <trkpt lat="47.34848" lon="2.95118">
        <ele>192.36233520508</ele>
        <time>2016-03-30T13:27:09.000Z</time>
      </trkpt>
      <trkpt lat="47.34844" lon="2.95121">
        <ele>192.57620239258</ele>
        <time>2016-03-30T13:27:12.000Z</time>
      </trkpt>
      <trkpt lat="47.34839" lon="2.95124">
        <ele>192.79322814941</ele>
        <time>2016-03-30T13:27:15.000Z</time>
      </trkpt>
      <trkpt lat="47.34837" lon="2.95125">
        <ele>193.00045776367</ele>
        <time>2016-03-30T13:27:18.000Z</time>
      </trkpt>
      <trkpt lat="47.34834" lon="2.95129">
        <ele>193.24095153809</ele>
        <time>2016-03-30T13:27:20.000Z</time>
      </trkpt>
      <trkpt lat="47.34832" lon="2.95132">
        <ele>193.50158691406</ele>
        <time>2016-03-30T13:27:23.000Z</time>
      </trkpt>
      <trkpt lat="47.34829" lon="2.95134">
        <ele>193.73123168945</ele>
        <time>2016-03-30T13:27:26.000Z</time>
      </trkpt>
      <trkpt lat="47.34826" lon="2.95137">
        <ele>193.92926025391</ele>
        <time>2016-03-30T13:27:29.000Z</time>
      </trkpt>
      <trkpt lat="47.34824" lon="2.95138">
        <ele>194.10729980469</ele>
        <time>2016-03-30T13:27:31.000Z</time>
      </trkpt>
      <trkpt lat="47.34822" lon="2.9514">
        <ele>194.22744750977</ele>
        <time>2016-03-30T13:27:33.000Z</time>
      </trkpt>
      <trkpt lat="47.34819" lon="2.95141">
        <ele>194.30969238281</ele>
        <time>2016-03-30T13:27:36.000Z</time>
      </trkpt>
      <trkpt lat="47.34816" lon="2.95142">
        <ele>194.37324523926</ele>
        <time>2016-03-30T13:27:38.000Z</time>
      </trkpt>
      <trkpt lat="47.34812" lon="2.95144">
        <ele>194.41288757324</ele>
        <time>2016-03-30T13:27:41.000Z</time>
      </trkpt>
      <trkpt lat="47.3481" lon="2.95145">
        <ele>194.44161987305</ele>
        <time>2016-03-30T13:27:43.000Z</time>
      </trkpt>
      <trkpt lat="47.34806" lon="2.95146">
        <ele>194.45913696289</ele>
        <time>2016-03-30T13:27:46.000Z</time>
      </trkpt>
      <trkpt lat="47.34805" lon="2.95148">
        <ele>194.48887634277</ele>
        <time>2016-03-30T13:27:48.000Z</time>
      </trkpt>
      <trkpt lat="47.34802" lon="2.95149">
        <ele>194.50833129883</ele>
        <time>2016-03-30T13:27:51.000Z</time>
      </trkpt>
      <trkpt lat="47.348" lon="2.9515">
        <ele>194.52267456055</ele>
        <time>2016-03-30T13:27:53.000Z</time>
      </trkpt>
      <trkpt lat="47.34796" lon="2.95151">
        <ele>194.5189666748</ele>
        <time>2016-03-30T13:27:56.000Z</time>
      </trkpt>
      <trkpt lat="47.34792" lon="2.95152">
        <ele>194.51557922363</ele>
        <time>2016-03-30T13:27:59.000Z</time>
      </trkpt>
      <trkpt lat="47.34788" lon="2.95153">
        <ele>194.48745727539</ele>
        <time>2016-03-30T13:28:02.000Z</time>
      </trkpt>
      <trkpt lat="47.34785" lon="2.95153">
        <ele>194.44702148438</ele>
        <time>2016-03-30T13:28:05.000Z</time>
      </trkpt>
      <trkpt lat="47.34782" lon="2.95154">
        <ele>194.39505004883</ele>
        <time>2016-03-30T13:28:07.000Z</time>
      </trkpt>
      <trkpt lat="47.34779" lon="2.95155">
        <ele>194.35372924805</ele>
        <time>2016-03-30T13:28:10.000Z</time>
      </trkpt>
      <trkpt lat="47.34777" lon="2.95156">
        <ele>194.30870056152</ele>
        <time>2016-03-30T13:28:12.000Z</time>
      </trkpt>
      <trkpt lat="47.34774" lon="2.95158">
        <ele>194.27592468262</ele>
        <time>2016-03-30T13:28:15.000Z</time>
      </trkpt>
      <trkpt lat="47.34772" lon="2.95158">
        <ele>194.25239562988</ele>
        <time>2016-03-30T13:28:17.000Z</time>
      </trkpt>
      <trkpt lat="47.34768" lon="2.9516">
        <ele>194.24024963379</ele>
        <time>2016-03-30T13:28:20.000Z</time>
      </trkpt>
      <trkpt lat="47.34766" lon="2.95161">
        <ele>194.23085021973</ele>
        <time>2016-03-30T13:28:22.000Z</time>
      </trkpt>
      <trkpt lat="47.34765" lon="2.95162">
        <ele>194.2233581543</ele>
        <time>2016-03-30T13:28:24.000Z</time>
      </trkpt>
      <trkpt lat="47.34763" lon="2.95159">
        <ele>194.1716003418</ele>
        <time>2016-03-30T13:28:28.000Z</time>
      </trkpt>
      <trkpt lat="47.34761" lon="2.95157">
        <ele>194.08782958984</ele>
        <time>2016-03-30T13:28:31.000Z</time>
      </trkpt>
      <trkpt lat="47.34761" lon="2.95157">
        <ele>194.08782958984</ele>
        <time>2016-03-30T13:28:51.000Z</time>
      </trkpt>
      <trkpt lat="47.3476" lon="2.95158">
        <ele>194.0087890625</ele>
        <time>2016-03-30T13:28:57.000Z</time>
      </trkpt>
      <trkpt lat="47.34756" lon="2.95159">
        <ele>193.92013549805</ele>
        <time>2016-03-30T13:29:00.000Z</time>
      </trkpt>
      <trkpt lat="47.34754" lon="2.95161">
        <ele>193.83868408203</ele>
        <time>2016-03-30T13:29:02.000Z</time>
      </trkpt>
      <trkpt lat="47.34751" lon="2.95163">
        <ele>193.79873657227</ele>
        <time>2016-03-30T13:29:05.000Z</time>
      </trkpt>
      <trkpt lat="47.34748" lon="2.95165">
        <ele>193.8039855957</ele>
        <time>2016-03-30T13:29:07.000Z</time>
      </trkpt>
      <trkpt lat="47.34744" lon="2.95167">
        <ele>193.81069946289</ele>
        <time>2016-03-30T13:29:10.000Z</time>
      </trkpt>
      <trkpt lat="47.34742" lon="2.95168">
        <ele>193.82963562012</ele>
        <time>2016-03-30T13:29:12.000Z</time>
      </trkpt>
      <trkpt lat="47.34739" lon="2.95173">
        <ele>193.90687561035</ele>
        <time>2016-03-30T13:29:15.000Z</time>
      </trkpt>
      <trkpt lat="47.34735" lon="2.95175">
        <ele>194.00259399414</ele>
        <time>2016-03-30T13:29:18.000Z</time>
      </trkpt>
      <trkpt lat="47.34731" lon="2.95177">
        <ele>194.10400390625</ele>
        <time>2016-03-30T13:29:21.000Z</time>
      </trkpt>
      <trkpt lat="47.34727" lon="2.9518">
        <ele>194.22314453125</ele>
        <time>2016-03-30T13:29:24.000Z</time>
      </trkpt>
      <trkpt lat="47.34723" lon="2.95182">
        <ele>194.34033203125</ele>
        <time>2016-03-30T13:29:27.000Z</time>
      </trkpt>
      <trkpt lat="47.3472" lon="2.95183">
        <ele>194.40869140625</ele>
        <time>2016-03-30T13:29:30.000Z</time>
      </trkpt>
      <trkpt lat="47.34717" lon="2.95185">
        <ele>194.4580078125</ele>
        <time>2016-03-30T13:29:32.000Z</time>
      </trkpt>
      <trkpt lat="47.34713" lon="2.95186">
        <ele>194.49365234375</ele>
        <time>2016-03-30T13:29:35.000Z</time>
      </trkpt>
      <trkpt lat="47.3471" lon="2.95187">
        <ele>194.51220703125</ele>
        <time>2016-03-30T13:29:37.000Z</time>
      </trkpt>
      <trkpt lat="47.34705" lon="2.95188">
        <ele>194.5068359375</ele>
        <time>2016-03-30T13:29:40.000Z</time>
      </trkpt>
      <trkpt lat="47.34702" lon="2.95188">
        <ele>194.47216796875</ele>
        <time>2016-03-30T13:29:42.000Z</time>
      </trkpt>
      <trkpt lat="47.347" lon="2.95189">
        <ele>194.4326171875</ele>
        <time>2016-03-30T13:29:44.000Z</time>
      </trkpt>
      <trkpt lat="47.34695" lon="2.95189">
        <ele>194.37646484375</ele>
        <time>2016-03-30T13:29:47.000Z</time>
      </trkpt>
      <trkpt lat="47.34693" lon="2.95191">
        <ele>194.3173828125</ele>
        <time>2016-03-30T13:29:49.000Z</time>
      </trkpt>
      <trkpt lat="47.3469" lon="2.95192">
        <ele>194.29248046875</ele>
        <time>2016-03-30T13:29:51.000Z</time>
      </trkpt>
      <trkpt lat="47.34687" lon="2.95194">
        <ele>194.2861328125</ele>
        <time>2016-03-30T13:29:54.000Z</time>
      </trkpt>
      <trkpt lat="47.34684" lon="2.95195">
        <ele>194.28662109375</ele>
        <time>2016-03-30T13:29:57.000Z</time>
      </trkpt>
      <trkpt lat="47.34681" lon="2.95195">
        <ele>194.2958984375</ele>
        <time>2016-03-30T13:29:59.000Z</time>
      </trkpt>
      <trkpt lat="47.34677" lon="2.95196">
        <ele>194.2880859375</ele>
        <time>2016-03-30T13:30:02.000Z</time>
      </trkpt>
      <trkpt lat="47.34674" lon="2.95197">
        <ele>194.265625</ele>
        <time>2016-03-30T13:30:04.000Z</time>
      </trkpt>
      <trkpt lat="47.3467" lon="2.95199">
        <ele>194.24365234375</ele>
        <time>2016-03-30T13:30:06.000Z</time>
      </trkpt>
      <trkpt lat="47.34667" lon="2.95199">
        <ele>194.20263671875</ele>
        <time>2016-03-30T13:30:09.000Z</time>
      </trkpt>
      <trkpt lat="47.34663" lon="2.95201">
        <ele>194.20881652832</ele>
        <time>2016-03-30T13:30:12.000Z</time>
      </trkpt>
      <trkpt lat="47.3466" lon="2.95204">
        <ele>194.2985534668</ele>
        <time>2016-03-30T13:30:15.000Z</time>
      </trkpt>
      <trkpt lat="47.34659" lon="2.95207">
        <ele>194.44645690918</ele>
        <time>2016-03-30T13:30:17.000Z</time>
      </trkpt>
      <trkpt lat="47.34659" lon="2.95211">
        <ele>194.66967773438</ele>
        <time>2016-03-30T13:30:20.000Z</time>
      </trkpt>
      <trkpt lat="47.34658" lon="2.95213">
        <ele>194.96047973633</ele>
        <time>2016-03-30T13:30:22.000Z</time>
      </trkpt>
      <trkpt lat="47.34658" lon="2.95218">
        <ele>195.30632019043</ele>
        <time>2016-03-30T13:30:25.000Z</time>
      </trkpt>
      <trkpt lat="47.34658" lon="2.95221">
        <ele>195.6326751709</ele>
        <time>2016-03-30T13:30:27.000Z</time>
      </trkpt>
      <trkpt lat="47.34657" lon="2.95225">
        <ele>195.97993469238</ele>
        <time>2016-03-30T13:30:30.000Z</time>
      </trkpt>
      <trkpt lat="47.34657" lon="2.95227">
        <ele>196.29179382324</ele>
        <time>2016-03-30T13:30:33.000Z</time>
      </trkpt>
      <trkpt lat="47.34657" lon="2.95229">
        <ele>196.57971191406</ele>
        <time>2016-03-30T13:30:35.000Z</time>
      </trkpt>
      <trkpt lat="47.34656" lon="2.95231">
        <ele>196.82287597656</ele>
        <time>2016-03-30T13:30:38.000Z</time>
      </trkpt>
      <trkpt lat="47.34656" lon="2.95233">
        <ele>197.04165649414</ele>
        <time>2016-03-30T13:30:40.000Z</time>
      </trkpt>
      <trkpt lat="47.34655" lon="2.95235">
        <ele>197.23880004883</ele>
        <time>2016-03-30T13:30:43.000Z</time>
      </trkpt>
      <trkpt lat="47.34654" lon="2.95241">
        <ele>197.4924621582</ele>
        <time>2016-03-30T13:30:46.000Z</time>
      </trkpt>
      <trkpt lat="47.34652" lon="2.95245">
        <ele>197.80368041992</ele>
        <time>2016-03-30T13:30:49.000Z</time>
      </trkpt>
      <trkpt lat="47.34651" lon="2.95249">
        <ele>198.12850952148</ele>
        <time>2016-03-30T13:30:52.000Z</time>
      </trkpt>
      <trkpt lat="47.34649" lon="2.95251">
        <ele>198.45895385742</ele>
        <time>2016-03-30T13:30:56.000Z</time>
      </trkpt>
      <trkpt lat="47.34647" lon="2.95252">
        <ele>198.7463684082</ele>
        <time>2016-03-30T13:31:00.000Z</time>
      </trkpt>
      <trkpt lat="47.34645" lon="2.95255">
        <ele>198.96812438965</ele>
        <time>2016-03-30T13:31:01.000Z</time>
      </trkpt>
      <trkpt lat="47.34645" lon="2.95261">
        <ele>199.15487670898</ele>
        <time>2016-03-30T13:31:04.000Z</time>
      </trkpt>
      <trkpt lat="47.34645" lon="2.95264">
        <ele>199.31640625</ele>
        <time>2016-03-30T13:31:06.000Z</time>
      </trkpt>
      <trkpt lat="47.34644" lon="2.95266">
        <ele>199.46533203125</ele>
        <time>2016-03-30T13:31:08.000Z</time>
      </trkpt>
      <trkpt lat="47.34643" lon="2.95273">
        <ele>199.669921875</ele>
        <time>2016-03-30T13:31:11.000Z</time>
      </trkpt>
      <trkpt lat="47.34642" lon="2.9528">
        <ele>199.90747070312</ele>
        <time>2016-03-30T13:31:14.000Z</time>
      </trkpt>
      <trkpt lat="47.34641" lon="2.95288">
        <ele>200.16845703125</ele>
        <time>2016-03-30T13:31:17.000Z</time>
      </trkpt>
      <trkpt lat="47.34641" lon="2.95291">
        <ele>200.421875</ele>
        <time>2016-03-30T13:31:20.000Z</time>
      </trkpt>
      <trkpt lat="47.34637" lon="2.95295">
        <ele>200.7001953125</ele>
        <time>2016-03-30T13:31:23.000Z</time>
      </trkpt>
      <trkpt lat="47.34636" lon="2.95299">
        <ele>200.94409179688</ele>
        <time>2016-03-30T13:31:26.000Z</time>
      </trkpt>
      <trkpt lat="47.34636" lon="2.95301">
        <ele>201.142578125</ele>
        <time>2016-03-30T13:31:29.000Z</time>
      </trkpt>
      <trkpt lat="47.34636" lon="2.95306">
        <ele>201.3134765625</ele>
        <time>2016-03-30T13:31:32.000Z</time>
      </trkpt>
      <trkpt lat="47.34636" lon="2.95309">
        <ele>201.49145507812</ele>
        <time>2016-03-30T13:31:34.000Z</time>
      </trkpt>
      <trkpt lat="47.34636" lon="2.95313">
        <ele>201.66479492188</ele>
        <time>2016-03-30T13:31:37.000Z</time>
      </trkpt>
      <trkpt lat="47.34636" lon="2.95317">
        <ele>201.84155273438</ele>
        <time>2016-03-30T13:31:39.000Z</time>
      </trkpt>
      <trkpt lat="47.34636" lon="2.95321">
        <ele>202.03833007812</ele>
        <time>2016-03-30T13:31:41.000Z</time>
      </trkpt>
      <trkpt lat="47.34636" lon="2.95325">
        <ele>202.22534179688</ele>
        <time>2016-03-30T13:31:45.000Z</time>
      </trkpt>
      <trkpt lat="47.34637" lon="2.95328">
        <ele>202.40258789062</ele>
        <time>2016-03-30T13:31:48.000Z</time>
      </trkpt>
      <trkpt lat="47.34638" lon="2.95333">
        <ele>202.59521484375</ele>
        <time>2016-03-30T13:31:51.000Z</time>
      </trkpt>
      <trkpt lat="47.34639" lon="2.95336">
        <ele>202.77314758301</ele>
        <time>2016-03-30T13:31:54.000Z</time>
      </trkpt>
      <trkpt lat="47.34639" lon="2.95339">
        <ele>202.93844604492</ele>
        <time>2016-03-30T13:31:57.000Z</time>
      </trkpt>
      <trkpt lat="47.3464" lon="2.95342">
        <ele>203.09909057617</ele>
        <time>2016-03-30T13:31:59.000Z</time>
      </trkpt>
      <trkpt lat="47.34644" lon="2.95352">
        <ele>203.34017944336</ele>
        <time>2016-03-30T13:32:02.000Z</time>
      </trkpt>
      <trkpt lat="47.34645" lon="2.95358">
        <ele>203.58831787109</ele>
        <time>2016-03-30T13:32:05.000Z</time>
      </trkpt>
      <trkpt lat="47.34646" lon="2.95362">
        <ele>203.86068725586</ele>
        <time>2016-03-30T13:32:08.000Z</time>
      </trkpt>
      <trkpt lat="47.34645" lon="2.95365">
        <ele>204.13163757324</ele>
        <time>2016-03-30T13:32:10.000Z</time>
      </trkpt>
      <trkpt lat="47.34645" lon="2.95367">
        <ele>204.38723754883</ele>
        <time>2016-03-30T13:32:12.000Z</time>
      </trkpt>
      <trkpt lat="47.34646" lon="2.9537">
        <ele>204.57545471191</ele>
        <time>2016-03-30T13:32:15.000Z</time>
      </trkpt>
      <trkpt lat="47.34646" lon="2.95374">
        <ele>204.74055480957</ele>
        <time>2016-03-30T13:32:18.000Z</time>
      </trkpt>
      <trkpt lat="47.34645" lon="2.95379">
        <ele>204.91403198242</ele>
        <time>2016-03-30T13:32:23.000Z</time>
      </trkpt>
      <trkpt lat="47.34645" lon="2.95384">
        <ele>205.10356140137</ele>
        <time>2016-03-30T13:32:26.000Z</time>
      </trkpt>
      <trkpt lat="47.34642" lon="2.95389">
        <ele>205.31413269043</ele>
        <time>2016-03-30T13:32:30.000Z</time>
      </trkpt>
      <trkpt lat="47.34642" lon="2.9539">
        <ele>205.49662780762</ele>
        <time>2016-03-30T13:32:32.000Z</time>
      </trkpt>
      <trkpt lat="47.3464" lon="2.95394">
        <ele>205.67822265625</ele>
        <time>2016-03-30T13:32:35.000Z</time>
      </trkpt>
      <trkpt lat="47.3464" lon="2.95397">
        <ele>205.82731628418</ele>
        <time>2016-03-30T13:32:38.000Z</time>
      </trkpt>
      <trkpt lat="47.3464" lon="2.954">
        <ele>205.958984375</ele>
        <time>2016-03-30T13:32:41.000Z</time>
      </trkpt>
      <trkpt lat="47.34639" lon="2.95403">
        <ele>206.07890319824</ele>
        <time>2016-03-30T13:32:44.000Z</time>
      </trkpt>
      <trkpt lat="47.34637" lon="2.9541">
        <ele>206.25028991699</ele>
        <time>2016-03-30T13:32:47.000Z</time>
      </trkpt>
      <trkpt lat="47.34636" lon="2.95415">
        <ele>206.42109680176</ele>
        <time>2016-03-30T13:32:50.000Z</time>
      </trkpt>
      <trkpt lat="47.34636" lon="2.95417">
        <ele>206.58462524414</ele>
        <time>2016-03-30T13:32:52.000Z</time>
      </trkpt>
      <trkpt lat="47.34635" lon="2.9542">
        <ele>206.74557495117</ele>
        <time>2016-03-30T13:32:55.000Z</time>
      </trkpt>
      <trkpt lat="47.34635" lon="2.95421">
        <ele>206.90054321289</ele>
        <time>2016-03-30T13:32:57.000Z</time>
      </trkpt>
      <trkpt lat="47.34635" lon="2.95425">
        <ele>207.03569030762</ele>
        <time>2016-03-30T13:33:00.000Z</time>
      </trkpt>
      <trkpt lat="47.34636" lon="2.95432">
        <ele>207.21005249023</ele>
        <time>2016-03-30T13:33:03.000Z</time>
      </trkpt>
      <trkpt lat="47.34636" lon="2.95435">
        <ele>207.4072265625</ele>
        <time>2016-03-30T13:33:06.000Z</time>
      </trkpt>
      <trkpt lat="47.34636" lon="2.95437">
        <ele>207.59761047363</ele>
        <time>2016-03-30T13:33:08.000Z</time>
      </trkpt>
      <trkpt lat="47.34635" lon="2.95444">
        <ele>207.83901977539</ele>
        <time>2016-03-30T13:33:18.000Z</time>
      </trkpt>
      <trkpt lat="47.34635" lon="2.95446">
        <ele>208.05403137207</ele>
        <time>2016-03-30T13:33:21.000Z</time>
      </trkpt>
      <trkpt lat="47.34635" lon="2.95451">
        <ele>208.24374389648</ele>
        <time>2016-03-30T13:33:24.000Z</time>
      </trkpt>
      <trkpt lat="47.34636" lon="2.95454">
        <ele>208.43217468262</ele>
        <time>2016-03-30T13:33:26.000Z</time>
      </trkpt>
      <trkpt lat="47.34637" lon="2.95461">
        <ele>208.68505859375</ele>
        <time>2016-03-30T13:33:29.000Z</time>
      </trkpt>
      <trkpt lat="47.34633" lon="2.95467">
        <ele>208.91361999512</ele>
        <time>2016-03-30T13:33:33.000Z</time>
      </trkpt>
      <trkpt lat="47.34633" lon="2.95473">
        <ele>209.18594360352</ele>
        <time>2016-03-30T13:33:36.000Z</time>
      </trkpt>
      <trkpt lat="47.34634" lon="2.95478">
        <ele>209.46963500977</ele>
        <time>2016-03-30T13:33:39.000Z</time>
      </trkpt>
      <trkpt lat="47.34634" lon="2.9548">
        <ele>209.73457336426</ele>
        <time>2016-03-30T13:33:42.000Z</time>
      </trkpt>
      <trkpt lat="47.34633" lon="2.95488">
        <ele>210.0052947998</ele>
        <time>2016-03-30T13:33:45.000Z</time>
      </trkpt>
      <trkpt lat="47.34631" lon="2.95499">
        <ele>210.33419799805</ele>
        <time>2016-03-30T13:33:48.000Z</time>
      </trkpt>
      <trkpt lat="47.34628" lon="2.95503">
        <ele>210.60928344727</ele>
        <time>2016-03-30T13:33:51.000Z</time>
      </trkpt>
      <trkpt lat="47.34626" lon="2.95509">
        <ele>210.83488464355</ele>
        <time>2016-03-30T13:33:54.000Z</time>
      </trkpt>
      <trkpt lat="47.34626" lon="2.95513">
        <ele>211.05461120605</ele>
        <time>2016-03-30T13:33:56.000Z</time>
      </trkpt>
      <trkpt lat="47.34624" lon="2.95519">
        <ele>211.19912719727</ele>
        <time>2016-03-30T13:34:03.000Z</time>
      </trkpt>
      <trkpt lat="47.34624" lon="2.95523">
        <ele>211.25463867188</ele>
        <time>2016-03-30T13:34:06.000Z</time>
      </trkpt>
      <trkpt lat="47.34622" lon="2.95528">
        <ele>211.31278991699</ele>
        <time>2016-03-30T13:34:09.000Z</time>
      </trkpt>
      <trkpt lat="47.3462" lon="2.9553">
        <ele>211.35282897949</ele>
        <time>2016-03-30T13:34:12.000Z</time>
      </trkpt>
      <trkpt lat="47.34618" lon="2.95531">
        <ele>211.37565612793</ele>
        <time>2016-03-30T13:34:18.000Z</time>
      </trkpt>
      <trkpt lat="47.34618" lon="2.95533">
        <ele>211.3893737793</ele>
        <time>2016-03-30T13:34:21.000Z</time>
      </trkpt>
      <trkpt lat="47.34618" lon="2.95535">
        <ele>211.39897155762</ele>
        <time>2016-03-30T13:34:25.000Z</time>
      </trkpt>
      <trkpt lat="47.3462" lon="2.95538">
        <ele>211.41909790039</ele>
        <time>2016-03-30T13:34:28.000Z</time>
      </trkpt>
      <trkpt lat="47.3462" lon="2.95542">
        <ele>211.46240234375</ele>
        <time>2016-03-30T13:34:31.000Z</time>
      </trkpt>
      <trkpt lat="47.3462" lon="2.95544">
        <ele>211.51806640625</ele>
        <time>2016-03-30T13:34:34.000Z</time>
      </trkpt>
      <trkpt lat="47.3462" lon="2.95548">
        <ele>211.58261108398</ele>
        <time>2016-03-30T13:34:37.000Z</time>
      </trkpt>
      <trkpt lat="47.34619" lon="2.95557">
        <ele>211.66232299805</ele>
        <time>2016-03-30T13:34:45.000Z</time>
      </trkpt>
      <trkpt lat="47.34619" lon="2.95561">
        <ele>211.73405456543</ele>
        <time>2016-03-30T13:34:47.000Z</time>
      </trkpt>
      <trkpt lat="47.34618" lon="2.95563">
        <ele>211.79507446289</ele>
        <time>2016-03-30T13:34:49.000Z</time>
      </trkpt>
      <trkpt lat="47.34614" lon="2.95571">
        <ele>211.84741210938</ele>
        <time>2016-03-30T13:34:52.000Z</time>
      </trkpt>
      <trkpt lat="47.34613" lon="2.95573">
        <ele>211.88732910156</ele>
        <time>2016-03-30T13:34:54.000Z</time>
      </trkpt>
      <trkpt lat="47.34611" lon="2.95575">
        <ele>211.8955078125</ele>
        <time>2016-03-30T13:34:56.000Z</time>
      </trkpt>
      <trkpt lat="47.34611" lon="2.95579">
        <ele>211.90180969238</ele>
        <time>2016-03-30T13:34:59.000Z</time>
      </trkpt>
      <trkpt lat="47.3461" lon="2.95581">
        <ele>211.90534973145</ele>
        <time>2016-03-30T13:35:01.000Z</time>
      </trkpt>
      <trkpt lat="47.3461" lon="2.95585">
        <ele>211.9144744873</ele>
        <time>2016-03-30T13:35:04.000Z</time>
      </trkpt>
      <trkpt lat="47.34609" lon="2.95588">
        <ele>211.9196472168</ele>
        <time>2016-03-30T13:35:06.000Z</time>
      </trkpt>
      <trkpt lat="47.34608" lon="2.95591">
        <ele>211.9289855957</ele>
        <time>2016-03-30T13:35:08.000Z</time>
      </trkpt>
      <trkpt lat="47.34608" lon="2.95594">
        <ele>211.9296875</ele>
        <time>2016-03-30T13:35:11.000Z</time>
      </trkpt>
      <trkpt lat="47.34609" lon="2.95598">
        <ele>211.93046569824</ele>
        <time>2016-03-30T13:35:14.000Z</time>
      </trkpt>
      <trkpt lat="47.34608" lon="2.95603">
        <ele>211.92134094238</ele>
        <time>2016-03-30T13:35:17.000Z</time>
      </trkpt>
      <trkpt lat="47.34606" lon="2.95607">
        <ele>211.90998840332</ele>
        <time>2016-03-30T13:35:20.000Z</time>
      </trkpt>
      <trkpt lat="47.34607" lon="2.95609">
        <ele>211.9038848877</ele>
        <time>2016-03-30T13:35:22.000Z</time>
      </trkpt>
      <trkpt lat="47.34607" lon="2.95612">
        <ele>211.90031433105</ele>
        <time>2016-03-30T13:35:25.000Z</time>
      </trkpt>
      <trkpt lat="47.34608" lon="2.95617">
        <ele>211.90029907227</ele>
        <time>2016-03-30T13:35:28.000Z</time>
      </trkpt>
      <trkpt lat="47.34608" lon="2.95623">
        <ele>211.90766906738</ele>
        <time>2016-03-30T13:35:31.000Z</time>
      </trkpt>
      <trkpt lat="47.34606" lon="2.95627">
        <ele>211.91650390625</ele>
        <time>2016-03-30T13:35:33.000Z</time>
      </trkpt>
      <trkpt lat="47.34604" lon="2.95634">
        <ele>211.91830444336</ele>
        <time>2016-03-30T13:35:36.000Z</time>
      </trkpt>
      <trkpt lat="47.34601" lon="2.95638">
        <ele>211.91386413574</ele>
        <time>2016-03-30T13:35:39.000Z</time>
      </trkpt>
      <trkpt lat="47.346" lon="2.95643">
        <ele>211.90356445312</ele>
        <time>2016-03-30T13:35:42.000Z</time>
      </trkpt>
      <trkpt lat="47.34597" lon="2.9565">
        <ele>211.89541625977</ele>
        <time>2016-03-30T13:35:45.000Z</time>
      </trkpt>
      <trkpt lat="47.34595" lon="2.95655">
        <ele>211.89668273926</ele>
        <time>2016-03-30T13:35:48.000Z</time>
      </trkpt>
      <trkpt lat="47.34594" lon="2.95659">
        <ele>211.90563964844</ele>
        <time>2016-03-30T13:35:50.000Z</time>
      </trkpt>
      <trkpt lat="47.34594" lon="2.95661">
        <ele>211.92121887207</ele>
        <time>2016-03-30T13:35:53.000Z</time>
      </trkpt>
      <trkpt lat="47.34593" lon="2.95666">
        <ele>211.94271850586</ele>
        <time>2016-03-30T13:35:57.000Z</time>
      </trkpt>
      <trkpt lat="47.34593" lon="2.9567">
        <ele>211.91967773438</ele>
        <time>2016-03-30T13:36:01.000Z</time>
      </trkpt>
      <trkpt lat="47.34592" lon="2.95673">
        <ele>211.85778808594</ele>
        <time>2016-03-30T13:36:03.000Z</time>
      </trkpt>
      <trkpt lat="47.34592" lon="2.95676">
        <ele>211.7607421875</ele>
        <time>2016-03-30T13:36:06.000Z</time>
      </trkpt>
      <trkpt lat="47.34592" lon="2.95679">
        <ele>211.61540222168</ele>
        <time>2016-03-30T13:36:09.000Z</time>
      </trkpt>
      <trkpt lat="47.34591" lon="2.95687">
        <ele>211.37004089355</ele>
        <time>2016-03-30T13:36:18.000Z</time>
      </trkpt>
      <trkpt lat="47.3459" lon="2.9569">
        <ele>211.12802124023</ele>
        <time>2016-03-30T13:36:21.000Z</time>
      </trkpt>
      <trkpt lat="47.3459" lon="2.95694">
        <ele>210.87239074707</ele>
        <time>2016-03-30T13:36:24.000Z</time>
      </trkpt>
      <trkpt lat="47.34588" lon="2.95698">
        <ele>210.59786987305</ele>
        <time>2016-03-30T13:36:27.000Z</time>
      </trkpt>
      <trkpt lat="47.34587" lon="2.95702">
        <ele>210.3278503418</ele>
        <time>2016-03-30T13:36:30.000Z</time>
      </trkpt>
      <trkpt lat="47.34587" lon="2.95704">
        <ele>210.12251281738</ele>
        <time>2016-03-30T13:36:32.000Z</time>
      </trkpt>
      <trkpt lat="47.34588" lon="2.95707">
        <ele>209.92179870605</ele>
        <time>2016-03-30T13:36:34.000Z</time>
      </trkpt>
      <trkpt lat="47.34587" lon="2.95711">
        <ele>209.71463012695</ele>
        <time>2016-03-30T13:36:37.000Z</time>
      </trkpt>
      <trkpt lat="47.34586" lon="2.95714">
        <ele>209.52407836914</ele>
        <time>2016-03-30T13:36:40.000Z</time>
      </trkpt>
      <trkpt lat="47.34586" lon="2.95716">
        <ele>209.34985351562</ele>
        <time>2016-03-30T13:36:42.000Z</time>
      </trkpt>
      <trkpt lat="47.34586" lon="2.95719">
        <ele>209.17263793945</ele>
        <time>2016-03-30T13:36:44.000Z</time>
      </trkpt>
      <trkpt lat="47.34585" lon="2.95726">
        <ele>208.94453430176</ele>
        <time>2016-03-30T13:36:47.000Z</time>
      </trkpt>
      <trkpt lat="47.34586" lon="2.95737">
        <ele>208.63830566406</ele>
        <time>2016-03-30T13:36:50.000Z</time>
      </trkpt>
      <trkpt lat="47.34587" lon="2.95741">
        <ele>208.31912231445</ele>
        <time>2016-03-30T13:36:52.000Z</time>
      </trkpt>
      <trkpt lat="47.34586" lon="2.95746">
        <ele>207.96362304688</ele>
        <time>2016-03-30T13:36:54.000Z</time>
      </trkpt>
      <trkpt lat="47.34586" lon="2.95751">
        <ele>207.58137512207</ele>
        <time>2016-03-30T13:36:57.000Z</time>
      </trkpt>
      <trkpt lat="47.34585" lon="2.95756">
        <ele>207.26406860352</ele>
        <time>2016-03-30T13:36:59.000Z</time>
      </trkpt>
      <trkpt lat="47.34584" lon="2.95758">
        <ele>207.07119750977</ele>
        <time>2016-03-30T13:37:01.000Z</time>
      </trkpt>
      <trkpt lat="47.34584" lon="2.95761">
        <ele>206.90914916992</ele>
        <time>2016-03-30T13:37:03.000Z</time>
      </trkpt>
      <trkpt lat="47.34583" lon="2.95766">
        <ele>206.78225708008</ele>
        <time>2016-03-30T13:37:06.000Z</time>
      </trkpt>
      <trkpt lat="47.34583" lon="2.95769">
        <ele>206.69856262207</ele>
        <time>2016-03-30T13:37:09.000Z</time>
      </trkpt>
      <trkpt lat="47.34583" lon="2.95772">
        <ele>206.62023925781</ele>
        <time>2016-03-30T13:37:11.000Z</time>
      </trkpt>
      <trkpt lat="47.34583" lon="2.95775">
        <ele>206.53695678711</ele>
        <time>2016-03-30T13:37:13.000Z</time>
      </trkpt>
      <trkpt lat="47.34582" lon="2.95778">
        <ele>206.45419311523</ele>
        <time>2016-03-30T13:37:16.000Z</time>
      </trkpt>
      <trkpt lat="47.34582" lon="2.95782">
        <ele>206.37576293945</ele>
        <time>2016-03-30T13:37:18.000Z</time>
      </trkpt>
      <trkpt lat="47.34581" lon="2.95786">
        <ele>206.28964233398</ele>
        <time>2016-03-30T13:37:21.000Z</time>
      </trkpt>
      <trkpt lat="47.34581" lon="2.95791">
        <ele>206.19523620605</ele>
        <time>2016-03-30T13:37:24.000Z</time>
      </trkpt>
      <trkpt lat="47.3458" lon="2.95795">
        <ele>206.09683227539</ele>
        <time>2016-03-30T13:37:26.000Z</time>
      </trkpt>
      <trkpt lat="47.3458" lon="2.95798">
        <ele>205.99580383301</ele>
        <time>2016-03-30T13:37:29.000Z</time>
      </trkpt>
      <trkpt lat="47.3458" lon="2.95801">
        <ele>205.90097045898</ele>
        <time>2016-03-30T13:37:32.000Z</time>
      </trkpt>
      <trkpt lat="47.34579" lon="2.95806">
        <ele>205.80578613281</ele>
        <time>2016-03-30T13:37:35.000Z</time>
      </trkpt>
      <trkpt lat="47.34578" lon="2.9581">
        <ele>205.71542358398</ele>
        <time>2016-03-30T13:37:37.000Z</time>
      </trkpt>
      <trkpt lat="47.34577" lon="2.95814">
        <ele>205.62434387207</ele>
        <time>2016-03-30T13:37:39.000Z</time>
      </trkpt>
      <trkpt lat="47.34575" lon="2.95818">
        <ele>205.52780151367</ele>
        <time>2016-03-30T13:37:42.000Z</time>
      </trkpt>
      <trkpt lat="47.34574" lon="2.95821">
        <ele>205.43222045898</ele>
        <time>2016-03-30T13:37:44.000Z</time>
      </trkpt>
      <trkpt lat="47.34572" lon="2.95826">
        <ele>205.34135437012</ele>
        <time>2016-03-30T13:37:47.000Z</time>
      </trkpt>
      <trkpt lat="47.34572" lon="2.95827">
        <ele>205.25968933105</ele>
        <time>2016-03-30T13:37:49.000Z</time>
      </trkpt>
      <trkpt lat="47.34571" lon="2.9583">
        <ele>205.1838684082</ele>
        <time>2016-03-30T13:37:51.000Z</time>
      </trkpt>
      <trkpt lat="47.34569" lon="2.95834">
        <ele>205.11987304688</ele>
        <time>2016-03-30T13:37:54.000Z</time>
      </trkpt>
      <trkpt lat="47.34567" lon="2.95839">
        <ele>205.0718536377</ele>
        <time>2016-03-30T13:37:57.000Z</time>
      </trkpt>
      <trkpt lat="47.34566" lon="2.95842">
        <ele>205.0439453125</ele>
        <time>2016-03-30T13:38:00.000Z</time>
      </trkpt>
      <trkpt lat="47.34564" lon="2.95846">
        <ele>205.0259552002</ele>
        <time>2016-03-30T13:38:02.000Z</time>
      </trkpt>
      <trkpt lat="47.34562" lon="2.95849">
        <ele>205.0237121582</ele>
        <time>2016-03-30T13:38:05.000Z</time>
      </trkpt>
      <trkpt lat="47.3456" lon="2.95851">
        <ele>205.03518676758</ele>
        <time>2016-03-30T13:38:08.000Z</time>
      </trkpt>
      <trkpt lat="47.34558" lon="2.95856">
        <ele>205.04902648926</ele>
        <time>2016-03-30T13:38:11.000Z</time>
      </trkpt>
      <trkpt lat="47.34557" lon="2.95861">
        <ele>205.06550598145</ele>
        <time>2016-03-30T13:38:14.000Z</time>
      </trkpt>
      <trkpt lat="47.34556" lon="2.95864">
        <ele>205.08283996582</ele>
        <time>2016-03-30T13:38:16.000Z</time>
      </trkpt>
      <trkpt lat="47.34555" lon="2.95867">
        <ele>205.10102844238</ele>
        <time>2016-03-30T13:38:19.000Z</time>
      </trkpt>
      <trkpt lat="47.34553" lon="2.95872">
        <ele>205.12260437012</ele>
        <time>2016-03-30T13:38:22.000Z</time>
      </trkpt>
      <trkpt lat="47.34552" lon="2.95874">
        <ele>205.14266967773</ele>
        <time>2016-03-30T13:38:24.000Z</time>
      </trkpt>
      <trkpt lat="47.3455" lon="2.95878">
        <ele>205.16439819336</ele>
        <time>2016-03-30T13:38:27.000Z</time>
      </trkpt>
      <trkpt lat="47.34548" lon="2.95883">
        <ele>205.19018554688</ele>
        <time>2016-03-30T13:38:30.000Z</time>
      </trkpt>
      <trkpt lat="47.34547" lon="2.95887">
        <ele>205.21806335449</ele>
        <time>2016-03-30T13:38:33.000Z</time>
      </trkpt>
      <trkpt lat="47.34546" lon="2.95891">
        <ele>205.24703979492</ele>
        <time>2016-03-30T13:38:36.000Z</time>
      </trkpt>
      <trkpt lat="47.34545" lon="2.95895">
        <ele>205.27920532227</ele>
        <time>2016-03-30T13:38:39.000Z</time>
      </trkpt>
      <trkpt lat="47.34544" lon="2.95898">
        <ele>205.31037902832</ele>
        <time>2016-03-30T13:38:41.000Z</time>
      </trkpt>
      <trkpt lat="47.34543" lon="2.95902">
        <ele>205.3413848877</ele>
        <time>2016-03-30T13:38:44.000Z</time>
      </trkpt>
      <trkpt lat="47.34542" lon="2.95906">
        <ele>205.37178039551</ele>
        <time>2016-03-30T13:38:46.000Z</time>
      </trkpt>
      <trkpt lat="47.34541" lon="2.95911">
        <ele>205.40361022949</ele>
        <time>2016-03-30T13:38:49.000Z</time>
      </trkpt>
      <trkpt lat="47.3454" lon="2.95914">
        <ele>205.43550109863</ele>
        <time>2016-03-30T13:38:51.000Z</time>
      </trkpt>
      <trkpt lat="47.34539" lon="2.95917">
        <ele>205.46907043457</ele>
        <time>2016-03-30T13:38:54.000Z</time>
      </trkpt>
      <trkpt lat="47.34538" lon="2.95921">
        <ele>205.49746704102</ele>
        <time>2016-03-30T13:38:56.000Z</time>
      </trkpt>
      <trkpt lat="47.34538" lon="2.95925">
        <ele>205.52194213867</ele>
        <time>2016-03-30T13:38:59.000Z</time>
      </trkpt>
      <trkpt lat="47.34537" lon="2.95932">
        <ele>205.53909301758</ele>
        <time>2016-03-30T13:39:02.000Z</time>
      </trkpt>
      <trkpt lat="47.34535" lon="2.95936">
        <ele>205.5537109375</ele>
        <time>2016-03-30T13:39:05.000Z</time>
      </trkpt>
      <trkpt lat="47.34534" lon="2.9594">
        <ele>205.5654296875</ele>
        <time>2016-03-30T13:39:08.000Z</time>
      </trkpt>
      <trkpt lat="47.34533" lon="2.95944">
        <ele>205.5771484375</ele>
        <time>2016-03-30T13:39:11.000Z</time>
      </trkpt>
      <trkpt lat="47.34533" lon="2.95947">
        <ele>205.587890625</ele>
        <time>2016-03-30T13:39:13.000Z</time>
      </trkpt>
      <trkpt lat="47.34533" lon="2.95951">
        <ele>205.5986328125</ele>
        <time>2016-03-30T13:39:16.000Z</time>
      </trkpt>
      <trkpt lat="47.34532" lon="2.95953">
        <ele>205.6064453125</ele>
        <time>2016-03-30T13:39:19.000Z</time>
      </trkpt>
      <trkpt lat="47.34531" lon="2.95958">
        <ele>205.6123046875</ele>
        <time>2016-03-30T13:39:22.000Z</time>
      </trkpt>
      <trkpt lat="47.3453" lon="2.95961">
        <ele>205.6181640625</ele>
        <time>2016-03-30T13:39:24.000Z</time>
      </trkpt>
      <trkpt lat="47.34529" lon="2.95964">
        <ele>205.6259765625</ele>
        <time>2016-03-30T13:39:28.000Z</time>
      </trkpt>
      <trkpt lat="47.34529" lon="2.95964">
        <ele>205.6259765625</ele>
        <time>2016-03-30T13:39:48.000Z</time>
      </trkpt>
      <trkpt lat="47.34529" lon="2.95965">
        <ele>205.6328125</ele>
        <time>2016-03-30T13:40:13.000Z</time>
      </trkpt>
      <trkpt lat="47.34529" lon="2.95967">
        <ele>205.640625</ele>
        <time>2016-03-30T13:40:15.000Z</time>
      </trkpt>
      <trkpt lat="47.34528" lon="2.95968">
        <ele>205.6474609375</ele>
        <time>2016-03-30T13:40:17.000Z</time>
      </trkpt>
      <trkpt lat="47.34528" lon="2.95969">
        <ele>205.65234375</ele>
        <time>2016-03-30T13:40:19.000Z</time>
      </trkpt>
      <trkpt lat="47.34528" lon="2.95969">
        <ele>205.65234375</ele>
        <time>2016-03-30T13:40:39.000Z</time>
      </trkpt>
      <trkpt lat="47.34527" lon="2.9597">
        <ele>205.658203125</ele>
        <time>2016-03-30T13:40:53.000Z</time>
      </trkpt>
      <trkpt lat="47.34526" lon="2.9597">
        <ele>205.6669921875</ele>
        <time>2016-03-30T13:40:55.000Z</time>
      </trkpt>
      <trkpt lat="47.34526" lon="2.9597">
        <ele>205.6669921875</ele>
        <time>2016-03-30T13:41:15.000Z</time>
      </trkpt>
      <trkpt lat="47.34525" lon="2.9597">
        <ele>205.6767578125</ele>
        <time>2016-03-30T13:41:34.000Z</time>
      </trkpt>
      <trkpt lat="47.34525" lon="2.9597">
        <ele>205.6767578125</ele>
        <time>2016-03-30T13:41:54.000Z</time>
      </trkpt>
      <trkpt lat="47.34524" lon="2.95971">
        <ele>205.6865234375</ele>
        <time>2016-03-30T13:44:00.000Z</time>
      </trkpt>
      <trkpt lat="47.34522" lon="2.95973">
        <ele>205.701171875</ele>
        <time>2016-03-30T13:44:03.000Z</time>
      </trkpt>
      <trkpt lat="47.3452" lon="2.95975">
        <ele>205.7197265625</ele>
        <time>2016-03-30T13:44:06.000Z</time>
      </trkpt>
      <trkpt lat="47.34517" lon="2.95977">
        <ele>205.740234375</ele>
        <time>2016-03-30T13:44:09.000Z</time>
      </trkpt>
      <trkpt lat="47.34515" lon="2.9598">
        <ele>205.7646484375</ele>
        <time>2016-03-30T13:44:12.000Z</time>
      </trkpt>
      <trkpt lat="47.34513" lon="2.95983">
        <ele>205.7919921875</ele>
        <time>2016-03-30T13:44:15.000Z</time>
      </trkpt>
      <trkpt lat="47.34512" lon="2.95986">
        <ele>205.8154296875</ele>
        <time>2016-03-30T13:44:17.000Z</time>
      </trkpt>
      <trkpt lat="47.34512" lon="2.95991">
        <ele>205.833984375</ele>
        <time>2016-03-30T13:44:20.000Z</time>
      </trkpt>
      <trkpt lat="47.34511" lon="2.95993">
        <ele>205.849609375</ele>
        <time>2016-03-30T13:44:22.000Z</time>
      </trkpt>
      <trkpt lat="47.3451" lon="2.95997">
        <ele>205.859375</ele>
        <time>2016-03-30T13:44:25.000Z</time>
      </trkpt>
      <trkpt lat="47.3451" lon="2.95999">
        <ele>205.865234375</ele>
        <time>2016-03-30T13:44:27.000Z</time>
      </trkpt>
      <trkpt lat="47.3451" lon="2.96004">
        <ele>205.88552856445</ele>
        <time>2016-03-30T13:44:30.000Z</time>
      </trkpt>
      <trkpt lat="47.3451" lon="2.96007">
        <ele>205.92001342773</ele>
        <time>2016-03-30T13:44:32.000Z</time>
      </trkpt>
      <trkpt lat="47.3451" lon="2.96012">
        <ele>205.97573852539</ele>
        <time>2016-03-30T13:44:35.000Z</time>
      </trkpt>
      <trkpt lat="47.3451" lon="2.96015">
        <ele>206.03950500488</ele>
        <time>2016-03-30T13:44:37.000Z</time>
      </trkpt>
      <trkpt lat="47.3451" lon="2.96017">
        <ele>206.11563110352</ele>
        <time>2016-03-30T13:44:39.000Z</time>
      </trkpt>
      <trkpt lat="47.3451" lon="2.96021">
        <ele>206.18826293945</ele>
        <time>2016-03-30T13:44:42.000Z</time>
      </trkpt>
      <trkpt lat="47.3451" lon="2.96023">
        <ele>206.25610351562</ele>
        <time>2016-03-30T13:44:44.000Z</time>
      </trkpt>
      <trkpt lat="47.3451" lon="2.96029">
        <ele>206.32341003418</ele>
        <time>2016-03-30T13:44:47.000Z</time>
      </trkpt>
      <trkpt lat="47.3451" lon="2.96034">
        <ele>206.40225219727</ele>
        <time>2016-03-30T13:44:50.000Z</time>
      </trkpt>
      <trkpt lat="47.34511" lon="2.96036">
        <ele>206.47525024414</ele>
        <time>2016-03-30T13:44:52.000Z</time>
      </trkpt>
      <trkpt lat="47.34512" lon="2.96039">
        <ele>206.54670715332</ele>
        <time>2016-03-30T13:44:54.000Z</time>
      </trkpt>
      <trkpt lat="47.34512" lon="2.96044">
        <ele>206.62409973145</ele>
        <time>2016-03-30T13:44:57.000Z</time>
      </trkpt>
      <trkpt lat="47.34512" lon="2.96049">
        <ele>206.69551086426</ele>
        <time>2016-03-30T13:45:00.000Z</time>
      </trkpt>
      <trkpt lat="47.34513" lon="2.96053">
        <ele>206.76594543457</ele>
        <time>2016-03-30T13:45:03.000Z</time>
      </trkpt>
      <trkpt lat="47.34513" lon="2.96058">
        <ele>206.84603881836</ele>
        <time>2016-03-30T13:45:06.000Z</time>
      </trkpt>
      <trkpt lat="47.34514" lon="2.96063">
        <ele>206.92990112305</ele>
        <time>2016-03-30T13:45:09.000Z</time>
      </trkpt>
      <trkpt lat="47.34514" lon="2.96068">
        <ele>207.01818847656</ele>
        <time>2016-03-30T13:45:12.000Z</time>
      </trkpt>
      <trkpt lat="47.34515" lon="2.96072">
        <ele>207.09814453125</ele>
        <time>2016-03-30T13:45:15.000Z</time>
      </trkpt>
      <trkpt lat="47.34515" lon="2.96074">
        <ele>207.16947937012</ele>
        <time>2016-03-30T13:45:17.000Z</time>
      </trkpt>
      <trkpt lat="47.34514" lon="2.96077">
        <ele>207.23959350586</ele>
        <time>2016-03-30T13:45:20.000Z</time>
      </trkpt>
      <trkpt lat="47.34515" lon="2.96081">
        <ele>207.30644226074</ele>
        <time>2016-03-30T13:45:21.000Z</time>
      </trkpt>
      <trkpt lat="47.34515" lon="2.96084">
        <ele>207.36166381836</ele>
        <time>2016-03-30T13:45:23.000Z</time>
      </trkpt>
      <trkpt lat="47.34515" lon="2.96088">
        <ele>207.40853881836</ele>
        <time>2016-03-30T13:45:26.000Z</time>
      </trkpt>
      <trkpt lat="47.34515" lon="2.96094">
        <ele>207.44149780273</ele>
        <time>2016-03-30T13:45:29.000Z</time>
      </trkpt>
      <trkpt lat="47.34516" lon="2.96098">
        <ele>207.45376586914</ele>
        <time>2016-03-30T13:45:31.000Z</time>
      </trkpt>
      <trkpt lat="47.34516" lon="2.96102">
        <ele>207.455078125</ele>
        <time>2016-03-30T13:45:34.000Z</time>
      </trkpt>
      <trkpt lat="47.34516" lon="2.96105">
        <ele>207.4462890625</ele>
        <time>2016-03-30T13:45:36.000Z</time>
      </trkpt>
      <trkpt lat="47.34516" lon="2.96108">
        <ele>207.4375</ele>
        <time>2016-03-30T13:45:38.000Z</time>
      </trkpt>
      <trkpt lat="47.34517" lon="2.96113">
        <ele>207.4228515625</ele>
        <time>2016-03-30T13:45:41.000Z</time>
      </trkpt>
      <trkpt lat="47.34517" lon="2.96117">
        <ele>207.4140625</ele>
        <time>2016-03-30T13:45:44.000Z</time>
      </trkpt>
      <trkpt lat="47.34517" lon="2.96122">
        <ele>207.40234375</ele>
        <time>2016-03-30T13:45:47.000Z</time>
      </trkpt>
      <trkpt lat="47.34518" lon="2.96128">
        <ele>207.384765625</ele>
        <time>2016-03-30T13:45:50.000Z</time>
      </trkpt>
      <trkpt lat="47.34518" lon="2.96131">
        <ele>207.3671875</ele>
        <time>2016-03-30T13:45:52.000Z</time>
      </trkpt>
      <trkpt lat="47.3452" lon="2.96134">
        <ele>207.349609375</ele>
        <time>2016-03-30T13:45:54.000Z</time>
      </trkpt>
      <trkpt lat="47.34519" lon="2.96141">
        <ele>207.3349609375</ele>
        <time>2016-03-30T13:45:57.000Z</time>
      </trkpt>
      <trkpt lat="47.3452" lon="2.96146">
        <ele>207.3203125</ele>
        <time>2016-03-30T13:46:00.000Z</time>
      </trkpt>
      <trkpt lat="47.3452" lon="2.96151">
        <ele>207.30859375</ele>
        <time>2016-03-30T13:46:03.000Z</time>
      </trkpt>
      <trkpt lat="47.34521" lon="2.96153">
        <ele>207.291015625</ele>
        <time>2016-03-30T13:46:05.000Z</time>
      </trkpt>
      <trkpt lat="47.34521" lon="2.96157">
        <ele>207.279296875</ele>
        <time>2016-03-30T13:46:08.000Z</time>
      </trkpt>
      <trkpt lat="47.34521" lon="2.9616">
        <ele>207.2646484375</ele>
        <time>2016-03-30T13:46:10.000Z</time>
      </trkpt>
      <trkpt lat="47.34521" lon="2.96167">
        <ele>207.25532531738</ele>
        <time>2016-03-30T13:46:13.000Z</time>
      </trkpt>
      <trkpt lat="47.3452" lon="2.96172">
        <ele>207.2431640625</ele>
        <time>2016-03-30T13:46:16.000Z</time>
      </trkpt>
      <trkpt lat="47.34521" lon="2.96177">
        <ele>207.22192382812</ele>
        <time>2016-03-30T13:46:19.000Z</time>
      </trkpt>
      <trkpt lat="47.34522" lon="2.96182">
        <ele>207.18974304199</ele>
        <time>2016-03-30T13:46:21.000Z</time>
      </trkpt>
      <trkpt lat="47.34522" lon="2.96187">
        <ele>207.1478729248</ele>
        <time>2016-03-30T13:46:24.000Z</time>
      </trkpt>
      <trkpt lat="47.34522" lon="2.9619">
        <ele>207.0961151123</ele>
        <time>2016-03-30T13:46:26.000Z</time>
      </trkpt>
      <trkpt lat="47.34523" lon="2.96195">
        <ele>207.03620910645</ele>
        <time>2016-03-30T13:46:29.000Z</time>
      </trkpt>
      <trkpt lat="47.34524" lon="2.96197">
        <ele>206.98136901855</ele>
        <time>2016-03-30T13:46:31.000Z</time>
      </trkpt>
      <trkpt lat="47.34524" lon="2.962">
        <ele>206.93583679199</ele>
        <time>2016-03-30T13:46:33.000Z</time>
      </trkpt>
      <trkpt lat="47.34525" lon="2.96205">
        <ele>206.88737487793</ele>
        <time>2016-03-30T13:46:36.000Z</time>
      </trkpt>
      <trkpt lat="47.34525" lon="2.9621">
        <ele>206.83474731445</ele>
        <time>2016-03-30T13:46:39.000Z</time>
      </trkpt>
      <trkpt lat="47.34526" lon="2.96216">
        <ele>206.78146362305</ele>
        <time>2016-03-30T13:46:42.000Z</time>
      </trkpt>
      <trkpt lat="47.34526" lon="2.96219">
        <ele>206.73257446289</ele>
        <time>2016-03-30T13:46:44.000Z</time>
      </trkpt>
      <trkpt lat="47.34526" lon="2.96224">
        <ele>206.68196105957</ele>
        <time>2016-03-30T13:46:47.000Z</time>
      </trkpt>
      <trkpt lat="47.34526" lon="2.96226">
        <ele>206.64065551758</ele>
        <time>2016-03-30T13:46:49.000Z</time>
      </trkpt>
      <trkpt lat="47.34527" lon="2.96232">
        <ele>206.59497070312</ele>
        <time>2016-03-30T13:46:52.000Z</time>
      </trkpt>
      <trkpt lat="47.34527" lon="2.96237">
        <ele>206.55313110352</ele>
        <time>2016-03-30T13:46:55.000Z</time>
      </trkpt>
      <trkpt lat="47.34528" lon="2.96242">
        <ele>206.50366210938</ele>
        <time>2016-03-30T13:46:57.000Z</time>
      </trkpt>
      <trkpt lat="47.34528" lon="2.96247">
        <ele>206.45471191406</ele>
        <time>2016-03-30T13:47:12.000Z</time>
      </trkpt>
      <trkpt lat="47.34528" lon="2.9625">
        <ele>206.4026184082</ele>
        <time>2016-03-30T13:47:12.000Z</time>
      </trkpt>
      <trkpt lat="47.34528" lon="2.96254">
        <ele>206.35220336914</ele>
        <time>2016-03-30T13:47:13.000Z</time>
      </trkpt>
      <trkpt lat="47.34528" lon="2.96261">
        <ele>206.28494262695</ele>
        <time>2016-03-30T13:47:13.000Z</time>
      </trkpt>
      <trkpt lat="47.34529" lon="2.96265">
        <ele>206.21199035645</ele>
        <time>2016-03-30T13:47:15.000Z</time>
      </trkpt>
      <trkpt lat="47.34529" lon="2.96269">
        <ele>206.12455749512</ele>
        <time>2016-03-30T13:47:15.000Z</time>
      </trkpt>
      <trkpt lat="47.3453" lon="2.96272">
        <ele>206.02688598633</ele>
        <time>2016-03-30T13:47:16.000Z</time>
      </trkpt>
      <trkpt lat="47.34531" lon="2.96278">
        <ele>205.91821289062</ele>
        <time>2016-03-30T13:47:18.000Z</time>
      </trkpt>
      <trkpt lat="47.34531" lon="2.96285">
        <ele>205.81192016602</ele>
        <time>2016-03-30T13:47:21.000Z</time>
      </trkpt>
      <trkpt lat="47.34531" lon="2.96288">
        <ele>205.71224975586</ele>
        <time>2016-03-30T13:47:23.000Z</time>
      </trkpt>
      <trkpt lat="47.34531" lon="2.96294">
        <ele>205.60934448242</ele>
        <time>2016-03-30T13:47:26.000Z</time>
      </trkpt>
      <trkpt lat="47.34531" lon="2.96298">
        <ele>205.5074005127</ele>
        <time>2016-03-30T13:47:29.000Z</time>
      </trkpt>
      <trkpt lat="47.34531" lon="2.96304">
        <ele>205.40884399414</ele>
        <time>2016-03-30T13:47:32.000Z</time>
      </trkpt>
      <trkpt lat="47.34532" lon="2.96307">
        <ele>205.31991577148</ele>
        <time>2016-03-30T13:47:34.000Z</time>
      </trkpt>
      <trkpt lat="47.34534" lon="2.9631">
        <ele>205.22265625</ele>
        <time>2016-03-30T13:47:37.000Z</time>
      </trkpt>
      <trkpt lat="47.34536" lon="2.96313">
        <ele>205.13143920898</ele>
        <time>2016-03-30T13:47:39.000Z</time>
      </trkpt>
      <trkpt lat="47.34538" lon="2.96318">
        <ele>205.03153991699</ele>
        <time>2016-03-30T13:47:42.000Z</time>
      </trkpt>
      <trkpt lat="47.3454" lon="2.96323">
        <ele>204.9323425293</ele>
        <time>2016-03-30T13:47:45.000Z</time>
      </trkpt>
      <trkpt lat="47.34541" lon="2.96327">
        <ele>204.82861328125</ele>
        <time>2016-03-30T13:47:48.000Z</time>
      </trkpt>
      <trkpt lat="47.34543" lon="2.96332">
        <ele>204.72229003906</ele>
        <time>2016-03-30T13:47:51.000Z</time>
      </trkpt>
      <trkpt lat="47.34544" lon="2.96336">
        <ele>204.60945129395</ele>
        <time>2016-03-30T13:47:53.000Z</time>
      </trkpt>
      <trkpt lat="47.34545" lon="2.96342">
        <ele>204.48648071289</ele>
        <time>2016-03-30T13:47:56.000Z</time>
      </trkpt>
      <trkpt lat="47.34547" lon="2.96347">
        <ele>204.34539794922</ele>
        <time>2016-03-30T13:47:59.000Z</time>
      </trkpt>
      <trkpt lat="47.34547" lon="2.96351">
        <ele>204.20040893555</ele>
        <time>2016-03-30T13:48:01.000Z</time>
      </trkpt>
      <trkpt lat="47.34549" lon="2.96356">
        <ele>204.04243469238</ele>
        <time>2016-03-30T13:48:04.000Z</time>
      </trkpt>
      <trkpt lat="47.3455" lon="2.96359">
        <ele>203.88325500488</ele>
        <time>2016-03-30T13:48:06.000Z</time>
      </trkpt>
      <trkpt lat="47.34551" lon="2.96362">
        <ele>203.73922729492</ele>
        <time>2016-03-30T13:48:08.000Z</time>
      </trkpt>
      <trkpt lat="47.34552" lon="2.96366">
        <ele>203.60263061523</ele>
        <time>2016-03-30T13:48:11.000Z</time>
      </trkpt>
      <trkpt lat="47.34553" lon="2.96371">
        <ele>203.45980834961</ele>
        <time>2016-03-30T13:48:14.000Z</time>
      </trkpt>
      <trkpt lat="47.34554" lon="2.96373">
        <ele>203.33549499512</ele>
        <time>2016-03-30T13:48:16.000Z</time>
      </trkpt>
      <trkpt lat="47.34554" lon="2.96377">
        <ele>203.21145629883</ele>
        <time>2016-03-30T13:48:18.000Z</time>
      </trkpt>
      <trkpt lat="47.34555" lon="2.96381">
        <ele>203.07662963867</ele>
        <time>2016-03-30T13:48:21.000Z</time>
      </trkpt>
      <trkpt lat="47.34555" lon="2.96387">
        <ele>202.9384765625</ele>
        <time>2016-03-30T13:48:24.000Z</time>
      </trkpt>
      <trkpt lat="47.34555" lon="2.96392">
        <ele>202.79783630371</ele>
        <time>2016-03-30T13:48:27.000Z</time>
      </trkpt>
      <trkpt lat="47.34556" lon="2.96398">
        <ele>202.62954711914</ele>
        <time>2016-03-30T13:48:30.000Z</time>
      </trkpt>
      <trkpt lat="47.34556" lon="2.96403">
        <ele>202.45719909668</ele>
        <time>2016-03-30T13:48:32.000Z</time>
      </trkpt>
      <trkpt lat="47.34557" lon="2.96406">
        <ele>202.29220581055</ele>
        <time>2016-03-30T13:48:34.000Z</time>
      </trkpt>
      <trkpt lat="47.34557" lon="2.96412">
        <ele>202.12142944336</ele>
        <time>2016-03-30T13:48:37.000Z</time>
      </trkpt>
      <trkpt lat="47.34557" lon="2.96416">
        <ele>201.95727539062</ele>
        <time>2016-03-30T13:48:39.000Z</time>
      </trkpt>
      <trkpt lat="47.34557" lon="2.9642">
        <ele>201.81471252441</ele>
        <time>2016-03-30T13:48:41.000Z</time>
      </trkpt>
      <trkpt lat="47.34557" lon="2.96426">
        <ele>201.66339111328</ele>
        <time>2016-03-30T13:48:44.000Z</time>
      </trkpt>
      <trkpt lat="47.34557" lon="2.9643">
        <ele>201.51089477539</ele>
        <time>2016-03-30T13:48:46.000Z</time>
      </trkpt>
      <trkpt lat="47.34557" lon="2.96435">
        <ele>201.36538696289</ele>
        <time>2016-03-30T13:48:49.000Z</time>
      </trkpt>
      <trkpt lat="47.34557" lon="2.96438">
        <ele>201.22384643555</ele>
        <time>2016-03-30T13:48:51.000Z</time>
      </trkpt>
      <trkpt lat="47.34557" lon="2.96443">
        <ele>201.07138061523</ele>
        <time>2016-03-30T13:48:54.000Z</time>
      </trkpt>
      <trkpt lat="47.34557" lon="2.96447">
        <ele>200.92915344238</ele>
        <time>2016-03-30T13:48:56.000Z</time>
      </trkpt>
      <trkpt lat="47.34558" lon="2.9645">
        <ele>200.79415893555</ele>
        <time>2016-03-30T13:48:58.000Z</time>
      </trkpt>
      <trkpt lat="47.34558" lon="2.96455">
        <ele>200.65856933594</ele>
        <time>2016-03-30T13:49:01.000Z</time>
      </trkpt>
      <trkpt lat="47.34558" lon="2.96461">
        <ele>200.50207519531</ele>
        <time>2016-03-30T13:49:04.000Z</time>
      </trkpt>
      <trkpt lat="47.34558" lon="2.96463">
        <ele>200.36965942383</ele>
        <time>2016-03-30T13:49:06.000Z</time>
      </trkpt>
      <trkpt lat="47.34558" lon="2.96468">
        <ele>200.23406982422</ele>
        <time>2016-03-30T13:49:09.000Z</time>
      </trkpt>
      <trkpt lat="47.34558" lon="2.96471">
        <ele>200.0929107666</ele>
        <time>2016-03-30T13:49:12.000Z</time>
      </trkpt>
      <trkpt lat="47.34558" lon="2.96473">
        <ele>199.97123718262</ele>
        <time>2016-03-30T13:49:16.000Z</time>
      </trkpt>
      <trkpt lat="47.34558" lon="2.96476">
        <ele>199.87791442871</ele>
        <time>2016-03-30T13:49:18.000Z</time>
      </trkpt>
      <trkpt lat="47.3456" lon="2.9648">
        <ele>199.7550201416</ele>
        <time>2016-03-30T13:49:21.000Z</time>
      </trkpt>
      <trkpt lat="47.3456" lon="2.96484">
        <ele>199.63369750977</ele>
        <time>2016-03-30T13:49:24.000Z</time>
      </trkpt>
      <trkpt lat="47.3456" lon="2.9649">
        <ele>199.50050354004</ele>
        <time>2016-03-30T13:49:27.000Z</time>
      </trkpt>
      <trkpt lat="47.3456" lon="2.96497">
        <ele>199.33227539062</ele>
        <time>2016-03-30T13:49:30.000Z</time>
      </trkpt>
      <trkpt lat="47.3456" lon="2.96501">
        <ele>199.15620422363</ele>
        <time>2016-03-30T13:49:33.000Z</time>
      </trkpt>
      <trkpt lat="47.3456" lon="2.96505">
        <ele>199.01725769043</ele>
        <time>2016-03-30T13:49:35.000Z</time>
      </trkpt>
      <trkpt lat="47.34561" lon="2.96509">
        <ele>198.90228271484</ele>
        <time>2016-03-30T13:49:37.000Z</time>
      </trkpt>
      <trkpt lat="47.34561" lon="2.96512">
        <ele>198.8194732666</ele>
        <time>2016-03-30T13:49:40.000Z</time>
      </trkpt>
      <trkpt lat="47.34561" lon="2.96517">
        <ele>198.78076171875</ele>
        <time>2016-03-30T13:49:43.000Z</time>
      </trkpt>
      <trkpt lat="47.34561" lon="2.96524">
        <ele>198.76051330566</ele>
        <time>2016-03-30T13:49:46.000Z</time>
      </trkpt>
      <trkpt lat="47.34561" lon="2.96529">
        <ele>198.73951721191</ele>
        <time>2016-03-30T13:49:49.000Z</time>
      </trkpt>
      <trkpt lat="47.3456" lon="2.96533">
        <ele>198.72634887695</ele>
        <time>2016-03-30T13:49:51.000Z</time>
      </trkpt>
      <trkpt lat="47.3456" lon="2.96539">
        <ele>198.71408081055</ele>
        <time>2016-03-30T13:49:54.000Z</time>
      </trkpt>
      <trkpt lat="47.3456" lon="2.96542">
        <ele>198.70811462402</ele>
        <time>2016-03-30T13:49:57.000Z</time>
      </trkpt>
      <trkpt lat="47.34559" lon="2.96546">
        <ele>198.70596313477</ele>
        <time>2016-03-30T13:49:59.000Z</time>
      </trkpt>
      <trkpt lat="47.3456" lon="2.96552">
        <ele>198.7006072998</ele>
        <time>2016-03-30T13:50:02.000Z</time>
      </trkpt>
      <trkpt lat="47.3456" lon="2.96555">
        <ele>198.68826293945</ele>
        <time>2016-03-30T13:50:04.000Z</time>
      </trkpt>
      <trkpt lat="47.3456" lon="2.9656">
        <ele>198.67143249512</ele>
        <time>2016-03-30T13:50:07.000Z</time>
      </trkpt>
      <trkpt lat="47.3456" lon="2.96564">
        <ele>198.65205383301</ele>
        <time>2016-03-30T13:50:09.000Z</time>
      </trkpt>
      <trkpt lat="47.34561" lon="2.96567">
        <ele>198.62875366211</ele>
        <time>2016-03-30T13:50:11.000Z</time>
      </trkpt>
      <trkpt lat="47.34561" lon="2.96573">
        <ele>198.60835266113</ele>
        <time>2016-03-30T13:50:14.000Z</time>
      </trkpt>
      <trkpt lat="47.3456" lon="2.96579">
        <ele>198.59266662598</ele>
        <time>2016-03-30T13:50:17.000Z</time>
      </trkpt>
      <trkpt lat="47.3456" lon="2.96582">
        <ele>198.58224487305</ele>
        <time>2016-03-30T13:50:19.000Z</time>
      </trkpt>
      <trkpt lat="47.3456" lon="2.96587">
        <ele>198.54592895508</ele>
        <time>2016-03-30T13:50:21.000Z</time>
      </trkpt>
      <trkpt lat="47.34561" lon="2.96592">
        <ele>198.47413635254</ele>
        <time>2016-03-30T13:50:24.000Z</time>
      </trkpt>
      <trkpt lat="47.34562" lon="2.96596">
        <ele>198.37576293945</ele>
        <time>2016-03-30T13:50:26.000Z</time>
      </trkpt>
      <trkpt lat="47.34562" lon="2.96599">
        <ele>198.25755310059</ele>
        <time>2016-03-30T13:50:28.000Z</time>
      </trkpt>
      <trkpt lat="47.34562" lon="2.96603">
        <ele>198.10406494141</ele>
        <time>2016-03-30T13:50:31.000Z</time>
      </trkpt>
      <trkpt lat="47.3456" lon="2.96608">
        <ele>197.95550537109</ele>
        <time>2016-03-30T13:50:33.000Z</time>
      </trkpt>
      <trkpt lat="47.34557" lon="2.96614">
        <ele>197.81896972656</ele>
        <time>2016-03-30T13:50:36.000Z</time>
      </trkpt>
      <trkpt lat="47.34555" lon="2.96617">
        <ele>197.69476318359</ele>
        <time>2016-03-30T13:50:39.000Z</time>
      </trkpt>
      <trkpt lat="47.34553" lon="2.96622">
        <ele>197.56915283203</ele>
        <time>2016-03-30T13:50:42.000Z</time>
      </trkpt>
      <trkpt lat="47.34551" lon="2.96623">
        <ele>197.47772216797</ele>
        <time>2016-03-30T13:50:44.000Z</time>
      </trkpt>
      <trkpt lat="47.34549" lon="2.96627">
        <ele>197.38745117188</ele>
        <time>2016-03-30T13:50:47.000Z</time>
      </trkpt>
      <trkpt lat="47.34548" lon="2.9663">
        <ele>197.30908203125</ele>
        <time>2016-03-30T13:50:49.000Z</time>
      </trkpt>
      <trkpt lat="47.34547" lon="2.96635">
        <ele>197.21636962891</ele>
        <time>2016-03-30T13:50:52.000Z</time>
      </trkpt>
      <trkpt lat="47.34546" lon="2.96638">
        <ele>197.13250732422</ele>
        <time>2016-03-30T13:50:54.000Z</time>
      </trkpt>
      <trkpt lat="47.34544" lon="2.96641">
        <ele>197.03332519531</ele>
        <time>2016-03-30T13:50:56.000Z</time>
      </trkpt>
      <trkpt lat="47.34544" lon="2.96646">
        <ele>196.92993164062</ele>
        <time>2016-03-30T13:50:59.000Z</time>
      </trkpt>
      <trkpt lat="47.34542" lon="2.96651">
        <ele>196.81011962891</ele>
        <time>2016-03-30T13:51:02.000Z</time>
      </trkpt>
      <trkpt lat="47.34539" lon="2.96655">
        <ele>196.70513916016</ele>
        <time>2016-03-30T13:51:05.000Z</time>
      </trkpt>
      <trkpt lat="47.34538" lon="2.96658">
        <ele>196.60040283203</ele>
        <time>2016-03-30T13:51:07.000Z</time>
      </trkpt>
      <trkpt lat="47.34536" lon="2.96662">
        <ele>196.49371337891</ele>
        <time>2016-03-30T13:51:10.000Z</time>
      </trkpt>
      <trkpt lat="47.34534" lon="2.96665">
        <ele>196.39624023438</ele>
        <time>2016-03-30T13:51:12.000Z</time>
      </trkpt>
      <trkpt lat="47.34533" lon="2.96671">
        <ele>196.29577636719</ele>
        <time>2016-03-30T13:51:15.000Z</time>
      </trkpt>
      <trkpt lat="47.3453" lon="2.96677">
        <ele>196.17889404297</ele>
        <time>2016-03-30T13:51:18.000Z</time>
      </trkpt>
      <trkpt lat="47.34529" lon="2.96683">
        <ele>196.03564453125</ele>
        <time>2016-03-30T13:51:21.000Z</time>
      </trkpt>
      <trkpt lat="47.34528" lon="2.96689">
        <ele>195.88024902344</ele>
        <time>2016-03-30T13:51:24.000Z</time>
      </trkpt>
      <trkpt lat="47.34528" lon="2.96694">
        <ele>195.70343017578</ele>
        <time>2016-03-30T13:51:27.000Z</time>
      </trkpt>
      <trkpt lat="47.34527" lon="2.967">
        <ele>195.52459716797</ele>
        <time>2016-03-30T13:51:30.000Z</time>
      </trkpt>
      <trkpt lat="47.34526" lon="2.96703">
        <ele>195.36065673828</ele>
        <time>2016-03-30T13:51:32.000Z</time>
      </trkpt>
      <trkpt lat="47.34526" lon="2.96706">
        <ele>195.21008300781</ele>
        <time>2016-03-30T13:51:34.000Z</time>
      </trkpt>
      <trkpt lat="47.34525" lon="2.96712">
        <ele>195.0556640625</ele>
        <time>2016-03-30T13:51:37.000Z</time>
      </trkpt>
      <trkpt lat="47.34525" lon="2.96715">
        <ele>194.919921875</ele>
        <time>2016-03-30T13:51:39.000Z</time>
      </trkpt>
      <trkpt lat="47.34524" lon="2.96718">
        <ele>194.80108642578</ele>
        <time>2016-03-30T13:51:41.000Z</time>
      </trkpt>
      <trkpt lat="47.34524" lon="2.96722">
        <ele>194.67510986328</ele>
        <time>2016-03-30T13:51:44.000Z</time>
      </trkpt>
      <trkpt lat="47.34523" lon="2.96726">
        <ele>194.54357910156</ele>
        <time>2016-03-30T13:51:47.000Z</time>
      </trkpt>
      <trkpt lat="47.34523" lon="2.96731">
        <ele>194.41131591797</ele>
        <time>2016-03-30T13:51:50.000Z</time>
      </trkpt>
      <trkpt lat="47.34524" lon="2.96735">
        <ele>194.26971435547</ele>
        <time>2016-03-30T13:51:52.000Z</time>
      </trkpt>
      <trkpt lat="47.34524" lon="2.96741">
        <ele>194.10272216797</ele>
        <time>2016-03-30T13:51:55.000Z</time>
      </trkpt>
      <trkpt lat="47.34525" lon="2.96745">
        <ele>193.93237304688</ele>
        <time>2016-03-30T13:51:57.000Z</time>
      </trkpt>
      <trkpt lat="47.34525" lon="2.96747">
        <ele>193.7744140625</ele>
        <time>2016-03-30T13:51:59.000Z</time>
      </trkpt>
      <trkpt lat="47.34526" lon="2.96751">
        <ele>193.62826538086</ele>
        <time>2016-03-30T13:52:01.000Z</time>
      </trkpt>
      <trkpt lat="47.34527" lon="2.96754">
        <ele>193.50485229492</ele>
        <time>2016-03-30T13:52:03.000Z</time>
      </trkpt>
      <trkpt lat="47.34527" lon="2.96759">
        <ele>193.42109680176</ele>
        <time>2016-03-30T13:52:06.000Z</time>
      </trkpt>
      <trkpt lat="47.34528" lon="2.96763">
        <ele>193.35977172852</ele>
        <time>2016-03-30T13:52:08.000Z</time>
      </trkpt>
      <trkpt lat="47.34528" lon="2.96769">
        <ele>193.30949401855</ele>
        <time>2016-03-30T13:52:11.000Z</time>
      </trkpt>
      <trkpt lat="47.34528" lon="2.96771">
        <ele>193.28106689453</ele>
        <time>2016-03-30T13:52:13.000Z</time>
      </trkpt>
      <trkpt lat="47.34529" lon="2.96776">
        <ele>193.25283813477</ele>
        <time>2016-03-30T13:52:16.000Z</time>
      </trkpt>
      <trkpt lat="47.34529" lon="2.96782">
        <ele>193.2209777832</ele>
        <time>2016-03-30T13:52:19.000Z</time>
      </trkpt>
      <trkpt lat="47.3453" lon="2.96787">
        <ele>193.18745422363</ele>
        <time>2016-03-30T13:52:22.000Z</time>
      </trkpt>
      <trkpt lat="47.34531" lon="2.96791">
        <ele>193.15730285645</ele>
        <time>2016-03-30T13:52:24.000Z</time>
      </trkpt>
      <trkpt lat="47.34531" lon="2.96793">
        <ele>193.12423706055</ele>
        <time>2016-03-30T13:52:26.000Z</time>
      </trkpt>
      <trkpt lat="47.34531" lon="2.96799">
        <ele>193.08964538574</ele>
        <time>2016-03-30T13:52:29.000Z</time>
      </trkpt>
      <trkpt lat="47.34531" lon="2.96804">
        <ele>193.06309509277</ele>
        <time>2016-03-30T13:52:32.000Z</time>
      </trkpt>
      <trkpt lat="47.34531" lon="2.96807">
        <ele>193.04237365723</ele>
        <time>2016-03-30T13:52:34.000Z</time>
      </trkpt>
      <trkpt lat="47.34531" lon="2.96813">
        <ele>193.01974487305</ele>
        <time>2016-03-30T13:52:37.000Z</time>
      </trkpt>
      <trkpt lat="47.34531" lon="2.96815">
        <ele>193.00283813477</ele>
        <time>2016-03-30T13:52:39.000Z</time>
      </trkpt>
      <trkpt lat="47.34531" lon="2.96819">
        <ele>192.98762512207</ele>
        <time>2016-03-30T13:52:41.000Z</time>
      </trkpt>
      <trkpt lat="47.34531" lon="2.96824">
        <ele>192.96694946289</ele>
        <time>2016-03-30T13:52:44.000Z</time>
      </trkpt>
      <trkpt lat="47.34532" lon="2.9683">
        <ele>192.9409942627</ele>
        <time>2016-03-30T13:52:47.000Z</time>
      </trkpt>
      <trkpt lat="47.34532" lon="2.96835">
        <ele>192.9095916748</ele>
        <time>2016-03-30T13:52:50.000Z</time>
      </trkpt>
      <trkpt lat="47.34532" lon="2.96839">
        <ele>192.86749267578</ele>
        <time>2016-03-30T13:52:53.000Z</time>
      </trkpt>
      <trkpt lat="47.34533" lon="2.96844">
        <ele>192.81233215332</ele>
        <time>2016-03-30T13:52:56.000Z</time>
      </trkpt>
      <trkpt lat="47.34533" lon="2.96849">
        <ele>192.74629211426</ele>
        <time>2016-03-30T13:52:59.000Z</time>
      </trkpt>
      <trkpt lat="47.34533" lon="2.96854">
        <ele>192.67350769043</ele>
        <time>2016-03-30T13:53:02.000Z</time>
      </trkpt>
      <trkpt lat="47.34534" lon="2.96861">
        <ele>192.58633422852</ele>
        <time>2016-03-30T13:53:05.000Z</time>
      </trkpt>
      <trkpt lat="47.34535" lon="2.96866">
        <ele>192.49015808105</ele>
        <time>2016-03-30T13:53:08.000Z</time>
      </trkpt>
      <trkpt lat="47.34536" lon="2.9687">
        <ele>192.39611816406</ele>
        <time>2016-03-30T13:53:11.000Z</time>
      </trkpt>
      <trkpt lat="47.34536" lon="2.96875">
        <ele>192.30255126953</ele>
        <time>2016-03-30T13:53:14.000Z</time>
      </trkpt>
      <trkpt lat="47.34536" lon="2.96881">
        <ele>192.20980834961</ele>
        <time>2016-03-30T13:53:17.000Z</time>
      </trkpt>
      <trkpt lat="47.34537" lon="2.96886">
        <ele>192.12524414062</ele>
        <time>2016-03-30T13:53:20.000Z</time>
      </trkpt>
      <trkpt lat="47.34537" lon="2.96891">
        <ele>192.04733276367</ele>
        <time>2016-03-30T13:53:22.000Z</time>
      </trkpt>
      <trkpt lat="47.34537" lon="2.96896">
        <ele>191.97225952148</ele>
        <time>2016-03-30T13:53:25.000Z</time>
      </trkpt>
      <trkpt lat="47.34538" lon="2.96899">
        <ele>191.90605163574</ele>
        <time>2016-03-30T13:53:27.000Z</time>
      </trkpt>
      <trkpt lat="47.34538" lon="2.96904">
        <ele>191.83897399902</ele>
        <time>2016-03-30T13:53:30.000Z</time>
      </trkpt>
      <trkpt lat="47.34538" lon="2.96908">
        <ele>191.77627563477</ele>
        <time>2016-03-30T13:53:32.000Z</time>
      </trkpt>
      <trkpt lat="47.34539" lon="2.96913">
        <ele>191.71086120605</ele>
        <time>2016-03-30T13:53:35.000Z</time>
      </trkpt>
      <trkpt lat="47.34539" lon="2.96918">
        <ele>191.64077758789</ele>
        <time>2016-03-30T13:53:38.000Z</time>
      </trkpt>
      <trkpt lat="47.34539" lon="2.96923">
        <ele>191.5408782959</ele>
        <time>2016-03-30T13:53:41.000Z</time>
      </trkpt>
      <trkpt lat="47.34539" lon="2.96929">
        <ele>191.41748046875</ele>
        <time>2016-03-30T13:53:44.000Z</time>
      </trkpt>
      <trkpt lat="47.34538" lon="2.96933">
        <ele>191.27938842773</ele>
        <time>2016-03-30T13:53:46.000Z</time>
      </trkpt>
      <trkpt lat="47.34538" lon="2.96937">
        <ele>191.12591552734</ele>
        <time>2016-03-30T13:53:48.000Z</time>
      </trkpt>
      <trkpt lat="47.34538" lon="2.96942">
        <ele>190.95379638672</ele>
        <time>2016-03-30T13:53:51.000Z</time>
      </trkpt>
      <trkpt lat="47.34539" lon="2.96946">
        <ele>190.79107666016</ele>
        <time>2016-03-30T13:53:53.000Z</time>
      </trkpt>
      <trkpt lat="47.34539" lon="2.96951">
        <ele>190.62921142578</ele>
        <time>2016-03-30T13:53:56.000Z</time>
      </trkpt>
      <trkpt lat="47.34539" lon="2.96956">
        <ele>190.46160888672</ele>
        <time>2016-03-30T13:53:59.000Z</time>
      </trkpt>
      <trkpt lat="47.3454" lon="2.9696">
        <ele>190.29132080078</ele>
        <time>2016-03-30T13:54:01.000Z</time>
      </trkpt>
      <trkpt lat="47.34541" lon="2.96965">
        <ele>190.12042236328</ele>
        <time>2016-03-30T13:54:04.000Z</time>
      </trkpt>
      <trkpt lat="47.34542" lon="2.96968">
        <ele>189.95349121094</ele>
        <time>2016-03-30T13:54:06.000Z</time>
      </trkpt>
      <trkpt lat="47.34542" lon="2.96974">
        <ele>189.78009033203</ele>
        <time>2016-03-30T13:54:09.000Z</time>
      </trkpt>
      <trkpt lat="47.34542" lon="2.96979">
        <ele>189.60626220703</ele>
        <time>2016-03-30T13:54:12.000Z</time>
      </trkpt>
      <trkpt lat="47.34543" lon="2.96984">
        <ele>189.42584228516</ele>
        <time>2016-03-30T13:54:15.000Z</time>
      </trkpt>
      <trkpt lat="47.34544" lon="2.96989">
        <ele>189.25061035156</ele>
        <time>2016-03-30T13:54:17.000Z</time>
      </trkpt>
      <trkpt lat="47.34544" lon="2.96994">
        <ele>189.06408691406</ele>
        <time>2016-03-30T13:54:20.000Z</time>
      </trkpt>
      <trkpt lat="47.34544" lon="2.96997">
        <ele>188.8955078125</ele>
        <time>2016-03-30T13:54:22.000Z</time>
      </trkpt>
      <trkpt lat="47.34545" lon="2.97001">
        <ele>188.73623657227</ele>
        <time>2016-03-30T13:54:25.000Z</time>
      </trkpt>
      <trkpt lat="47.34545" lon="2.97005">
        <ele>188.60682678223</ele>
        <time>2016-03-30T13:54:27.000Z</time>
      </trkpt>
      <trkpt lat="47.34545" lon="2.97011">
        <ele>188.49339294434</ele>
        <time>2016-03-30T13:54:30.000Z</time>
      </trkpt>
      <trkpt lat="47.34545" lon="2.97015">
        <ele>188.40768432617</ele>
        <time>2016-03-30T13:54:32.000Z</time>
      </trkpt>
      <trkpt lat="47.34545" lon="2.9702">
        <ele>188.33612060547</ele>
        <time>2016-03-30T13:54:35.000Z</time>
      </trkpt>
      <trkpt lat="47.34546" lon="2.97024">
        <ele>188.27935791016</ele>
        <time>2016-03-30T13:54:37.000Z</time>
      </trkpt>
      <trkpt lat="47.34546" lon="2.97029">
        <ele>188.21807861328</ele>
        <time>2016-03-30T13:54:40.000Z</time>
      </trkpt>
      <trkpt lat="47.34547" lon="2.97032">
        <ele>188.16394042969</ele>
        <time>2016-03-30T13:54:42.000Z</time>
      </trkpt>
      <trkpt lat="47.34547" lon="2.97038">
        <ele>188.10375976562</ele>
        <time>2016-03-30T13:54:45.000Z</time>
      </trkpt>
      <trkpt lat="47.34547" lon="2.97043">
        <ele>188.04345703125</ele>
        <time>2016-03-30T13:54:48.000Z</time>
      </trkpt>
      <trkpt lat="47.34547" lon="2.9705">
        <ele>187.97631835938</ele>
        <time>2016-03-30T13:54:51.000Z</time>
      </trkpt>
      <trkpt lat="47.34548" lon="2.97055">
        <ele>187.90924072266</ele>
        <time>2016-03-30T13:54:54.000Z</time>
      </trkpt>
      <trkpt lat="47.34548" lon="2.97058">
        <ele>187.84466552734</ele>
        <time>2016-03-30T13:54:56.000Z</time>
      </trkpt>
      <trkpt lat="47.34549" lon="2.97064">
        <ele>187.7783203125</ele>
        <time>2016-03-30T13:54:59.000Z</time>
      </trkpt>
      <trkpt lat="47.3455" lon="2.97067">
        <ele>187.71368408203</ele>
        <time>2016-03-30T13:55:01.000Z</time>
      </trkpt>
      <trkpt lat="47.3455" lon="2.97072">
        <ele>187.65374755859</ele>
        <time>2016-03-30T13:55:04.000Z</time>
      </trkpt>
      <trkpt lat="47.3455" lon="2.97076">
        <ele>187.59832763672</ele>
        <time>2016-03-30T13:55:06.000Z</time>
      </trkpt>
      <trkpt lat="47.3455" lon="2.97079">
        <ele>187.5419921875</ele>
        <time>2016-03-30T13:55:08.000Z</time>
      </trkpt>
      <trkpt lat="47.3455" lon="2.97086">
        <ele>187.48439025879</ele>
        <time>2016-03-30T13:55:11.000Z</time>
      </trkpt>
      <trkpt lat="47.34551" lon="2.97089">
        <ele>187.4248046875</ele>
        <time>2016-03-30T13:55:13.000Z</time>
      </trkpt>
      <trkpt lat="47.34552" lon="2.97094">
        <ele>187.35897827148</ele>
        <time>2016-03-30T13:55:16.000Z</time>
      </trkpt>
      <trkpt lat="47.34553" lon="2.97099">
        <ele>187.28274536133</ele>
        <time>2016-03-30T13:55:19.000Z</time>
      </trkpt>
      <trkpt lat="47.34553" lon="2.97105">
        <ele>187.19625854492</ele>
        <time>2016-03-30T13:55:22.000Z</time>
      </trkpt>
      <trkpt lat="47.34553" lon="2.97109">
        <ele>187.1125793457</ele>
        <time>2016-03-30T13:55:24.000Z</time>
      </trkpt>
      <trkpt lat="47.34552" lon="2.97114">
        <ele>187.02673339844</ele>
        <time>2016-03-30T13:55:27.000Z</time>
      </trkpt>
      <trkpt lat="47.34552" lon="2.97118">
        <ele>186.94564819336</ele>
        <time>2016-03-30T13:55:29.000Z</time>
      </trkpt>
      <trkpt lat="47.34553" lon="2.97121">
        <ele>186.87434387207</ele>
        <time>2016-03-30T13:55:31.000Z</time>
      </trkpt>
      <trkpt lat="47.34553" lon="2.97127">
        <ele>186.80249023438</ele>
        <time>2016-03-30T13:55:34.000Z</time>
      </trkpt>
      <trkpt lat="47.34554" lon="2.9713">
        <ele>186.73500061035</ele>
        <time>2016-03-30T13:55:36.000Z</time>
      </trkpt>
      <trkpt lat="47.34553" lon="2.97133">
        <ele>186.67277526855</ele>
        <time>2016-03-30T13:55:38.000Z</time>
      </trkpt>
      <trkpt lat="47.34554" lon="2.97138">
        <ele>186.60707092285</ele>
        <time>2016-03-30T13:55:41.000Z</time>
      </trkpt>
      <trkpt lat="47.34554" lon="2.97142">
        <ele>186.53718566895</ele>
        <time>2016-03-30T13:55:43.000Z</time>
      </trkpt>
      <trkpt lat="47.34554" lon="2.97148">
        <ele>186.4662322998</ele>
        <time>2016-03-30T13:55:46.000Z</time>
      </trkpt>
      <trkpt lat="47.34555" lon="2.97152">
        <ele>186.39295959473</ele>
        <time>2016-03-30T13:55:49.000Z</time>
      </trkpt>
      <trkpt lat="47.34556" lon="2.97158">
        <ele>186.30844116211</ele>
        <time>2016-03-30T13:55:52.000Z</time>
      </trkpt>
      <trkpt lat="47.34556" lon="2.97162">
        <ele>186.23017883301</ele>
        <time>2016-03-30T13:55:54.000Z</time>
      </trkpt>
      <trkpt lat="47.34557" lon="2.97168">
        <ele>186.14715576172</ele>
        <time>2016-03-30T13:55:57.000Z</time>
      </trkpt>
      <trkpt lat="47.34558" lon="2.97173">
        <ele>186.06855773926</ele>
        <time>2016-03-30T13:56:00.000Z</time>
      </trkpt>
      <trkpt lat="47.34558" lon="2.97177">
        <ele>185.98979187012</ele>
        <time>2016-03-30T13:56:02.000Z</time>
      </trkpt>
      <trkpt lat="47.34559" lon="2.97182">
        <ele>185.9156036377</ele>
        <time>2016-03-30T13:56:05.000Z</time>
      </trkpt>
      <trkpt lat="47.34559" lon="2.97187">
        <ele>185.83737182617</ele>
        <time>2016-03-30T13:56:08.000Z</time>
      </trkpt>
      <trkpt lat="47.34559" lon="2.97192">
        <ele>185.76110839844</ele>
        <time>2016-03-30T13:56:11.000Z</time>
      </trkpt>
      <trkpt lat="47.34559" lon="2.97196">
        <ele>185.6895904541</ele>
        <time>2016-03-30T13:56:13.000Z</time>
      </trkpt>
      <trkpt lat="47.34559" lon="2.97201">
        <ele>185.61402893066</ele>
        <time>2016-03-30T13:56:16.000Z</time>
      </trkpt>
      <trkpt lat="47.34559" lon="2.97205">
        <ele>185.54415893555</ele>
        <time>2016-03-30T13:56:18.000Z</time>
      </trkpt>
      <trkpt lat="47.34559" lon="2.97209">
        <ele>185.47537231445</ele>
        <time>2016-03-30T13:56:21.000Z</time>
      </trkpt>
      <trkpt lat="47.34559" lon="2.97213">
        <ele>185.41134643555</ele>
        <time>2016-03-30T13:56:23.000Z</time>
      </trkpt>
      <trkpt lat="47.3456" lon="2.97218">
        <ele>185.34286499023</ele>
        <time>2016-03-30T13:56:26.000Z</time>
      </trkpt>
      <trkpt lat="47.3456" lon="2.97224">
        <ele>185.27337646484</ele>
        <time>2016-03-30T13:56:29.000Z</time>
      </trkpt>
      <trkpt lat="47.34562" lon="2.97229">
        <ele>185.20056152344</ele>
        <time>2016-03-30T13:56:32.000Z</time>
      </trkpt>
      <trkpt lat="47.34562" lon="2.97232">
        <ele>185.13331604004</ele>
        <time>2016-03-30T13:56:34.000Z</time>
      </trkpt>
      <trkpt lat="47.34563" lon="2.97238">
        <ele>185.06330871582</ele>
        <time>2016-03-30T13:56:37.000Z</time>
      </trkpt>
      <trkpt lat="47.34563" lon="2.97244">
        <ele>184.99047851562</ele>
        <time>2016-03-30T13:56:40.000Z</time>
      </trkpt>
      <trkpt lat="47.34563" lon="2.97249">
        <ele>184.92207336426</ele>
        <time>2016-03-30T13:56:42.000Z</time>
      </trkpt>
      <trkpt lat="47.34563" lon="2.97252">
        <ele>184.85876464844</ele>
        <time>2016-03-30T13:56:44.000Z</time>
      </trkpt>
      <trkpt lat="47.34563" lon="2.97258">
        <ele>184.78929138184</ele>
        <time>2016-03-30T13:56:47.000Z</time>
      </trkpt>
      <trkpt lat="47.34563" lon="2.97261">
        <ele>184.72764587402</ele>
        <time>2016-03-30T13:56:49.000Z</time>
      </trkpt>
      <trkpt lat="47.34564" lon="2.97266">
        <ele>184.67549133301</ele>
        <time>2016-03-30T13:56:52.000Z</time>
      </trkpt>
      <trkpt lat="47.34565" lon="2.97269">
        <ele>184.62896728516</ele>
        <time>2016-03-30T13:56:54.000Z</time>
      </trkpt>
      <trkpt lat="47.34565" lon="2.97275">
        <ele>184.57843017578</ele>
        <time>2016-03-30T13:56:57.000Z</time>
      </trkpt>
      <trkpt lat="47.34565" lon="2.97282">
        <ele>184.52612304688</ele>
        <time>2016-03-30T13:57:00.000Z</time>
      </trkpt>
      <trkpt lat="47.34566" lon="2.97284">
        <ele>184.47668457031</ele>
        <time>2016-03-30T13:57:02.000Z</time>
      </trkpt>
      <trkpt lat="47.34566" lon="2.9729">
        <ele>184.42291259766</ele>
        <time>2016-03-30T13:57:05.000Z</time>
      </trkpt>
      <trkpt lat="47.34566" lon="2.97293">
        <ele>184.36901855469</ele>
        <time>2016-03-30T13:57:07.000Z</time>
      </trkpt>
      <trkpt lat="47.34566" lon="2.97296">
        <ele>184.32092285156</ele>
        <time>2016-03-30T13:57:09.000Z</time>
      </trkpt>
      <trkpt lat="47.34566" lon="2.97299">
        <ele>184.28204345703</ele>
        <time>2016-03-30T13:57:11.000Z</time>
      </trkpt>
      <trkpt lat="47.34567" lon="2.97305">
        <ele>184.23577880859</ele>
        <time>2016-03-30T13:57:14.000Z</time>
      </trkpt>
      <trkpt lat="47.34567" lon="2.9731">
        <ele>184.19024658203</ele>
        <time>2016-03-30T13:57:17.000Z</time>
      </trkpt>
      <trkpt lat="47.34567" lon="2.97316">
        <ele>184.13922119141</ele>
        <time>2016-03-30T13:57:20.000Z</time>
      </trkpt>
      <trkpt lat="47.34567" lon="2.97318">
        <ele>184.08807373047</ele>
        <time>2016-03-30T13:57:22.000Z</time>
      </trkpt>
      <trkpt lat="47.34567" lon="2.97325">
        <ele>184.02868652344</ele>
        <time>2016-03-30T13:57:25.000Z</time>
      </trkpt>
      <trkpt lat="47.34567" lon="2.97329">
        <ele>183.97015380859</ele>
        <time>2016-03-30T13:57:27.000Z</time>
      </trkpt>
      <trkpt lat="47.34567" lon="2.97333">
        <ele>183.91589355469</ele>
        <time>2016-03-30T13:57:29.000Z</time>
      </trkpt>
      <trkpt lat="47.34568" lon="2.97338">
        <ele>183.86431884766</ele>
        <time>2016-03-30T13:57:32.000Z</time>
      </trkpt>
      <trkpt lat="47.34569" lon="2.97343">
        <ele>183.80975341797</ele>
        <time>2016-03-30T13:57:35.000Z</time>
      </trkpt>
      <trkpt lat="47.3457" lon="2.97346">
        <ele>183.76446533203</ele>
        <time>2016-03-30T13:57:37.000Z</time>
      </trkpt>
      <trkpt lat="47.3457" lon="2.97349">
        <ele>183.72369384766</ele>
        <time>2016-03-30T13:57:39.000Z</time>
      </trkpt>
      <trkpt lat="47.3457" lon="2.97355">
        <ele>183.67590332031</ele>
        <time>2016-03-30T13:57:42.000Z</time>
      </trkpt>
      <trkpt lat="47.34569" lon="2.9736">
        <ele>183.62585449219</ele>
        <time>2016-03-30T13:57:45.000Z</time>
      </trkpt>
      <trkpt lat="47.34568" lon="2.97365">
        <ele>183.56945800781</ele>
        <time>2016-03-30T13:57:48.000Z</time>
      </trkpt>
      <trkpt lat="47.34566" lon="2.97368">
        <ele>183.50689697266</ele>
        <time>2016-03-30T13:57:50.000Z</time>
      </trkpt>
      <trkpt lat="47.34563" lon="2.97372">
        <ele>183.43701171875</ele>
        <time>2016-03-30T13:57:52.000Z</time>
      </trkpt>
      <trkpt lat="47.34562" lon="2.97375">
        <ele>183.37005615234</ele>
        <time>2016-03-30T13:57:54.000Z</time>
      </trkpt>
      <trkpt lat="47.34559" lon="2.97377">
        <ele>183.30511474609</ele>
        <time>2016-03-30T13:57:56.000Z</time>
      </trkpt>
      <trkpt lat="47.34558" lon="2.97379">
        <ele>183.24713134766</ele>
        <time>2016-03-30T13:57:58.000Z</time>
      </trkpt>
      <trkpt lat="47.34554" lon="2.97382">
        <ele>183.18487548828</ele>
        <time>2016-03-30T13:58:01.000Z</time>
      </trkpt>
      <trkpt lat="47.34552" lon="2.97384">
        <ele>183.12713623047</ele>
        <time>2016-03-30T13:58:03.000Z</time>
      </trkpt>
      <trkpt lat="47.34549" lon="2.97387">
        <ele>183.06811523438</ele>
        <time>2016-03-30T13:58:06.000Z</time>
      </trkpt>
      <trkpt lat="47.34547" lon="2.97389">
        <ele>183.01049804688</ele>
        <time>2016-03-30T13:58:08.000Z</time>
      </trkpt>
      <trkpt lat="47.34544" lon="2.97392">
        <ele>182.94683837891</ele>
        <time>2016-03-30T13:58:11.000Z</time>
      </trkpt>
      <trkpt lat="47.34541" lon="2.97394">
        <ele>182.888671875</ele>
        <time>2016-03-30T13:58:13.000Z</time>
      </trkpt>
      <trkpt lat="47.34538" lon="2.97396">
        <ele>182.82696533203</ele>
        <time>2016-03-30T13:58:16.000Z</time>
      </trkpt>
      <trkpt lat="47.34536" lon="2.97398">
        <ele>182.76940917969</ele>
        <time>2016-03-30T13:58:18.000Z</time>
      </trkpt>
      <trkpt lat="47.34533" lon="2.974">
        <ele>182.70953369141</ele>
        <time>2016-03-30T13:58:21.000Z</time>
      </trkpt>
      <trkpt lat="47.34531" lon="2.97402">
        <ele>182.65344238281</ele>
        <time>2016-03-30T13:58:23.000Z</time>
      </trkpt>
      <trkpt lat="47.34528" lon="2.97405">
        <ele>182.59375</ele>
        <time>2016-03-30T13:58:26.000Z</time>
      </trkpt>
      <trkpt lat="47.34526" lon="2.97407">
        <ele>182.53674316406</ele>
        <time>2016-03-30T13:58:28.000Z</time>
      </trkpt>
      <trkpt lat="47.34521" lon="2.97411">
        <ele>182.46997070312</ele>
        <time>2016-03-30T13:58:31.000Z</time>
      </trkpt>
      <trkpt lat="47.34519" lon="2.97415">
        <ele>182.40026855469</ele>
        <time>2016-03-30T13:58:34.000Z</time>
      </trkpt>
      <trkpt lat="47.34517" lon="2.97417">
        <ele>182.33416748047</ele>
        <time>2016-03-30T13:58:36.000Z</time>
      </trkpt>
      <trkpt lat="47.34514" lon="2.9742">
        <ele>182.26727294922</ele>
        <time>2016-03-30T13:58:39.000Z</time>
      </trkpt>
      <trkpt lat="47.34511" lon="2.97423">
        <ele>182.19445800781</ele>
        <time>2016-03-30T13:58:42.000Z</time>
      </trkpt>
      <trkpt lat="47.3451" lon="2.97425">
        <ele>182.13189697266</ele>
        <time>2016-03-30T13:58:44.000Z</time>
      </trkpt>
      <trkpt lat="47.34506" lon="2.97429">
        <ele>182.06768798828</ele>
        <time>2016-03-30T13:58:47.000Z</time>
      </trkpt>
      <trkpt lat="47.34504" lon="2.97431">
        <ele>182.00262451172</ele>
        <time>2016-03-30T13:58:49.000Z</time>
      </trkpt>
      <trkpt lat="47.34501" lon="2.97435">
        <ele>181.93371582031</ele>
        <time>2016-03-30T13:58:52.000Z</time>
      </trkpt>
      <trkpt lat="47.34499" lon="2.97438">
        <ele>181.8752746582</ele>
        <time>2016-03-30T13:58:54.000Z</time>
      </trkpt>
      <trkpt lat="47.34496" lon="2.9744">
        <ele>181.82597351074</ele>
        <time>2016-03-30T13:58:57.000Z</time>
      </trkpt>
      <trkpt lat="47.34494" lon="2.97442">
        <ele>181.79402160645</ele>
        <time>2016-03-30T13:58:59.000Z</time>
      </trkpt>
      <trkpt lat="47.34491" lon="2.97445">
        <ele>181.7707824707</ele>
        <time>2016-03-30T13:59:02.000Z</time>
      </trkpt>
      <trkpt lat="47.34488" lon="2.97448">
        <ele>181.76696777344</ele>
        <time>2016-03-30T13:59:05.000Z</time>
      </trkpt>
      <trkpt lat="47.34486" lon="2.97449">
        <ele>181.77105712891</ele>
        <time>2016-03-30T13:59:07.000Z</time>
      </trkpt>
      <trkpt lat="47.34483" lon="2.97451">
        <ele>181.77703857422</ele>
        <time>2016-03-30T13:59:10.000Z</time>
      </trkpt>
      <trkpt lat="47.34481" lon="2.97452">
        <ele>181.78283691406</ele>
        <time>2016-03-30T13:59:12.000Z</time>
      </trkpt>
      <trkpt lat="47.34478" lon="2.97455">
        <ele>181.79046630859</ele>
        <time>2016-03-30T13:59:14.000Z</time>
      </trkpt>
      <trkpt lat="47.34475" lon="2.97458">
        <ele>181.79675292969</ele>
        <time>2016-03-30T13:59:17.000Z</time>
      </trkpt>
      <trkpt lat="47.34472" lon="2.9746">
        <ele>181.80328369141</ele>
        <time>2016-03-30T13:59:19.000Z</time>
      </trkpt>
      <trkpt lat="47.3447" lon="2.97462">
        <ele>181.80908203125</ele>
        <time>2016-03-30T13:59:22.000Z</time>
      </trkpt>
      <trkpt lat="47.34466" lon="2.97466">
        <ele>181.81359863281</ele>
        <time>2016-03-30T13:59:25.000Z</time>
      </trkpt>
      <trkpt lat="47.34464" lon="2.97469">
        <ele>181.81341552734</ele>
        <time>2016-03-30T13:59:28.000Z</time>
      </trkpt>
      <trkpt lat="47.34462" lon="2.97472">
        <ele>181.81182861328</ele>
        <time>2016-03-30T13:59:30.000Z</time>
      </trkpt>
      <trkpt lat="47.34458" lon="2.97476">
        <ele>181.80718994141</ele>
        <time>2016-03-30T13:59:33.000Z</time>
      </trkpt>
      <trkpt lat="47.34455" lon="2.97479">
        <ele>181.79992675781</ele>
        <time>2016-03-30T13:59:36.000Z</time>
      </trkpt>
      <trkpt lat="47.34452" lon="2.97483">
        <ele>181.79357910156</ele>
        <time>2016-03-30T13:59:39.000Z</time>
      </trkpt>
      <trkpt lat="47.34449" lon="2.97484">
        <ele>181.79125976562</ele>
        <time>2016-03-30T13:59:41.000Z</time>
      </trkpt>
      <trkpt lat="47.34447" lon="2.97487">
        <ele>181.78997802734</ele>
        <time>2016-03-30T13:59:44.000Z</time>
      </trkpt>
      <trkpt lat="47.34445" lon="2.9749">
        <ele>181.78826904297</ele>
        <time>2016-03-30T13:59:46.000Z</time>
      </trkpt>
      <trkpt lat="47.34441" lon="2.97492">
        <ele>181.79010009766</ele>
        <time>2016-03-30T13:59:49.000Z</time>
      </trkpt>
      <trkpt lat="47.34439" lon="2.97494">
        <ele>181.79254150391</ele>
        <time>2016-03-30T13:59:51.000Z</time>
      </trkpt>
      <trkpt lat="47.34436" lon="2.97497">
        <ele>181.79498291016</ele>
        <time>2016-03-30T13:59:54.000Z</time>
      </trkpt>
      <trkpt lat="47.34433" lon="2.97498">
        <ele>181.80297851562</ele>
        <time>2016-03-30T13:59:57.000Z</time>
      </trkpt>
      <trkpt lat="47.34431" lon="2.97499">
        <ele>181.81365966797</ele>
        <time>2016-03-30T13:59:59.000Z</time>
      </trkpt>
      <trkpt lat="47.34427" lon="2.97501">
        <ele>181.82623291016</ele>
        <time>2016-03-30T14:00:02.000Z</time>
      </trkpt>
      <trkpt lat="47.34425" lon="2.97502">
        <ele>181.84112548828</ele>
        <time>2016-03-30T14:00:04.000Z</time>
      </trkpt>
      <trkpt lat="47.34422" lon="2.97503">
        <ele>181.85986328125</ele>
        <time>2016-03-30T14:00:07.000Z</time>
      </trkpt>
      <trkpt lat="47.34418" lon="2.97504">
        <ele>181.88195800781</ele>
        <time>2016-03-30T14:00:10.000Z</time>
      </trkpt>
      <trkpt lat="47.34413" lon="2.97504">
        <ele>181.92839050293</ele>
        <time>2016-03-30T14:00:13.000Z</time>
      </trkpt>
      <trkpt lat="47.3441" lon="2.97505">
        <ele>181.99160766602</ele>
        <time>2016-03-30T14:00:15.000Z</time>
      </trkpt>
      <trkpt lat="47.3441" lon="2.97506">
        <ele>182.05227661133</ele>
        <time>2016-03-30T14:00:18.000Z</time>
      </trkpt>
      <trkpt lat="47.34407" lon="2.97508">
        <ele>182.11891174316</ele>
        <time>2016-03-30T14:00:21.000Z</time>
      </trkpt>
      <trkpt lat="47.34404" lon="2.97509">
        <ele>182.19934082031</ele>
        <time>2016-03-30T14:00:24.000Z</time>
      </trkpt>
      <trkpt lat="47.34402" lon="2.97508">
        <ele>182.26953125</ele>
        <time>2016-03-30T14:00:26.000Z</time>
      </trkpt>
      <trkpt lat="47.34398" lon="2.97507">
        <ele>182.35461425781</ele>
        <time>2016-03-30T14:00:29.000Z</time>
      </trkpt>
      <trkpt lat="47.34394" lon="2.97506">
        <ele>182.46337890625</ele>
        <time>2016-03-30T14:00:32.000Z</time>
      </trkpt>
      <trkpt lat="47.34392" lon="2.97506">
        <ele>182.58178710938</ele>
        <time>2016-03-30T14:00:34.000Z</time>
      </trkpt>
      <trkpt lat="47.34388" lon="2.97507">
        <ele>182.69934082031</ele>
        <time>2016-03-30T14:00:37.000Z</time>
      </trkpt>
      <trkpt lat="47.34384" lon="2.97508">
        <ele>182.83264160156</ele>
        <time>2016-03-30T14:00:40.000Z</time>
      </trkpt>
      <trkpt lat="47.34381" lon="2.97508">
        <ele>182.95324707031</ele>
        <time>2016-03-30T14:00:42.000Z</time>
      </trkpt>
      <trkpt lat="47.34378" lon="2.97508">
        <ele>183.07012939453</ele>
        <time>2016-03-30T14:00:44.000Z</time>
      </trkpt>
      <trkpt lat="47.34375" lon="2.97507">
        <ele>183.18585205078</ele>
        <time>2016-03-30T14:00:46.000Z</time>
      </trkpt>
      <trkpt lat="47.34373" lon="2.97507">
        <ele>183.29821777344</ele>
        <time>2016-03-30T14:00:49.000Z</time>
      </trkpt>
      <trkpt lat="47.3437" lon="2.97507">
        <ele>183.40307617188</ele>
        <time>2016-03-30T14:00:52.000Z</time>
      </trkpt>
      <trkpt lat="47.34367" lon="2.97507">
        <ele>183.50732421875</ele>
        <time>2016-03-30T14:00:55.000Z</time>
      </trkpt>
      <trkpt lat="47.34364" lon="2.97507">
        <ele>183.60748291016</ele>
        <time>2016-03-30T14:00:57.000Z</time>
      </trkpt>
      <trkpt lat="47.34361" lon="2.97507">
        <ele>183.71160888672</ele>
        <time>2016-03-30T14:01:00.000Z</time>
      </trkpt>
      <trkpt lat="47.34358" lon="2.97508">
        <ele>183.81506347656</ele>
        <time>2016-03-30T14:01:02.000Z</time>
      </trkpt>
      <trkpt lat="47.34354" lon="2.97508">
        <ele>183.92547607422</ele>
        <time>2016-03-30T14:01:05.000Z</time>
      </trkpt>
      <trkpt lat="47.34351" lon="2.97508">
        <ele>184.03082275391</ele>
        <time>2016-03-30T14:01:08.000Z</time>
      </trkpt>
      <trkpt lat="47.34349" lon="2.97508">
        <ele>184.13696289062</ele>
        <time>2016-03-30T14:01:10.000Z</time>
      </trkpt>
      <trkpt lat="47.34347" lon="2.97509">
        <ele>184.2333984375</ele>
        <time>2016-03-30T14:01:12.000Z</time>
      </trkpt>
      <trkpt lat="47.34342" lon="2.9751">
        <ele>184.34545898438</ele>
        <time>2016-03-30T14:01:15.000Z</time>
      </trkpt>
      <trkpt lat="47.34339" lon="2.9751">
        <ele>184.44903564453</ele>
        <time>2016-03-30T14:01:17.000Z</time>
      </trkpt>
      <trkpt lat="47.34335" lon="2.97511">
        <ele>184.56311035156</ele>
        <time>2016-03-30T14:01:20.000Z</time>
      </trkpt>
      <trkpt lat="47.34332" lon="2.97512">
        <ele>184.66737365723</ele>
        <time>2016-03-30T14:01:22.000Z</time>
      </trkpt>
      <trkpt lat="47.34328" lon="2.97514">
        <ele>184.75241088867</ele>
        <time>2016-03-30T14:01:25.000Z</time>
      </trkpt>
      <trkpt lat="47.34325" lon="2.97516">
        <ele>184.80142211914</ele>
        <time>2016-03-30T14:01:28.000Z</time>
      </trkpt>
      <trkpt lat="47.34321" lon="2.97518">
        <ele>184.82218933105</ele>
        <time>2016-03-30T14:01:31.000Z</time>
      </trkpt>
      <trkpt lat="47.34318" lon="2.97519">
        <ele>184.81109619141</ele>
        <time>2016-03-30T14:01:34.000Z</time>
      </trkpt>
      <trkpt lat="47.34315" lon="2.97522">
        <ele>184.78698730469</ele>
        <time>2016-03-30T14:01:37.000Z</time>
      </trkpt>
      <trkpt lat="47.34314" lon="2.97523">
        <ele>184.76550292969</ele>
        <time>2016-03-30T14:01:39.000Z</time>
      </trkpt>
      <trkpt lat="47.34311" lon="2.97526">
        <ele>184.74096679688</ele>
        <time>2016-03-30T14:01:42.000Z</time>
      </trkpt>
      <trkpt lat="47.34307" lon="2.97528">
        <ele>184.71722412109</ele>
        <time>2016-03-30T14:01:45.000Z</time>
      </trkpt>
      <trkpt lat="47.34306" lon="2.97529">
        <ele>184.69439697266</ele>
        <time>2016-03-30T14:01:47.000Z</time>
      </trkpt>
      <trkpt lat="47.34301" lon="2.97532">
        <ele>184.66943359375</ele>
        <time>2016-03-30T14:01:50.000Z</time>
      </trkpt>
      <trkpt lat="47.34299" lon="2.97533">
        <ele>184.64440917969</ele>
        <time>2016-03-30T14:01:52.000Z</time>
      </trkpt>
      <trkpt lat="47.34296" lon="2.97536">
        <ele>184.62078857422</ele>
        <time>2016-03-30T14:01:55.000Z</time>
      </trkpt>
      <trkpt lat="47.34294" lon="2.97537">
        <ele>184.59826660156</ele>
        <time>2016-03-30T14:01:57.000Z</time>
      </trkpt>
      <trkpt lat="47.34291" lon="2.97538">
        <ele>184.57543945312</ele>
        <time>2016-03-30T14:02:00.000Z</time>
      </trkpt>
      <trkpt lat="47.34289" lon="2.9754">
        <ele>184.55682373047</ele>
        <time>2016-03-30T14:02:02.000Z</time>
      </trkpt>
      <trkpt lat="47.34285" lon="2.97544">
        <ele>184.53186035156</ele>
        <time>2016-03-30T14:02:05.000Z</time>
      </trkpt>
      <trkpt lat="47.34282" lon="2.97548">
        <ele>184.50201416016</ele>
        <time>2016-03-30T14:02:08.000Z</time>
      </trkpt>
      <trkpt lat="47.3428" lon="2.9755">
        <ele>184.47204589844</ele>
        <time>2016-03-30T14:02:10.000Z</time>
      </trkpt>
      <trkpt lat="47.34277" lon="2.97552">
        <ele>184.43957519531</ele>
        <time>2016-03-30T14:02:13.000Z</time>
      </trkpt>
      <trkpt lat="47.34275" lon="2.97554">
        <ele>184.40673828125</ele>
        <time>2016-03-30T14:02:15.000Z</time>
      </trkpt>
      <trkpt lat="47.34273" lon="2.97557">
        <ele>184.375</ele>
        <time>2016-03-30T14:02:18.000Z</time>
      </trkpt>
      <trkpt lat="47.34269" lon="2.9756">
        <ele>184.34643554688</ele>
        <time>2016-03-30T14:02:21.000Z</time>
      </trkpt>
      <trkpt lat="47.34265" lon="2.97563">
        <ele>184.31402587891</ele>
        <time>2016-03-30T14:02:24.000Z</time>
      </trkpt>
      <trkpt lat="47.34263" lon="2.97564">
        <ele>184.28472900391</ele>
        <time>2016-03-30T14:02:26.000Z</time>
      </trkpt>
      <trkpt lat="47.34261" lon="2.97566">
        <ele>184.25592041016</ele>
        <time>2016-03-30T14:02:28.000Z</time>
      </trkpt>
      <trkpt lat="47.34257" lon="2.97569">
        <ele>184.22802734375</ele>
        <time>2016-03-30T14:02:31.000Z</time>
      </trkpt>
      <trkpt lat="47.34254" lon="2.97571">
        <ele>184.20129394531</ele>
        <time>2016-03-30T14:02:34.000Z</time>
      </trkpt>
      <trkpt lat="47.34253" lon="2.97573">
        <ele>184.17864990234</ele>
        <time>2016-03-30T14:02:36.000Z</time>
      </trkpt>
      <trkpt lat="47.3425" lon="2.97576">
        <ele>184.14993286133</ele>
        <time>2016-03-30T14:02:39.000Z</time>
      </trkpt>
      <trkpt lat="47.34247" lon="2.97578">
        <ele>184.10697937012</ele>
        <time>2016-03-30T14:02:41.000Z</time>
      </trkpt>
      <trkpt lat="47.34246" lon="2.9758">
        <ele>184.0577545166</ele>
        <time>2016-03-30T14:02:43.000Z</time>
      </trkpt>
      <trkpt lat="47.34243" lon="2.97583">
        <ele>183.99392700195</ele>
        <time>2016-03-30T14:02:46.000Z</time>
      </trkpt>
      <trkpt lat="47.34241" lon="2.97585">
        <ele>183.92155456543</ele>
        <time>2016-03-30T14:02:48.000Z</time>
      </trkpt>
      <trkpt lat="47.34238" lon="2.97588">
        <ele>183.83352661133</ele>
        <time>2016-03-30T14:02:51.000Z</time>
      </trkpt>
      <trkpt lat="47.34235" lon="2.97591">
        <ele>183.74172973633</ele>
        <time>2016-03-30T14:02:54.000Z</time>
      </trkpt>
      <trkpt lat="47.34232" lon="2.97593">
        <ele>183.64007568359</ele>
        <time>2016-03-30T14:02:57.000Z</time>
      </trkpt>
      <trkpt lat="47.34229" lon="2.97596">
        <ele>183.53637695312</ele>
        <time>2016-03-30T14:03:00.000Z</time>
      </trkpt>
      <trkpt lat="47.34226" lon="2.97598">
        <ele>183.42057800293</ele>
        <time>2016-03-30T14:03:03.000Z</time>
      </trkpt>
      <trkpt lat="47.34222" lon="2.97601">
        <ele>183.30157470703</ele>
        <time>2016-03-30T14:03:06.000Z</time>
      </trkpt>
      <trkpt lat="47.34219" lon="2.97604">
        <ele>183.17964172363</ele>
        <time>2016-03-30T14:03:09.000Z</time>
      </trkpt>
      <trkpt lat="47.34217" lon="2.97606">
        <ele>183.06448364258</ele>
        <time>2016-03-30T14:03:11.000Z</time>
      </trkpt>
      <trkpt lat="47.34216" lon="2.97609">
        <ele>182.95143127441</ele>
        <time>2016-03-30T14:03:14.000Z</time>
      </trkpt>
      <trkpt lat="47.34213" lon="2.97611">
        <ele>182.8388671875</ele>
        <time>2016-03-30T14:03:17.000Z</time>
      </trkpt>
      <trkpt lat="47.34211" lon="2.97614">
        <ele>182.73292541504</ele>
        <time>2016-03-30T14:03:20.000Z</time>
      </trkpt>
      <trkpt lat="47.34209" lon="2.97616">
        <ele>182.6333770752</ele>
        <time>2016-03-30T14:03:22.000Z</time>
      </trkpt>
      <trkpt lat="47.34208" lon="2.97617">
        <ele>182.53854370117</ele>
        <time>2016-03-30T14:03:25.000Z</time>
      </trkpt>
      <trkpt lat="47.34208" lon="2.97617">
        <ele>182.53854370117</ele>
        <time>2016-03-30T14:03:45.000Z</time>
      </trkpt>
      <trkpt lat="47.34206" lon="2.97617">
        <ele>182.45710754395</ele>
        <time>2016-03-30T14:04:14.000Z</time>
      </trkpt>
      <trkpt lat="47.34206" lon="2.97617">
        <ele>182.45710754395</ele>
        <time>2016-03-30T14:04:34.000Z</time>
      </trkpt>
      <trkpt lat="47.34205" lon="2.97617">
        <ele>182.39057922363</ele>
        <time>2016-03-30T14:04:45.000Z</time>
      </trkpt>
      <trkpt lat="47.34206" lon="2.97619">
        <ele>182.34429931641</ele>
        <time>2016-03-30T14:04:55.000Z</time>
      </trkpt>
      <trkpt lat="47.34205" lon="2.9762">
        <ele>182.30589294434</ele>
        <time>2016-03-30T14:05:08.000Z</time>
      </trkpt>
      <trkpt lat="47.34203" lon="2.97621">
        <ele>182.26504516602</ele>
        <time>2016-03-30T14:05:21.000Z</time>
      </trkpt>
      <trkpt lat="47.34202" lon="2.97622">
        <ele>182.21911621094</ele>
        <time>2016-03-30T14:05:23.000Z</time>
      </trkpt>
      <trkpt lat="47.34198" lon="2.97622">
        <ele>182.16165161133</ele>
        <time>2016-03-30T14:05:26.000Z</time>
      </trkpt>
      <trkpt lat="47.34197" lon="2.97623">
        <ele>182.09591674805</ele>
        <time>2016-03-30T14:05:28.000Z</time>
      </trkpt>
      <trkpt lat="47.34195" lon="2.97623">
        <ele>182.02655029297</ele>
        <time>2016-03-30T14:05:31.000Z</time>
      </trkpt>
      <trkpt lat="47.34194" lon="2.97623">
        <ele>181.9662322998</ele>
        <time>2016-03-30T14:05:33.000Z</time>
      </trkpt>
      <trkpt lat="47.34194" lon="2.97622">
        <ele>181.92207336426</ele>
        <time>2016-03-30T14:05:39.000Z</time>
      </trkpt>
      <trkpt lat="47.34193" lon="2.97619">
        <ele>181.90132141113</ele>
        <time>2016-03-30T14:05:42.000Z</time>
      </trkpt>
      <trkpt lat="47.34192" lon="2.97616">
        <ele>181.89872741699</ele>
        <time>2016-03-30T14:05:45.000Z</time>
      </trkpt>
      <trkpt lat="47.34191" lon="2.97613">
        <ele>181.91632080078</ele>
        <time>2016-03-30T14:05:47.000Z</time>
      </trkpt>
      <trkpt lat="47.34191" lon="2.97608">
        <ele>181.95764160156</ele>
        <time>2016-03-30T14:05:50.000Z</time>
      </trkpt>
      <trkpt lat="47.34191" lon="2.97605">
        <ele>182.00624084473</ele>
        <time>2016-03-30T14:05:52.000Z</time>
      </trkpt>
      <trkpt lat="47.34191" lon="2.976">
        <ele>182.07562255859</ele>
        <time>2016-03-30T14:05:55.000Z</time>
      </trkpt>
      <trkpt lat="47.34191" lon="2.97595">
        <ele>182.15431213379</ele>
        <time>2016-03-30T14:05:57.000Z</time>
      </trkpt>
      <trkpt lat="47.34191" lon="2.97592">
        <ele>182.23861694336</ele>
        <time>2016-03-30T14:05:59.000Z</time>
      </trkpt>
      <trkpt lat="47.3419" lon="2.97588">
        <ele>182.31686401367</ele>
        <time>2016-03-30T14:06:02.000Z</time>
      </trkpt>
      <trkpt lat="47.3419" lon="2.97586">
        <ele>182.3943939209</ele>
        <time>2016-03-30T14:06:04.000Z</time>
      </trkpt>
      <trkpt lat="47.3419" lon="2.9758">
        <ele>182.46255493164</ele>
        <time>2016-03-30T14:06:07.000Z</time>
      </trkpt>
      <trkpt lat="47.34189" lon="2.97577">
        <ele>182.51690673828</ele>
        <time>2016-03-30T14:06:09.000Z</time>
      </trkpt>
      <trkpt lat="47.34188" lon="2.97573">
        <ele>182.56645202637</ele>
        <time>2016-03-30T14:06:11.000Z</time>
      </trkpt>
      <trkpt lat="47.34188" lon="2.97568">
        <ele>182.61317443848</ele>
        <time>2016-03-30T14:06:14.000Z</time>
      </trkpt>
      <trkpt lat="47.34188" lon="2.97566">
        <ele>182.65191650391</ele>
        <time>2016-03-30T14:06:16.000Z</time>
      </trkpt>
      <trkpt lat="47.34187" lon="2.97562">
        <ele>182.68438720703</ele>
        <time>2016-03-30T14:06:20.000Z</time>
      </trkpt>
      <trkpt lat="47.34187" lon="2.97558">
        <ele>182.72039794922</ele>
        <time>2016-03-30T14:06:21.000Z</time>
      </trkpt>
      <trkpt lat="47.34187" lon="2.97552">
        <ele>182.76141357422</ele>
        <time>2016-03-30T14:06:24.000Z</time>
      </trkpt>
      <trkpt lat="47.34187" lon="2.9755">
        <ele>182.79888916016</ele>
        <time>2016-03-30T14:06:26.000Z</time>
      </trkpt>
      <trkpt lat="47.34187" lon="2.97545">
        <ele>182.84344482422</ele>
        <time>2016-03-30T14:06:29.000Z</time>
      </trkpt>
      <trkpt lat="47.34186" lon="2.97541">
        <ele>182.88879394531</ele>
        <time>2016-03-30T14:06:32.000Z</time>
      </trkpt>
      <trkpt lat="47.34187" lon="2.97537">
        <ele>182.93609619141</ele>
        <time>2016-03-30T14:06:35.000Z</time>
      </trkpt>
      <trkpt lat="47.34187" lon="2.97532">
        <ele>182.98419189453</ele>
        <time>2016-03-30T14:06:38.000Z</time>
      </trkpt>
      <trkpt lat="47.34186" lon="2.97526">
        <ele>183.03955078125</ele>
        <time>2016-03-30T14:06:41.000Z</time>
      </trkpt>
      <trkpt lat="47.34186" lon="2.97523">
        <ele>183.09240722656</ele>
        <time>2016-03-30T14:06:43.000Z</time>
      </trkpt>
      <trkpt lat="47.34186" lon="2.97518">
        <ele>183.14660644531</ele>
        <time>2016-03-30T14:06:46.000Z</time>
      </trkpt>
      <trkpt lat="47.34186" lon="2.97516">
        <ele>183.19409179688</ele>
        <time>2016-03-30T14:06:48.000Z</time>
      </trkpt>
      <trkpt lat="47.34185" lon="2.97512">
        <ele>183.236328125</ele>
        <time>2016-03-30T14:06:51.000Z</time>
      </trkpt>
      <trkpt lat="47.34185" lon="2.97507">
        <ele>183.27429199219</ele>
        <time>2016-03-30T14:06:54.000Z</time>
      </trkpt>
      <trkpt lat="47.34185" lon="2.97504">
        <ele>183.31372070312</ele>
        <time>2016-03-30T14:06:56.000Z</time>
      </trkpt>
      <trkpt lat="47.34185" lon="2.97499">
        <ele>183.35690307617</ele>
        <time>2016-03-30T14:06:59.000Z</time>
      </trkpt>
      <trkpt lat="47.34186" lon="2.97493">
        <ele>183.42509460449</ele>
        <time>2016-03-30T14:07:02.000Z</time>
      </trkpt>
      <trkpt lat="47.34187" lon="2.97489">
        <ele>183.5065612793</ele>
        <time>2016-03-30T14:07:05.000Z</time>
      </trkpt>
      <trkpt lat="47.34186" lon="2.97485">
        <ele>183.5927734375</ele>
        <time>2016-03-30T14:07:07.000Z</time>
      </trkpt>
      <trkpt lat="47.34187" lon="2.97479">
        <ele>183.69621276855</ele>
        <time>2016-03-30T14:07:10.000Z</time>
      </trkpt>
      <trkpt lat="47.34187" lon="2.97477">
        <ele>183.79937744141</ele>
        <time>2016-03-30T14:07:12.000Z</time>
      </trkpt>
      <trkpt lat="47.34187" lon="2.97472">
        <ele>183.89001464844</ele>
        <time>2016-03-30T14:07:14.000Z</time>
      </trkpt>
      <trkpt lat="47.34186" lon="2.97468">
        <ele>183.97817993164</ele>
        <time>2016-03-30T14:07:17.000Z</time>
      </trkpt>
      <trkpt lat="47.34185" lon="2.97464">
        <ele>184.06640625</ele>
        <time>2016-03-30T14:07:20.000Z</time>
      </trkpt>
      <trkpt lat="47.34185" lon="2.9746">
        <ele>184.14151000977</ele>
        <time>2016-03-30T14:07:22.000Z</time>
      </trkpt>
      <trkpt lat="47.34184" lon="2.97456">
        <ele>184.21792602539</ele>
        <time>2016-03-30T14:07:24.000Z</time>
      </trkpt>
      <trkpt lat="47.34184" lon="2.97451">
        <ele>184.29724121094</ele>
        <time>2016-03-30T14:07:27.000Z</time>
      </trkpt>
      <trkpt lat="47.34184" lon="2.97448">
        <ele>184.37159729004</ele>
        <time>2016-03-30T14:07:29.000Z</time>
      </trkpt>
      <trkpt lat="47.34184" lon="2.97445">
        <ele>184.44580078125</ele>
        <time>2016-03-30T14:07:31.000Z</time>
      </trkpt>
      <trkpt lat="47.34184" lon="2.97441">
        <ele>184.5256652832</ele>
        <time>2016-03-30T14:07:33.000Z</time>
      </trkpt>
      <trkpt lat="47.34183" lon="2.97436">
        <ele>184.61013793945</ele>
        <time>2016-03-30T14:07:36.000Z</time>
      </trkpt>
      <trkpt lat="47.34183" lon="2.97433">
        <ele>184.68632507324</ele>
        <time>2016-03-30T14:07:38.000Z</time>
      </trkpt>
      <trkpt lat="47.34184" lon="2.97429">
        <ele>184.76889038086</ele>
        <time>2016-03-30T14:07:41.000Z</time>
      </trkpt>
      <trkpt lat="47.34184" lon="2.97425">
        <ele>184.85348510742</ele>
        <time>2016-03-30T14:07:43.000Z</time>
      </trkpt>
      <trkpt lat="47.34183" lon="2.9742">
        <ele>184.94096374512</ele>
        <time>2016-03-30T14:07:46.000Z</time>
      </trkpt>
      <trkpt lat="47.34183" lon="2.97414">
        <ele>185.03688049316</ele>
        <time>2016-03-30T14:07:49.000Z</time>
      </trkpt>
      <trkpt lat="47.34183" lon="2.97409">
        <ele>185.14793395996</ele>
        <time>2016-03-30T14:07:52.000Z</time>
      </trkpt>
      <trkpt lat="47.34183" lon="2.97406">
        <ele>185.25369262695</ele>
        <time>2016-03-30T14:07:54.000Z</time>
      </trkpt>
      <trkpt lat="47.34182" lon="2.97401">
        <ele>185.37451171875</ele>
        <time>2016-03-30T14:07:57.000Z</time>
      </trkpt>
      <trkpt lat="47.34182" lon="2.97397">
        <ele>185.49172973633</ele>
        <time>2016-03-30T14:07:59.000Z</time>
      </trkpt>
      <trkpt lat="47.34182" lon="2.97395">
        <ele>185.59283447266</ele>
        <time>2016-03-30T14:08:01.000Z</time>
      </trkpt>
      <trkpt lat="47.34182" lon="2.97392">
        <ele>185.68435668945</ele>
        <time>2016-03-30T14:08:03.000Z</time>
      </trkpt>
      <trkpt lat="47.34181" lon="2.97387">
        <ele>185.78918457031</ele>
        <time>2016-03-30T14:08:06.000Z</time>
      </trkpt>
      <trkpt lat="47.34181" lon="2.97382">
        <ele>185.88945007324</ele>
        <time>2016-03-30T14:08:09.000Z</time>
      </trkpt>
      <trkpt lat="47.34181" lon="2.97378">
        <ele>185.99703979492</ele>
        <time>2016-03-30T14:08:12.000Z</time>
      </trkpt>
      <trkpt lat="47.3418" lon="2.97373">
        <ele>186.11985778809</ele>
        <time>2016-03-30T14:08:15.000Z</time>
      </trkpt>
      <trkpt lat="47.34179" lon="2.9737">
        <ele>186.25068664551</ele>
        <time>2016-03-30T14:08:17.000Z</time>
      </trkpt>
      <trkpt lat="47.34178" lon="2.97364">
        <ele>186.39277648926</ele>
        <time>2016-03-30T14:08:20.000Z</time>
      </trkpt>
      <trkpt lat="47.34176" lon="2.9736">
        <ele>186.53602600098</ele>
        <time>2016-03-30T14:08:23.000Z</time>
      </trkpt>
      <trkpt lat="47.34175" lon="2.97355">
        <ele>186.69229125977</ele>
        <time>2016-03-30T14:08:26.000Z</time>
      </trkpt>
      <trkpt lat="47.34175" lon="2.9735">
        <ele>186.85177612305</ele>
        <time>2016-03-30T14:08:29.000Z</time>
      </trkpt>
      <trkpt lat="47.34175" lon="2.97344">
        <ele>187.02153015137</ele>
        <time>2016-03-30T14:08:32.000Z</time>
      </trkpt>
      <trkpt lat="47.34175" lon="2.97339">
        <ele>187.18463134766</ele>
        <time>2016-03-30T14:08:34.000Z</time>
      </trkpt>
      <trkpt lat="47.34175" lon="2.97332">
        <ele>187.35891723633</ele>
        <time>2016-03-30T14:08:37.000Z</time>
      </trkpt>
      <trkpt lat="47.34174" lon="2.97327">
        <ele>187.49983215332</ele>
        <time>2016-03-30T14:08:40.000Z</time>
      </trkpt>
      <trkpt lat="47.34174" lon="2.97324">
        <ele>187.61178588867</ele>
        <time>2016-03-30T14:08:42.000Z</time>
      </trkpt>
      <trkpt lat="47.34174" lon="2.97318">
        <ele>187.69184875488</ele>
        <time>2016-03-30T14:08:45.000Z</time>
      </trkpt>
      <trkpt lat="47.34175" lon="2.97312">
        <ele>187.7395324707</ele>
        <time>2016-03-30T14:08:48.000Z</time>
      </trkpt>
      <trkpt lat="47.34175" lon="2.97308">
        <ele>187.75094604492</ele>
        <time>2016-03-30T14:08:51.000Z</time>
      </trkpt>
      <trkpt lat="47.34175" lon="2.97304">
        <ele>187.75889587402</ele>
        <time>2016-03-30T14:08:54.000Z</time>
      </trkpt>
      <trkpt lat="47.34175" lon="2.97299">
        <ele>187.76565551758</ele>
        <time>2016-03-30T14:08:56.000Z</time>
      </trkpt>
      <trkpt lat="47.34175" lon="2.97295">
        <ele>187.77197265625</ele>
        <time>2016-03-30T14:08:58.000Z</time>
      </trkpt>
      <trkpt lat="47.34174" lon="2.97291">
        <ele>187.78598022461</ele>
        <time>2016-03-30T14:09:01.000Z</time>
      </trkpt>
      <trkpt lat="47.34172" lon="2.97289">
        <ele>187.80813598633</ele>
        <time>2016-03-30T14:09:03.000Z</time>
      </trkpt>
      <trkpt lat="47.34169" lon="2.97287">
        <ele>187.84210205078</ele>
        <time>2016-03-30T14:09:06.000Z</time>
      </trkpt>
      <trkpt lat="47.34167" lon="2.97286">
        <ele>187.88510131836</ele>
        <time>2016-03-30T14:09:08.000Z</time>
      </trkpt>
      <trkpt lat="47.34164" lon="2.97284">
        <ele>187.92784118652</ele>
        <time>2016-03-30T14:09:11.000Z</time>
      </trkpt>
      <trkpt lat="47.34161" lon="2.97281">
        <ele>187.96258544922</ele>
        <time>2016-03-30T14:09:14.000Z</time>
      </trkpt>
      <trkpt lat="47.34158" lon="2.97279">
        <ele>187.98709106445</ele>
        <time>2016-03-30T14:09:17.000Z</time>
      </trkpt>
      <trkpt lat="47.34157" lon="2.97278">
        <ele>187.9981842041</ele>
        <time>2016-03-30T14:09:19.000Z</time>
      </trkpt>
      <trkpt lat="47.34154" lon="2.97274">
        <ele>188</ele>
        <time>2016-03-30T14:09:22.000Z</time>
      </trkpt>
      <trkpt lat="47.34151" lon="2.97272">
        <ele>188</ele>
        <time>2016-03-30T14:09:24.000Z</time>
      </trkpt>
      <trkpt lat="47.34147" lon="2.97268">
        <ele>188</ele>
        <time>2016-03-30T14:09:27.000Z</time>
      </trkpt>
      <trkpt lat="47.34143" lon="2.97265">
        <ele>188</ele>
        <time>2016-03-30T14:09:30.000Z</time>
      </trkpt>
      <trkpt lat="47.34141" lon="2.97264">
        <ele>188</ele>
        <time>2016-03-30T14:09:32.000Z</time>
      </trkpt>
      <trkpt lat="47.34138" lon="2.97262">
        <ele>188</ele>
        <time>2016-03-30T14:09:35.000Z</time>
      </trkpt>
      <trkpt lat="47.34135" lon="2.9726">
        <ele>188</ele>
        <time>2016-03-30T14:09:37.000Z</time>
      </trkpt>
      <trkpt lat="47.34132" lon="2.97258">
        <ele>188</ele>
        <time>2016-03-30T14:09:40.000Z</time>
      </trkpt>
      <trkpt lat="47.3413" lon="2.97256">
        <ele>188</ele>
        <time>2016-03-30T14:09:42.000Z</time>
      </trkpt>
      <trkpt lat="47.34127" lon="2.97254">
        <ele>188</ele>
        <time>2016-03-30T14:09:45.000Z</time>
      </trkpt>
      <trkpt lat="47.34124" lon="2.97253">
        <ele>188</ele>
        <time>2016-03-30T14:09:47.000Z</time>
      </trkpt>
      <trkpt lat="47.34122" lon="2.9725">
        <ele>188</ele>
        <time>2016-03-30T14:09:51.000Z</time>
      </trkpt>
      <trkpt lat="47.3412" lon="2.97248">
        <ele>188</ele>
        <time>2016-03-30T14:09:52.000Z</time>
      </trkpt>
      <trkpt lat="47.34117" lon="2.97246">
        <ele>188</ele>
        <time>2016-03-30T14:09:55.000Z</time>
      </trkpt>
      <trkpt lat="47.34115" lon="2.97244">
        <ele>188</ele>
        <time>2016-03-30T14:09:57.000Z</time>
      </trkpt>
      <trkpt lat="47.34112" lon="2.97241">
        <ele>188</ele>
        <time>2016-03-30T14:10:00.000Z</time>
      </trkpt>
      <trkpt lat="47.34108" lon="2.97239">
        <ele>188</ele>
        <time>2016-03-30T14:10:03.000Z</time>
      </trkpt>
      <trkpt lat="47.34106" lon="2.97236">
        <ele>188</ele>
        <time>2016-03-30T14:10:05.000Z</time>
      </trkpt>
      <trkpt lat="47.34101" lon="2.97232">
        <ele>188</ele>
        <time>2016-03-30T14:10:08.000Z</time>
      </trkpt>
      <trkpt lat="47.34099" lon="2.9723">
        <ele>188</ele>
        <time>2016-03-30T14:10:11.000Z</time>
      </trkpt>
      <trkpt lat="47.34095" lon="2.97227">
        <ele>188</ele>
        <time>2016-03-30T14:10:14.000Z</time>
      </trkpt>
      <trkpt lat="47.34093" lon="2.97226">
        <ele>188</ele>
        <time>2016-03-30T14:10:16.000Z</time>
      </trkpt>
      <trkpt lat="47.3409" lon="2.97224">
        <ele>188</ele>
        <time>2016-03-30T14:10:19.000Z</time>
      </trkpt>
      <trkpt lat="47.34087" lon="2.97223">
        <ele>188</ele>
        <time>2016-03-30T14:10:21.000Z</time>
      </trkpt>
      <trkpt lat="47.34084" lon="2.97219">
        <ele>188</ele>
        <time>2016-03-30T14:10:24.000Z</time>
      </trkpt>
      <trkpt lat="47.34081" lon="2.97216">
        <ele>187.99032592773</ele>
        <time>2016-03-30T14:10:26.000Z</time>
      </trkpt>
      <trkpt lat="47.34077" lon="2.97214">
        <ele>187.96705627441</ele>
        <time>2016-03-30T14:10:29.000Z</time>
      </trkpt>
      <trkpt lat="47.34075" lon="2.97212">
        <ele>187.93650817871</ele>
        <time>2016-03-30T14:10:31.000Z</time>
      </trkpt>
      <trkpt lat="47.34072" lon="2.9721">
        <ele>187.89601135254</ele>
        <time>2016-03-30T14:10:34.000Z</time>
      </trkpt>
      <trkpt lat="47.34069" lon="2.97208">
        <ele>187.84613037109</ele>
        <time>2016-03-30T14:10:36.000Z</time>
      </trkpt>
      <trkpt lat="47.34066" lon="2.97205">
        <ele>187.79707336426</ele>
        <time>2016-03-30T14:10:39.000Z</time>
      </trkpt>
      <trkpt lat="47.34063" lon="2.97202">
        <ele>187.75035095215</ele>
        <time>2016-03-30T14:10:42.000Z</time>
      </trkpt>
      <trkpt lat="47.3406" lon="2.97199">
        <ele>187.70169067383</ele>
        <time>2016-03-30T14:10:45.000Z</time>
      </trkpt>
      <trkpt lat="47.34058" lon="2.97198">
        <ele>187.65745544434</ele>
        <time>2016-03-30T14:10:47.000Z</time>
      </trkpt>
      <trkpt lat="47.34054" lon="2.97195">
        <ele>187.6141204834</ele>
        <time>2016-03-30T14:10:50.000Z</time>
      </trkpt>
      <trkpt lat="47.34051" lon="2.97192">
        <ele>187.57205200195</ele>
        <time>2016-03-30T14:10:53.000Z</time>
      </trkpt>
      <trkpt lat="47.34047" lon="2.97189">
        <ele>187.53329467773</ele>
        <time>2016-03-30T14:10:56.000Z</time>
      </trkpt>
      <trkpt lat="47.34045" lon="2.97186">
        <ele>187.49781799316</ele>
        <time>2016-03-30T14:10:58.000Z</time>
      </trkpt>
      <trkpt lat="47.34041" lon="2.97183">
        <ele>187.46206665039</ele>
        <time>2016-03-30T14:11:01.000Z</time>
      </trkpt>
      <trkpt lat="47.34038" lon="2.9718">
        <ele>187.4281463623</ele>
        <time>2016-03-30T14:11:04.000Z</time>
      </trkpt>
      <trkpt lat="47.34034" lon="2.97177">
        <ele>187.39566040039</ele>
        <time>2016-03-30T14:11:07.000Z</time>
      </trkpt>
      <trkpt lat="47.3403" lon="2.97174">
        <ele>187.36528015137</ele>
        <time>2016-03-30T14:11:10.000Z</time>
      </trkpt>
      <trkpt lat="47.34027" lon="2.97172">
        <ele>187.33796691895</ele>
        <time>2016-03-30T14:11:12.000Z</time>
      </trkpt>
      <trkpt lat="47.34024" lon="2.97169">
        <ele>187.31254577637</ele>
        <time>2016-03-30T14:11:15.000Z</time>
      </trkpt>
      <trkpt lat="47.34022" lon="2.97167">
        <ele>187.29244995117</ele>
        <time>2016-03-30T14:11:17.000Z</time>
      </trkpt>
      <trkpt lat="47.34019" lon="2.97164">
        <ele>187.28172302246</ele>
        <time>2016-03-30T14:11:20.000Z</time>
      </trkpt>
      <trkpt lat="47.34016" lon="2.9716">
        <ele>187.28625488281</ele>
        <time>2016-03-30T14:11:23.000Z</time>
      </trkpt>
      <trkpt lat="47.34013" lon="2.97158">
        <ele>187.29818725586</ele>
        <time>2016-03-30T14:11:26.000Z</time>
      </trkpt>
      <trkpt lat="47.3401" lon="2.97155">
        <ele>187.32234191895</ele>
        <time>2016-03-30T14:11:29.000Z</time>
      </trkpt>
      <trkpt lat="47.34006" lon="2.97152">
        <ele>187.35246276855</ele>
        <time>2016-03-30T14:11:32.000Z</time>
      </trkpt>
      <trkpt lat="47.34003" lon="2.97149">
        <ele>187.38668823242</ele>
        <time>2016-03-30T14:11:34.000Z</time>
      </trkpt>
      <trkpt lat="47.34" lon="2.97145">
        <ele>187.42427062988</ele>
        <time>2016-03-30T14:11:37.000Z</time>
      </trkpt>
      <trkpt lat="47.33998" lon="2.97143">
        <ele>187.47204589844</ele>
        <time>2016-03-30T14:11:39.000Z</time>
      </trkpt>
      <trkpt lat="47.33996" lon="2.97141">
        <ele>187.52792358398</ele>
        <time>2016-03-30T14:11:41.000Z</time>
      </trkpt>
      <trkpt lat="47.33993" lon="2.97138">
        <ele>187.59957885742</ele>
        <time>2016-03-30T14:11:44.000Z</time>
      </trkpt>
      <trkpt lat="47.33991" lon="2.97137">
        <ele>187.67590332031</ele>
        <time>2016-03-30T14:11:46.000Z</time>
      </trkpt>
      <trkpt lat="47.33987" lon="2.97134">
        <ele>187.75952148438</ele>
        <time>2016-03-30T14:11:49.000Z</time>
      </trkpt>
      <trkpt lat="47.33984" lon="2.97132">
        <ele>187.84924316406</ele>
        <time>2016-03-30T14:11:52.000Z</time>
      </trkpt>
      <trkpt lat="47.33981" lon="2.97129">
        <ele>187.9404296875</ele>
        <time>2016-03-30T14:11:55.000Z</time>
      </trkpt>
      <trkpt lat="47.33979" lon="2.97128">
        <ele>188.02185058594</ele>
        <time>2016-03-30T14:11:57.000Z</time>
      </trkpt>
      <trkpt lat="47.33977" lon="2.97127">
        <ele>188.10205078125</ele>
        <time>2016-03-30T14:11:59.000Z</time>
      </trkpt>
      <trkpt lat="47.33973" lon="2.97124">
        <ele>188.18286132812</ele>
        <time>2016-03-30T14:12:02.000Z</time>
      </trkpt>
      <trkpt lat="47.3397" lon="2.97122">
        <ele>188.26184082031</ele>
        <time>2016-03-30T14:12:05.000Z</time>
      </trkpt>
      <trkpt lat="47.33968" lon="2.9712">
        <ele>188.33386230469</ele>
        <time>2016-03-30T14:12:07.000Z</time>
      </trkpt>
      <trkpt lat="47.33966" lon="2.97118">
        <ele>188.41101074219</ele>
        <time>2016-03-30T14:12:10.000Z</time>
      </trkpt>
      <trkpt lat="47.33964" lon="2.97116">
        <ele>188.49255371094</ele>
        <time>2016-03-30T14:12:12.000Z</time>
      </trkpt>
      <trkpt lat="47.33962" lon="2.97114">
        <ele>188.56787109375</ele>
        <time>2016-03-30T14:12:14.000Z</time>
      </trkpt>
      <trkpt lat="47.33958" lon="2.9711">
        <ele>188.65258789062</ele>
        <time>2016-03-30T14:12:17.000Z</time>
      </trkpt>
      <trkpt lat="47.33956" lon="2.97108">
        <ele>188.74365234375</ele>
        <time>2016-03-30T14:12:19.000Z</time>
      </trkpt>
      <trkpt lat="47.33953" lon="2.97103">
        <ele>188.84765625</ele>
        <time>2016-03-30T14:12:22.000Z</time>
      </trkpt>
      <trkpt lat="47.3395" lon="2.97101">
        <ele>188.95434570312</ele>
        <time>2016-03-30T14:12:24.000Z</time>
      </trkpt>
      <trkpt lat="47.33946" lon="2.97098">
        <ele>189.07214355469</ele>
        <time>2016-03-30T14:12:27.000Z</time>
      </trkpt>
      <trkpt lat="47.33942" lon="2.97094">
        <ele>189.18603515625</ele>
        <time>2016-03-30T14:12:30.000Z</time>
      </trkpt>
      <trkpt lat="47.33939" lon="2.97091">
        <ele>189.30615234375</ele>
        <time>2016-03-30T14:12:33.000Z</time>
      </trkpt>
      <trkpt lat="47.33935" lon="2.97088">
        <ele>189.42321777344</ele>
        <time>2016-03-30T14:12:36.000Z</time>
      </trkpt>
      <trkpt lat="47.33931" lon="2.97085">
        <ele>189.54504394531</ele>
        <time>2016-03-30T14:12:39.000Z</time>
      </trkpt>
      <trkpt lat="47.33929" lon="2.97083">
        <ele>189.65539550781</ele>
        <time>2016-03-30T14:12:41.000Z</time>
      </trkpt>
      <trkpt lat="47.33927" lon="2.97082">
        <ele>189.74975585938</ele>
        <time>2016-03-30T14:12:43.000Z</time>
      </trkpt>
      <trkpt lat="47.33924" lon="2.97079">
        <ele>189.833984375</ele>
        <time>2016-03-30T14:12:46.000Z</time>
      </trkpt>
      <trkpt lat="47.3392" lon="2.97076">
        <ele>189.90802001953</ele>
        <time>2016-03-30T14:12:49.000Z</time>
      </trkpt>
      <trkpt lat="47.33918" lon="2.97074">
        <ele>189.97113037109</ele>
        <time>2016-03-30T14:12:51.000Z</time>
      </trkpt>
      <trkpt lat="47.33915" lon="2.97072">
        <ele>190.02461242676</ele>
        <time>2016-03-30T14:12:53.000Z</time>
      </trkpt>
      <trkpt lat="47.33912" lon="2.97068">
        <ele>190.07293701172</ele>
        <time>2016-03-30T14:12:56.000Z</time>
      </trkpt>
      <trkpt lat="47.33908" lon="2.97066">
        <ele>190.10595703125</ele>
        <time>2016-03-30T14:12:59.000Z</time>
      </trkpt>
      <trkpt lat="47.33906" lon="2.97064">
        <ele>190.1248626709</ele>
        <time>2016-03-30T14:13:01.000Z</time>
      </trkpt>
      <trkpt lat="47.33903" lon="2.97063">
        <ele>190.13021850586</ele>
        <time>2016-03-30T14:13:03.000Z</time>
      </trkpt>
      <trkpt lat="47.339" lon="2.97061">
        <ele>190.13090515137</ele>
        <time>2016-03-30T14:13:06.000Z</time>
      </trkpt>
      <trkpt lat="47.33896" lon="2.9706">
        <ele>190.12423706055</ele>
        <time>2016-03-30T14:13:09.000Z</time>
      </trkpt>
      <trkpt lat="47.33893" lon="2.97057">
        <ele>190.12112426758</ele>
        <time>2016-03-30T14:13:12.000Z</time>
      </trkpt>
      <trkpt lat="47.33889" lon="2.97055">
        <ele>190.1185760498</ele>
        <time>2016-03-30T14:13:15.000Z</time>
      </trkpt>
      <trkpt lat="47.33886" lon="2.97052">
        <ele>190.12237548828</ele>
        <time>2016-03-30T14:13:18.000Z</time>
      </trkpt>
      <trkpt lat="47.33883" lon="2.97049">
        <ele>190.13055419922</ele>
        <time>2016-03-30T14:13:20.000Z</time>
      </trkpt>
      <trkpt lat="47.33881" lon="2.97047">
        <ele>190.14791870117</ele>
        <time>2016-03-30T14:13:22.000Z</time>
      </trkpt>
      <trkpt lat="47.33879" lon="2.97045">
        <ele>190.16848754883</ele>
        <time>2016-03-30T14:13:24.000Z</time>
      </trkpt>
      <trkpt lat="47.33877" lon="2.97043">
        <ele>190.19268798828</ele>
        <time>2016-03-30T14:13:26.000Z</time>
      </trkpt>
      <trkpt lat="47.33874" lon="2.9704">
        <ele>190.21817016602</ele>
        <time>2016-03-30T14:13:30.000Z</time>
      </trkpt>
      <trkpt lat="47.33871" lon="2.97038">
        <ele>190.24583435059</ele>
        <time>2016-03-30T14:13:31.000Z</time>
      </trkpt>
      <trkpt lat="47.33869" lon="2.97036">
        <ele>190.27192687988</ele>
        <time>2016-03-30T14:13:33.000Z</time>
      </trkpt>
      <trkpt lat="47.33866" lon="2.97032">
        <ele>190.30403137207</ele>
        <time>2016-03-30T14:13:36.000Z</time>
      </trkpt>
      <trkpt lat="47.33864" lon="2.9703">
        <ele>190.33894348145</ele>
        <time>2016-03-30T14:13:38.000Z</time>
      </trkpt>
      <trkpt lat="47.33861" lon="2.97027">
        <ele>190.37701416016</ele>
        <time>2016-03-30T14:13:41.000Z</time>
      </trkpt>
      <trkpt lat="47.33859" lon="2.97025">
        <ele>190.41390991211</ele>
        <time>2016-03-30T14:13:43.000Z</time>
      </trkpt>
      <trkpt lat="47.33857" lon="2.97023">
        <ele>190.4543762207</ele>
        <time>2016-03-30T14:13:45.000Z</time>
      </trkpt>
      <trkpt lat="47.33853" lon="2.97019">
        <ele>190.4986114502</ele>
        <time>2016-03-30T14:13:48.000Z</time>
      </trkpt>
      <trkpt lat="47.3385" lon="2.97017">
        <ele>190.54135131836</ele>
        <time>2016-03-30T14:13:50.000Z</time>
      </trkpt>
      <trkpt lat="47.33847" lon="2.97015">
        <ele>190.58071899414</ele>
        <time>2016-03-30T14:13:52.000Z</time>
      </trkpt>
      <trkpt lat="47.33844" lon="2.97013">
        <ele>190.62632751465</ele>
        <time>2016-03-30T14:13:55.000Z</time>
      </trkpt>
      <trkpt lat="47.3384" lon="2.9701">
        <ele>190.67674255371</ele>
        <time>2016-03-30T14:13:58.000Z</time>
      </trkpt>
      <trkpt lat="47.33836" lon="2.97007">
        <ele>190.72500610352</ele>
        <time>2016-03-30T14:14:01.000Z</time>
      </trkpt>
      <trkpt lat="47.33832" lon="2.97004">
        <ele>190.77615356445</ele>
        <time>2016-03-30T14:14:04.000Z</time>
      </trkpt>
      <trkpt lat="47.33828" lon="2.97001">
        <ele>190.82832336426</ele>
        <time>2016-03-30T14:14:07.000Z</time>
      </trkpt>
      <trkpt lat="47.33825" lon="2.96997">
        <ele>190.8642578125</ele>
        <time>2016-03-30T14:14:10.000Z</time>
      </trkpt>
      <trkpt lat="47.33822" lon="2.96995">
        <ele>190.88415527344</ele>
        <time>2016-03-30T14:14:12.000Z</time>
      </trkpt>
      <trkpt lat="47.33818" lon="2.96993">
        <ele>190.88343811035</ele>
        <time>2016-03-30T14:14:15.000Z</time>
      </trkpt>
      <trkpt lat="47.33816" lon="2.96991">
        <ele>190.86935424805</ele>
        <time>2016-03-30T14:14:17.000Z</time>
      </trkpt>
      <trkpt lat="47.33813" lon="2.96989">
        <ele>190.84312438965</ele>
        <time>2016-03-30T14:14:20.000Z</time>
      </trkpt>
      <trkpt lat="47.3381" lon="2.96986">
        <ele>190.81729125977</ele>
        <time>2016-03-30T14:14:22.000Z</time>
      </trkpt>
      <trkpt lat="47.33807" lon="2.96984">
        <ele>190.79194641113</ele>
        <time>2016-03-30T14:14:24.000Z</time>
      </trkpt>
      <trkpt lat="47.33804" lon="2.96981">
        <ele>190.77075195312</ele>
        <time>2016-03-30T14:14:27.000Z</time>
      </trkpt>
      <trkpt lat="47.33802" lon="2.9698">
        <ele>190.74938964844</ele>
        <time>2016-03-30T14:14:29.000Z</time>
      </trkpt>
      <trkpt lat="47.33799" lon="2.96978">
        <ele>190.73007202148</ele>
        <time>2016-03-30T14:14:32.000Z</time>
      </trkpt>
      <trkpt lat="47.33796" lon="2.96976">
        <ele>190.71347045898</ele>
        <time>2016-03-30T14:14:34.000Z</time>
      </trkpt>
      <trkpt lat="47.33793" lon="2.96974">
        <ele>190.69725036621</ele>
        <time>2016-03-30T14:14:37.000Z</time>
      </trkpt>
      <trkpt lat="47.33791" lon="2.96972">
        <ele>190.68392944336</ele>
        <time>2016-03-30T14:14:39.000Z</time>
      </trkpt>
      <trkpt lat="47.33788" lon="2.9697">
        <ele>190.6725769043</ele>
        <time>2016-03-30T14:14:41.000Z</time>
      </trkpt>
      <trkpt lat="47.33786" lon="2.96968">
        <ele>190.6644744873</ele>
        <time>2016-03-30T14:14:43.000Z</time>
      </trkpt>
      <trkpt lat="47.33783" lon="2.96965">
        <ele>190.65774536133</ele>
        <time>2016-03-30T14:14:46.000Z</time>
      </trkpt>
      <trkpt lat="47.3378" lon="2.96962">
        <ele>190.65489196777</ele>
        <time>2016-03-30T14:14:49.000Z</time>
      </trkpt>
      <trkpt lat="47.33778" lon="2.96958">
        <ele>190.65612792969</ele>
        <time>2016-03-30T14:14:52.000Z</time>
      </trkpt>
      <trkpt lat="47.33776" lon="2.96956">
        <ele>190.65994262695</ele>
        <time>2016-03-30T14:14:54.000Z</time>
      </trkpt>
      <trkpt lat="47.33772" lon="2.96953">
        <ele>190.66557312012</ele>
        <time>2016-03-30T14:14:57.000Z</time>
      </trkpt>
      <trkpt lat="47.33768" lon="2.9695">
        <ele>190.67260742188</ele>
        <time>2016-03-30T14:15:00.000Z</time>
      </trkpt>
      <trkpt lat="47.33766" lon="2.96948">
        <ele>190.68032836914</ele>
        <time>2016-03-30T14:15:02.000Z</time>
      </trkpt>
      <trkpt lat="47.33762" lon="2.96945">
        <ele>190.68771362305</ele>
        <time>2016-03-30T14:15:05.000Z</time>
      </trkpt>
      <trkpt lat="47.3376" lon="2.96943">
        <ele>190.697265625</ele>
        <time>2016-03-30T14:15:07.000Z</time>
      </trkpt>
      <trkpt lat="47.33756" lon="2.9694">
        <ele>190.70889282227</ele>
        <time>2016-03-30T14:15:10.000Z</time>
      </trkpt>
      <trkpt lat="47.33753" lon="2.96939">
        <ele>190.7204284668</ele>
        <time>2016-03-30T14:15:12.000Z</time>
      </trkpt>
      <trkpt lat="47.33751" lon="2.96938">
        <ele>190.73097229004</ele>
        <time>2016-03-30T14:15:14.000Z</time>
      </trkpt>
      <trkpt lat="47.33749" lon="2.96937">
        <ele>190.73374938965</ele>
        <time>2016-03-30T14:15:16.000Z</time>
      </trkpt>
      <trkpt lat="47.33746" lon="2.96934">
        <ele>190.72497558594</ele>
        <time>2016-03-30T14:15:19.000Z</time>
      </trkpt>
      <trkpt lat="47.33743" lon="2.96931">
        <ele>190.70359802246</ele>
        <time>2016-03-30T14:15:22.000Z</time>
      </trkpt>
      <trkpt lat="47.3374" lon="2.96927">
        <ele>190.67794799805</ele>
        <time>2016-03-30T14:15:25.000Z</time>
      </trkpt>
      <trkpt lat="47.33738" lon="2.96926">
        <ele>190.64237976074</ele>
        <time>2016-03-30T14:15:27.000Z</time>
      </trkpt>
      <trkpt lat="47.33735" lon="2.96923">
        <ele>190.60458374023</ele>
        <time>2016-03-30T14:15:29.000Z</time>
      </trkpt>
      <trkpt lat="47.33731" lon="2.9692">
        <ele>190.56901550293</ele>
        <time>2016-03-30T14:15:32.000Z</time>
      </trkpt>
      <trkpt lat="47.3373" lon="2.96918">
        <ele>190.54051208496</ele>
        <time>2016-03-30T14:15:34.000Z</time>
      </trkpt>
      <trkpt lat="47.33727" lon="2.96916">
        <ele>190.50715637207</ele>
        <time>2016-03-30T14:15:36.000Z</time>
      </trkpt>
      <trkpt lat="47.33723" lon="2.96913">
        <ele>190.47590637207</ele>
        <time>2016-03-30T14:15:39.000Z</time>
      </trkpt>
      <trkpt lat="47.3372" lon="2.96911">
        <ele>190.44485473633</ele>
        <time>2016-03-30T14:15:43.000Z</time>
      </trkpt>
      <trkpt lat="47.33718" lon="2.96909">
        <ele>190.41841125488</ele>
        <time>2016-03-30T14:15:44.000Z</time>
      </trkpt>
      <trkpt lat="47.33716" lon="2.96907">
        <ele>190.38906860352</ele>
        <time>2016-03-30T14:15:46.000Z</time>
      </trkpt>
      <trkpt lat="47.33713" lon="2.96905">
        <ele>190.36190795898</ele>
        <time>2016-03-30T14:15:49.000Z</time>
      </trkpt>
      <trkpt lat="47.33711" lon="2.96903">
        <ele>190.33979797363</ele>
        <time>2016-03-30T14:15:51.000Z</time>
      </trkpt>
      <trkpt lat="47.33707" lon="2.96901">
        <ele>190.31565856934</ele>
        <time>2016-03-30T14:15:54.000Z</time>
      </trkpt>
      <trkpt lat="47.33705" lon="2.969">
        <ele>190.28791809082</ele>
        <time>2016-03-30T14:15:56.000Z</time>
      </trkpt>
      <trkpt lat="47.33702" lon="2.96899">
        <ele>190.25650024414</ele>
        <time>2016-03-30T14:15:59.000Z</time>
      </trkpt>
      <trkpt lat="47.33699" lon="2.96898">
        <ele>190.22463989258</ele>
        <time>2016-03-30T14:16:01.000Z</time>
      </trkpt>
      <trkpt lat="47.33696" lon="2.96896">
        <ele>190.18814086914</ele>
        <time>2016-03-30T14:16:04.000Z</time>
      </trkpt>
      <trkpt lat="47.33694" lon="2.96894">
        <ele>190.15985107422</ele>
        <time>2016-03-30T14:16:06.000Z</time>
      </trkpt>
      <trkpt lat="47.33691" lon="2.96893">
        <ele>190.13050842285</ele>
        <time>2016-03-30T14:16:10.000Z</time>
      </trkpt>
      <trkpt lat="47.33688" lon="2.96893">
        <ele>190.09474182129</ele>
        <time>2016-03-30T14:16:11.000Z</time>
      </trkpt>
      <trkpt lat="47.33685" lon="2.96893">
        <ele>190.0537109375</ele>
        <time>2016-03-30T14:16:13.000Z</time>
      </trkpt>
      <trkpt lat="47.33681" lon="2.96891">
        <ele>190.0121307373</ele>
        <time>2016-03-30T14:16:16.000Z</time>
      </trkpt>
      <trkpt lat="47.33678" lon="2.96889">
        <ele>189.96553039551</ele>
        <time>2016-03-30T14:16:18.000Z</time>
      </trkpt>
      <trkpt lat="47.33675" lon="2.9689">
        <ele>189.91329956055</ele>
        <time>2016-03-30T14:16:21.000Z</time>
      </trkpt>
      <trkpt lat="47.33672" lon="2.9689">
        <ele>189.8648223877</ele>
        <time>2016-03-30T14:16:23.000Z</time>
      </trkpt>
      <trkpt lat="47.33668" lon="2.96889">
        <ele>189.81616210938</ele>
        <time>2016-03-30T14:16:26.000Z</time>
      </trkpt>
      <trkpt lat="47.33665" lon="2.96887">
        <ele>189.76892089844</ele>
        <time>2016-03-30T14:16:28.000Z</time>
      </trkpt>
      <trkpt lat="47.33661" lon="2.96886">
        <ele>189.71395874023</ele>
        <time>2016-03-30T14:16:31.000Z</time>
      </trkpt>
      <trkpt lat="47.33657" lon="2.96883">
        <ele>189.6637878418</ele>
        <time>2016-03-30T14:16:34.000Z</time>
      </trkpt>
      <trkpt lat="47.33654" lon="2.96881">
        <ele>189.61959838867</ele>
        <time>2016-03-30T14:16:37.000Z</time>
      </trkpt>
      <trkpt lat="47.33652" lon="2.9688">
        <ele>189.58190917969</ele>
        <time>2016-03-30T14:16:39.000Z</time>
      </trkpt>
      <trkpt lat="47.33648" lon="2.96877">
        <ele>189.546875</ele>
        <time>2016-03-30T14:16:42.000Z</time>
      </trkpt>
      <trkpt lat="47.33645" lon="2.96876">
        <ele>189.51721191406</ele>
        <time>2016-03-30T14:16:45.000Z</time>
      </trkpt>
      <trkpt lat="47.33641" lon="2.96876">
        <ele>189.47912597656</ele>
        <time>2016-03-30T14:16:48.000Z</time>
      </trkpt>
      <trkpt lat="47.33639" lon="2.96875">
        <ele>189.43811035156</ele>
        <time>2016-03-30T14:16:50.000Z</time>
      </trkpt>
      <trkpt lat="47.33636" lon="2.96874">
        <ele>189.39074707031</ele>
        <time>2016-03-30T14:16:52.000Z</time>
      </trkpt>
      <trkpt lat="47.33633" lon="2.96873">
        <ele>189.33947753906</ele>
        <time>2016-03-30T14:16:55.000Z</time>
      </trkpt>
      <trkpt lat="47.3363" lon="2.96872">
        <ele>189.28723144531</ele>
        <time>2016-03-30T14:16:58.000Z</time>
      </trkpt>
      <trkpt lat="47.33627" lon="2.96871">
        <ele>189.24169921875</ele>
        <time>2016-03-30T14:17:01.000Z</time>
      </trkpt>
      <trkpt lat="47.33624" lon="2.96869">
        <ele>189.19519042969</ele>
        <time>2016-03-30T14:17:03.000Z</time>
      </trkpt>
      <trkpt lat="47.3362" lon="2.96868">
        <ele>189.15222167969</ele>
        <time>2016-03-30T14:17:06.000Z</time>
      </trkpt>
      <trkpt lat="47.33618" lon="2.96866">
        <ele>189.11193847656</ele>
        <time>2016-03-30T14:17:08.000Z</time>
      </trkpt>
      <trkpt lat="47.33615" lon="2.96865">
        <ele>189.07470703125</ele>
        <time>2016-03-30T14:17:11.000Z</time>
      </trkpt>
      <trkpt lat="47.33613" lon="2.96864">
        <ele>189.03698730469</ele>
        <time>2016-03-30T14:17:13.000Z</time>
      </trkpt>
      <trkpt lat="47.3361" lon="2.96865">
        <ele>188.99060058594</ele>
        <time>2016-03-30T14:17:16.000Z</time>
      </trkpt>
      <trkpt lat="47.33608" lon="2.96867">
        <ele>188.93505859375</ele>
        <time>2016-03-30T14:17:19.000Z</time>
      </trkpt>
      <trkpt lat="47.33607" lon="2.96868">
        <ele>188.87280273438</ele>
        <time>2016-03-30T14:17:21.000Z</time>
      </trkpt>
      <trkpt lat="47.33606" lon="2.96869">
        <ele>188.81018066406</ele>
        <time>2016-03-30T14:17:37.000Z</time>
      </trkpt>
      <trkpt lat="47.33605" lon="2.96869">
        <ele>188.75012207031</ele>
        <time>2016-03-30T14:17:49.000Z</time>
      </trkpt>
      <trkpt lat="47.33603" lon="2.96868">
        <ele>188.70166015625</ele>
        <time>2016-03-30T14:17:51.000Z</time>
      </trkpt>
      <trkpt lat="47.33601" lon="2.96868">
        <ele>188.66333007812</ele>
        <time>2016-03-30T14:17:54.000Z</time>
      </trkpt>
      <trkpt lat="47.336" lon="2.96867">
        <ele>188.63488769531</ele>
        <time>2016-03-30T14:17:56.000Z</time>
      </trkpt>
      <trkpt lat="47.33595" lon="2.96864">
        <ele>188.60205078125</ele>
        <time>2016-03-30T14:17:59.000Z</time>
      </trkpt>
      <trkpt lat="47.33591" lon="2.96862">
        <ele>188.56909179688</ele>
        <time>2016-03-30T14:18:02.000Z</time>
      </trkpt>
      <trkpt lat="47.33589" lon="2.96861">
        <ele>188.53540039062</ele>
        <time>2016-03-30T14:18:04.000Z</time>
      </trkpt>
      <trkpt lat="47.33586" lon="2.96859">
        <ele>188.50512695312</ele>
        <time>2016-03-30T14:18:07.000Z</time>
      </trkpt>
      <trkpt lat="47.33583" lon="2.96858">
        <ele>188.46926879883</ele>
        <time>2016-03-30T14:18:10.000Z</time>
      </trkpt>
      <trkpt lat="47.3358" lon="2.96857">
        <ele>188.45257568359</ele>
        <time>2016-03-30T14:18:13.000Z</time>
      </trkpt>
      <trkpt lat="47.33577" lon="2.96856">
        <ele>188.45291137695</ele>
        <time>2016-03-30T14:18:16.000Z</time>
      </trkpt>
      <trkpt lat="47.33575" lon="2.96855">
        <ele>188.46548461914</ele>
        <time>2016-03-30T14:18:18.000Z</time>
      </trkpt>
      <trkpt lat="47.33571" lon="2.96855">
        <ele>188.48922729492</ele>
        <time>2016-03-30T14:18:21.000Z</time>
      </trkpt>
      <trkpt lat="47.33569" lon="2.96854">
        <ele>188.52571105957</ele>
        <time>2016-03-30T14:18:24.000Z</time>
      </trkpt>
      <trkpt lat="47.33565" lon="2.96854">
        <ele>188.55880737305</ele>
        <time>2016-03-30T14:18:27.000Z</time>
      </trkpt>
      <trkpt lat="47.33561" lon="2.96853">
        <ele>188.59048461914</ele>
        <time>2016-03-30T14:18:30.000Z</time>
      </trkpt>
      <trkpt lat="47.33559" lon="2.96852">
        <ele>188.62089538574</ele>
        <time>2016-03-30T14:18:32.000Z</time>
      </trkpt>
      <trkpt lat="47.33555" lon="2.96851">
        <ele>188.65383911133</ele>
        <time>2016-03-30T14:18:35.000Z</time>
      </trkpt>
      <trkpt lat="47.33553" lon="2.96849">
        <ele>188.68785095215</ele>
        <time>2016-03-30T14:18:37.000Z</time>
      </trkpt>
      <trkpt lat="47.33551" lon="2.96848">
        <ele>188.72036743164</ele>
        <time>2016-03-30T14:18:40.000Z</time>
      </trkpt>
      <trkpt lat="47.33549" lon="2.96848">
        <ele>188.74749755859</ele>
        <time>2016-03-30T14:18:42.000Z</time>
      </trkpt>
      <trkpt lat="47.33547" lon="2.96848">
        <ele>188.77322387695</ele>
        <time>2016-03-30T14:18:44.000Z</time>
      </trkpt>
      <trkpt lat="47.33543" lon="2.96847">
        <ele>188.79360961914</ele>
        <time>2016-03-30T14:18:47.000Z</time>
      </trkpt>
      <trkpt lat="47.33538" lon="2.96847">
        <ele>188.81080627441</ele>
        <time>2016-03-30T14:18:50.000Z</time>
      </trkpt>
      <trkpt lat="47.33533" lon="2.96846">
        <ele>188.83047485352</ele>
        <time>2016-03-30T14:18:53.000Z</time>
      </trkpt>
      <trkpt lat="47.3353" lon="2.96845">
        <ele>188.8514251709</ele>
        <time>2016-03-30T14:18:56.000Z</time>
      </trkpt>
      <trkpt lat="47.33527" lon="2.96846">
        <ele>188.8708190918</ele>
        <time>2016-03-30T14:18:59.000Z</time>
      </trkpt>
      <trkpt lat="47.33525" lon="2.96847">
        <ele>188.88542175293</ele>
        <time>2016-03-30T14:19:01.000Z</time>
      </trkpt>
      <trkpt lat="47.33523" lon="2.96849">
        <ele>188.8955078125</ele>
        <time>2016-03-30T14:19:03.000Z</time>
      </trkpt>
      <trkpt lat="47.33519" lon="2.96851">
        <ele>188.90072631836</ele>
        <time>2016-03-30T14:19:06.000Z</time>
      </trkpt>
      <trkpt lat="47.33519" lon="2.96852">
        <ele>188.90144348145</ele>
        <time>2016-03-30T14:19:11.000Z</time>
      </trkpt>
      <trkpt lat="47.33518" lon="2.96851">
        <ele>188.90263366699</ele>
        <time>2016-03-30T14:19:25.000Z</time>
      </trkpt>
      <trkpt lat="47.33517" lon="2.96851">
        <ele>188.90476989746</ele>
        <time>2016-03-30T14:19:28.000Z</time>
      </trkpt>
      <trkpt lat="47.33516" lon="2.9685">
        <ele>188.9098815918</ele>
        <time>2016-03-30T14:19:38.000Z</time>
      </trkpt>
      <trkpt lat="47.33514" lon="2.96851">
        <ele>188.91456604004</ele>
        <time>2016-03-30T14:19:40.000Z</time>
      </trkpt>
      <trkpt lat="47.33514" lon="2.96859">
        <ele>188.91424560547</ele>
        <time>2016-03-30T14:19:43.000Z</time>
      </trkpt>
      <trkpt lat="47.33512" lon="2.9686">
        <ele>188.91311645508</ele>
        <time>2016-03-30T14:19:46.000Z</time>
      </trkpt>
      <trkpt lat="47.33509" lon="2.96864">
        <ele>188.91369628906</ele>
        <time>2016-03-30T14:19:49.000Z</time>
      </trkpt>
      <trkpt lat="47.33508" lon="2.96866">
        <ele>188.91477966309</ele>
        <time>2016-03-30T14:19:51.000Z</time>
      </trkpt>
      <trkpt lat="47.33504" lon="2.96869">
        <ele>188.92025756836</ele>
        <time>2016-03-30T14:19:54.000Z</time>
      </trkpt>
      <trkpt lat="47.33501" lon="2.96873">
        <ele>188.93698120117</ele>
        <time>2016-03-30T14:19:57.000Z</time>
      </trkpt>
      <trkpt lat="47.33499" lon="2.96875">
        <ele>188.96325683594</ele>
        <time>2016-03-30T14:19:59.000Z</time>
      </trkpt>
      <trkpt lat="47.33496" lon="2.96878">
        <ele>189.01815795898</ele>
        <time>2016-03-30T14:20:02.000Z</time>
      </trkpt>
      <trkpt lat="47.33494" lon="2.96879">
        <ele>189.10179138184</ele>
        <time>2016-03-30T14:20:04.000Z</time>
      </trkpt>
      <trkpt lat="47.33491" lon="2.96881">
        <ele>189.21234130859</ele>
        <time>2016-03-30T14:20:07.000Z</time>
      </trkpt>
      <trkpt lat="47.33488" lon="2.96883">
        <ele>189.34387207031</ele>
        <time>2016-03-30T14:20:09.000Z</time>
      </trkpt>
      <trkpt lat="47.33485" lon="2.96886">
        <ele>189.49781799316</ele>
        <time>2016-03-30T14:20:12.000Z</time>
      </trkpt>
      <trkpt lat="47.33483" lon="2.96889">
        <ele>189.65386962891</ele>
        <time>2016-03-30T14:20:15.000Z</time>
      </trkpt>
      <trkpt lat="47.33481" lon="2.96891">
        <ele>189.79809570312</ele>
        <time>2016-03-30T14:20:17.000Z</time>
      </trkpt>
      <trkpt lat="47.33477" lon="2.96894">
        <ele>189.95394897461</ele>
        <time>2016-03-30T14:20:20.000Z</time>
      </trkpt>
      <trkpt lat="47.33474" lon="2.96897">
        <ele>190.11682128906</ele>
        <time>2016-03-30T14:20:23.000Z</time>
      </trkpt>
      <trkpt lat="47.33471" lon="2.96902">
        <ele>190.28804016113</ele>
        <time>2016-03-30T14:20:26.000Z</time>
      </trkpt>
      <trkpt lat="47.33469" lon="2.96904">
        <ele>190.45199584961</ele>
        <time>2016-03-30T14:20:29.000Z</time>
      </trkpt>
      <trkpt lat="47.33467" lon="2.96908">
        <ele>190.62382507324</ele>
        <time>2016-03-30T14:20:32.000Z</time>
      </trkpt>
      <trkpt lat="47.33466" lon="2.9691">
        <ele>190.76901245117</ele>
        <time>2016-03-30T14:20:34.000Z</time>
      </trkpt>
      <trkpt lat="47.33464" lon="2.96913">
        <ele>190.91096496582</ele>
        <time>2016-03-30T14:20:36.000Z</time>
      </trkpt>
      <trkpt lat="47.33461" lon="2.96915">
        <ele>191.03907775879</ele>
        <time>2016-03-30T14:20:39.000Z</time>
      </trkpt>
      <trkpt lat="47.33459" lon="2.96918">
        <ele>191.17837524414</ele>
        <time>2016-03-30T14:20:42.000Z</time>
      </trkpt>
      <trkpt lat="47.33455" lon="2.9692">
        <ele>191.33236694336</ele>
        <time>2016-03-30T14:20:45.000Z</time>
      </trkpt>
      <trkpt lat="47.33452" lon="2.96923">
        <ele>191.51133728027</ele>
        <time>2016-03-30T14:20:48.000Z</time>
      </trkpt>
      <trkpt lat="47.33449" lon="2.96927">
        <ele>191.69612121582</ele>
        <time>2016-03-30T14:20:51.000Z</time>
      </trkpt>
      <trkpt lat="47.33446" lon="2.9693">
        <ele>191.89926147461</ele>
        <time>2016-03-30T14:20:54.000Z</time>
      </trkpt>
      <trkpt lat="47.33443" lon="2.96933">
        <ele>192.10075378418</ele>
        <time>2016-03-30T14:20:57.000Z</time>
      </trkpt>
      <trkpt lat="47.33439" lon="2.96936">
        <ele>192.30917358398</ele>
        <time>2016-03-30T14:21:00.000Z</time>
      </trkpt>
      <trkpt lat="47.33437" lon="2.96938">
        <ele>192.49078369141</ele>
        <time>2016-03-30T14:21:02.000Z</time>
      </trkpt>
      <trkpt lat="47.33435" lon="2.96941">
        <ele>192.66506958008</ele>
        <time>2016-03-30T14:21:05.000Z</time>
      </trkpt>
      <trkpt lat="47.33432" lon="2.96944">
        <ele>192.83195495605</ele>
        <time>2016-03-30T14:21:08.000Z</time>
      </trkpt>
      <trkpt lat="47.33429" lon="2.96948">
        <ele>192.99215698242</ele>
        <time>2016-03-30T14:21:11.000Z</time>
      </trkpt>
      <trkpt lat="47.33427" lon="2.96951">
        <ele>193.12683105469</ele>
        <time>2016-03-30T14:21:13.000Z</time>
      </trkpt>
      <trkpt lat="47.33426" lon="2.96954">
        <ele>193.2654876709</ele>
        <time>2016-03-30T14:21:16.000Z</time>
      </trkpt>
      <trkpt lat="47.33424" lon="2.96954">
        <ele>193.39242553711</ele>
        <time>2016-03-30T14:21:18.000Z</time>
      </trkpt>
      <trkpt lat="47.33423" lon="2.96955">
        <ele>193.49459838867</ele>
        <time>2016-03-30T14:21:21.000Z</time>
      </trkpt>
      <trkpt lat="47.33421" lon="2.96957">
        <ele>193.58605957031</ele>
        <time>2016-03-30T14:21:24.000Z</time>
      </trkpt>
      <trkpt lat="47.33421" lon="2.96958">
        <ele>193.66305541992</ele>
        <time>2016-03-30T14:21:26.000Z</time>
      </trkpt>
      <trkpt lat="47.33421" lon="2.96958">
        <ele>193.66305541992</ele>
        <time>2016-03-30T14:21:46.000Z</time>
      </trkpt>
      <trkpt lat="47.33419" lon="2.96958">
        <ele>193.73011779785</ele>
        <time>2016-03-30T14:21:55.000Z</time>
      </trkpt>
      <trkpt lat="47.33418" lon="2.96958">
        <ele>193.80128479004</ele>
        <time>2016-03-30T14:21:58.000Z</time>
      </trkpt>
      <trkpt lat="47.33417" lon="2.96959">
        <ele>193.86784362793</ele>
        <time>2016-03-30T14:22:17.000Z</time>
      </trkpt>
      <trkpt lat="47.33416" lon="2.9696">
        <ele>193.92068481445</ele>
        <time>2016-03-30T14:22:19.000Z</time>
      </trkpt>
      <trkpt lat="47.33417" lon="2.96962">
        <ele>193.96029663086</ele>
        <time>2016-03-30T14:22:23.000Z</time>
      </trkpt>
      <trkpt lat="47.33418" lon="2.96964">
        <ele>193.97381591797</ele>
        <time>2016-03-30T14:22:26.000Z</time>
      </trkpt>
      <trkpt lat="47.33419" lon="2.96967">
        <ele>193.96119689941</ele>
        <time>2016-03-30T14:22:29.000Z</time>
      </trkpt>
      <trkpt lat="47.3342" lon="2.96972">
        <ele>193.92733764648</ele>
        <time>2016-03-30T14:22:32.000Z</time>
      </trkpt>
      <trkpt lat="47.33422" lon="2.96975">
        <ele>193.86849975586</ele>
        <time>2016-03-30T14:22:35.000Z</time>
      </trkpt>
      <trkpt lat="47.33424" lon="2.96977">
        <ele>193.79336547852</ele>
        <time>2016-03-30T14:22:37.000Z</time>
      </trkpt>
      <trkpt lat="47.33426" lon="2.9698">
        <ele>193.71560668945</ele>
        <time>2016-03-30T14:22:40.000Z</time>
      </trkpt>
      <trkpt lat="47.33428" lon="2.96983">
        <ele>193.62619018555</ele>
        <time>2016-03-30T14:22:42.000Z</time>
      </trkpt>
      <trkpt lat="47.3343" lon="2.96987">
        <ele>193.53030395508</ele>
        <time>2016-03-30T14:22:45.000Z</time>
      </trkpt>
      <trkpt lat="47.33432" lon="2.96991">
        <ele>193.43644714355</ele>
        <time>2016-03-30T14:22:48.000Z</time>
      </trkpt>
      <trkpt lat="47.33434" lon="2.96994">
        <ele>193.34451293945</ele>
        <time>2016-03-30T14:22:51.000Z</time>
      </trkpt>
      <trkpt lat="47.33436" lon="2.96997">
        <ele>193.2544708252</ele>
        <time>2016-03-30T14:22:54.000Z</time>
      </trkpt>
      <trkpt lat="47.33438" lon="2.97">
        <ele>193.15827941895</ele>
        <time>2016-03-30T14:22:57.000Z</time>
      </trkpt>
      <trkpt lat="47.33441" lon="2.97003">
        <ele>193.05081176758</ele>
        <time>2016-03-30T14:23:00.000Z</time>
      </trkpt>
      <trkpt lat="47.33443" lon="2.97005">
        <ele>192.93803405762</ele>
        <time>2016-03-30T14:23:02.000Z</time>
      </trkpt>
      <trkpt lat="47.33445" lon="2.97008">
        <ele>192.81694030762</ele>
        <time>2016-03-30T14:23:05.000Z</time>
      </trkpt>
      <trkpt lat="47.33447" lon="2.9701">
        <ele>192.69404602051</ele>
        <time>2016-03-30T14:23:07.000Z</time>
      </trkpt>
      <trkpt lat="47.33448" lon="2.97013">
        <ele>192.56530761719</ele>
        <time>2016-03-30T14:23:10.000Z</time>
      </trkpt>
      <trkpt lat="47.3345" lon="2.97016">
        <ele>192.44036865234</ele>
        <time>2016-03-30T14:23:12.000Z</time>
      </trkpt>
      <trkpt lat="47.33452" lon="2.97021">
        <ele>192.31182861328</ele>
        <time>2016-03-30T14:23:15.000Z</time>
      </trkpt>
      <trkpt lat="47.33453" lon="2.97023">
        <ele>192.19213867188</ele>
        <time>2016-03-30T14:23:17.000Z</time>
      </trkpt>
      <trkpt lat="47.33455" lon="2.97026">
        <ele>192.07513427734</ele>
        <time>2016-03-30T14:23:19.000Z</time>
      </trkpt>
      <trkpt lat="47.33457" lon="2.9703">
        <ele>191.95660400391</ele>
        <time>2016-03-30T14:23:22.000Z</time>
      </trkpt>
      <trkpt lat="47.33459" lon="2.97035">
        <ele>191.83270263672</ele>
        <time>2016-03-30T14:23:25.000Z</time>
      </trkpt>
      <trkpt lat="47.33461" lon="2.97038">
        <ele>191.70574951172</ele>
        <time>2016-03-30T14:23:27.000Z</time>
      </trkpt>
      <trkpt lat="47.33462" lon="2.9704">
        <ele>191.57904052734</ele>
        <time>2016-03-30T14:23:29.000Z</time>
      </trkpt>
      <trkpt lat="47.33464" lon="2.97045">
        <ele>191.44262695312</ele>
        <time>2016-03-30T14:23:32.000Z</time>
      </trkpt>
      <trkpt lat="47.33466" lon="2.97049">
        <ele>191.31042480469</ele>
        <time>2016-03-30T14:23:34.000Z</time>
      </trkpt>
      <trkpt lat="47.33468" lon="2.97054">
        <ele>191.17565917969</ele>
        <time>2016-03-30T14:23:37.000Z</time>
      </trkpt>
      <trkpt lat="47.3347" lon="2.97058">
        <ele>191.04534912109</ele>
        <time>2016-03-30T14:23:40.000Z</time>
      </trkpt>
      <trkpt lat="47.33472" lon="2.97061">
        <ele>190.90551757812</ele>
        <time>2016-03-30T14:23:43.000Z</time>
      </trkpt>
      <trkpt lat="47.33473" lon="2.97065">
        <ele>190.77166748047</ele>
        <time>2016-03-30T14:23:46.000Z</time>
      </trkpt>
      <trkpt lat="47.33474" lon="2.97068">
        <ele>190.64886474609</ele>
        <time>2016-03-30T14:23:48.000Z</time>
      </trkpt>
      <trkpt lat="47.33475" lon="2.97072">
        <ele>190.53552246094</ele>
        <time>2016-03-30T14:23:51.000Z</time>
      </trkpt>
      <trkpt lat="47.33477" lon="2.97077">
        <ele>190.41662597656</ele>
        <time>2016-03-30T14:23:54.000Z</time>
      </trkpt>
      <trkpt lat="47.33478" lon="2.9708">
        <ele>190.30981445312</ele>
        <time>2016-03-30T14:23:57.000Z</time>
      </trkpt>
      <trkpt lat="47.3348" lon="2.97084">
        <ele>190.19136047363</ele>
        <time>2016-03-30T14:24:00.000Z</time>
      </trkpt>
      <trkpt lat="47.33482" lon="2.97086">
        <ele>190.07315063477</ele>
        <time>2016-03-30T14:24:02.000Z</time>
      </trkpt>
      <trkpt lat="47.33485" lon="2.9709">
        <ele>189.94912719727</ele>
        <time>2016-03-30T14:24:05.000Z</time>
      </trkpt>
      <trkpt lat="47.33486" lon="2.97093">
        <ele>189.84353637695</ele>
        <time>2016-03-30T14:24:07.000Z</time>
      </trkpt>
      <trkpt lat="47.33487" lon="2.97095">
        <ele>189.74055480957</ele>
        <time>2016-03-30T14:24:09.000Z</time>
      </trkpt>
      <trkpt lat="47.33488" lon="2.97099">
        <ele>189.66004943848</ele>
        <time>2016-03-30T14:24:12.000Z</time>
      </trkpt>
      <trkpt lat="47.33489" lon="2.97103">
        <ele>189.5837097168</ele>
        <time>2016-03-30T14:24:15.000Z</time>
      </trkpt>
      <trkpt lat="47.33489" lon="2.97105">
        <ele>189.53323364258</ele>
        <time>2016-03-30T14:24:17.000Z</time>
      </trkpt>
      <trkpt lat="47.3349" lon="2.97107">
        <ele>189.48788452148</ele>
        <time>2016-03-30T14:24:19.000Z</time>
      </trkpt>
      <trkpt lat="47.33491" lon="2.97113">
        <ele>189.44564819336</ele>
        <time>2016-03-30T14:24:22.000Z</time>
      </trkpt>
      <trkpt lat="47.33492" lon="2.97116">
        <ele>189.39920043945</ele>
        <time>2016-03-30T14:24:25.000Z</time>
      </trkpt>
      <trkpt lat="47.33494" lon="2.97119">
        <ele>189.34866333008</ele>
        <time>2016-03-30T14:24:28.000Z</time>
      </trkpt>
      <trkpt lat="47.33496" lon="2.97124">
        <ele>189.28646850586</ele>
        <time>2016-03-30T14:24:31.000Z</time>
      </trkpt>
      <trkpt lat="47.33496" lon="2.97127">
        <ele>189.22897338867</ele>
        <time>2016-03-30T14:24:33.000Z</time>
      </trkpt>
      <trkpt lat="47.33497" lon="2.97132">
        <ele>189.1745300293</ele>
        <time>2016-03-30T14:24:36.000Z</time>
      </trkpt>
      <trkpt lat="47.33498" lon="2.97136">
        <ele>189.13108825684</ele>
        <time>2016-03-30T14:24:39.000Z</time>
      </trkpt>
      <trkpt lat="47.33498" lon="2.97139">
        <ele>189.10096740723</ele>
        <time>2016-03-30T14:24:41.000Z</time>
      </trkpt>
      <trkpt lat="47.33498" lon="2.97144">
        <ele>189.08665466309</ele>
        <time>2016-03-30T14:24:44.000Z</time>
      </trkpt>
      <trkpt lat="47.33498" lon="2.97147">
        <ele>189.07536315918</ele>
        <time>2016-03-30T14:24:46.000Z</time>
      </trkpt>
      <trkpt lat="47.33499" lon="2.97149">
        <ele>189.06327819824</ele>
        <time>2016-03-30T14:24:48.000Z</time>
      </trkpt>
      <trkpt lat="47.335" lon="2.97153">
        <ele>189.04663085938</ele>
        <time>2016-03-30T14:24:51.000Z</time>
      </trkpt>
      <trkpt lat="47.33501" lon="2.97157">
        <ele>189.01834106445</ele>
        <time>2016-03-30T14:24:54.000Z</time>
      </trkpt>
      <trkpt lat="47.33502" lon="2.9716">
        <ele>188.9868927002</ele>
        <time>2016-03-30T14:24:56.000Z</time>
      </trkpt>
      <trkpt lat="47.33503" lon="2.97162">
        <ele>188.94799804688</ele>
        <time>2016-03-30T14:24:58.000Z</time>
      </trkpt>
      <trkpt lat="47.33504" lon="2.97167">
        <ele>188.90139770508</ele>
        <time>2016-03-30T14:25:02.000Z</time>
      </trkpt>
      <trkpt lat="47.33506" lon="2.9717">
        <ele>188.85163879395</ele>
        <time>2016-03-30T14:25:03.000Z</time>
      </trkpt>
      <trkpt lat="47.33506" lon="2.97173">
        <ele>188.80749511719</ele>
        <time>2016-03-30T14:25:05.000Z</time>
      </trkpt>
      <trkpt lat="47.33506" lon="2.97176">
        <ele>188.76806640625</ele>
        <time>2016-03-30T14:25:07.000Z</time>
      </trkpt>
      <trkpt lat="47.33507" lon="2.97178">
        <ele>188.73011779785</ele>
        <time>2016-03-30T14:25:09.000Z</time>
      </trkpt>
      <trkpt lat="47.33508" lon="2.97183">
        <ele>188.69848632812</ele>
        <time>2016-03-30T14:25:12.000Z</time>
      </trkpt>
      <trkpt lat="47.3351" lon="2.97187">
        <ele>188.66621398926</ele>
        <time>2016-03-30T14:25:15.000Z</time>
      </trkpt>
      <trkpt lat="47.33511" lon="2.97191">
        <ele>188.63246154785</ele>
        <time>2016-03-30T14:25:17.000Z</time>
      </trkpt>
      <trkpt lat="47.33512" lon="2.97195">
        <ele>188.59381103516</ele>
        <time>2016-03-30T14:25:20.000Z</time>
      </trkpt>
      <trkpt lat="47.33515" lon="2.97197">
        <ele>188.54093933105</ele>
        <time>2016-03-30T14:25:23.000Z</time>
      </trkpt>
      <trkpt lat="47.33516" lon="2.97199">
        <ele>188.48544311523</ele>
        <time>2016-03-30T14:25:25.000Z</time>
      </trkpt>
      <trkpt lat="47.33517" lon="2.97201">
        <ele>188.43769836426</ele>
        <time>2016-03-30T14:25:27.000Z</time>
      </trkpt>
      <trkpt lat="47.33517" lon="2.97203">
        <ele>188.3999786377</ele>
        <time>2016-03-30T14:25:29.000Z</time>
      </trkpt>
      <trkpt lat="47.33518" lon="2.97207">
        <ele>188.36723327637</ele>
        <time>2016-03-30T14:25:32.000Z</time>
      </trkpt>
      <trkpt lat="47.33519" lon="2.9721">
        <ele>188.35232543945</ele>
        <time>2016-03-30T14:25:34.000Z</time>
      </trkpt>
      <trkpt lat="47.33521" lon="2.97214">
        <ele>188.33908081055</ele>
        <time>2016-03-30T14:25:37.000Z</time>
      </trkpt>
      <trkpt lat="47.33522" lon="2.97218">
        <ele>188.32081604004</ele>
        <time>2016-03-30T14:25:40.000Z</time>
      </trkpt>
      <trkpt lat="47.33523" lon="2.97222">
        <ele>188.30017089844</ele>
        <time>2016-03-30T14:25:42.000Z</time>
      </trkpt>
      <trkpt lat="47.33524" lon="2.97224">
        <ele>188.27868652344</ele>
        <time>2016-03-30T14:25:44.000Z</time>
      </trkpt>
      <trkpt lat="47.33525" lon="2.97228">
        <ele>188.2576751709</ele>
        <time>2016-03-30T14:25:47.000Z</time>
      </trkpt>
      <trkpt lat="47.33527" lon="2.97231">
        <ele>188.24096679688</ele>
        <time>2016-03-30T14:25:49.000Z</time>
      </trkpt>
      <trkpt lat="47.33527" lon="2.97233">
        <ele>188.23278808594</ele>
        <time>2016-03-30T14:25:51.000Z</time>
      </trkpt>
      <trkpt lat="47.33529" lon="2.97238">
        <ele>188.22476196289</ele>
        <time>2016-03-30T14:25:54.000Z</time>
      </trkpt>
      <trkpt lat="47.3353" lon="2.97241">
        <ele>188.21574401855</ele>
        <time>2016-03-30T14:25:56.000Z</time>
      </trkpt>
      <trkpt lat="47.33532" lon="2.97245">
        <ele>188.20596313477</ele>
        <time>2016-03-30T14:25:59.000Z</time>
      </trkpt>
      <trkpt lat="47.33533" lon="2.97248">
        <ele>188.20085144043</ele>
        <time>2016-03-30T14:26:01.000Z</time>
      </trkpt>
      <trkpt lat="47.33534" lon="2.97252">
        <ele>188.19104003906</ele>
        <time>2016-03-30T14:26:04.000Z</time>
      </trkpt>
      <trkpt lat="47.33534" lon="2.97254">
        <ele>188.17546081543</ele>
        <time>2016-03-30T14:26:06.000Z</time>
      </trkpt>
      <trkpt lat="47.33535" lon="2.97256">
        <ele>188.14906311035</ele>
        <time>2016-03-30T14:26:09.000Z</time>
      </trkpt>
      <trkpt lat="47.33536" lon="2.97257">
        <ele>188.12149047852</ele>
        <time>2016-03-30T14:26:11.000Z</time>
      </trkpt>
      <trkpt lat="47.33537" lon="2.97259">
        <ele>188.08361816406</ele>
        <time>2016-03-30T14:26:13.000Z</time>
      </trkpt>
      <trkpt lat="47.33539" lon="2.97265">
        <ele>188.02844238281</ele>
        <time>2016-03-30T14:26:16.000Z</time>
      </trkpt>
      <trkpt lat="47.33539" lon="2.9727">
        <ele>187.96875</ele>
        <time>2016-03-30T14:26:18.000Z</time>
      </trkpt>
      <trkpt lat="47.3354" lon="2.97274">
        <ele>187.90625</ele>
        <time>2016-03-30T14:26:21.000Z</time>
      </trkpt>
      <trkpt lat="47.33541" lon="2.97279">
        <ele>187.82885742188</ele>
        <time>2016-03-30T14:26:24.000Z</time>
      </trkpt>
      <trkpt lat="47.33542" lon="2.97282">
        <ele>187.75341796875</ele>
        <time>2016-03-30T14:26:26.000Z</time>
      </trkpt>
      <trkpt lat="47.33544" lon="2.97287">
        <ele>187.67633056641</ele>
        <time>2016-03-30T14:26:29.000Z</time>
      </trkpt>
      <trkpt lat="47.33545" lon="2.97289">
        <ele>187.60211181641</ele>
        <time>2016-03-30T14:26:31.000Z</time>
      </trkpt>
      <trkpt lat="47.33546" lon="2.97293">
        <ele>187.52746582031</ele>
        <time>2016-03-30T14:26:34.000Z</time>
      </trkpt>
      <trkpt lat="47.33547" lon="2.97297">
        <ele>187.45343017578</ele>
        <time>2016-03-30T14:26:37.000Z</time>
      </trkpt>
      <trkpt lat="47.33548" lon="2.97301">
        <ele>187.37524414062</ele>
        <time>2016-03-30T14:26:40.000Z</time>
      </trkpt>
      <trkpt lat="47.3355" lon="2.97305">
        <ele>187.30505371094</ele>
        <time>2016-03-30T14:26:42.000Z</time>
      </trkpt>
      <trkpt lat="47.33552" lon="2.97309">
        <ele>187.21917724609</ele>
        <time>2016-03-30T14:26:45.000Z</time>
      </trkpt>
      <trkpt lat="47.33553" lon="2.97312">
        <ele>187.13787841797</ele>
        <time>2016-03-30T14:26:47.000Z</time>
      </trkpt>
      <trkpt lat="47.33554" lon="2.97317">
        <ele>187.05993652344</ele>
        <time>2016-03-30T14:26:50.000Z</time>
      </trkpt>
      <trkpt lat="47.33555" lon="2.9732">
        <ele>186.98333740234</ele>
        <time>2016-03-30T14:26:52.000Z</time>
      </trkpt>
      <trkpt lat="47.33555" lon="2.97322">
        <ele>186.91632080078</ele>
        <time>2016-03-30T14:26:56.000Z</time>
      </trkpt>
      <trkpt lat="47.33555" lon="2.97324">
        <ele>186.86657714844</ele>
        <time>2016-03-30T14:26:59.000Z</time>
      </trkpt>
      <trkpt lat="47.33556" lon="2.97329">
        <ele>186.80944824219</ele>
        <time>2016-03-30T14:27:02.000Z</time>
      </trkpt>
      <trkpt lat="47.33556" lon="2.97332">
        <ele>186.76220703125</ele>
        <time>2016-03-30T14:27:04.000Z</time>
      </trkpt>
      <trkpt lat="47.33558" lon="2.97337">
        <ele>186.69924926758</ele>
        <time>2016-03-30T14:27:07.000Z</time>
      </trkpt>
      <trkpt lat="47.33559" lon="2.97339">
        <ele>186.62632751465</ele>
        <time>2016-03-30T14:27:09.000Z</time>
      </trkpt>
      <trkpt lat="47.33559" lon="2.97343">
        <ele>186.53639221191</ele>
        <time>2016-03-30T14:27:12.000Z</time>
      </trkpt>
      <trkpt lat="47.3356" lon="2.97346">
        <ele>186.4504699707</ele>
        <time>2016-03-30T14:27:14.000Z</time>
      </trkpt>
      <trkpt lat="47.33561" lon="2.97351">
        <ele>186.341796875</ele>
        <time>2016-03-30T14:27:17.000Z</time>
      </trkpt>
      <trkpt lat="47.33562" lon="2.97353">
        <ele>186.24194335938</ele>
        <time>2016-03-30T14:27:19.000Z</time>
      </trkpt>
      <trkpt lat="47.33562" lon="2.97356">
        <ele>186.14404296875</ele>
        <time>2016-03-30T14:27:21.000Z</time>
      </trkpt>
      <trkpt lat="47.33563" lon="2.97362">
        <ele>186.03759765625</ele>
        <time>2016-03-30T14:27:24.000Z</time>
      </trkpt>
      <trkpt lat="47.33564" lon="2.97367">
        <ele>185.91650390625</ele>
        <time>2016-03-30T14:27:27.000Z</time>
      </trkpt>
      <trkpt lat="47.33566" lon="2.97371">
        <ele>185.79553222656</ele>
        <time>2016-03-30T14:27:30.000Z</time>
      </trkpt>
      <trkpt lat="47.33567" lon="2.97374">
        <ele>185.671875</ele>
        <time>2016-03-30T14:27:32.000Z</time>
      </trkpt>
      <trkpt lat="47.33568" lon="2.97376">
        <ele>185.55029296875</ele>
        <time>2016-03-30T14:27:34.000Z</time>
      </trkpt>
      <trkpt lat="47.33569" lon="2.97378">
        <ele>185.44543457031</ele>
        <time>2016-03-30T14:27:36.000Z</time>
      </trkpt>
      <trkpt lat="47.3357" lon="2.97382">
        <ele>185.3408203125</ele>
        <time>2016-03-30T14:27:39.000Z</time>
      </trkpt>
      <trkpt lat="47.33571" lon="2.97384">
        <ele>185.25317382812</ele>
        <time>2016-03-30T14:27:41.000Z</time>
      </trkpt>
      <trkpt lat="47.33572" lon="2.97388">
        <ele>185.16015625</ele>
        <time>2016-03-30T14:27:44.000Z</time>
      </trkpt>
      <trkpt lat="47.33573" lon="2.97394">
        <ele>185.04748535156</ele>
        <time>2016-03-30T14:27:47.000Z</time>
      </trkpt>
      <trkpt lat="47.33574" lon="2.97398">
        <ele>184.92749023438</ele>
        <time>2016-03-30T14:27:49.000Z</time>
      </trkpt>
      <trkpt lat="47.33575" lon="2.97403">
        <ele>184.80163574219</ele>
        <time>2016-03-30T14:27:52.000Z</time>
      </trkpt>
      <trkpt lat="47.33576" lon="2.97407">
        <ele>184.6669921875</ele>
        <time>2016-03-30T14:27:54.000Z</time>
      </trkpt>
      <trkpt lat="47.33576" lon="2.97411">
        <ele>184.53833007812</ele>
        <time>2016-03-30T14:27:57.000Z</time>
      </trkpt>
      <trkpt lat="47.33576" lon="2.97413">
        <ele>184.431640625</ele>
        <time>2016-03-30T14:27:59.000Z</time>
      </trkpt>
      <trkpt lat="47.33577" lon="2.97417">
        <ele>184.32315063477</ele>
        <time>2016-03-30T14:28:02.000Z</time>
      </trkpt>
      <trkpt lat="47.33578" lon="2.97421">
        <ele>184.22775268555</ele>
        <time>2016-03-30T14:28:04.000Z</time>
      </trkpt>
      <trkpt lat="47.33578" lon="2.97426">
        <ele>184.12858581543</ele>
        <time>2016-03-30T14:28:07.000Z</time>
      </trkpt>
      <trkpt lat="47.33579" lon="2.97428">
        <ele>184.03332519531</ele>
        <time>2016-03-30T14:28:09.000Z</time>
      </trkpt>
      <trkpt lat="47.3358" lon="2.97431">
        <ele>183.93000793457</ele>
        <time>2016-03-30T14:28:11.000Z</time>
      </trkpt>
      <trkpt lat="47.33581" lon="2.97437">
        <ele>183.81869506836</ele>
        <time>2016-03-30T14:28:14.000Z</time>
      </trkpt>
      <trkpt lat="47.33582" lon="2.97439">
        <ele>183.71188354492</ele>
        <time>2016-03-30T14:28:16.000Z</time>
      </trkpt>
      <trkpt lat="47.33583" lon="2.97442">
        <ele>183.61079406738</ele>
        <time>2016-03-30T14:28:18.000Z</time>
      </trkpt>
      <trkpt lat="47.33583" lon="2.97447">
        <ele>183.50158691406</ele>
        <time>2016-03-30T14:28:21.000Z</time>
      </trkpt>
      <trkpt lat="47.33583" lon="2.9745">
        <ele>183.39288330078</ele>
        <time>2016-03-30T14:28:24.000Z</time>
      </trkpt>
      <trkpt lat="47.33583" lon="2.97454">
        <ele>183.29708862305</ele>
        <time>2016-03-30T14:28:27.000Z</time>
      </trkpt>
      <trkpt lat="47.33585" lon="2.97458">
        <ele>183.19033813477</ele>
        <time>2016-03-30T14:28:30.000Z</time>
      </trkpt>
      <trkpt lat="47.33585" lon="2.97461">
        <ele>183.08613586426</ele>
        <time>2016-03-30T14:28:32.000Z</time>
      </trkpt>
      <trkpt lat="47.33587" lon="2.97467">
        <ele>182.97427368164</ele>
        <time>2016-03-30T14:28:35.000Z</time>
      </trkpt>
      <trkpt lat="47.33588" lon="2.9747">
        <ele>182.86001586914</ele>
        <time>2016-03-30T14:28:38.000Z</time>
      </trkpt>
      <trkpt lat="47.33588" lon="2.97474">
        <ele>182.74459838867</ele>
        <time>2016-03-30T14:28:40.000Z</time>
      </trkpt>
      <trkpt lat="47.3359" lon="2.97479">
        <ele>182.62699890137</ele>
        <time>2016-03-30T14:28:43.000Z</time>
      </trkpt>
      <trkpt lat="47.33591" lon="2.97484">
        <ele>182.50112915039</ele>
        <time>2016-03-30T14:28:46.000Z</time>
      </trkpt>
      <trkpt lat="47.33593" lon="2.97488">
        <ele>182.38333129883</ele>
        <time>2016-03-30T14:28:49.000Z</time>
      </trkpt>
      <trkpt lat="47.33593" lon="2.97491">
        <ele>182.27143859863</ele>
        <time>2016-03-30T14:28:51.000Z</time>
      </trkpt>
      <trkpt lat="47.33595" lon="2.97497">
        <ele>182.15058898926</ele>
        <time>2016-03-30T14:28:54.000Z</time>
      </trkpt>
      <trkpt lat="47.33596" lon="2.97502">
        <ele>182.0472869873</ele>
        <time>2016-03-30T14:28:57.000Z</time>
      </trkpt>
      <trkpt lat="47.33596" lon="2.97507">
        <ele>181.96893310547</ele>
        <time>2016-03-30T14:29:00.000Z</time>
      </trkpt>
      <trkpt lat="47.33596" lon="2.9751">
        <ele>181.91821289062</ele>
        <time>2016-03-30T14:29:02.000Z</time>
      </trkpt>
      <trkpt lat="47.33596" lon="2.97515">
        <ele>181.8858795166</ele>
        <time>2016-03-30T14:29:05.000Z</time>
      </trkpt>
      <trkpt lat="47.33596" lon="2.97518">
        <ele>181.8840637207</ele>
        <time>2016-03-30T14:29:07.000Z</time>
      </trkpt>
      <trkpt lat="47.33597" lon="2.97523">
        <ele>181.89733886719</ele>
        <time>2016-03-30T14:29:10.000Z</time>
      </trkpt>
      <trkpt lat="47.33598" lon="2.97527">
        <ele>181.91192626953</ele>
        <time>2016-03-30T14:29:12.000Z</time>
      </trkpt>
      <trkpt lat="47.33598" lon="2.97532">
        <ele>181.92709350586</ele>
        <time>2016-03-30T14:29:15.000Z</time>
      </trkpt>
      <trkpt lat="47.33599" lon="2.97535">
        <ele>181.94046020508</ele>
        <time>2016-03-30T14:29:17.000Z</time>
      </trkpt>
      <trkpt lat="47.33599" lon="2.97538">
        <ele>181.95498657227</ele>
        <time>2016-03-30T14:29:19.000Z</time>
      </trkpt>
      <trkpt lat="47.33599" lon="2.97543">
        <ele>181.97079467773</ele>
        <time>2016-03-30T14:29:22.000Z</time>
      </trkpt>
      <trkpt lat="47.33601" lon="2.97546">
        <ele>181.98698425293</ele>
        <time>2016-03-30T14:29:25.000Z</time>
      </trkpt>
      <trkpt lat="47.33602" lon="2.97549">
        <ele>182.0033416748</ele>
        <time>2016-03-30T14:29:27.000Z</time>
      </trkpt>
      <trkpt lat="47.33603" lon="2.97553">
        <ele>182.02154541016</ele>
        <time>2016-03-30T14:29:29.000Z</time>
      </trkpt>
      <trkpt lat="47.33603" lon="2.97556">
        <ele>182.04150390625</ele>
        <time>2016-03-30T14:29:32.000Z</time>
      </trkpt>
      <trkpt lat="47.33604" lon="2.9756">
        <ele>182.06253051758</ele>
        <time>2016-03-30T14:29:35.000Z</time>
      </trkpt>
      <trkpt lat="47.33605" lon="2.97564">
        <ele>182.08642578125</ele>
        <time>2016-03-30T14:29:38.000Z</time>
      </trkpt>
      <trkpt lat="47.33605" lon="2.97569">
        <ele>182.11309814453</ele>
        <time>2016-03-30T14:29:41.000Z</time>
      </trkpt>
      <trkpt lat="47.33606" lon="2.97574">
        <ele>182.14367675781</ele>
        <time>2016-03-30T14:29:44.000Z</time>
      </trkpt>
      <trkpt lat="47.33607" lon="2.97578">
        <ele>182.17611694336</ele>
        <time>2016-03-30T14:29:46.000Z</time>
      </trkpt>
      <trkpt lat="47.33608" lon="2.97583">
        <ele>182.21327209473</ele>
        <time>2016-03-30T14:29:50.000Z</time>
      </trkpt>
      <trkpt lat="47.33609" lon="2.97587">
        <ele>182.25534057617</ele>
        <time>2016-03-30T14:29:51.000Z</time>
      </trkpt>
      <trkpt lat="47.3361" lon="2.9759">
        <ele>182.29983520508</ele>
        <time>2016-03-30T14:29:53.000Z</time>
      </trkpt>
      <trkpt lat="47.33611" lon="2.97594">
        <ele>182.34802246094</ele>
        <time>2016-03-30T14:29:56.000Z</time>
      </trkpt>
      <trkpt lat="47.33612" lon="2.97599">
        <ele>182.40710449219</ele>
        <time>2016-03-30T14:29:59.000Z</time>
      </trkpt>
      <trkpt lat="47.33614" lon="2.97604">
        <ele>182.47216796875</ele>
        <time>2016-03-30T14:30:02.000Z</time>
      </trkpt>
      <trkpt lat="47.33615" lon="2.97609">
        <ele>182.53979492188</ele>
        <time>2016-03-30T14:30:05.000Z</time>
      </trkpt>
      <trkpt lat="47.33616" lon="2.97613">
        <ele>182.60955810547</ele>
        <time>2016-03-30T14:30:07.000Z</time>
      </trkpt>
      <trkpt lat="47.33617" lon="2.97617">
        <ele>182.68054199219</ele>
        <time>2016-03-30T14:30:10.000Z</time>
      </trkpt>
      <trkpt lat="47.33618" lon="2.97624">
        <ele>182.75372314453</ele>
        <time>2016-03-30T14:30:13.000Z</time>
      </trkpt>
      <trkpt lat="47.33619" lon="2.97628">
        <ele>182.82287597656</ele>
        <time>2016-03-30T14:30:16.000Z</time>
      </trkpt>
      <trkpt lat="47.3362" lon="2.97632">
        <ele>182.89001464844</ele>
        <time>2016-03-30T14:30:18.000Z</time>
      </trkpt>
      <trkpt lat="47.33621" lon="2.97637">
        <ele>182.96148681641</ele>
        <time>2016-03-30T14:30:21.000Z</time>
      </trkpt>
      <trkpt lat="47.33623" lon="2.97643">
        <ele>183.03619384766</ele>
        <time>2016-03-30T14:30:24.000Z</time>
      </trkpt>
      <trkpt lat="47.33623" lon="2.97647">
        <ele>183.10198974609</ele>
        <time>2016-03-30T14:30:26.000Z</time>
      </trkpt>
      <trkpt lat="47.33625" lon="2.97651">
        <ele>183.17028808594</ele>
        <time>2016-03-30T14:30:29.000Z</time>
      </trkpt>
      <trkpt lat="47.33626" lon="2.97653">
        <ele>183.23602294922</ele>
        <time>2016-03-30T14:30:31.000Z</time>
      </trkpt>
      <trkpt lat="47.33627" lon="2.97658">
        <ele>183.30047607422</ele>
        <time>2016-03-30T14:30:34.000Z</time>
      </trkpt>
      <trkpt lat="47.33627" lon="2.97661">
        <ele>183.35565185547</ele>
        <time>2016-03-30T14:30:36.000Z</time>
      </trkpt>
      <trkpt lat="47.33628" lon="2.97664">
        <ele>183.40777587891</ele>
        <time>2016-03-30T14:30:38.000Z</time>
      </trkpt>
      <trkpt lat="47.33629" lon="2.9767">
        <ele>183.4359588623</ele>
        <time>2016-03-30T14:30:41.000Z</time>
      </trkpt>
      <trkpt lat="47.3363" lon="2.97672">
        <ele>183.44177246094</ele>
        <time>2016-03-30T14:30:43.000Z</time>
      </trkpt>
      <trkpt lat="47.33631" lon="2.97676">
        <ele>183.40489196777</ele>
        <time>2016-03-30T14:30:46.000Z</time>
      </trkpt>
      <trkpt lat="47.33633" lon="2.97681">
        <ele>183.33605957031</ele>
        <time>2016-03-30T14:30:49.000Z</time>
      </trkpt>
      <trkpt lat="47.33636" lon="2.97687">
        <ele>183.23147583008</ele>
        <time>2016-03-30T14:30:52.000Z</time>
      </trkpt>
      <trkpt lat="47.33637" lon="2.9769">
        <ele>183.11763000488</ele>
        <time>2016-03-30T14:30:55.000Z</time>
      </trkpt>
      <trkpt lat="47.33639" lon="2.97695">
        <ele>182.99174499512</ele>
        <time>2016-03-30T14:30:58.000Z</time>
      </trkpt>
      <trkpt lat="47.3364" lon="2.977">
        <ele>182.86701965332</ele>
        <time>2016-03-30T14:31:01.000Z</time>
      </trkpt>
      <trkpt lat="47.33641" lon="2.97703">
        <ele>182.75273132324</ele>
        <time>2016-03-30T14:31:03.000Z</time>
      </trkpt>
      <trkpt lat="47.33643" lon="2.97709">
        <ele>182.64340209961</ele>
        <time>2016-03-30T14:31:06.000Z</time>
      </trkpt>
      <trkpt lat="47.33644" lon="2.97713">
        <ele>182.53372192383</ele>
        <time>2016-03-30T14:31:09.000Z</time>
      </trkpt>
      <trkpt lat="47.33646" lon="2.97717">
        <ele>182.43081665039</ele>
        <time>2016-03-30T14:31:11.000Z</time>
      </trkpt>
      <trkpt lat="47.33647" lon="2.9772">
        <ele>182.34335327148</ele>
        <time>2016-03-30T14:31:14.000Z</time>
      </trkpt>
      <trkpt lat="47.33649" lon="2.97725">
        <ele>182.25480651855</ele>
        <time>2016-03-30T14:31:17.000Z</time>
      </trkpt>
      <trkpt lat="47.3365" lon="2.9773">
        <ele>182.16912841797</ele>
        <time>2016-03-30T14:31:20.000Z</time>
      </trkpt>
      <trkpt lat="47.33652" lon="2.97733">
        <ele>182.08947753906</ele>
        <time>2016-03-30T14:31:23.000Z</time>
      </trkpt>
      <trkpt lat="47.33653" lon="2.97738">
        <ele>182.01443481445</ele>
        <time>2016-03-30T14:31:26.000Z</time>
      </trkpt>
      <trkpt lat="47.33655" lon="2.97741">
        <ele>181.94230651855</ele>
        <time>2016-03-30T14:31:28.000Z</time>
      </trkpt>
      <trkpt lat="47.33656" lon="2.97746">
        <ele>181.87033081055</ele>
        <time>2016-03-30T14:31:31.000Z</time>
      </trkpt>
      <trkpt lat="47.33658" lon="2.9775">
        <ele>181.80778503418</ele>
        <time>2016-03-30T14:31:34.000Z</time>
      </trkpt>
      <trkpt lat="47.3366" lon="2.97756">
        <ele>181.74526977539</ele>
        <time>2016-03-30T14:31:37.000Z</time>
      </trkpt>
      <trkpt lat="47.33661" lon="2.9776">
        <ele>181.68070983887</ele>
        <time>2016-03-30T14:31:39.000Z</time>
      </trkpt>
      <trkpt lat="47.33663" lon="2.97766">
        <ele>181.61563110352</ele>
        <time>2016-03-30T14:31:42.000Z</time>
      </trkpt>
      <trkpt lat="47.33664" lon="2.97769">
        <ele>181.55697631836</ele>
        <time>2016-03-30T14:31:44.000Z</time>
      </trkpt>
      <trkpt lat="47.33665" lon="2.97774">
        <ele>181.49702453613</ele>
        <time>2016-03-30T14:31:47.000Z</time>
      </trkpt>
      <trkpt lat="47.33667" lon="2.97777">
        <ele>181.4443359375</ele>
        <time>2016-03-30T14:31:49.000Z</time>
      </trkpt>
      <trkpt lat="47.33668" lon="2.97781">
        <ele>181.39001464844</ele>
        <time>2016-03-30T14:31:52.000Z</time>
      </trkpt>
      <trkpt lat="47.33669" lon="2.97784">
        <ele>181.3309173584</ele>
        <time>2016-03-30T14:31:54.000Z</time>
      </trkpt>
      <trkpt lat="47.33671" lon="2.97789">
        <ele>181.26142883301</ele>
        <time>2016-03-30T14:31:57.000Z</time>
      </trkpt>
      <trkpt lat="47.33672" lon="2.97793">
        <ele>181.1822052002</ele>
        <time>2016-03-30T14:32:00.000Z</time>
      </trkpt>
      <trkpt lat="47.33673" lon="2.97797">
        <ele>181.09214782715</ele>
        <time>2016-03-30T14:32:02.000Z</time>
      </trkpt>
      <trkpt lat="47.33675" lon="2.97802">
        <ele>181.00325012207</ele>
        <time>2016-03-30T14:32:05.000Z</time>
      </trkpt>
      <trkpt lat="47.33675" lon="2.97804">
        <ele>180.91665649414</ele>
        <time>2016-03-30T14:32:07.000Z</time>
      </trkpt>
      <trkpt lat="47.33676" lon="2.9781">
        <ele>180.82650756836</ele>
        <time>2016-03-30T14:32:10.000Z</time>
      </trkpt>
      <trkpt lat="47.33677" lon="2.97814">
        <ele>180.74140930176</ele>
        <time>2016-03-30T14:32:12.000Z</time>
      </trkpt>
      <trkpt lat="47.33678" lon="2.9782">
        <ele>180.64892578125</ele>
        <time>2016-03-30T14:32:15.000Z</time>
      </trkpt>
      <trkpt lat="47.33678" lon="2.97823">
        <ele>180.55879211426</ele>
        <time>2016-03-30T14:32:17.000Z</time>
      </trkpt>
      <trkpt lat="47.33679" lon="2.97829">
        <ele>180.45515441895</ele>
        <time>2016-03-30T14:32:20.000Z</time>
      </trkpt>
      <trkpt lat="47.33681" lon="2.97831">
        <ele>180.36882019043</ele>
        <time>2016-03-30T14:32:22.000Z</time>
      </trkpt>
      <trkpt lat="47.33682" lon="2.97835">
        <ele>180.28955078125</ele>
        <time>2016-03-30T14:32:24.000Z</time>
      </trkpt>
      <trkpt lat="47.33683" lon="2.97841">
        <ele>180.22085571289</ele>
        <time>2016-03-30T14:32:27.000Z</time>
      </trkpt>
      <trkpt lat="47.33685" lon="2.97846">
        <ele>180.16079711914</ele>
        <time>2016-03-30T14:32:29.000Z</time>
      </trkpt>
      <trkpt lat="47.33686" lon="2.9785">
        <ele>180.11888122559</ele>
        <time>2016-03-30T14:32:32.000Z</time>
      </trkpt>
      <trkpt lat="47.33687" lon="2.97853">
        <ele>180.07720947266</ele>
        <time>2016-03-30T14:32:35.000Z</time>
      </trkpt>
      <trkpt lat="47.33689" lon="2.97858">
        <ele>180.03820800781</ele>
        <time>2016-03-30T14:32:38.000Z</time>
      </trkpt>
      <trkpt lat="47.3369" lon="2.97862">
        <ele>180.00494384766</ele>
        <time>2016-03-30T14:32:41.000Z</time>
      </trkpt>
      <trkpt lat="47.33691" lon="2.97867">
        <ele>179.96685791016</ele>
        <time>2016-03-30T14:32:44.000Z</time>
      </trkpt>
      <trkpt lat="47.33692" lon="2.97871">
        <ele>179.93041992188</ele>
        <time>2016-03-30T14:32:46.000Z</time>
      </trkpt>
      <trkpt lat="47.33693" lon="2.97875">
        <ele>179.89318847656</ele>
        <time>2016-03-30T14:32:49.000Z</time>
      </trkpt>
      <trkpt lat="47.33694" lon="2.97881">
        <ele>179.85260009766</ele>
        <time>2016-03-30T14:32:52.000Z</time>
      </trkpt>
      <trkpt lat="47.33695" lon="2.97886">
        <ele>179.80786132812</ele>
        <time>2016-03-30T14:32:55.000Z</time>
      </trkpt>
      <trkpt lat="47.33696" lon="2.97889">
        <ele>179.7666015625</ele>
        <time>2016-03-30T14:32:57.000Z</time>
      </trkpt>
      <trkpt lat="47.33697" lon="2.97893">
        <ele>179.72430419922</ele>
        <time>2016-03-30T14:32:59.000Z</time>
      </trkpt>
      <trkpt lat="47.33698" lon="2.97896">
        <ele>179.68469238281</ele>
        <time>2016-03-30T14:33:01.000Z</time>
      </trkpt>
      <trkpt lat="47.33699" lon="2.979">
        <ele>179.64959716797</ele>
        <time>2016-03-30T14:33:04.000Z</time>
      </trkpt>
      <trkpt lat="47.337" lon="2.97903">
        <ele>179.61920166016</ele>
        <time>2016-03-30T14:33:06.000Z</time>
      </trkpt>
      <trkpt lat="47.33701" lon="2.97907">
        <ele>179.58892822266</ele>
        <time>2016-03-30T14:33:08.000Z</time>
      </trkpt>
      <trkpt lat="47.33702" lon="2.97912">
        <ele>179.55780029297</ele>
        <time>2016-03-30T14:33:11.000Z</time>
      </trkpt>
      <trkpt lat="47.33703" lon="2.97916">
        <ele>179.52166748047</ele>
        <time>2016-03-30T14:33:13.000Z</time>
      </trkpt>
      <trkpt lat="47.33703" lon="2.97922">
        <ele>179.47735595703</ele>
        <time>2016-03-30T14:33:16.000Z</time>
      </trkpt>
      <trkpt lat="47.33702" lon="2.97924">
        <ele>179.43426513672</ele>
        <time>2016-03-30T14:33:18.000Z</time>
      </trkpt>
      <trkpt lat="47.33703" lon="2.97927">
        <ele>179.39245605469</ele>
        <time>2016-03-30T14:33:21.000Z</time>
      </trkpt>
      <trkpt lat="47.33704" lon="2.97933">
        <ele>179.34619140625</ele>
        <time>2016-03-30T14:33:24.000Z</time>
      </trkpt>
      <trkpt lat="47.33705" lon="2.97935">
        <ele>179.30462646484</ele>
        <time>2016-03-30T14:33:26.000Z</time>
      </trkpt>
      <trkpt lat="47.33706" lon="2.9794">
        <ele>179.26654052734</ele>
        <time>2016-03-30T14:33:29.000Z</time>
      </trkpt>
      <trkpt lat="47.33706" lon="2.97944">
        <ele>179.228515625</ele>
        <time>2016-03-30T14:33:31.000Z</time>
      </trkpt>
      <trkpt lat="47.33707" lon="2.97948">
        <ele>179.18695068359</ele>
        <time>2016-03-30T14:33:34.000Z</time>
      </trkpt>
      <trkpt lat="47.33708" lon="2.97953">
        <ele>179.14733886719</ele>
        <time>2016-03-30T14:33:37.000Z</time>
      </trkpt>
      <trkpt lat="47.33709" lon="2.97959">
        <ele>179.10125732422</ele>
        <time>2016-03-30T14:33:40.000Z</time>
      </trkpt>
      <trkpt lat="47.3371" lon="2.97962">
        <ele>179.05975341797</ele>
        <time>2016-03-30T14:33:42.000Z</time>
      </trkpt>
      <trkpt lat="47.33711" lon="2.97966">
        <ele>179.01629638672</ele>
        <time>2016-03-30T14:33:47.000Z</time>
      </trkpt>
      <trkpt lat="47.33712" lon="2.9797">
        <ele>178.97442626953</ele>
        <time>2016-03-30T14:33:48.000Z</time>
      </trkpt>
      <trkpt lat="47.33713" lon="2.97974">
        <ele>178.93481445312</ele>
        <time>2016-03-30T14:33:51.000Z</time>
      </trkpt>
      <trkpt lat="47.33714" lon="2.9798">
        <ele>178.89465332031</ele>
        <time>2016-03-30T14:33:54.000Z</time>
      </trkpt>
      <trkpt lat="47.33714" lon="2.97983">
        <ele>178.85443115234</ele>
        <time>2016-03-30T14:33:56.000Z</time>
      </trkpt>
      <trkpt lat="47.33714" lon="2.97988">
        <ele>178.80804443359</ele>
        <time>2016-03-30T14:33:59.000Z</time>
      </trkpt>
      <trkpt lat="47.33714" lon="2.9799">
        <ele>178.76409912109</ele>
        <time>2016-03-30T14:34:01.000Z</time>
      </trkpt>
      <trkpt lat="47.33714" lon="2.97993">
        <ele>178.72039794922</ele>
        <time>2016-03-30T14:34:04.000Z</time>
      </trkpt>
      <trkpt lat="47.33713" lon="2.97995">
        <ele>178.68151855469</ele>
        <time>2016-03-30T14:34:07.000Z</time>
      </trkpt>
      <trkpt lat="47.33714" lon="2.97996">
        <ele>178.64886474609</ele>
        <time>2016-03-30T14:34:14.000Z</time>
      </trkpt>
      <trkpt lat="47.33716" lon="2.97999">
        <ele>178.63024902344</ele>
        <time>2016-03-30T14:34:17.000Z</time>
      </trkpt>
      <trkpt lat="47.33718" lon="2.98002">
        <ele>178.61628723145</ele>
        <time>2016-03-30T14:34:20.000Z</time>
      </trkpt>
      <trkpt lat="47.3372" lon="2.98008">
        <ele>178.60830688477</ele>
        <time>2016-03-30T14:34:23.000Z</time>
      </trkpt>
      <trkpt lat="47.33721" lon="2.98012">
        <ele>178.60697937012</ele>
        <time>2016-03-30T14:34:26.000Z</time>
      </trkpt>
      <trkpt lat="47.33722" lon="2.98013">
        <ele>178.60818481445</ele>
        <time>2016-03-30T14:34:28.000Z</time>
      </trkpt>
      <trkpt lat="47.33723" lon="2.98016">
        <ele>178.60882568359</ele>
        <time>2016-03-30T14:34:30.000Z</time>
      </trkpt>
      <trkpt lat="47.33724" lon="2.98019">
        <ele>178.61131286621</ele>
        <time>2016-03-30T14:34:32.000Z</time>
      </trkpt>
      <trkpt lat="47.33725" lon="2.98021">
        <ele>178.61512756348</ele>
        <time>2016-03-30T14:34:34.000Z</time>
      </trkpt>
      <trkpt lat="47.33726" lon="2.98025">
        <ele>178.61795043945</ele>
        <time>2016-03-30T14:34:37.000Z</time>
      </trkpt>
      <trkpt lat="47.33727" lon="2.98028">
        <ele>178.6203918457</ele>
        <time>2016-03-30T14:34:39.000Z</time>
      </trkpt>
      <trkpt lat="47.33728" lon="2.98031">
        <ele>178.62496948242</ele>
        <time>2016-03-30T14:34:41.000Z</time>
      </trkpt>
      <trkpt lat="47.3373" lon="2.98035">
        <ele>178.63410949707</ele>
        <time>2016-03-30T14:34:44.000Z</time>
      </trkpt>
      <trkpt lat="47.33731" lon="2.98038">
        <ele>178.6449432373</ele>
        <time>2016-03-30T14:34:46.000Z</time>
      </trkpt>
      <trkpt lat="47.33733" lon="2.98041">
        <ele>178.66006469727</ele>
        <time>2016-03-30T14:34:49.000Z</time>
      </trkpt>
      <trkpt lat="47.33734" lon="2.98043">
        <ele>178.67660522461</ele>
        <time>2016-03-30T14:34:51.000Z</time>
      </trkpt>
      <trkpt lat="47.33736" lon="2.98048">
        <ele>178.69538879395</ele>
        <time>2016-03-30T14:34:54.000Z</time>
      </trkpt>
      <trkpt lat="47.33735" lon="2.98049">
        <ele>178.70602416992</ele>
        <time>2016-03-30T14:34:56.000Z</time>
      </trkpt>
      <trkpt lat="47.33736" lon="2.98051">
        <ele>178.71939086914</ele>
        <time>2016-03-30T14:34:59.000Z</time>
      </trkpt>
      <trkpt lat="47.33737" lon="2.98053">
        <ele>178.72940063477</ele>
        <time>2016-03-30T14:35:01.000Z</time>
      </trkpt>
      <trkpt lat="47.33738" lon="2.98055">
        <ele>178.73860168457</ele>
        <time>2016-03-30T14:35:03.000Z</time>
      </trkpt>
      <trkpt lat="47.33738" lon="2.98057">
        <ele>178.74458312988</ele>
        <time>2016-03-30T14:35:10.000Z</time>
      </trkpt>
      <trkpt lat="47.33739" lon="2.9806">
        <ele>178.75537109375</ele>
        <time>2016-03-30T14:35:12.000Z</time>
      </trkpt>
      <trkpt lat="47.33739" lon="2.98061">
        <ele>178.76327514648</ele>
        <time>2016-03-30T14:35:14.000Z</time>
      </trkpt>
      <trkpt lat="47.33741" lon="2.98064">
        <ele>178.7746887207</ele>
        <time>2016-03-30T14:35:17.000Z</time>
      </trkpt>
      <trkpt lat="47.33742" lon="2.98068">
        <ele>178.78958129883</ele>
        <time>2016-03-30T14:35:19.000Z</time>
      </trkpt>
      <trkpt lat="47.33744" lon="2.98072">
        <ele>178.8117980957</ele>
        <time>2016-03-30T14:35:22.000Z</time>
      </trkpt>
      <trkpt lat="47.33746" lon="2.98076">
        <ele>178.83639526367</ele>
        <time>2016-03-30T14:35:25.000Z</time>
      </trkpt>
      <trkpt lat="47.33747" lon="2.9808">
        <ele>178.86503601074</ele>
        <time>2016-03-30T14:35:27.000Z</time>
      </trkpt>
      <trkpt lat="47.33748" lon="2.98083">
        <ele>178.89506530762</ele>
        <time>2016-03-30T14:35:30.000Z</time>
      </trkpt>
      <trkpt lat="47.3375" lon="2.98088">
        <ele>178.90519714355</ele>
        <time>2016-03-30T14:35:33.000Z</time>
      </trkpt>
      <trkpt lat="47.33752" lon="2.98093">
        <ele>178.88626098633</ele>
        <time>2016-03-30T14:35:36.000Z</time>
      </trkpt>
      <trkpt lat="47.33754" lon="2.98096">
        <ele>178.84490966797</ele>
        <time>2016-03-30T14:35:39.000Z</time>
      </trkpt>
      <trkpt lat="47.33755" lon="2.981">
        <ele>178.77824401855</ele>
        <time>2016-03-30T14:35:41.000Z</time>
      </trkpt>
      <trkpt lat="47.33757" lon="2.98104">
        <ele>178.68969726562</ele>
        <time>2016-03-30T14:35:43.000Z</time>
      </trkpt>
      <trkpt lat="47.33759" lon="2.98108">
        <ele>178.59265136719</ele>
        <time>2016-03-30T14:35:46.000Z</time>
      </trkpt>
      <trkpt lat="47.3376" lon="2.98111">
        <ele>178.50524902344</ele>
        <time>2016-03-30T14:35:48.000Z</time>
      </trkpt>
      <trkpt lat="47.33761" lon="2.98114">
        <ele>178.42004394531</ele>
        <time>2016-03-30T14:35:51.000Z</time>
      </trkpt>
      <trkpt lat="47.33764" lon="2.98118">
        <ele>178.33422851562</ele>
        <time>2016-03-30T14:35:54.000Z</time>
      </trkpt>
      <trkpt lat="47.33765" lon="2.98121">
        <ele>178.25109863281</ele>
        <time>2016-03-30T14:35:56.000Z</time>
      </trkpt>
      <trkpt lat="47.33767" lon="2.98126">
        <ele>178.16857910156</ele>
        <time>2016-03-30T14:35:59.000Z</time>
      </trkpt>
      <trkpt lat="47.33767" lon="2.98128">
        <ele>178.08642578125</ele>
        <time>2016-03-30T14:36:01.000Z</time>
      </trkpt>
      <trkpt lat="47.33768" lon="2.98131">
        <ele>178.00378417969</ele>
        <time>2016-03-30T14:36:03.000Z</time>
      </trkpt>
      <trkpt lat="47.3377" lon="2.98136">
        <ele>177.91918945312</ele>
        <time>2016-03-30T14:36:06.000Z</time>
      </trkpt>
      <trkpt lat="47.33772" lon="2.98141">
        <ele>177.82421875</ele>
        <time>2016-03-30T14:36:09.000Z</time>
      </trkpt>
      <trkpt lat="47.33774" lon="2.98147">
        <ele>177.72229003906</ele>
        <time>2016-03-30T14:36:12.000Z</time>
      </trkpt>
      <trkpt lat="47.33776" lon="2.98153">
        <ele>177.60241699219</ele>
        <time>2016-03-30T14:36:15.000Z</time>
      </trkpt>
      <trkpt lat="47.33778" lon="2.98157">
        <ele>177.4794921875</ele>
        <time>2016-03-30T14:36:18.000Z</time>
      </trkpt>
      <trkpt lat="47.3378" lon="2.98161">
        <ele>177.35974121094</ele>
        <time>2016-03-30T14:36:21.000Z</time>
      </trkpt>
      <trkpt lat="47.33781" lon="2.98164">
        <ele>177.24841308594</ele>
        <time>2016-03-30T14:36:23.000Z</time>
      </trkpt>
      <trkpt lat="47.33782" lon="2.98168">
        <ele>177.15127563477</ele>
        <time>2016-03-30T14:36:26.000Z</time>
      </trkpt>
      <trkpt lat="47.33784" lon="2.98173">
        <ele>177.0708770752</ele>
        <time>2016-03-30T14:36:29.000Z</time>
      </trkpt>
      <trkpt lat="47.33785" lon="2.98176">
        <ele>177.0013885498</ele>
        <time>2016-03-30T14:36:32.000Z</time>
      </trkpt>
      <trkpt lat="47.33786" lon="2.98179">
        <ele>176.94430541992</ele>
        <time>2016-03-30T14:36:35.000Z</time>
      </trkpt>
      <trkpt lat="47.33788" lon="2.98182">
        <ele>176.89434814453</ele>
        <time>2016-03-30T14:36:38.000Z</time>
      </trkpt>
      <trkpt lat="47.33788" lon="2.98184">
        <ele>176.85504150391</ele>
        <time>2016-03-30T14:36:41.000Z</time>
      </trkpt>
      <trkpt lat="47.33788" lon="2.98186">
        <ele>176.82366943359</ele>
        <time>2016-03-30T14:36:45.000Z</time>
      </trkpt>
      <trkpt lat="47.33788" lon="2.98188">
        <ele>176.79577636719</ele>
        <time>2016-03-30T14:36:47.000Z</time>
      </trkpt>
      <trkpt lat="47.33789" lon="2.98193">
        <ele>176.76153564453</ele>
        <time>2016-03-30T14:36:51.000Z</time>
      </trkpt>
      <trkpt lat="47.3379" lon="2.98198">
        <ele>176.72442626953</ele>
        <time>2016-03-30T14:36:52.000Z</time>
      </trkpt>
      <trkpt lat="47.33791" lon="2.98202">
        <ele>176.68157958984</ele>
        <time>2016-03-30T14:36:55.000Z</time>
      </trkpt>
      <trkpt lat="47.33791" lon="2.98204">
        <ele>176.63757324219</ele>
        <time>2016-03-30T14:36:57.000Z</time>
      </trkpt>
      <trkpt lat="47.33792" lon="2.98206">
        <ele>176.59320068359</ele>
        <time>2016-03-30T14:36:59.000Z</time>
      </trkpt>
      <trkpt lat="47.33794" lon="2.98211">
        <ele>176.54943847656</ele>
        <time>2016-03-30T14:37:02.000Z</time>
      </trkpt>
      <trkpt lat="47.33796" lon="2.98216">
        <ele>176.505859375</ele>
        <time>2016-03-30T14:37:05.000Z</time>
      </trkpt>
      <trkpt lat="47.33798" lon="2.9822">
        <ele>176.46240234375</ele>
        <time>2016-03-30T14:37:08.000Z</time>
      </trkpt>
      <trkpt lat="47.338" lon="2.98226">
        <ele>176.41046142578</ele>
        <time>2016-03-30T14:37:11.000Z</time>
      </trkpt>
      <trkpt lat="47.33801" lon="2.9823">
        <ele>176.353515625</ele>
        <time>2016-03-30T14:37:14.000Z</time>
      </trkpt>
      <trkpt lat="47.33802" lon="2.98232">
        <ele>176.30352783203</ele>
        <time>2016-03-30T14:37:16.000Z</time>
      </trkpt>
      <trkpt lat="47.33804" lon="2.98237">
        <ele>176.25360107422</ele>
        <time>2016-03-30T14:37:19.000Z</time>
      </trkpt>
      <trkpt lat="47.33805" lon="2.9824">
        <ele>176.20440673828</ele>
        <time>2016-03-30T14:37:21.000Z</time>
      </trkpt>
      <trkpt lat="47.33806" lon="2.98245">
        <ele>176.15814208984</ele>
        <time>2016-03-30T14:37:24.000Z</time>
      </trkpt>
      <trkpt lat="47.33808" lon="2.98249">
        <ele>176.11181640625</ele>
        <time>2016-03-30T14:37:26.000Z</time>
      </trkpt>
      <trkpt lat="47.3381" lon="2.98253">
        <ele>176.05899047852</ele>
        <time>2016-03-30T14:37:29.000Z</time>
      </trkpt>
      <trkpt lat="47.33812" lon="2.98257">
        <ele>176.0062713623</ele>
        <time>2016-03-30T14:37:32.000Z</time>
      </trkpt>
      <trkpt lat="47.33813" lon="2.98259">
        <ele>175.95603942871</ele>
        <time>2016-03-30T14:37:34.000Z</time>
      </trkpt>
      <trkpt lat="47.33815" lon="2.98263">
        <ele>175.90490722656</ele>
        <time>2016-03-30T14:37:37.000Z</time>
      </trkpt>
      <trkpt lat="47.33816" lon="2.98265">
        <ele>175.85836791992</ele>
        <time>2016-03-30T14:37:39.000Z</time>
      </trkpt>
      <trkpt lat="47.33817" lon="2.98268">
        <ele>175.81784057617</ele>
        <time>2016-03-30T14:37:41.000Z</time>
      </trkpt>
      <trkpt lat="47.3382" lon="2.98272">
        <ele>175.77651977539</ele>
        <time>2016-03-30T14:37:44.000Z</time>
      </trkpt>
      <trkpt lat="47.3382" lon="2.98276">
        <ele>175.73173522949</ele>
        <time>2016-03-30T14:37:47.000Z</time>
      </trkpt>
      <trkpt lat="47.33821" lon="2.98279">
        <ele>175.69206237793</ele>
        <time>2016-03-30T14:37:49.000Z</time>
      </trkpt>
      <trkpt lat="47.33823" lon="2.98284">
        <ele>175.6439666748</ele>
        <time>2016-03-30T14:37:52.000Z</time>
      </trkpt>
      <trkpt lat="47.33823" lon="2.98289">
        <ele>175.59022521973</ele>
        <time>2016-03-30T14:37:54.000Z</time>
      </trkpt>
      <trkpt lat="47.33825" lon="2.98293">
        <ele>175.53744506836</ele>
        <time>2016-03-30T14:37:57.000Z</time>
      </trkpt>
      <trkpt lat="47.33826" lon="2.98298">
        <ele>175.48373413086</ele>
        <time>2016-03-30T14:38:00.000Z</time>
      </trkpt>
      <trkpt lat="47.33828" lon="2.98302">
        <ele>175.4291229248</ele>
        <time>2016-03-30T14:38:02.000Z</time>
      </trkpt>
      <trkpt lat="47.3383" lon="2.98307">
        <ele>175.37788391113</ele>
        <time>2016-03-30T14:38:05.000Z</time>
      </trkpt>
      <trkpt lat="47.33831" lon="2.98311">
        <ele>175.33312988281</ele>
        <time>2016-03-30T14:38:08.000Z</time>
      </trkpt>
      <trkpt lat="47.33833" lon="2.98316">
        <ele>175.29043579102</ele>
        <time>2016-03-30T14:38:11.000Z</time>
      </trkpt>
      <trkpt lat="47.33834" lon="2.98319">
        <ele>175.25241088867</ele>
        <time>2016-03-30T14:38:13.000Z</time>
      </trkpt>
      <trkpt lat="47.33836" lon="2.98324">
        <ele>175.21284484863</ele>
        <time>2016-03-30T14:38:16.000Z</time>
      </trkpt>
      <trkpt lat="47.33837" lon="2.98327">
        <ele>175.17922973633</ele>
        <time>2016-03-30T14:38:18.000Z</time>
      </trkpt>
      <trkpt lat="47.33838" lon="2.98332">
        <ele>175.1434173584</ele>
        <time>2016-03-30T14:38:21.000Z</time>
      </trkpt>
      <trkpt lat="47.33839" lon="2.98335">
        <ele>175.10797119141</ele>
        <time>2016-03-30T14:38:23.000Z</time>
      </trkpt>
      <trkpt lat="47.33841" lon="2.98339">
        <ele>175.06547546387</ele>
        <time>2016-03-30T14:38:26.000Z</time>
      </trkpt>
      <trkpt lat="47.33842" lon="2.98344">
        <ele>175.01290893555</ele>
        <time>2016-03-30T14:38:29.000Z</time>
      </trkpt>
      <trkpt lat="47.33844" lon="2.98349">
        <ele>174.95169067383</ele>
        <time>2016-03-30T14:38:33.000Z</time>
      </trkpt>
      <trkpt lat="47.33844" lon="2.98352">
        <ele>174.88484191895</ele>
        <time>2016-03-30T14:38:34.000Z</time>
      </trkpt>
      <trkpt lat="47.33845" lon="2.98357">
        <ele>174.81033325195</ele>
        <time>2016-03-30T14:38:37.000Z</time>
      </trkpt>
      <trkpt lat="47.33847" lon="2.98361">
        <ele>174.73965454102</ele>
        <time>2016-03-30T14:38:40.000Z</time>
      </trkpt>
      <trkpt lat="47.33848" lon="2.98365">
        <ele>174.6764831543</ele>
        <time>2016-03-30T14:38:43.000Z</time>
      </trkpt>
      <trkpt lat="47.3385" lon="2.98371">
        <ele>174.61235046387</ele>
        <time>2016-03-30T14:38:46.000Z</time>
      </trkpt>
      <trkpt lat="47.33851" lon="2.98374">
        <ele>174.5541229248</ele>
        <time>2016-03-30T14:38:49.000Z</time>
      </trkpt>
      <trkpt lat="47.33852" lon="2.98377">
        <ele>174.50346374512</ele>
        <time>2016-03-30T14:38:51.000Z</time>
      </trkpt>
      <trkpt lat="47.33853" lon="2.98381">
        <ele>174.45547485352</ele>
        <time>2016-03-30T14:38:54.000Z</time>
      </trkpt>
      <trkpt lat="47.33854" lon="2.98384">
        <ele>174.41012573242</ele>
        <time>2016-03-30T14:38:56.000Z</time>
      </trkpt>
      <trkpt lat="47.33855" lon="2.98387">
        <ele>174.37528991699</ele>
        <time>2016-03-30T14:38:58.000Z</time>
      </trkpt>
      <trkpt lat="47.33857" lon="2.98392">
        <ele>174.34114074707</ele>
        <time>2016-03-30T14:39:01.000Z</time>
      </trkpt>
      <trkpt lat="47.33859" lon="2.98397">
        <ele>174.30892944336</ele>
        <time>2016-03-30T14:39:04.000Z</time>
      </trkpt>
      <trkpt lat="47.33861" lon="2.98401">
        <ele>174.28164672852</ele>
        <time>2016-03-30T14:39:06.000Z</time>
      </trkpt>
      <trkpt lat="47.33862" lon="2.98405">
        <ele>174.25973510742</ele>
        <time>2016-03-30T14:39:09.000Z</time>
      </trkpt>
      <trkpt lat="47.33864" lon="2.9841">
        <ele>174.23733520508</ele>
        <time>2016-03-30T14:39:12.000Z</time>
      </trkpt>
      <trkpt lat="47.33865" lon="2.98414">
        <ele>174.21841430664</ele>
        <time>2016-03-30T14:39:14.000Z</time>
      </trkpt>
      <trkpt lat="47.33867" lon="2.98419">
        <ele>174.20082092285</ele>
        <time>2016-03-30T14:39:17.000Z</time>
      </trkpt>
      <trkpt lat="47.33867" lon="2.98421">
        <ele>174.18058776855</ele>
        <time>2016-03-30T14:39:19.000Z</time>
      </trkpt>
      <trkpt lat="47.33867" lon="2.98425">
        <ele>174.15985107422</ele>
        <time>2016-03-30T14:39:22.000Z</time>
      </trkpt>
      <trkpt lat="47.33868" lon="2.98428">
        <ele>174.14279174805</ele>
        <time>2016-03-30T14:39:24.000Z</time>
      </trkpt>
      <trkpt lat="47.33869" lon="2.98433">
        <ele>174.12182617188</ele>
        <time>2016-03-30T14:39:27.000Z</time>
      </trkpt>
      <trkpt lat="47.3387" lon="2.98437">
        <ele>174.10827636719</ele>
        <time>2016-03-30T14:39:30.000Z</time>
      </trkpt>
      <trkpt lat="47.33872" lon="2.98442">
        <ele>174.099609375</ele>
        <time>2016-03-30T14:39:33.000Z</time>
      </trkpt>
      <trkpt lat="47.33873" lon="2.98443">
        <ele>174.09454345703</ele>
        <time>2016-03-30T14:39:35.000Z</time>
      </trkpt>
      <trkpt lat="47.33875" lon="2.98448">
        <ele>174.09240722656</ele>
        <time>2016-03-30T14:39:38.000Z</time>
      </trkpt>
      <trkpt lat="47.33877" lon="2.98453">
        <ele>174.10321044922</ele>
        <time>2016-03-30T14:39:41.000Z</time>
      </trkpt>
      <trkpt lat="47.33879" lon="2.98459">
        <ele>174.11199951172</ele>
        <time>2016-03-30T14:39:44.000Z</time>
      </trkpt>
      <trkpt lat="47.33879" lon="2.98462">
        <ele>174.11676025391</ele>
        <time>2016-03-30T14:39:46.000Z</time>
      </trkpt>
      <trkpt lat="47.3388" lon="2.98465">
        <ele>174.11663818359</ele>
        <time>2016-03-30T14:39:49.000Z</time>
      </trkpt>
      <trkpt lat="47.33881" lon="2.9847">
        <ele>174.10699462891</ele>
        <time>2016-03-30T14:39:52.000Z</time>
      </trkpt>
      <trkpt lat="47.33882" lon="2.98473">
        <ele>174.09484863281</ele>
        <time>2016-03-30T14:39:54.000Z</time>
      </trkpt>
      <trkpt lat="47.33883" lon="2.98477">
        <ele>174.08404541016</ele>
        <time>2016-03-30T14:39:57.000Z</time>
      </trkpt>
      <trkpt lat="47.33885" lon="2.98482">
        <ele>174.07238769531</ele>
        <time>2016-03-30T14:40:00.000Z</time>
      </trkpt>
      <trkpt lat="47.33886" lon="2.98487">
        <ele>174.06494140625</ele>
        <time>2016-03-30T14:40:02.000Z</time>
      </trkpt>
      <trkpt lat="47.33888" lon="2.98492">
        <ele>174.07006835938</ele>
        <time>2016-03-30T14:40:05.000Z</time>
      </trkpt>
      <trkpt lat="47.33889" lon="2.98494">
        <ele>174.07360839844</ele>
        <time>2016-03-30T14:40:07.000Z</time>
      </trkpt>
      <trkpt lat="47.33891" lon="2.98498">
        <ele>174.07867431641</ele>
        <time>2016-03-30T14:40:11.000Z</time>
      </trkpt>
      <trkpt lat="47.33892" lon="2.98501">
        <ele>174.08856201172</ele>
        <time>2016-03-30T14:40:12.000Z</time>
      </trkpt>
      <trkpt lat="47.33894" lon="2.98506">
        <ele>174.10327148438</ele>
        <time>2016-03-30T14:40:15.000Z</time>
      </trkpt>
      <trkpt lat="47.33895" lon="2.9851">
        <ele>174.11187744141</ele>
        <time>2016-03-30T14:40:17.000Z</time>
      </trkpt>
      <trkpt lat="47.33897" lon="2.98514">
        <ele>174.11431884766</ele>
        <time>2016-03-30T14:40:20.000Z</time>
      </trkpt>
      <trkpt lat="47.33898" lon="2.98518">
        <ele>174.11450195312</ele>
        <time>2016-03-30T14:40:22.000Z</time>
      </trkpt>
      <trkpt lat="47.339" lon="2.98522">
        <ele>174.11730957031</ele>
        <time>2016-03-30T14:40:25.000Z</time>
      </trkpt>
      <trkpt lat="47.33901" lon="2.98526">
        <ele>174.11975097656</ele>
        <time>2016-03-30T14:40:28.000Z</time>
      </trkpt>
      <trkpt lat="47.33903" lon="2.9853">
        <ele>174.12091064453</ele>
        <time>2016-03-30T14:40:31.000Z</time>
      </trkpt>
      <trkpt lat="47.33904" lon="2.98534">
        <ele>174.12945556641</ele>
        <time>2016-03-30T14:40:34.000Z</time>
      </trkpt>
      <trkpt lat="47.33905" lon="2.98536">
        <ele>174.13958740234</ele>
        <time>2016-03-30T14:40:36.000Z</time>
      </trkpt>
      <trkpt lat="47.33908" lon="2.98542">
        <ele>174.1513671875</ele>
        <time>2016-03-30T14:40:39.000Z</time>
      </trkpt>
      <trkpt lat="47.3391" lon="2.98547">
        <ele>174.16265869141</ele>
        <time>2016-03-30T14:40:42.000Z</time>
      </trkpt>
      <trkpt lat="47.33911" lon="2.98552">
        <ele>174.16943359375</ele>
        <time>2016-03-30T14:40:45.000Z</time>
      </trkpt>
      <trkpt lat="47.33913" lon="2.98557">
        <ele>174.18041992188</ele>
        <time>2016-03-30T14:40:48.000Z</time>
      </trkpt>
      <trkpt lat="47.33915" lon="2.98561">
        <ele>174.18701171875</ele>
        <time>2016-03-30T14:40:51.000Z</time>
      </trkpt>
      <trkpt lat="47.33916" lon="2.98565">
        <ele>174.18884277344</ele>
        <time>2016-03-30T14:40:54.000Z</time>
      </trkpt>
      <trkpt lat="47.33917" lon="2.98569">
        <ele>174.18351745605</ele>
        <time>2016-03-30T14:40:57.000Z</time>
      </trkpt>
      <trkpt lat="47.33918" lon="2.98572">
        <ele>174.1774597168</ele>
        <time>2016-03-30T14:40:59.000Z</time>
      </trkpt>
      <trkpt lat="47.3392" lon="2.98577">
        <ele>174.15205383301</ele>
        <time>2016-03-30T14:41:02.000Z</time>
      </trkpt>
      <trkpt lat="47.3392" lon="2.9858">
        <ele>174.12142944336</ele>
        <time>2016-03-30T14:41:04.000Z</time>
      </trkpt>
      <trkpt lat="47.33922" lon="2.98585">
        <ele>174.07266235352</ele>
        <time>2016-03-30T14:41:07.000Z</time>
      </trkpt>
      <trkpt lat="47.33923" lon="2.98589">
        <ele>174.00373840332</ele>
        <time>2016-03-30T14:41:09.000Z</time>
      </trkpt>
      <trkpt lat="47.33924" lon="2.98594">
        <ele>173.90802001953</ele>
        <time>2016-03-30T14:41:12.000Z</time>
      </trkpt>
      <trkpt lat="47.33925" lon="2.98598">
        <ele>173.80415344238</ele>
        <time>2016-03-30T14:41:14.000Z</time>
      </trkpt>
      <trkpt lat="47.33927" lon="2.98603">
        <ele>173.68003845215</ele>
        <time>2016-03-30T14:41:17.000Z</time>
      </trkpt>
      <trkpt lat="47.33929" lon="2.98606">
        <ele>173.55908203125</ele>
        <time>2016-03-30T14:41:20.000Z</time>
      </trkpt>
      <trkpt lat="47.3393" lon="2.98608">
        <ele>173.45295715332</ele>
        <time>2016-03-30T14:41:22.000Z</time>
      </trkpt>
      <trkpt lat="47.33931" lon="2.9861">
        <ele>173.37252807617</ele>
        <time>2016-03-30T14:41:24.000Z</time>
      </trkpt>
      <trkpt lat="47.33933" lon="2.98613">
        <ele>173.30081176758</ele>
        <time>2016-03-30T14:41:26.000Z</time>
      </trkpt>
      <trkpt lat="47.33935" lon="2.98617">
        <ele>173.24545288086</ele>
        <time>2016-03-30T14:41:29.000Z</time>
      </trkpt>
      <trkpt lat="47.33937" lon="2.98621">
        <ele>173.19534301758</ele>
        <time>2016-03-30T14:41:32.000Z</time>
      </trkpt>
      <trkpt lat="47.33939" lon="2.98624">
        <ele>173.14552307129</ele>
        <time>2016-03-30T14:41:34.000Z</time>
      </trkpt>
      <trkpt lat="47.33941" lon="2.98629">
        <ele>173.08953857422</ele>
        <time>2016-03-30T14:41:37.000Z</time>
      </trkpt>
      <trkpt lat="47.33942" lon="2.98633">
        <ele>173.03369140625</ele>
        <time>2016-03-30T14:41:40.000Z</time>
      </trkpt>
      <trkpt lat="47.33944" lon="2.98638">
        <ele>172.98335266113</ele>
        <time>2016-03-30T14:41:43.000Z</time>
      </trkpt>
      <trkpt lat="47.33945" lon="2.98643">
        <ele>172.93293762207</ele>
        <time>2016-03-30T14:41:46.000Z</time>
      </trkpt>
      <trkpt lat="47.33946" lon="2.98646">
        <ele>172.88696289062</ele>
        <time>2016-03-30T14:41:48.000Z</time>
      </trkpt>
      <trkpt lat="47.33947" lon="2.9865">
        <ele>172.84762573242</ele>
        <time>2016-03-30T14:41:51.000Z</time>
      </trkpt>
      <trkpt lat="47.33949" lon="2.98654">
        <ele>172.81880187988</ele>
        <time>2016-03-30T14:41:53.000Z</time>
      </trkpt>
      <trkpt lat="47.33951" lon="2.98658">
        <ele>172.79895019531</ele>
        <time>2016-03-30T14:41:56.000Z</time>
      </trkpt>
      <trkpt lat="47.33952" lon="2.9866">
        <ele>172.78787231445</ele>
        <time>2016-03-30T14:41:58.000Z</time>
      </trkpt>
      <trkpt lat="47.33955" lon="2.98666">
        <ele>172.79248046875</ele>
        <time>2016-03-30T14:42:01.000Z</time>
      </trkpt>
      <trkpt lat="47.33956" lon="2.98669">
        <ele>172.814453125</ele>
        <time>2016-03-30T14:42:03.000Z</time>
      </trkpt>
      <trkpt lat="47.33958" lon="2.98674">
        <ele>172.85122680664</ele>
        <time>2016-03-30T14:42:06.000Z</time>
      </trkpt>
      <trkpt lat="47.33961" lon="2.98679">
        <ele>172.90672302246</ele>
        <time>2016-03-30T14:42:09.000Z</time>
      </trkpt>
      <trkpt lat="47.33962" lon="2.98682">
        <ele>172.96772766113</ele>
        <time>2016-03-30T14:42:11.000Z</time>
      </trkpt>
      <trkpt lat="47.33962" lon="2.98685">
        <ele>173.01895141602</ele>
        <time>2016-03-30T14:42:14.000Z</time>
      </trkpt>
      <trkpt lat="47.33964" lon="2.98689">
        <ele>173.06875610352</ele>
        <time>2016-03-30T14:42:17.000Z</time>
      </trkpt>
      <trkpt lat="47.33966" lon="2.98695">
        <ele>173.11996459961</ele>
        <time>2016-03-30T14:42:20.000Z</time>
      </trkpt>
      <trkpt lat="47.33968" lon="2.98699">
        <ele>173.16589355469</ele>
        <time>2016-03-30T14:42:23.000Z</time>
      </trkpt>
      <trkpt lat="47.33969" lon="2.98703">
        <ele>173.22148132324</ele>
        <time>2016-03-30T14:42:26.000Z</time>
      </trkpt>
      <trkpt lat="47.33971" lon="2.98706">
        <ele>173.29098510742</ele>
        <time>2016-03-30T14:42:28.000Z</time>
      </trkpt>
      <trkpt lat="47.33972" lon="2.98708">
        <ele>173.35879516602</ele>
        <time>2016-03-30T14:42:30.000Z</time>
      </trkpt>
      <trkpt lat="47.33973" lon="2.98711">
        <ele>173.42216491699</ele>
        <time>2016-03-30T14:42:32.000Z</time>
      </trkpt>
      <trkpt lat="47.33974" lon="2.98714">
        <ele>173.47518920898</ele>
        <time>2016-03-30T14:42:34.000Z</time>
      </trkpt>
      <trkpt lat="47.33975" lon="2.98718">
        <ele>173.52471923828</ele>
        <time>2016-03-30T14:42:37.000Z</time>
      </trkpt>
      <trkpt lat="47.33976" lon="2.98722">
        <ele>173.56611633301</ele>
        <time>2016-03-30T14:42:39.000Z</time>
      </trkpt>
      <trkpt lat="47.33978" lon="2.98727">
        <ele>173.62008666992</ele>
        <time>2016-03-30T14:42:42.000Z</time>
      </trkpt>
      <trkpt lat="47.33979" lon="2.98731">
        <ele>173.67468261719</ele>
        <time>2016-03-30T14:42:44.000Z</time>
      </trkpt>
      <trkpt lat="47.33981" lon="2.98735">
        <ele>173.73934936523</ele>
        <time>2016-03-30T14:42:47.000Z</time>
      </trkpt>
      <trkpt lat="47.33984" lon="2.98739">
        <ele>173.82891845703</ele>
        <time>2016-03-30T14:42:50.000Z</time>
      </trkpt>
      <trkpt lat="47.33985" lon="2.9874">
        <ele>173.92558288574</ele>
        <time>2016-03-30T14:42:52.000Z</time>
      </trkpt>
      <trkpt lat="47.33987" lon="2.98743">
        <ele>174.02590942383</ele>
        <time>2016-03-30T14:42:54.000Z</time>
      </trkpt>
      <trkpt lat="47.33989" lon="2.98746">
        <ele>174.13287353516</ele>
        <time>2016-03-30T14:42:58.000Z</time>
      </trkpt>
      <trkpt lat="47.33991" lon="2.9875">
        <ele>174.2452545166</ele>
        <time>2016-03-30T14:42:59.000Z</time>
      </trkpt>
      <trkpt lat="47.33993" lon="2.98755">
        <ele>174.33018493652</ele>
        <time>2016-03-30T14:43:02.000Z</time>
      </trkpt>
      <trkpt lat="47.33994" lon="2.98757">
        <ele>174.40071105957</ele>
        <time>2016-03-30T14:43:05.000Z</time>
      </trkpt>
      <trkpt lat="47.33997" lon="2.98761">
        <ele>174.46492004395</ele>
        <time>2016-03-30T14:43:08.000Z</time>
      </trkpt>
      <trkpt lat="47.33999" lon="2.98765">
        <ele>174.5143737793</ele>
        <time>2016-03-30T14:43:11.000Z</time>
      </trkpt>
      <trkpt lat="47.34" lon="2.98767">
        <ele>174.54267883301</ele>
        <time>2016-03-30T14:43:13.000Z</time>
      </trkpt>
      <trkpt lat="47.34003" lon="2.98771">
        <ele>174.54446411133</ele>
        <time>2016-03-30T14:43:16.000Z</time>
      </trkpt>
      <trkpt lat="47.34004" lon="2.98775">
        <ele>174.5322265625</ele>
        <time>2016-03-30T14:43:19.000Z</time>
      </trkpt>
      <trkpt lat="47.34006" lon="2.98779">
        <ele>174.48651123047</ele>
        <time>2016-03-30T14:43:22.000Z</time>
      </trkpt>
      <trkpt lat="47.34008" lon="2.98782">
        <ele>174.42404174805</ele>
        <time>2016-03-30T14:43:25.000Z</time>
      </trkpt>
      <trkpt lat="47.3401" lon="2.98786">
        <ele>174.34442138672</ele>
        <time>2016-03-30T14:43:27.000Z</time>
      </trkpt>
      <trkpt lat="47.34011" lon="2.98789">
        <ele>174.26928710938</ele>
        <time>2016-03-30T14:43:30.000Z</time>
      </trkpt>
      <trkpt lat="47.34012" lon="2.98792">
        <ele>174.19595336914</ele>
        <time>2016-03-30T14:43:32.000Z</time>
      </trkpt>
      <trkpt lat="47.34015" lon="2.98795">
        <ele>174.12962341309</ele>
        <time>2016-03-30T14:43:35.000Z</time>
      </trkpt>
      <trkpt lat="47.34017" lon="2.98798">
        <ele>174.06784057617</ele>
        <time>2016-03-30T14:43:37.000Z</time>
      </trkpt>
      <trkpt lat="47.34019" lon="2.98802">
        <ele>174.01072692871</ele>
        <time>2016-03-30T14:43:40.000Z</time>
      </trkpt>
      <trkpt lat="47.34022" lon="2.98805">
        <ele>173.95617675781</ele>
        <time>2016-03-30T14:43:43.000Z</time>
      </trkpt>
      <trkpt lat="47.34024" lon="2.98808">
        <ele>173.90567016602</ele>
        <time>2016-03-30T14:43:46.000Z</time>
      </trkpt>
      <trkpt lat="47.34026" lon="2.9881">
        <ele>173.85981750488</ele>
        <time>2016-03-30T14:43:48.000Z</time>
      </trkpt>
      <trkpt lat="47.34027" lon="2.98813">
        <ele>173.81442260742</ele>
        <time>2016-03-30T14:43:51.000Z</time>
      </trkpt>
      <trkpt lat="47.34029" lon="2.98817">
        <ele>173.76640319824</ele>
        <time>2016-03-30T14:43:54.000Z</time>
      </trkpt>
      <trkpt lat="47.34031" lon="2.98821">
        <ele>173.71740722656</ele>
        <time>2016-03-30T14:43:56.000Z</time>
      </trkpt>
      <trkpt lat="47.34033" lon="2.98825">
        <ele>173.66723632812</ele>
        <time>2016-03-30T14:44:00.000Z</time>
      </trkpt>
      <trkpt lat="47.34034" lon="2.98827">
        <ele>173.61686706543</ele>
        <time>2016-03-30T14:44:01.000Z</time>
      </trkpt>
      <trkpt lat="47.34036" lon="2.98831">
        <ele>173.56648254395</ele>
        <time>2016-03-30T14:44:03.000Z</time>
      </trkpt>
      <trkpt lat="47.34038" lon="2.98835">
        <ele>173.52450561523</ele>
        <time>2016-03-30T14:44:06.000Z</time>
      </trkpt>
      <trkpt lat="47.34039" lon="2.98838">
        <ele>173.49758911133</ele>
        <time>2016-03-30T14:44:08.000Z</time>
      </trkpt>
      <trkpt lat="47.3404" lon="2.98842">
        <ele>173.482421875</ele>
        <time>2016-03-30T14:44:11.000Z</time>
      </trkpt>
      <trkpt lat="47.34042" lon="2.98848">
        <ele>173.47862243652</ele>
        <time>2016-03-30T14:44:14.000Z</time>
      </trkpt>
      <trkpt lat="47.34044" lon="2.98852">
        <ele>173.48910522461</ele>
        <time>2016-03-30T14:44:17.000Z</time>
      </trkpt>
      <trkpt lat="47.34045" lon="2.98854">
        <ele>173.51016235352</ele>
        <time>2016-03-30T14:44:19.000Z</time>
      </trkpt>
      <trkpt lat="47.34046" lon="2.98857">
        <ele>173.53352355957</ele>
        <time>2016-03-30T14:44:21.000Z</time>
      </trkpt>
      <trkpt lat="47.34048" lon="2.98861">
        <ele>173.56600952148</ele>
        <time>2016-03-30T14:44:24.000Z</time>
      </trkpt>
      <trkpt lat="47.3405" lon="2.98864">
        <ele>173.59684753418</ele>
        <time>2016-03-30T14:44:26.000Z</time>
      </trkpt>
      <trkpt lat="47.34052" lon="2.98868">
        <ele>173.63473510742</ele>
        <time>2016-03-30T14:44:29.000Z</time>
      </trkpt>
      <trkpt lat="47.34053" lon="2.98871">
        <ele>173.6752166748</ele>
        <time>2016-03-30T14:44:31.000Z</time>
      </trkpt>
      <trkpt lat="47.34053" lon="2.98876">
        <ele>173.71571350098</ele>
        <time>2016-03-30T14:44:34.000Z</time>
      </trkpt>
      <trkpt lat="47.34054" lon="2.98879">
        <ele>173.74955749512</ele>
        <time>2016-03-30T14:44:36.000Z</time>
      </trkpt>
      <trkpt lat="47.34054" lon="2.98883">
        <ele>173.7836151123</ele>
        <time>2016-03-30T14:44:38.000Z</time>
      </trkpt>
      <trkpt lat="47.34055" lon="2.98888">
        <ele>173.80871582031</ele>
        <time>2016-03-30T14:44:41.000Z</time>
      </trkpt>
      <trkpt lat="47.34054" lon="2.98892">
        <ele>173.82719421387</ele>
        <time>2016-03-30T14:44:44.000Z</time>
      </trkpt>
      <trkpt lat="47.34053" lon="2.98894">
        <ele>173.83963012695</ele>
        <time>2016-03-30T14:44:47.000Z</time>
      </trkpt>
      <trkpt lat="47.34053" lon="2.98897">
        <ele>173.85021972656</ele>
        <time>2016-03-30T14:44:50.000Z</time>
      </trkpt>
      <trkpt lat="47.34053" lon="2.98902">
        <ele>173.85391235352</ele>
        <time>2016-03-30T14:44:53.000Z</time>
      </trkpt>
      <trkpt lat="47.34052" lon="2.98906">
        <ele>173.84870910645</ele>
        <time>2016-03-30T14:44:56.000Z</time>
      </trkpt>
      <trkpt lat="47.34052" lon="2.98913">
        <ele>173.84664916992</ele>
        <time>2016-03-30T14:44:59.000Z</time>
      </trkpt>
      <trkpt lat="47.34052" lon="2.98917">
        <ele>173.85034179688</ele>
        <time>2016-03-30T14:45:01.000Z</time>
      </trkpt>
      <trkpt lat="47.34052" lon="2.98923">
        <ele>173.83093261719</ele>
        <time>2016-03-30T14:45:04.000Z</time>
      </trkpt>
      <trkpt lat="47.34051" lon="2.98927">
        <ele>173.79553222656</ele>
        <time>2016-03-30T14:45:07.000Z</time>
      </trkpt>
      <trkpt lat="47.34052" lon="2.98932">
        <ele>173.75492858887</ele>
        <time>2016-03-30T14:45:10.000Z</time>
      </trkpt>
      <trkpt lat="47.34053" lon="2.98938">
        <ele>173.70120239258</ele>
        <time>2016-03-30T14:45:13.000Z</time>
      </trkpt>
      <trkpt lat="47.34053" lon="2.98943">
        <ele>173.63163757324</ele>
        <time>2016-03-30T14:45:16.000Z</time>
      </trkpt>
      <trkpt lat="47.34055" lon="2.98946">
        <ele>173.58044433594</ele>
        <time>2016-03-30T14:45:18.000Z</time>
      </trkpt>
      <trkpt lat="47.34056" lon="2.98951">
        <ele>173.53935241699</ele>
        <time>2016-03-30T14:45:21.000Z</time>
      </trkpt>
      <trkpt lat="47.34058" lon="2.98954">
        <ele>173.5046081543</ele>
        <time>2016-03-30T14:45:23.000Z</time>
      </trkpt>
      <trkpt lat="47.34058" lon="2.98959">
        <ele>173.46762084961</ele>
        <time>2016-03-30T14:45:26.000Z</time>
      </trkpt>
      <trkpt lat="47.34059" lon="2.98964">
        <ele>173.42924499512</ele>
        <time>2016-03-30T14:45:28.000Z</time>
      </trkpt>
      <trkpt lat="47.34061" lon="2.98968">
        <ele>173.38539123535</ele>
        <time>2016-03-30T14:45:31.000Z</time>
      </trkpt>
      <trkpt lat="47.34062" lon="2.98971">
        <ele>173.34373474121</ele>
        <time>2016-03-30T14:45:33.000Z</time>
      </trkpt>
      <trkpt lat="47.34064" lon="2.98977">
        <ele>173.29553222656</ele>
        <time>2016-03-30T14:45:36.000Z</time>
      </trkpt>
      <trkpt lat="47.34066" lon="2.98979">
        <ele>173.25636291504</ele>
        <time>2016-03-30T14:45:38.000Z</time>
      </trkpt>
      <trkpt lat="47.34067" lon="2.98983">
        <ele>173.21501159668</ele>
        <time>2016-03-30T14:45:42.000Z</time>
      </trkpt>
      <trkpt lat="47.34068" lon="2.98986">
        <ele>173.17472839355</ele>
        <time>2016-03-30T14:45:43.000Z</time>
      </trkpt>
      <trkpt lat="47.3407" lon="2.98991">
        <ele>173.12673950195</ele>
        <time>2016-03-30T14:45:46.000Z</time>
      </trkpt>
      <trkpt lat="47.34072" lon="2.98995">
        <ele>173.07981872559</ele>
        <time>2016-03-30T14:45:48.000Z</time>
      </trkpt>
      <trkpt lat="47.34074" lon="2.99001">
        <ele>173.01676940918</ele>
        <time>2016-03-30T14:45:51.000Z</time>
      </trkpt>
      <trkpt lat="47.34075" lon="2.99004">
        <ele>172.97065734863</ele>
        <time>2016-03-30T14:45:53.000Z</time>
      </trkpt>
      <trkpt lat="47.34077" lon="2.9901">
        <ele>172.93588256836</ele>
        <time>2016-03-30T14:45:56.000Z</time>
      </trkpt>
      <trkpt lat="47.34078" lon="2.99012">
        <ele>172.91665649414</ele>
        <time>2016-03-30T14:45:58.000Z</time>
      </trkpt>
      <trkpt lat="47.34079" lon="2.99013">
        <ele>172.9089050293</ele>
        <time>2016-03-30T14:46:01.000Z</time>
      </trkpt>
      <trkpt lat="47.34082" lon="2.99015">
        <ele>172.92858886719</ele>
        <time>2016-03-30T14:46:03.000Z</time>
      </trkpt>
      <trkpt lat="47.34086" lon="2.99015">
        <ele>172.95567321777</ele>
        <time>2016-03-30T14:46:06.000Z</time>
      </trkpt>
      <trkpt lat="47.34089" lon="2.99014">
        <ele>172.98477172852</ele>
        <time>2016-03-30T14:46:09.000Z</time>
      </trkpt>
      <trkpt lat="47.34093" lon="2.99014">
        <ele>173.0192565918</ele>
        <time>2016-03-30T14:46:12.000Z</time>
      </trkpt>
      <trkpt lat="47.34097" lon="2.99013">
        <ele>173.05938720703</ele>
        <time>2016-03-30T14:46:15.000Z</time>
      </trkpt>
      <trkpt lat="47.34098" lon="2.99012">
        <ele>173.09339904785</ele>
        <time>2016-03-30T14:46:17.000Z</time>
      </trkpt>
      <trkpt lat="47.34101" lon="2.99011">
        <ele>173.12487792969</ele>
        <time>2016-03-30T14:46:20.000Z</time>
      </trkpt>
      <trkpt lat="47.34102" lon="2.99011">
        <ele>173.15274047852</ele>
        <time>2016-03-30T14:46:22.000Z</time>
      </trkpt>
      <trkpt lat="47.34105" lon="2.99008">
        <ele>173.17988586426</ele>
        <time>2016-03-30T14:46:24.000Z</time>
      </trkpt>
      <trkpt lat="47.34107" lon="2.99006">
        <ele>173.20523071289</ele>
        <time>2016-03-30T14:46:27.000Z</time>
      </trkpt>
      <trkpt lat="47.34109" lon="2.99003">
        <ele>173.23593139648</ele>
        <time>2016-03-30T14:46:30.000Z</time>
      </trkpt>
      <trkpt lat="47.34111" lon="2.99">
        <ele>173.26567077637</ele>
        <time>2016-03-30T14:46:33.000Z</time>
      </trkpt>
      <trkpt lat="47.34116" lon="2.98996">
        <ele>173.32417297363</ele>
        <time>2016-03-30T14:46:43.000Z</time>
      </trkpt>
      <trkpt lat="47.34119" lon="2.98994">
        <ele>173.38891601562</ele>
        <time>2016-03-30T14:46:45.000Z</time>
      </trkpt>
      <trkpt lat="47.34121" lon="2.98993">
        <ele>173.46060180664</ele>
        <time>2016-03-30T14:46:47.000Z</time>
      </trkpt>
      <trkpt lat="47.34123" lon="2.98992">
        <ele>173.53332519531</ele>
        <time>2016-03-30T14:46:49.000Z</time>
      </trkpt>
      <trkpt lat="47.34126" lon="2.9899">
        <ele>173.61560058594</ele>
        <time>2016-03-30T14:46:52.000Z</time>
      </trkpt>
      <trkpt lat="47.3413" lon="2.98987">
        <ele>173.69360351562</ele>
        <time>2016-03-30T14:46:55.000Z</time>
      </trkpt>
      <trkpt lat="47.34133" lon="2.98986">
        <ele>173.77062988281</ele>
        <time>2016-03-30T14:46:57.000Z</time>
      </trkpt>
      <trkpt lat="47.34137" lon="2.98985">
        <ele>173.84838867188</ele>
        <time>2016-03-30T14:46:59.000Z</time>
      </trkpt>
      <trkpt lat="47.34142" lon="2.98983">
        <ele>173.93774414062</ele>
        <time>2016-03-30T14:47:02.000Z</time>
      </trkpt>
      <trkpt lat="47.34147" lon="2.98981">
        <ele>174.03259277344</ele>
        <time>2016-03-30T14:47:05.000Z</time>
      </trkpt>
      <trkpt lat="47.3415" lon="2.98981">
        <ele>174.109375</ele>
        <time>2016-03-30T14:47:07.000Z</time>
      </trkpt>
      <trkpt lat="47.34151" lon="2.9898">
        <ele>174.18029785156</ele>
        <time>2016-03-30T14:47:10.000Z</time>
      </trkpt>
      <trkpt lat="47.34153" lon="2.98979">
        <ele>174.24487304688</ele>
        <time>2016-03-30T14:47:12.000Z</time>
      </trkpt>
      <trkpt lat="47.34156" lon="2.9898">
        <ele>174.294921875</ele>
        <time>2016-03-30T14:47:15.000Z</time>
      </trkpt>
      <trkpt lat="47.34158" lon="2.9898">
        <ele>174.32861328125</ele>
        <time>2016-03-30T14:47:17.000Z</time>
      </trkpt>
      <trkpt lat="47.34163" lon="2.9898">
        <ele>174.36267089844</ele>
        <time>2016-03-30T14:47:20.000Z</time>
      </trkpt>
      <trkpt lat="47.34165" lon="2.98979">
        <ele>174.39868164062</ele>
        <time>2016-03-30T14:47:22.000Z</time>
      </trkpt>
      <trkpt lat="47.34169" lon="2.98979">
        <ele>174.42630004883</ele>
        <time>2016-03-30T14:47:25.000Z</time>
      </trkpt>
      <trkpt lat="47.34172" lon="2.98978">
        <ele>174.43782043457</ele>
        <time>2016-03-30T14:47:27.000Z</time>
      </trkpt>
      <trkpt lat="47.34174" lon="2.98976">
        <ele>174.4395904541</ele>
        <time>2016-03-30T14:47:29.000Z</time>
      </trkpt>
      <trkpt lat="47.34178" lon="2.98976">
        <ele>174.41732788086</ele>
        <time>2016-03-30T14:47:32.000Z</time>
      </trkpt>
      <trkpt lat="47.3418" lon="2.98977">
        <ele>174.37023925781</ele>
        <time>2016-03-30T14:47:34.000Z</time>
      </trkpt>
      <trkpt lat="47.34183" lon="2.98979">
        <ele>174.30967712402</ele>
        <time>2016-03-30T14:47:36.000Z</time>
      </trkpt>
      <trkpt lat="47.34187" lon="2.9898">
        <ele>174.23905944824</ele>
        <time>2016-03-30T14:47:39.000Z</time>
      </trkpt>
      <trkpt lat="47.34188" lon="2.98982">
        <ele>174.16041564941</ele>
        <time>2016-03-30T14:47:41.000Z</time>
      </trkpt>
      <trkpt lat="47.34192" lon="2.98983">
        <ele>174.08206176758</ele>
        <time>2016-03-30T14:47:44.000Z</time>
      </trkpt>
      <trkpt lat="47.34193" lon="2.98983">
        <ele>174.01281738281</ele>
        <time>2016-03-30T14:47:46.000Z</time>
      </trkpt>
      <trkpt lat="47.34195" lon="2.98985">
        <ele>173.94805908203</ele>
        <time>2016-03-30T14:47:48.000Z</time>
      </trkpt>
      <trkpt lat="47.34198" lon="2.98988">
        <ele>173.88534545898</ele>
        <time>2016-03-30T14:47:51.000Z</time>
      </trkpt>
      <trkpt lat="47.342" lon="2.98991">
        <ele>173.82348632812</ele>
        <time>2016-03-30T14:47:53.000Z</time>
      </trkpt>
      <trkpt lat="47.34201" lon="2.98993">
        <ele>173.76792907715</ele>
        <time>2016-03-30T14:47:56.000Z</time>
      </trkpt>
      <trkpt lat="47.34203" lon="2.98995">
        <ele>173.71032714844</ele>
        <time>2016-03-30T14:47:59.000Z</time>
      </trkpt>
      <trkpt lat="47.34204" lon="2.98996">
        <ele>173.65776062012</ele>
        <time>2016-03-30T14:48:01.000Z</time>
      </trkpt>
      <trkpt lat="47.34206" lon="2.98998">
        <ele>173.61340332031</ele>
        <time>2016-03-30T14:48:04.000Z</time>
      </trkpt>
      <trkpt lat="47.3421" lon="2.98999">
        <ele>173.57246398926</ele>
        <time>2016-03-30T14:48:07.000Z</time>
      </trkpt>
      <trkpt lat="47.34212" lon="2.98997">
        <ele>173.53451538086</ele>
        <time>2016-03-30T14:48:09.000Z</time>
      </trkpt>
      <trkpt lat="47.34217" lon="2.9899">
        <ele>173.49641418457</ele>
        <time>2016-03-30T14:48:12.000Z</time>
      </trkpt>
      <trkpt lat="47.34218" lon="2.98987">
        <ele>173.46076965332</ele>
        <time>2016-03-30T14:48:14.000Z</time>
      </trkpt>
      <trkpt lat="47.3422" lon="2.98984">
        <ele>173.43109130859</ele>
        <time>2016-03-30T14:48:16.000Z</time>
      </trkpt>
      <trkpt lat="47.34222" lon="2.98982">
        <ele>173.40086364746</ele>
        <time>2016-03-30T14:48:18.000Z</time>
      </trkpt>
      <trkpt lat="47.34226" lon="2.98977">
        <ele>173.35929870605</ele>
        <time>2016-03-30T14:48:21.000Z</time>
      </trkpt>
      <trkpt lat="47.34229" lon="2.98972">
        <ele>173.31031799316</ele>
        <time>2016-03-30T14:48:24.000Z</time>
      </trkpt>
      <trkpt lat="47.34231" lon="2.9897">
        <ele>173.25120544434</ele>
        <time>2016-03-30T14:48:26.000Z</time>
      </trkpt>
      <trkpt lat="47.34234" lon="2.98965">
        <ele>173.17825317383</ele>
        <time>2016-03-30T14:48:29.000Z</time>
      </trkpt>
      <trkpt lat="47.34235" lon="2.98962">
        <ele>173.1021270752</ele>
        <time>2016-03-30T14:48:31.000Z</time>
      </trkpt>
      <trkpt lat="47.34237" lon="2.98959">
        <ele>173.02909851074</ele>
        <time>2016-03-30T14:48:33.000Z</time>
      </trkpt>
      <trkpt lat="47.34238" lon="2.98957">
        <ele>172.962890625</ele>
        <time>2016-03-30T14:48:36.000Z</time>
      </trkpt>
      <trkpt lat="47.3424" lon="2.98954">
        <ele>172.89323425293</ele>
        <time>2016-03-30T14:48:39.000Z</time>
      </trkpt>
      <trkpt lat="47.34242" lon="2.98951">
        <ele>172.82453918457</ele>
        <time>2016-03-30T14:48:42.000Z</time>
      </trkpt>
      <trkpt lat="47.34243" lon="2.98948">
        <ele>172.75302124023</ele>
        <time>2016-03-30T14:48:45.000Z</time>
      </trkpt>
      <trkpt lat="47.34246" lon="2.98948">
        <ele>172.68002319336</ele>
        <time>2016-03-30T14:48:48.000Z</time>
      </trkpt>
      <trkpt lat="47.34249" lon="2.98948">
        <ele>172.59202575684</ele>
        <time>2016-03-30T14:48:50.000Z</time>
      </trkpt>
      <trkpt lat="47.34252" lon="2.98948">
        <ele>172.50106811523</ele>
        <time>2016-03-30T14:48:53.000Z</time>
      </trkpt>
      <trkpt lat="47.34254" lon="2.98949">
        <ele>172.41748046875</ele>
        <time>2016-03-30T14:48:56.000Z</time>
      </trkpt>
      <trkpt lat="47.34256" lon="2.98951">
        <ele>172.33638000488</ele>
        <time>2016-03-30T14:48:59.000Z</time>
      </trkpt>
      <trkpt lat="47.34258" lon="2.98952">
        <ele>172.25961303711</ele>
        <time>2016-03-30T14:49:01.000Z</time>
      </trkpt>
      <trkpt lat="47.34264" lon="2.98953">
        <ele>172.16741943359</ele>
        <time>2016-03-30T14:49:04.000Z</time>
      </trkpt>
      <trkpt lat="47.34267" lon="2.98953">
        <ele>172.06842041016</ele>
        <time>2016-03-30T14:49:07.000Z</time>
      </trkpt>
      <trkpt lat="47.34269" lon="2.98954">
        <ele>171.96820068359</ele>
        <time>2016-03-30T14:49:09.000Z</time>
      </trkpt>
      <trkpt lat="47.34272" lon="2.98956">
        <ele>171.86773681641</ele>
        <time>2016-03-30T14:49:12.000Z</time>
      </trkpt>
      <trkpt lat="47.34273" lon="2.98955">
        <ele>171.76318359375</ele>
        <time>2016-03-30T14:49:15.000Z</time>
      </trkpt>
      <trkpt lat="47.34275" lon="2.98956">
        <ele>171.69372558594</ele>
        <time>2016-03-30T14:49:17.000Z</time>
      </trkpt>
      <trkpt lat="47.34277" lon="2.98959">
        <ele>171.63763427734</ele>
        <time>2016-03-30T14:49:20.000Z</time>
      </trkpt>
      <trkpt lat="47.34279" lon="2.98959">
        <ele>171.57751464844</ele>
        <time>2016-03-30T14:49:23.000Z</time>
      </trkpt>
      <trkpt lat="47.34284" lon="2.98956">
        <ele>171.48748779297</ele>
        <time>2016-03-30T14:49:26.000Z</time>
      </trkpt>
      <trkpt lat="47.34287" lon="2.98955">
        <ele>171.38916015625</ele>
        <time>2016-03-30T14:49:28.000Z</time>
      </trkpt>
      <trkpt lat="47.34292" lon="2.98955">
        <ele>171.26068115234</ele>
        <time>2016-03-30T14:49:31.000Z</time>
      </trkpt>
      <trkpt lat="47.34295" lon="2.98956">
        <ele>171.12664794922</ele>
        <time>2016-03-30T14:49:33.000Z</time>
      </trkpt>
      <trkpt lat="47.34298" lon="2.98959">
        <ele>170.99279785156</ele>
        <time>2016-03-30T14:49:36.000Z</time>
      </trkpt>
      <trkpt lat="47.343" lon="2.9896">
        <ele>170.8916015625</ele>
        <time>2016-03-30T14:49:38.000Z</time>
      </trkpt>
      <trkpt lat="47.34302" lon="2.98963">
        <ele>170.80499267578</ele>
        <time>2016-03-30T14:49:41.000Z</time>
      </trkpt>
      <trkpt lat="47.34304" lon="2.98967">
        <ele>170.74755859375</ele>
        <time>2016-03-30T14:49:44.000Z</time>
      </trkpt>
      <trkpt lat="47.34304" lon="2.98969">
        <ele>170.71539306641</ele>
        <time>2016-03-30T14:49:58.000Z</time>
      </trkpt>
      <trkpt lat="47.34304" lon="2.98971">
        <ele>170.69720458984</ele>
        <time>2016-03-30T14:50:14.000Z</time>
      </trkpt>
      <trkpt lat="47.34304" lon="2.98971">
        <ele>170.69720458984</ele>
        <time>2016-03-30T14:50:34.000Z</time>
      </trkpt>
      <trkpt lat="47.34303" lon="2.9897">
        <ele>170.69451904297</ele>
        <time>2016-03-30T14:51:05.000Z</time>
      </trkpt>
      <trkpt lat="47.34303" lon="2.9897">
        <ele>170.69451904297</ele>
        <time>2016-03-30T14:51:10.000Z</time>
      </trkpt>
    </trkseg>
  </trk>
</gpx>